.

MPMG - Transparência

Contracheque - Remuneração de todos os servidores ativos - Pré Resolução CNMP 200/2019

Período: 2019 - Dezembro

Ordem Matrícula Nome Cargo Efetivo Situação Unidade Administrativa Rendimentos Descontos Rendimento Líquido Total Indenizações Outras Remunerações Retroativas/Temporárias Data de Referência
Remuneração Básica Remuneração Eventual ou Temporária Total de Rendimentos Brutos Obrigatórios/Legais Total de Descontos
Remuneração do Cargo Efetivo Outras Verbas Remuneratórias Função de Confiança ou Cargo em Comissão Gratificação Natalina Férias Abono de Permanência Contribuição Previdenciária Imposto de Renda Retenção por Teto Constitucional
1 498900 ABDON MARCIO BARBOSA DA SILVA OFICIAL DO MP ATIVO ABRE CAMPO - COMARCA; ABRE CAMPO-PJ-01PJ 5.158,42 515,84 0,00 1.887,30 0,00 0,00 7.561,56 643,86 415,14 0,00 1.059,00 6.502,56 1.550,00 338,25 31/12/2019
2 177800 ADALBERTO MENEZES FARIA SAMORA OFICIAL DO MP ATIVO BELO HORIZONTE - COMARCA; DIR ESTRUTURA E PROCESSOS ORGANIZACIONAIS 13.715,83 5.486,33 0,00 3.844,68 0,00 0,00 23.046,84 2.324,96 3.726,09 0,00 6.051,05 16.995,79 1.550,00 4.112,23 31/12/2019
3 306400 ADALBERTO MOREIRA GONCALVES ANALISTA DO MP ATIVO BELO HORIZONTE - COMARCA; BH-24PJ JUIZO REGIONAL DO BARREIRO 14.162,21 4.248,66 0,00 3.833,68 0,00 0,00 22.244,55 2.084,12 3.636,70 0,00 5.720,82 16.523,73 1.550,00 1.012,40 31/12/2019
4 179300 ADENISE AUXILIADORA SOUZA SAD OFICIAL DO MP ATIVO BARBACENA - COMARCA; BARBACENA-PJ-06PJ 13.283,29 5.313,32 0,00 6.568,55 0,00 0,00 25.165,16 2.365,83 3.577,89 0,00 5.943,72 19.221,44 1.550,00 5.944,23 31/12/2019
5 272200 ADILSON BATISTA ORNELAS OFICIAL DO MP ATIVO LAVRAS - COMARCA; LAVRAS-PJ-SECRETARIA 4.763,08 952,62 0,00 1.751,70 0,00 0,00 7.467,40 628,73 477,42 0,00 1.106,15 6.361,25 1.550,00 0,00 31/12/2019
6 380100 ADILSON GONCALVES DE MELO JUNIOR ANALISTA DO MP ATIVO ARAXÁ - COMARCA; ARAXA-PJ-05PJ 9.337,87 1.867,57 0,00 2.601,22 3.735,15 0,00 17.541,81 1.232,60 2.796,06 0,00 4.028,66 13.513,15 2.319,39 0,00 31/12/2019
7 148800 ADILSON JANUARIO OFICIAL DO MP ATIVO BELO HORIZONTE - COMARCA; BH-22PJ PES COM DEF E IDOSOS-SECRETARIA 14.941,94 10.459,36 0,00 4.663,18 0,00 0,00 30.064,48 2.900,55 5.243,33 0,00 8.143,88 21.920,60 1.550,00 1.828,29 31/12/2019
8 322601 ADMILSON SILVEIRA ANALISTA DO MP ATIVO SAO JOAO DO PARAISO COMARCA; SAO JOAO DO PARAISO-PJ-UNPJ 7.576,76 757,68 0,00 2.035,91 0,00 0,00 10.370,35 977,99 1.170,49 0,00 2.148,48 8.221,87 1.550,00 1.051,42 31/12/2019
9 333700 ADRIANA ABRITTA TEIXEIRA OFICIAL DO MP ATIVO BELO HORIZONTE - COMARCA; DIRET DE PESSOAL DO MINISTERIO PUBLICO - DPMP 9.337,87 1.867,57 0,00 3.010,34 0,00 0,00 14.215,78 1.345,55 1.873,17 0,00 3.218,72 10.997,06 1.550,00 1.940,61 31/12/2019
10 468500 ADRIANA APARECIDA FIRMINO ANALISTA DO MP ATIVO CARATINGA - COMARCA; CARATINGA-PJ-04PJ 9.337,87 933,79 0,00 2.413,46 0,00 0,00 12.685,12 1.129,88 1.592,49 0,00 2.722,37 9.962,75 2.319,39 0,00 31/12/2019
11 326100 ADRIANA AUGUSTA AMARAL BELO OFICIAL DO MP ATIVO BARBACENA - COMARCA; BARBACENA-PJ-08PJ 9.337,87 1.867,57 0,00 3.114,61 0,00 0,00 14.320,05 1.345,55 1.768,90 0,00 3.114,45 11.205,60 1.550,00 1.940,61 31/12/2019
12 605700 ADRIANA COSTA LIRA ASSESSOR/OFICIAL ATIVO BELO HORIZONTE - COMARCA; COORD ESTADUAL DE DEFESA DA EDUCACAO 0,00 757,68 7.576,76 2.275,32 0,00 0,00 10.609,76 630,28 1.249,28 0,00 1.879,56 8.730,20 1.550,00 0,00 31/12/2019
13 541100 ADRIANA CRISTINA DE OLIVEIRA OFICIAL DO MP ATIVO GUAPÉ - COMARCA; GUAPE-PJ-UNPJ 4.612,94 461,29 0,00 4.178,73 0,00 0,00 9.252,96 575,77 337,33 0,00 913,10 8.339,86 2.319,39 302,40 31/12/2019
14 254800 ADRIANA DAS GRACAS FERNANDES ANALISTA DO MP ATIVO UBERABA - COMARCA; UBERABA-PJ-07PJ 16.148,50 11.303,95 0,00 5.431,65 0,00 0,00 32.884,10 3.134,76 5.797,49 0,00 8.932,25 23.951,85 1.550,00 1.975,77 31/12/2019
15 217400 ADRIANA DE CARVALHO CATAO BRAGA ASSESSOR ATIVO BELO HORIZONTE - COMARCA; DIV FISCAL ADM CONT TERCEIRIZACAO 0,00 2.273,03 7.576,76 3.262,20 0,00 0,00 13.111,99 1.284,68 1.965,19 0,00 3.249,87 9.862,12 1.550,00 0,00 31/12/2019
16 434600 ADRIANA FERREIRA DA SILVA ANALISTA DO MP ATIVO BELO HORIZONTE - COMARCA; BH-14PJ DEFESA CONSUMIDOR-GAB 112PJ 11.317,16 2.263,43 0,00 3.978,25 0,00 0,00 17.558,84 1.619,36 2.454,49 0,00 4.073,85 13.484,99 1.550,00 2.156,30 31/12/2019
17 499800 ADRIANA FERREIRA TIAGO OFICIAL DO MP ATIVO SALINAS - COMARCA; SALINAS-PJ-02PJ 6.054,65 605,47 0,00 1.836,74 0,00 0,00 8.496,86 755,71 760,71 0,00 1.516,42 6.980,44 1.550,00 396,96 31/12/2019
18 543400 ADRIANA GUIMARAES NUNES DE PAULA ANALISTA DO MP ATIVO PATROCÍNIO - COMARCA; PATROCINIO-PJ-01PJ 7.823,48 782,35 0,00 2.255,05 0,00 0,00 10.860,88 976,49 1.236,92 0,00 2.213,41 8.647,47 1.550,00 512,93 31/12/2019
19 471500 ADRIANA HORTA DE CARVALHO RODRIGUES DE SOUSA ANALISTA DO MP ATIVO BELO HORIZONTE - COMARCA; GRUPO ESP PROM JUST DEF PROB ADM PAT PUB 9.337,87 933,79 0,00 7.549,29 0,00 0,00 17.820,95 1.129,88 1.592,49 0,00 2.722,37 15.098,58 1.550,00 0,00 31/12/2019
20 86400 ADRIANA MOREIRA CALDEIRA BRANT OFICIAL DO MP ATIVO BELO HORIZONTE - COMARCA; EXTINTA-TUTELA DAS FUNDACOES-21 PJ- GABINETE 13.283,29 9.298,31 0,00 4.149,33 0,00 0,00 26.730,93 2.711,62 4.657,49 0,00 7.369,11 19.361,82 1.550,00 3.911,22 31/12/2019
21 480700 ADRIANA MOREIRA DE AVELLAR CEZILIO OFICIAL DO MP ATIVO BELO HORIZONTE - COMARCA; BH-18PJ VIOLENCIA DOMESTICA-SECRETARIA 5.158,42 515,84 0,00 2.317,48 0,00 0,00 7.991,74 643,86 415,14 0,00 1.059,00 6.932,74 1.550,00 338,25 31/12/2019
22 326000 ADRIANA PEREIRA CARNEIRO RESENDE OFICIAL DO MP ATIVO BELO HORIZONTE - COMARCA; BH-25PJ DEFESA DA EDUCAÇÃO 7.955,66 1.591,13 0,00 2.256,02 0,00 0,00 11.802,81 1.067,60 1.467,22 0,00 2.534,82 9.267,99 1.550,00 299,79 31/12/2019
23 502200 ADRIANA PETRUCCI DAVINA OFICIAL DO MP ATIVO PATROCÍNIO - COMARCA; PATROCINIO-PJ-01PJ 6.251,74 625,17 0,00 1.868,23 0,00 0,00 8.745,14 780,31 813,76 0,00 1.594,07 7.151,07 2.319,39 482,02 31/12/2019
24 201900 ADRIANA REIS PIMENTA OFICIAL DO MP ATIVO TEÓFILO OTONI - COMARCA; TEOFILO OTONI-PJ-03PJ 13.283,29 5.313,32 0,00 4.422,63 0,00 0,00 23.019,24 2.233,10 3.682,16 0,00 5.915,26 17.103,98 1.550,00 3.789,07 31/12/2019
25 278700 ADRIANA RODRIGUES PINTO COELHO AMARAL ANALISTA DO MP ATIVO BELO HORIZONTE - COMARCA; CGMP-ASSESSORIA JURIDICA 15.533,57 4.660,07 0,00 4.746,00 0,00 0,00 24.939,64 2.417,40 4.020,90 0,00 6.438,30 18.501,34 1.550,00 3.369,44 31/12/2019
26 468000 ADRIANA SANTOS DE SANTANA MOREIRA ANALISTA DO MP ATIVO ARAÇUAÍ - COMARCA; ARACUAI-PJ-02PJ 9.337,87 2.801,36 0,00 2.736,85 0,00 0,00 14.876,08 1.335,32 1.997,44 0,00 3.332,76 11.543,32 1.960,34 0,00 31/12/2019
27 194700 ADRIANA TSUKIDE OFICIAL DO MP ATIVO UBERABA - COMARCA; COORD REG BACIAS PARANAIBA BAIXO RIO GRANDE 13.283,29 5.313,32 0,00 12.063,86 0,00 0,00 30.660,47 2.365,83 3.630,02 0,00 5.995,85 24.664,62 7.500,92 6.046,96 31/12/2019
28 465500 ADRIANO CASSIANO MATOS ANALISTA DO MP ATIVO ARAXÁ - COMARCA; ARAXA-PJ-02PJ 9.337,87 933,79 0,00 2.361,32 0,00 0,00 12.632,98 1.129,88 1.644,63 0,00 2.774,51 9.858,47 1.550,00 0,00 31/12/2019
29 500500 ADRIANO DE ALMEIDA SILVA OFICIAL DO MP ATIVO UBERABA - COMARCA; UBERABA-PJ-12PJ 6.251,74 625,17 0,00 1.868,23 0,00 0,00 8.745,14 780,31 813,76 0,00 1.594,07 7.151,07 2.319,39 409,75 31/12/2019
30 187200 ADRIANO DE FREITAS MARON OFICIAL DO MP ATIVO PONTE NOVA - COMARCA; PONTE NOVA-PJ-03PJ 10.279,98 8.223,98 0,00 5.032,75 0,00 2.035,44 25.572,15 2.099,61 4.219,23 0,00 6.318,84 19.253,31 1.550,00 1.230,85 31/12/2019
31 477900 ADRIANO FERREIRA DE ALMEIDA OFICIAL DO MP ATIVO TAIOBEIRAS - COMARCA; TAIOBEIRAS-PJ-UNPJ 6.882,47 688,25 0,00 5.858,64 0,00 0,00 13.429,36 909,10 879,30 0,00 1.788,40 11.640,96 1.935,12 1.311,28 31/12/2019
32 269101 ADRIANO PEREIRA SILVA ANALISTA DO MP ATIVO UBERABA - COMARCA; UBERABA-PJ-02PJ 9.337,87 933,79 0,00 2.517,73 0,00 0,00 12.789,39 1.129,88 1.488,22 0,00 2.618,10 10.171,29 2.319,39 0,00 31/12/2019
33 414200 ADRIANO RODRIGUES FERNANDES ANALISTA DO MP ATIVO CARANDAÍ - COMARCA; CARANDAI-PJ-UNPJ 9.043,46 1.808,69 0,00 2.602,04 0,00 0,00 13.454,19 1.231,37 1.630,29 0,00 2.861,66 10.592,53 1.550,00 646,61 31/12/2019
34 536700 ADRIELLE COSTA MARIA MOURAO FIGUEIREDO OFICIAL DO MP ATIVO SERRO - COMARCA; SERRO-PJ-SECRETARIA 4.612,94 461,29 0,00 2.123,23 0,00 0,00 7.197,46 575,77 379,98 0,00 955,75 6.241,71 2.319,39 302,40 31/12/2019
35 514300 ADRIENE DAMASCENO BRAGA ANALISTA DO MP ATIVO ALFENAS - COMARCA; ALFENAS-PJ-03PJ 9.337,87 933,79 0,00 2.361,32 0,00 0,00 12.632,98 1.233,41 1.644,63 0,00 2.878,04 9.754,94 2.319,39 1.778,91 31/12/2019
36 254600 ADRIENE DOMINGUES COSTA ANALISTA DO MP ATIVO BELO HORIZONTE - COMARCA; SUPERINTENDENCIA GESTÃO DE PESSOAS 14.372,91 4.311,87 0,00 4.291,57 0,00 0,00 22.976,35 2.385,23 3.703,74 0,00 6.088,97 16.887,38 0,00 5.668,12 31/12/2019
37 252001 ADRIENE GOMES BARRETO ANALISTA DO MP ATIVO BELO HORIZONTE - COMARCA; BH-19PJ SAUDE-SECRETARIA 150PJ 11.685,57 4.674,23 0,00 3.245,62 0,00 0,00 19.605,42 1.856,31 3.134,70 0,00 4.991,01 14.614,41 1.550,00 974,81 31/12/2019
38 645000 AFONSO CELSO GUIMARAES JUNIOR OFICIAL DO MP ATIVO PIRAPORA - COMARCA; PIRAPORA-PJ-01PJ 3.930,12 235,81 0,00 1.614,28 0,00 0,00 5.780,21 537,49 201,35 0,00 738,84 5.041,37 1.550,00 720,42 31/12/2019
39 302500 AGENOR JOSE DA SILVA JUNIOR ANALISTA DO MP ATIVO JUIZ DE FORA - COMARCA; JUIZ DE FORA-PJ-07PJ 14.162,21 2.832,44 0,00 3.709,93 0,00 0,00 20.704,58 1.928,33 3.185,81 0,00 5.114,14 15.590,44 1.550,00 1.012,40 31/12/2019
40 357500 AILSON WAGNER DE ALENCAR SILVA OFICIAL DO MP ATIVO BELO HORIZONTE - COMARCA; BH-12PJ JUIZO CRIMINAL-SECRETARIA 8.214,70 3.285,88 0,00 4.223,26 0,00 0,00 15.723,84 1.304,95 1.789,00 0,00 3.093,95 12.629,89 1.550,00 685,43 31/12/2019
41 366400 AILTON ALEXSSANDRO ALVES OFICIAL DO MP ATIVO PARÁ DE MINAS - COMARCA; PARA DE MINAS-PJ-05PJ 7.823,48 3.129,39 0,00 7.936,70 0,00 0,00 18.889,57 1.240,10 1.811,35 0,00 3.051,45 15.838,12 1.550,00 606,20 31/12/2019
42 318900 AILTON DE CASTRO RIBEIRO JUNIOR OFICIAL DO MP ATIVO ITAJUBA - COMARCA; ITAJUBA-PJ-01PJ 8.482,22 2.544,67 0,00 3.822,85 0,00 0,00 14.849,74 1.341,57 1.620,92 0,00 2.962,49 11.887,25 2.319,39 2.492,61 31/12/2019
43 464400 ALAN MONTEIRO GASPAR ANALISTA DO MP ATIVO SETE LAGOAS - COMARCA; SETE LAGOAS-PJ-03PJ 9.337,87 933,79 0,00 3.748,58 0,00 0,00 14.020,24 1.129,88 1.644,63 0,00 2.774,51 11.245,73 1.550,00 0,00 31/12/2019
44 670200 ALANA ARAUJO AGUIAR ASSESSOR ATIVO BELO HORIZONTE - COMARCA; ASSESS EXECUTIVA DO CONSELHO SUPERIOR DO MP 0,00 0,00 2.852,73 475,46 0,00 0,00 3.328,19 472,84 172,89 0,00 645,73 2.682,46 1.550,00 0,00 31/12/2019
45 492000 ALANA DE CASTRO FREITAS OFICIAL DO MP ATIVO ITUMIRIM - COMARCA; ITUMIRIM-PJ-SECRETARIA 5.678,79 567,88 0,00 4.900,03 0,00 0,00 11.146,70 687,13 659,51 0,00 1.346,64 9.800,06 1.550,00 0,00 31/12/2019
46 306700 ALANA MARCIA DE OLIVEIRA OFICIAL DO MP ATIVO BELO HORIZONTE - COMARCA; DIRETORIA DE ADMINISTRACAO FINANCEIRA 8.758,36 2.627,51 0,00 3.044,91 0,00 0,00 14.430,78 1.358,41 1.917,33 0,00 3.275,74 11.155,04 1.550,00 1.820,52 31/12/2019
47 324500 ALANMAR COUTINHO COSTA OFICIAL DO MP ATIVO LEOPOLDINA - COMARCA; LEOPOLDINA-PJ-02PJ 8.482,22 1.696,44 0,00 2.612,60 0,00 0,00 12.791,26 1.154,96 1.517,59 0,00 2.672,55 10.118,71 1.550,00 606,73 31/12/2019
48 407300 ALBERTO LUIZ SOARES DE OLIVEIRA ANALISTA DO MP ATIVO BELO HORIZONTE - COMARCA; DIRETORIA DE PROJETOS DE EDIFICACOES 11.317,16 2.263,43 0,00 9.632,24 0,00 0,00 23.212,83 1.630,77 2.454,49 0,00 4.085,26 19.127,57 1.550,00 2.352,33 31/12/2019
49 118200 ALBERTO PEREIRA DA COSTA OFICIAL DO MP ATIVO DORES DO INDAIÁ - COMARCA; DORES DO INDAIA-PJ-UNPJ 14.162,21 11.329,76 0,00 7.111,06 0,00 2.804,12 35.407,15 2.892,50 6.036,66 0,00 8.929,16 26.477,99 1.550,00 1.695,34 31/12/2019
50 282400 ALCILENE MARISE DE ARAUJO ANALISTA DO MP ATIVO BELO HORIZONTE - COMARCA; BH-23PJ INF-FISC MED SOC FEC 15.533,57 4.660,07 0,00 4.798,14 0,00 0,00 24.991,78 2.417,40 3.968,76 0,00 6.386,16 18.605,62 1.550,00 3.369,44 31/12/2019
51 112600 ALCIONE DA MOTA JARDIM OFICIAL DO MP ATIVO BELO HORIZONTE - COMARCA; CAO-CRIANCAS E ADOLESCENTES-SECRETARIA 11.317,16 5.658,58 0,00 3.387,22 0,00 0,00 20.362,96 1.926,22 3.233,32 0,00 5.159,54 15.203,42 1.550,00 1.190,26 31/12/2019
52 396400 ALCIONE DE FREITAS E SILVA ANALISTA DO MP ATIVO BELO HORIZONTE - COMARCA; ASSESS JUR DO CONS SUPERIOR DO MINISTERIO PUB 11.685,57 4.674,23 0,00 5.712,76 0,00 0,00 22.072,56 1.856,31 3.134,70 0,00 4.991,01 17.081,55 1.550,00 974,81 31/12/2019
53 657400 ALCIONE MARIA FERREIRA ASSESSOR ATIVO BELO HORIZONTE - COMARCA; PROC JUST RECURSOS ESP E EXTRAORD CRIMINAIS 0,00 0,00 9.641,94 3.215,44 0,00 0,00 12.857,38 1.284,68 1.908,03 0,00 3.192,71 9.664,67 1.550,00 0,00 31/12/2019
54 161600 ALCIONE NERY SOUZA ASSESSOR ATIVO BELO HORIZONTE - COMARCA; BH-18PJ DIREITOS HUMANOS-SECRETARIA 0,00 3.788,38 7.576,76 3.603,16 0,00 0,00 14.968,30 1.284,68 2.381,91 0,00 3.666,59 11.301,71 1.550,00 0,00 31/12/2019
55 376000 ALDA GOMES LANA OFICIAL DO MP ATIVO BELO HORIZONTE - COMARCA; BH-18PJ VIOLENCIA DOMESTICA-SECRETARIA 7.955,66 1.591,13 0,00 2.678,85 0,00 0,00 12.225,64 1.131,70 1.415,08 0,00 2.546,78 9.678,86 1.550,00 1.401,19 31/12/2019
56 148000 ALDA MARTINS SIMOES OFICIAL DO MP ATIVO BELO HORIZONTE - COMARCA; BH-23PJ CIVEL- FISC ENT AB POL 15.533,57 7.766,79 0,00 5.282,26 0,00 0,00 28.582,62 2.789,31 4.833,40 0,00 7.622,71 20.959,91 1.550,00 3.887,81 31/12/2019
57 318400 ALDO CREPALDI JUNIOR OFICIAL DO MP ATIVO BELO HORIZONTE - COMARCA; DIVISAO DE MATERIAIS 7.955,66 2.386,70 0,00 3.540,78 0,00 0,00 13.883,14 1.242,62 1.609,80 0,00 2.852,42 11.030,72 1.550,00 2.068,61 31/12/2019
58 604500 ALENIZE APARECIDA RODRIGUES HENRIQUE OFICIAL DO MP ATIVO RIO NOVO - COMARCA; RIO NOVO-PJ-UNPJ 4.467,49 446,75 0,00 2.012,87 0,00 0,00 6.927,11 590,11 347,95 0,00 938,06 5.989,05 1.550,00 1.001,39 31/12/2019
59 197900 ALESSA DE SOUSA E SILVA OFICIAL DO MP ATIVO OLIVEIRA - COMARCA; OLIVEIRA-PJ-02PJ 13.715,83 5.486,33 0,00 3.844,68 0,00 0,00 23.046,84 2.324,96 3.726,09 0,00 6.051,05 16.995,79 1.664,00 4.112,23 31/12/2019
60 428500 ALESSANDRA ALVES DINIZ OFICIAL DO MP ATIVO BELO HORIZONTE - COMARCA; CENTRAL DE APOIO TECNICO-SECRETARIA 5.326,33 2.663,17 0,00 6.024,58 0,00 0,00 14.014,08 904,71 1.086,07 0,00 1.990,78 12.023,30 1.550,00 444,28 31/12/2019
61 286801 ALESSANDRA BOTELHO JUNQUEIRA DE MENEZES ANALISTA DO MP ATIVO PASSOS - COMARCA; PASSOS-PJ-05PJ 11.685,57 3.505,67 0,00 3.523,89 0,00 0,00 18.715,13 1.723,72 2.640,15 0,00 4.363,87 14.351,26 3.088,78 905,18 31/12/2019
62 307000 ALESSANDRA CRISTINA SANTOS MENDES ANALISTA DO MP ATIVO BELO HORIZONTE - COMARCA; BH-18PJ VIOLENCIA DOMESTICA 10.960,26 3.288,08 0,00 5.478,86 0,00 0,00 19.727,20 1.699,90 2.565,78 0,00 4.265,68 15.461,52 1.550,00 2.277,88 31/12/2019
63 264400 ALESSANDRA DE SOUZA SANTOS ANALISTA DO MP ATIVO BELO HORIZONTE - COMARCA; OUVIDORIA DO MPMG 16.148,50 6.459,40 0,00 4.583,61 0,00 0,00 27.191,51 2.581,57 4.663,92 0,00 7.245,49 19.946,02 1.550,00 1.627,10 31/12/2019
64 441500 ALESSANDRA DRUMMOND DE FIGUEIREDO ROSSI ANALISTA DO MP ATIVO BELO HORIZONTE - COMARCA; DIRETORIA DE PROJETOS DE EDIFICACOES 9.337,87 1.867,57 0,00 2.963,84 0,00 0,00 14.169,28 1.232,60 1.873,17 0,00 3.105,77 11.063,51 1.550,00 0,00 31/12/2019
65 524000 ALESSANDRA LUCIOLI DE BARROS GUERRA ANALISTA DO MP ATIVO BELO HORIZONTE - COMARCA; BH-19PJ SAUDE--SECRETARIA 9.337,87 933,79 0,00 2.988,34 0,00 0,00 13.260,00 1.233,41 1.488,22 0,00 2.721,63 10.538,37 1.550,00 1.778,91 31/12/2019
66 479900 ALESSANDRA MARA ANDRADE DE FARIA OFICIAL DO MP ATIVO UBERABA - COMARCA; UBERABA-PJ-09PJ 6.882,47 688,25 0,00 2.315,91 0,00 0,00 9.886,63 909,10 983,57 0,00 1.892,67 7.993,96 1.550,00 1.311,28 31/12/2019
67 226700 ALESSANDRA MARA VASCONCELOS REZENDE OFICIAL DO MP ATIVO CONSELHEIRO LAFAIETE - COMARCA; CONSELHEIRO LAFAIETE-PJ-07PJ 9.337,87 2.801,36 0,00 3.188,74 0,00 0,00 15.327,97 1.457,68 2.101,72 0,00 3.559,40 11.768,57 1.550,00 2.102,34 31/12/2019
68 112100 ALESSANDRA MARCIA FERREIRA OFICIAL DO MP ATIVO BELO HORIZONTE - COMARCA; BELO HORIZONTE- SECRETARIA DAS PROMOTORIAS 9.337,87 4.668,94 0,00 2.903,84 0,00 0,00 16.910,65 1.540,75 2.558,81 0,00 4.099,56 12.811,09 1.550,00 0,00 31/12/2019
69 196500 ALESSANDRA MARIA RIBEIRO LUCIANO OFICIAL DO MP ATIVO RIO PARANAÍBA - COMARCA; RIO PARANAIBA-PJ-UNPJ 13.283,29 5.313,32 0,00 3.674,78 0,00 0,00 22.271,39 2.233,10 3.577,89 0,00 5.810,99 16.460,40 1.985,99 3.220,99 31/12/2019
70 91400 ALESSANDRA MENDES VASCONCELOS DE SOUZA OFICIAL DO MP ATIVO BELO HORIZONTE - COMARCA; BH-23PJ INF-FISC MED SOC AB 17.452,52 12.216,76 0,00 7.544,95 0,00 3.263,62 40.477,85 3.263,62 7.289,69 0,00 10.553,31 29.924,54 1.550,00 0,00 31/12/2019
71 651700 ALESSANDRA PROFIRIO SOUZA OFICIAL DO MP ATIVO NOVA ERA - COMARCA; NOVA ERA-PJ-UNPJ 3.569,91 0,00 0,00 1.298,92 0,00 0,00 4.868,83 405,07 93,34 0,00 498,41 4.370,42 1.550,00 212,70 31/12/2019
72 384900 ALESSANDRA RODRIGUES ANALISTA DO MP ATIVO VISCONDE DO RIO BRANCO - COMARCA; VISCONDE DO RIO BRANCO-PJ-03PJ 11.685,57 2.337,11 0,00 3.062,57 0,00 0,00 17.085,25 1.591,12 2.406,28 0,00 3.997,40 13.087,85 2.319,39 835,55 31/12/2019
73 390000 ALESSANDRA SPADANO MASSARA VASCONCELOS OFICIAL DO MP ATIVO BETIM - COMARCA; BETIM-PJ-10PJ 7.337,85 1.467,57 0,00 2.148,34 0,00 0,00 10.953,76 999,14 1.285,77 0,00 2.284,91 8.668,85 1.550,00 524,72 31/12/2019
74 426500 ALESSANDRO CAMPOS DE PAIVA ANALISTA DO MP ATIVO BELO HORIZONTE - COMARCA; DIR CRIACAO E MIDIAS 11.317,16 2.263,43 0,00 2.841,94 0,00 0,00 16.422,53 1.619,36 2.454,49 0,00 4.073,85 12.348,68 1.550,00 2.156,30 31/12/2019
75 623400 ALESSANDRO DE OLIVEIRA REZENDE ANALISTA DO MP ATIVO BELO HORIZONTE - COMARCA; DIRET DE INFORMACAO E CONHECIMENTO-DINC/CEAF 7.576,76 757,68 0,00 2.599,45 0,00 0,00 10.933,89 997,74 810,25 0,00 1.807,99 9.125,90 1.550,00 80,96 31/12/2019
76 420600 ALESSANDRO SILVA OFICIAL DO MP ATIVO VISCONDE DO RIO BRANCO - COMARCA; VISCONDE DO RIO BRANCO-PJ-02PJ 7.576,76 2.273,03 0,00 3.248,04 0,00 0,00 13.097,83 1.182,76 934,21 0,00 2.116,97 10.980,86 1.550,00 1.705,88 31/12/2019
77 375301 ALETHEIA PATRICIA ASSIS MORAIS MOREIRA ANALISTA DO MP ATIVO ITABIRA - COMARCA; ITABIRA-PJ-02PJ 8.482,22 848,22 0,00 6.941,96 0,00 0,00 16.272,40 1.058,72 1.362,13 0,00 2.420,85 13.851,55 3.088,78 556,17 31/12/2019
78 382300 ALEX CARVALHO LIMA ANALISTA DO MP ATIVO UBERLÂNDIA - COMARCA; UBERLANDIA-PJ-14PJ 11.685,57 2.337,11 0,00 9.917,50 0,00 0,00 23.940,18 1.591,12 2.398,02 0,00 3.989,14 19.951,04 1.550,00 835,55 31/12/2019
79 195201 ALEX DE CASTRO PEREIRA ANALISTA DO MP ATIVO UBERABA - COMARCA; UBERABA-PJ-09PJ 15.533,57 6.213,43 0,00 7.524,82 0,00 0,00 29.271,82 2.759,14 4.453,22 0,00 7.212,36 22.059,46 1.550,00 6.823,07 31/12/2019
80 358900 ALEX DE PAULA LANZA ASSESSOR ATIVO BELO HORIZONTE - COMARCA; DIR CONTEUDO JORNALISTICO 0,00 0,00 9.641,94 3.731,73 0,00 0,00 13.373,67 1.284,68 1.908,03 0,00 3.192,71 10.180,96 2.319,39 0,00 31/12/2019
81 178400 ALEX RODRIGO SALDANHA GUIMARAES OFICIAL DO MP ATIVO BELO HORIZONTE - COMARCA; DIRETORIA DE SISTEMAS DE INFORMACAO 5.678,79 2.271,52 0,00 1.941,65 0,00 0,00 9.891,96 937,00 1.076,48 0,00 2.013,48 7.878,48 1.550,00 1.073,29 31/12/2019
82 413500 ALEX VILELA OLIVEIRA ANALISTA DO MP ATIVO GOVERNADOR VALADARES - COMARCA; COORD REG PJ DEF EDU DIR CRIANCA ADOL RIODOCE 11.685,57 2.337,11 0,00 9.917,50 0,00 0,00 23.940,18 1.591,12 2.562,69 0,00 4.153,81 19.786,37 1.550,00 835,55 31/12/2019
83 264300 ALEXANDRA FATIMA SARAIVA SOARES ANALISTA DO MP ATIVO BELO HORIZONTE - COMARCA; CENTRAL DE APOIO TECN-SETOR DE MEIO AMBIENTE 16.148,50 4.844,55 0,00 4.318,30 0,00 0,00 25.311,35 2.397,18 4.268,69 0,00 6.665,87 18.645,48 1.550,00 1.510,88 31/12/2019
84 488000 ALEXANDRA LARA PAIS DE CARVALHO ANALISTA DO MP ATIVO RIO VERMELHO - COMARCA; RIO VERMELHO-PJ-UNPJ 8.758,36 875,84 0,00 7.242,24 0,00 0,00 16.876,44 1.093,17 1.332,20 0,00 2.425,37 14.451,07 2.319,39 574,09 31/12/2019
85 256300 ALEXANDRA SANTOS GOMES OFICIAL DO MP ATIVO BELO HORIZONTE - COMARCA; DIRETORIA GESTAO COMPRAS LICITACOES 8.482,22 2.544,67 0,00 2.644,90 0,00 0,00 13.671,79 1.251,22 1.829,47 0,00 3.080,69 10.591,10 1.550,00 657,30 31/12/2019
86 403300 ALEXANDRE AUGUSTO RODRIGUES ANALISTA DO MP ATIVO ÁGUAS FORMOSAS - COMARCA; AGUAS FORMOSAS-PJ-UNPJ 9.337,87 1.867,57 0,00 2.496,95 0,00 0,00 13.702,39 1.232,60 1.873,17 0,00 3.105,77 10.596,62 2.319,39 0,00 31/12/2019
87 640900 ALEXANDRE BARBOSA MASCARENHAS ANALISTA DO MP ATIVO BETIM - COMARCA; BETIM-PJ-02PJ 5.678,79 340,73 0,00 2.174,34 0,00 0,00 8.193,86 678,09 279,57 0,00 957,66 7.236,20 1.550,00 358,02 31/12/2019
88 311700 ALEXANDRE BARCELOS RESENDE OFICIAL DO MP ATIVO BELO HORIZONTE - COMARCA; BH-07PJ 02 TRIBUNAL DO JURI-GAB 109PJ 6.882,47 1.376,49 0,00 2.068,97 0,00 0,00 10.327,93 991,75 1.152,02 0,00 2.143,77 8.184,16 1.550,00 1.682,79 31/12/2019
89 285600 ALEXANDRE CAMPOS DE OLIVEIRA OFICIAL DO MP ATIVO UBERABA - COMARCA; COORD REG BACIAS PARANAIBA BAIXO RIO GRANDE 9.337,87 2.801,36 0,00 2.788,99 0,00 0,00 14.928,22 1.335,32 1.945,30 0,00 3.280,62 11.647,60 1.550,00 0,00 31/12/2019
90 509200 ALEXANDRE CAPUANO DE REZENDE ANALISTA DO MP ATIVO BELO HORIZONTE - COMARCA; GABINETE DE PROCURADOR DE JUSTIÇA - SALA 715 9.337,87 933,79 0,00 2.413,46 0,00 0,00 12.685,12 1.129,88 1.592,49 0,00 2.722,37 9.962,75 1.550,00 0,00 31/12/2019
91 229400 ALEXANDRE CARLOS BOTREL DIRETOR/OFICIAL ATIVO BELO HORIZONTE - COMARCA; SUPERINTENDENCIA DOS ORGAOS COLEGIADOS 0,00 4.844,55 16.148,50 4.328,61 0,00 0,00 25.321,66 1.723,72 4.429,71 0,00 6.153,43 19.168,23 1.550,00 0,00 31/12/2019
92 411900 ALEXANDRE CARVALHO SANTOS RIBEIRO ANALISTA DO MP ATIVO OLIVEIRA - COMARCA; OLIVEIRA-PJ-02PJ 11.317,16 2.263,43 0,00 2.841,94 0,00 0,00 16.422,53 1.630,77 2.454,49 0,00 4.085,26 12.337,27 3.088,78 2.352,33 31/12/2019
93 641600 ALEXANDRE DA SILVA ASSUNCAO OFICIAL DO MP ATIVO BELO HORIZONTE - COMARCA; SERVICO MEDICO-DEPTO PERIC MEDICA SAUDE OCUP 4.058,04 243,48 0,00 1.520,13 0,00 0,00 5.821,65 503,00 225,25 0,00 728,25 5.093,40 1.550,00 271,20 31/12/2019
94 201200 ALEXANDRE DE ALENCAR CORDEIRO OFICIAL DO MP ATIVO ÁGUAS FORMOSAS - COMARCA; AGUAS FORMOSAS-PJ-UNPJ 5.678,79 2.839,40 0,00 2.106,62 0,00 0,00 10.624,81 937,00 1.215,47 0,00 2.152,47 8.472,34 1.550,00 0,00 31/12/2019
95 288200 ALEXANDRE DE VASCONCELOS COSTA KER ANALISTA DO MP ATIVO BELO HORIZONTE - COMARCA; BH-03PJ EMPRESARIAL-SECRETARIA 14.162,21 4.248,66 0,00 3.885,82 0,00 0,00 22.296,69 2.089,03 3.584,56 0,00 5.673,59 16.623,10 1.550,00 1.136,48 31/12/2019
96 445000 ALEXANDRE DIOGENES OLIVEIRA ANALISTA DO MP ATIVO SALINAS - COMARCA; SALINAS-PJ-02PJ 9.337,87 1.867,57 0,00 2.963,84 0,00 0,00 14.169,28 1.232,60 1.873,17 0,00 3.105,77 11.063,51 2.319,39 0,00 31/12/2019
97 463400 ALEXANDRE LEAL WINKELSTROTER ANALISTA DO MP ATIVO TEÓFILO OTONI - COMARCA; TEOFILO OTONI-PJ-04PJ 8.758,36 875,84 0,00 2.320,87 0,00 0,00 11.955,07 1.093,17 1.436,47 0,00 2.529,64 9.425,43 1.550,00 574,09 31/12/2019
98 615700 ALEXANDRE LUIZ DE CASTRO MACIEL ANALISTA DO MP ATIVO IBIRITÉ - COMARCA; IBIRITE-PJ-02PJ 7.576,76 757,68 0,00 2.461,80 0,00 0,00 10.796,24 997,74 1.170,49 0,00 2.168,23 8.628,01 1.550,00 1.390,95 31/12/2019
99 356900 ALEXANDRE MOISES MENDONCA E ARAUJO OFICIAL DO MP ATIVO UBERABA - COMARCA; UBERABA-PJ-13PJ 6.054,65 1.210,93 0,00 1.924,69 0,00 0,00 9.190,27 824,41 908,89 0,00 1.733,30 7.456,97 1.550,00 433,06 31/12/2019
100 633300 ALEXANDRE NONATO MARTINS OFICIAL DO MP ATIVO IGARAPÉ - COMARCA; IGARAPE-PJ-02PJ 4.058,04 243,48 0,00 1.554,37 0,00 0,00 5.855,89 488,09 191,01 0,00 679,10 5.176,79 1.550,00 301,48 31/12/2019
101 469900 ALEXANDRE PEREIRA GUEDES ANALISTA DO MP ATIVO CATAGUASES - COMARCA; CATAGUASES-PJ-03PJ 9.337,87 933,79 0,00 2.361,32 3.423,89 0,00 16.056,87 1.129,88 2.586,20 0,00 3.716,08 12.340,79 1.550,00 0,00 31/12/2019
102 208700 ALEXANDRE RESENDE FRAGA ANALISTA DO MP ATIVO BELO HORIZONTE - COMARCA; BH-19PJ SAUDE 17.452,52 6.981,01 0,00 4.321,24 0,00 0,00 28.754,77 2.879,67 4.954,33 0,00 7.834,00 20.920,77 1.550,00 3.298,52 31/12/2019
103 216401 ALEXANDRE RIBEIRO DE LIMA MAIORINO ANALISTA DO MP ATIVO UBERABA - COMARCA; UBERABA-PJ-03PJ 14.162,21 4.248,66 0,00 3.885,82 0,00 0,00 22.296,69 2.089,03 3.584,56 0,00 5.673,59 16.623,10 1.550,00 1.096,75 31/12/2019
104 475100 ALEXANDRE TEOTONIO COSTA ANALISTA DO MP ATIVO ARAGUARI - COMARCA; ARAGUARI-PJ-01PJ 9.337,87 933,79 0,00 2.465,59 0,00 0,00 12.737,25 1.129,88 1.540,36 0,00 2.670,24 10.067,01 1.550,00 0,00 31/12/2019
105 339000 ALEXANDRE VITOR CARDOSO OFICIAL DO MP ATIVO BELO HORIZONTE - COMARCA; PROMOT ESTADUAL DE DEF PATRI CULT E TUR DE MG 5.678,79 1.135,76 0,00 2.015,58 0,00 0,00 8.830,13 749,60 642,09 0,00 1.391,69 7.438,44 1.550,00 0,00 31/12/2019
106 623100 ALEXSANDER BATISTA AGUIAR ANALISTA DO MP ATIVO BELO HORIZONTE - COMARCA; DIRETORIA DE SUPORTE E MANUTENCAO 7.576,76 757,68 0,00 2.755,86 0,00 0,00 11.090,30 997,74 1.444,36 0,00 2.442,10 8.648,20 2.319,39 2.955,61 31/12/2019
107 513300 ALFSON MIRANDA BRAGA ANALISTA DO MP ATIVO BELO HORIZONTE - COMARCA; BH-12PJ JUIZO CRIMINAL-GAB 092PJ 9.288,14 933,79 0,00 2.361,32 0,00 0,00 12.583,25 1.233,41 1.630,95 0,00 2.864,36 9.718,89 1.550,00 1.778,91 31/12/2019
108 618400 ALICE MAGALHAES MACEDO DE CARVALHO ANALISTA DO MP ATIVO AÇUCENA - COMARCA; ACUCENA-PJ-UNPJ 7.576,76 757,68 0,00 2.599,45 0,00 0,00 10.933,89 997,74 1.170,49 0,00 2.168,23 8.765,66 2.319,39 1.390,95 31/12/2019
109 471000 ALICE TITONELI MOREIRA ANALISTA DO MP ATIVO MIRADOURO - COMARCA; MIRADOURO-PJ-UNPJ 9.337,87 933,79 0,00 2.413,46 0,00 0,00 12.685,12 1.129,88 1.592,49 0,00 2.722,37 9.962,75 6.838,92 414,29 31/12/2019
110 622400 ALINE BALBINO PORTUGAL LOPES ANALISTA DO MP ATIVO TRÊS PONTAS - COMARCA; TRES PONTAS-PJ-03PJ 7.576,76 757,68 0,00 2.599,45 0,00 0,00 10.933,89 997,74 1.170,49 0,00 2.168,23 8.765,66 2.319,39 1.390,95 31/12/2019
111 373000 ALINE BOTELHO RESENDE OFICIAL DO MP ATIVO JUIZ DE FORA - COMARCA; JUIZ DE FORA-PJ-22PJ 7.823,48 1.564,70 0,00 2.381,02 0,00 0,00 11.769,20 1.065,27 1.428,40 0,00 2.493,67 9.275,53 1.550,00 559,55 31/12/2019
112 407700 ALINE CRISTINA RODRIGUES PEREIRA COORDENADOR/ANALISTA ATIVO BELO HORIZONTE - COMARCA; DIRETORIA DE PROJETOS DE EDIFICACOES 0,00 2.491,77 12.458,83 3.339,61 0,00 0,00 18.290,21 1.232,60 2.903,09 0,00 4.135,69 14.154,52 2.319,39 0,00 31/12/2019
113 193100 ALINE CRISTINA SENA OLIVEIRA OFICIAL DO MP ATIVO UBERLÂNDIA - COMARCA; UBERLANDIA-PJ-03PJ 12.065,98 3.619,79 0,00 3.199,85 0,00 0,00 18.885,62 1.779,83 2.917,60 0,00 4.697,43 14.188,19 2.319,39 934,66 31/12/2019
114 554200 ALINE CRISTINA SILVA SOUZA OFICIAL DO MP ATIVO TIROS - COMARCA; TIROS-PJ-UNPJ 4.995,72 499,57 0,00 2.263,50 0,00 0,00 7.758,79 623,54 475,61 0,00 1.099,15 6.659,64 1.550,00 327,44 31/12/2019
115 505500 ALINE DA CUNHA MARREIROS OLIVEIRA ANALISTA DO MP ATIVO CARANGOLA - COMARCA; CARANGOLA-PJ-03PJ 9.337,87 933,79 0,00 2.413,46 0,00 0,00 12.685,12 1.129,88 1.592,49 0,00 2.722,37 9.962,75 2.319,39 0,00 31/12/2019
116 433500 ALINE DE MELO QUEIROZ ASSESSOR/OFICIAL ATIVO BELO HORIZONTE - COMARCA; ASSESSORIA TECNICA DO PROCON-MG 0,00 1.928,39 9.641,94 3.247,58 0,00 0,00 14.817,91 965,17 2.047,06 0,00 3.012,23 11.805,68 2.319,39 0,00 31/12/2019
117 542700 ALINE DE SOUSA ALBINO ANALISTA DO MP ATIVO CARMO DO PARANAÍBA - COMARCA; CARMO DO PARANAIBA-PJ-01PJ 7.823,48 782,35 0,00 2.255,05 0,00 0,00 10.860,88 976,49 1.236,92 0,00 2.213,41 8.647,47 1.550,00 512,93 31/12/2019
118 330000 ALINE DIORIO MAYRINK OFICIAL DO MP ATIVO BELO HORIZONTE - COMARCA; BH-18PJ DIREITOS HUMANOS 6.251,74 1.250,35 0,00 1.959,03 0,00 0,00 9.461,12 849,08 966,78 0,00 1.815,86 7.645,26 1.550,00 409,75 31/12/2019
119 499000 ALINE FERREIRA LOPES ANALISTA DO MP ATIVO TEÓFILO OTONI - COMARCA; COORD. DE DEF. DO PAT. PUBLICO-JEQUIT./MUCURI 9.337,87 933,79 0,00 2.361,32 0,00 0,00 12.632,98 1.129,88 1.644,63 0,00 2.774,51 9.858,47 2.319,39 0,00 31/12/2019
120 405300 ALINE LAIA CARDOZO DIRETOR/ANALISTA ATIVO BELO HORIZONTE - COMARCA; SUPERINTENDENCIA LOGISTICA SERVICOS 0,00 3.229,70 16.148,50 4.111,15 0,00 0,00 23.489,35 1.591,12 4.035,46 0,00 5.626,58 17.862,77 1.550,00 835,55 31/12/2019
121 278200 ALINE MARCIA FARIA BARBOSA FERNANDES OFICIAL DO MP ATIVO BARBACENA - COMARCA; BARBACENA-PJ-SECRETARIA 6.054,65 1.816,40 0,00 3.052,28 0,00 0,00 10.923,33 893,12 900,67 0,00 1.793,79 9.129,54 1.550,00 469,14 31/12/2019
122 389000 ALINE NERI NOBRE ANALISTA DO MP ATIVO MONTES CLAROS - COMARCA; COORD REG PJ DEF EDUC DIR CRIANCA ADOL NORTE 12.065,98 3.619,79 0,00 3.394,99 0,00 0,00 19.080,76 1.779,83 2.969,73 0,00 4.749,56 14.331,20 1.550,00 934,66 31/12/2019
123 294600 ALINE PATRICIA SILVA VIEIRA OFICIAL DO MP ATIVO UBERLÂNDIA - COMARCA; UBERLANDIA-PJ-03PJ 9.337,87 2.801,36 0,00 3.038,41 0,00 0,00 15.177,64 1.335,32 2.366,01 0,00 3.701,33 11.476,31 1.550,00 1.340,25 31/12/2019
124 420000 ALINE RODRIGUES CAMOROPIN ANALISTA DO MP ATIVO SABARÁ - COMARCA; SABARA-PJ-02PJ 11.317,16 2.263,43 0,00 2.841,94 0,00 0,00 16.422,53 1.630,77 2.454,49 0,00 4.085,26 12.337,27 1.550,00 2.352,33 31/12/2019
125 408300 ALINE SILVA ARAUJO DE PAULA ANALISTA DO MP ATIVO SÃO SEBASTIÃO DO PARAÍSO - COMARCA; SAO SEBASTIAO DO PARAISO-PJ-02PJ 11.685,57 2.337,11 0,00 3.127,20 0,00 0,00 17.149,88 1.591,12 2.562,69 0,00 4.153,81 12.996,07 2.319,39 835,55 31/12/2019
126 425400 ALINE TRINDADE DE FREITAS CAMPOS OFICIAL DO MP ATIVO BELO HORIZONTE - COMARCA; BH-14PJ DEFESA CONSUMIDOR-SECRETARIA 7.337,85 1.467,57 0,00 6.551,05 2.935,14 0,00 18.291,61 996,60 2.092,93 0,00 3.089,53 15.202,08 1.550,00 481,00 31/12/2019
127 517200 ALISSOM PEREIRA DA SILVA ANALISTA DO MP ATIVO BORDA DA MATA - COMARCA; BORDA DA MATA-PJ-UNPJ 9.337,87 933,79 0,00 2.361,32 0,00 0,00 12.632,98 1.233,41 1.644,63 0,00 2.878,04 9.754,94 1.616,40 1.778,91 31/12/2019
128 442400 ALISSON LABRE ANALISTA DO MP ATIVO VARGINHA - COMARCA; VARGINHA-PJ-02PJ 9.337,87 1.867,57 0,00 2.963,84 0,00 0,00 14.169,28 1.232,60 1.873,17 0,00 3.105,77 11.063,51 2.319,39 0,00 31/12/2019
129 643800 ALLAN PAUL FONSECA DE CASTRO OFICIAL DO MP ATIVO CONTAGEM - COMARCA; CONTAGEM-PJ-06PJ 4.326,60 259,60 0,00 1.716,49 0,00 0,00 6.302,69 591,70 282,26 0,00 873,96 5.428,73 3.088,78 792,96 31/12/2019
130 612900 ALLAN VINICIUS VIEIRA ARAUJO OFICIAL DO MP ATIVO BELO HORIZONTE - COMARCA; BH-09PJ AUDITORIA MILITAR-SECRETARIA 4.838,22 483,82 0,00 1.846,29 0,00 0,00 7.168,33 628,65 433,21 0,00 1.061,86 6.106,47 1.550,00 742,71 31/12/2019
131 349000 ALLEC RODRIGUES VIEIRA OFICIAL DO MP ATIVO BELO HORIZONTE - COMARCA; EXTINTA-COORD EST DEF DIR FAM PES DEFIC IDOSO 8.214,70 1.642,94 0,00 2.635,36 0,00 0,00 12.493,00 1.118,53 1.533,90 0,00 2.652,43 9.840,57 1.550,00 0,00 31/12/2019
132 297300 ALLYSON SALIBA MONTEIRO LAIZO ANALISTA DO MP ATIVO CONSELHEIRO LAFAIETE - COMARCA; CONSELHEIRO LAFAIETE-PJ-03PJ 14.941,94 4.482,58 0,00 3.690,77 0,00 0,00 23.115,29 2.211,81 3.884,79 0,00 6.096,60 17.018,69 2.319,39 1.290,57 31/12/2019
133 303700 ALMIR LOPES LOURES ANALISTA DO MP ATIVO BELO HORIZONTE - COMARCA; CENTRAL DE APOIO TECN-SETOR DE MEIO AMBIENTE 15.533,57 4.660,07 0,00 13.899,31 0,00 0,00 34.092,95 2.299,40 4.073,03 0,00 6.372,43 27.720,52 1.550,00 1.341,82 31/12/2019
134 515900 ALTAIR NEVES JUNIOR OFICIAL DO MP ATIVO BELO HORIZONTE - COMARCA; BH-03PJ EMPRESARIAL-SECRETARIA 6.054,65 605,47 0,00 5.166,80 0,00 0,00 11.826,92 755,71 760,71 0,00 1.516,42 10.310,50 1.550,00 396,96 31/12/2019
135 233300 ALVARINDO BATISTA ANALISTA DO MP ATIVO BELO HORIZONTE - COMARCA; NUCLEO APOIO TECNICO ESP COMUNICACAO 17.452,52 5.235,76 0,00 4.688,44 0,00 0,00 27.376,72 2.495,71 4.631,46 0,00 7.127,17 20.249,55 2.319,39 0,00 31/12/2019
136 274100 ALYSSON CARVALHO VIDAL DE LACERDA OFICIAL DO MP ATIVO MANHUAÇU - COMARCA; MANHUACU-PJ-01PJ 9.337,87 2.801,36 0,00 8.702,19 0,00 0,00 20.841,42 1.418,19 2.101,72 0,00 3.519,91 17.321,51 1.550,00 1.423,85 31/12/2019
137 621000 AMANDA BASTOS ALVES ANALISTA DO MP ATIVO BELO HORIZONTE - COMARCA; ASSESS TECNICO-JUR JUNTO AS PROC. DE JUST 7.576,76 757,68 0,00 2.599,45 0,00 0,00 10.933,89 997,74 1.170,49 0,00 2.168,23 8.765,66 1.550,00 1.390,95 31/12/2019
138 521700 AMANDA CRISTINA AGUIAR MACHADO OFICIAL DO MP ATIVO CONGONHAS - COMARCA; CONGONHAS-PJ-01PJ 4.995,72 499,57 0,00 1.930,21 0,00 0,00 7.425,50 650,80 423,48 0,00 1.074,28 6.351,22 1.550,00 795,80 31/12/2019
139 613400 AMANDA DE ASSIS IUNES SANTOS ANALISTA DO MP ATIVO CONGONHAS - COMARCA; CONGONHAS-PJ-01PJ 7.576,76 757,68 0,00 2.461,80 0,00 0,00 10.796,24 997,74 1.170,49 0,00 2.168,23 8.628,01 2.319,39 1.390,95 31/12/2019
140 520800 AMANDA DE SOUZA MACHADO ANALISTA DO MP ATIVO BAEPENDI - COMARCA; BAEPENDI-PJ-UNPJ 9.337,87 933,79 0,00 2.936,20 0,00 0,00 13.207,86 1.233,41 1.540,36 0,00 2.773,77 10.434,09 1.550,00 1.778,91 31/12/2019
141 663900 AMANDA DENISE GONCALVES DA SILVA ASSESSOR ATIVO BELO HORIZONTE - COMARCA; DIRET DE FORMACAO, APERFEIC. E POS-GRADUACAO 0,00 0,00 2.852,73 1.390,69 0,00 0,00 4.243,42 670,15 172,89 0,00 843,04 3.400,38 1.550,00 0,00 31/12/2019
142 543100 AMANDA VIEIRA FREITAS BRESSANE ANALISTA DO MP ATIVO PARAGUAÇU - COMARCA; PARAGUACU-PJ-UNPJ 7.823,48 782,35 0,00 3.298,70 0,00 0,00 11.904,53 976,49 1.236,92 0,00 2.213,41 9.691,12 1.550,00 512,93 31/12/2019
143 434400 AMARILIS ASSIS SIMAO CURCIO ANALISTA DO MP ATIVO MANHUAÇU - COMARCA; MANHUACU-PJ-SECRETARIA 9.337,87 1.867,57 0,00 2.963,84 0,00 0,00 14.169,28 1.232,60 1.873,17 0,00 3.105,77 11.063,51 1.550,00 0,00 31/12/2019
144 652000 AMAURI SILVA ALVES OFICIAL DO MP ATIVO BELO HORIZONTE - COMARCA; BH-23PJ INFRACIONAL-SEC EXP 3.569,91 0,00 0,00 1.270,48 0,00 0,00 4.840,39 417,45 121,78 0,00 539,23 4.301,16 1.550,00 225,08 31/12/2019
145 273700 AMBROLINA CARNEIRO DE VASCONCELOS OFICIAL DO MP ATIVO FRUTAL - COMARCA; FRUTAL-PJ-01PJ 9.955,90 6.969,13 0,00 3.646,73 0,00 0,00 20.571,76 1.920,46 3.220,90 0,00 5.141,36 15.430,40 1.550,00 1.130,79 31/12/2019
146 58000 AMELIA GUARIZE DE CASTRO OFICIAL DO MP ATIVO JUIZ DE FORA - COMARCA; JUIZ DE FORA-PJ-SECRETARIA 6.251,74 6.251,74 0,00 3.682,64 0,00 1.375,38 17.561,50 1.375,38 2.569,10 0,00 3.944,48 13.617,02 1.550,00 0,00 31/12/2019
147 324301 AMERICA SUELI FERREIRA DA SILVA ANALISTA DO MP ATIVO MONTE CARMELO - COMARCA; MONTE CARMELO-PJ-02PJ 9.337,87 933,79 0,00 2.413,46 0,00 0,00 12.685,12 1.129,88 1.592,49 0,00 2.722,37 9.962,75 2.319,39 0,00 31/12/2019
148 273300 AMUJACY DE BRITO ASSIZ OFICIAL DO MP ATIVO BELO HORIZONTE - COMARCA; BH-12PJ JUIZO CRIMINAL-SECRETARIA 9.337,87 2.801,36 0,00 3.217,80 0,00 0,00 15.357,03 1.418,19 1.893,17 0,00 3.311,36 12.045,67 7.376,83 2.209,10 31/12/2019
149 482200 ANA ALICE LOPES ACHTSCHIN ANALISTA DO MP ATIVO BELO HORIZONTE - COMARCA; PROC JUST RECURSOS ESP E EXTRAORD CRIMINAIS 9.337,87 933,79 0,00 2.361,32 0,00 0,00 12.632,98 1.129,88 1.644,63 0,00 2.774,51 9.858,47 1.550,00 0,00 31/12/2019
150 490400 ANA AMELIA PAULINO GARCIA OFICIAL DO MP ATIVO CONTAGEM - COMARCA; CONTAGEM-PJ-13PJ 6.251,74 625,17 0,00 2.653,34 0,00 0,00 9.530,25 780,31 813,76 0,00 1.594,07 7.936,18 1.550,00 409,75 31/12/2019
151 279100 ANA CAROLINA ARAUJO PEREIRA ANALISTA DO MP ATIVO BELO HORIZONTE - COMARCA; DIRETORIA DE PROJETOS DE EDIFICACOES 14.941,94 4.482,58 0,00 6.727,59 0,00 0,00 26.152,11 2.218,07 3.832,65 0,00 6.050,72 20.101,39 2.319,39 1.398,11 31/12/2019
152 653300 ANA CAROLINA CYRNE DINIZ ASSESSOR ATIVO BELO HORIZONTE - COMARCA; CENTRAL DE APOIO TECNICO-SETOR CONTABIL 0,00 0,00 7.576,76 2.750,77 0,00 0,00 10.327,53 1.284,68 1.340,11 0,00 2.624,79 7.702,74 1.550,00 0,00 31/12/2019
153 359400 ANA CAROLINA DE ABREU FARIA ASSESSOR ATIVO BELO HORIZONTE - COMARCA; SUPERINTENDÊNCIA DE ENGENHARIA E ARQUITETURA 0,00 0,00 9.641,94 3.215,44 0,00 0,00 12.857,38 1.284,68 1.908,03 0,00 3.192,71 9.664,67 1.550,00 0,00 31/12/2019
154 408500 ANA CAROLINA DE CASTRO CARVALHO ANALISTA DO MP ATIVO BARBACENA - COMARCA; BARBACENA - SECRETARIA DAS PJS CRIMINAIS 11.685,57 2.337,11 0,00 3.127,20 0,00 0,00 17.149,88 1.591,12 2.562,69 0,00 4.153,81 12.996,07 1.550,00 835,55 31/12/2019
155 420200 ANA CAROLINA FERNANDES SILVA ANALISTA DO MP ATIVO BELO HORIZONTE - COMARCA; GABINETE DE PROCURADOR DE JUSTIÇA - SALA 704 10.279,98 2.056,00 0,00 2.661,16 0,00 0,00 14.997,14 1.399,74 2.149,87 0,00 3.549,61 11.447,53 1.550,00 735,02 31/12/2019
156 522100 ANA CAROLINA FERNANDINO VIDAL PEREIRA SANTOS OFICIAL DO MP ATIVO BELO HORIZONTE - COMARCA; SECRETARIA DO PROCON-MG 6.054,65 605,47 0,00 5.166,80 0,00 0,00 11.826,92 755,71 760,71 0,00 1.516,42 10.310,50 1.550,00 396,96 31/12/2019
157 502400 ANA CAROLINA GONCALVES FERNANDES ANALISTA DO MP ATIVO GRAO MOGOL - COMARCA; GRAO MOGOL-PJ-UNPJ 9.337,87 933,79 0,00 3.748,58 0,00 0,00 14.020,24 1.129,88 1.644,63 0,00 2.774,51 11.245,73 2.319,39 0,00 31/12/2019
158 529900 ANA CAROLINA GONCALVES PECANHA CHEQUER ANALISTA DO MP ATIVO MANHUAÇU - COMARCA; MANHUACU-PJ-04PJ 7.823,48 782,35 0,00 3.298,70 0,00 0,00 11.904,53 976,49 1.236,92 0,00 2.213,41 9.691,12 2.319,39 512,93 31/12/2019
159 431900 ANA CAROLINA MOTTA GUATIMOSIM ANALISTA DO MP ATIVO BELO HORIZONTE - COMARCA; GABINETE DE PROCURADOR DE JUSTIÇA - SALA 404 10.279,98 2.056,00 0,00 2.661,16 0,00 0,00 14.997,14 1.396,17 2.149,87 0,00 3.546,04 11.451,10 2.319,39 673,77 31/12/2019
160 490600 ANA CAROLINA XAVIER GODOY ANALISTA DO MP ATIVO BELO HORIZONTE - COMARCA; ASSESS TECNICO-JUR JUNTO AS PROC. DE JUST 9.337,87 933,79 0,00 3.852,85 0,00 0,00 14.124,51 1.129,88 1.540,36 0,00 2.670,24 11.454,27 3.088,78 0,00 31/12/2019
161 600300 ANA CAROLINE PEREIRA DINIZ ANALISTA DO MP ATIVO BELO HORIZONTE - COMARCA; PROC JUST ESP ACOES COMP ORIG CRIMINAL-SEC 7.823,48 782,35 0,00 2.255,05 0,00 0,00 10.860,88 976,49 1.236,92 0,00 2.213,41 8.647,47 3.088,78 512,93 31/12/2019
162 615800 ANA CAROLINE PEREIRA OLIVEIRA OFICIAL DO MP ATIVO ALFENAS - COMARCA; ALFENAS-PJ-06PJ 4.838,22 483,82 0,00 1.846,29 0,00 0,00 7.168,33 628,65 433,21 0,00 1.061,86 6.106,47 1.550,00 742,71 31/12/2019
163 324800 ANA CECILIA MENDES DA SILVA OFICIAL DO MP ATIVO OURO FINO - COMARCA; OURO FINO-PJ-01PJ 9.337,87 2.801,36 0,00 3.240,88 0,00 0,00 15.380,11 1.457,68 2.049,58 0,00 3.507,26 11.872,85 1.550,00 2.102,34 31/12/2019
164 441300 ANA CLAUDIA ALKIMIM MIRANDA BOMTEMPO ANALISTA DO MP ATIVO MONTES CLAROS - COMARCA; MONTES CLAROS-PJ-11PJ 10.279,98 2.056,00 0,00 3.279,43 0,00 0,00 15.615,41 1.396,17 2.045,60 0,00 3.441,77 12.173,64 1.550,00 673,77 31/12/2019
165 642500 ANA CLAUDIA DA COSTA NAVES OFICIAL DO MP ATIVO MONTE CARMELO - COMARCA; MONTE CARMELO-PJ-02PJ 3.930,12 235,81 0,00 1.614,28 0,00 0,00 5.780,21 537,49 201,35 0,00 738,84 5.041,37 2.319,39 720,42 31/12/2019
166 604900 ANA CLAUDIA OLIVEIRA DE MIRANDA OFICIAL DO MP ATIVO PONTE NOVA - COMARCA; PONTE NOVA-PJ-04PJ 4.467,49 446,75 0,00 1.577,36 0,00 0,00 6.491,60 607,97 305,29 0,00 913,26 5.578,34 1.550,00 1.158,04 31/12/2019
167 379300 ANA CRISTINA ALVES FLAVIO ANALISTA DO MP ATIVO SÃO GOTARDO - COMARCA; SAO GOTARDO-PJ-01PJ 11.685,57 2.337,11 0,00 2.958,29 0,00 0,00 16.980,97 1.591,12 2.510,56 0,00 4.101,68 12.879,29 3.088,78 835,55 31/12/2019
168 461200 ANA CRISTINA ALVES PASCHOAL ANALISTA DO MP ATIVO SANTA LUZIA - COMARCA; SANTA LUZIA-PJ-03PJ 9.337,87 933,79 0,00 2.413,46 0,00 0,00 12.685,12 1.129,88 1.592,49 0,00 2.722,37 9.962,75 1.550,00 0,00 31/12/2019
169 514100 ANA CRISTINA ARAUJO ASSUNCAO ANALISTA DO MP ATIVO BELO HORIZONTE - COMARCA; ASSESS JUR DO CONS SUPERIOR DO MINISTERIO PUB 9.337,87 933,79 0,00 7.549,29 0,00 0,00 17.820,95 1.233,41 1.592,49 0,00 2.825,90 14.995,05 3.088,78 1.778,91 31/12/2019
170 113400 ANA CRISTINA BRAGA ALBUQUERQUE ASSESSOR/ANALISTA ATIVO BELO HORIZONTE - COMARCA; ASSESS ESP ADM E FINANCEIRA DO PGJ ADJ ADM 27.903,47 19.532,44 0,00 6.020,25 0,00 0,00 53.456,16 3.900,84 7.810,02 11.973,69 23.684,55 29.771,61 1.550,00 0,00 31/12/2019
171 233800 ANA CRISTINA BRAGA SOARES RIOS OFICIAL DO MP ATIVO CONTAGEM - COMARCA; CONTAGEM-PJ-SECRETARIA 9.641,94 2.892,58 0,00 2.887,64 0,00 0,00 15.422,16 1.422,28 2.198,46 0,00 3.620,74 11.801,42 1.550,00 747,10 31/12/2019
172 186400 ANA CRISTINA DE AZEVEDO LOPES OFICIAL DO MP ATIVO UBÁ - COMARCA; UBA-PJ-01PJ 13.283,29 5.313,32 0,00 6.516,42 0,00 0,00 25.113,03 2.365,83 3.682,16 0,00 6.047,99 19.065,04 1.550,00 5.944,23 31/12/2019
173 465100 ANA CRISTINA DE OLIVEIRA GUIMARAES ANALISTA DO MP ATIVO BRASÓPOLIS - COMARCA; BRASOPOLIS-PJ-UNPJ 9.337,87 933,79 0,00 2.465,59 0,00 0,00 12.737,25 1.129,88 1.540,36 0,00 2.670,24 10.067,01 3.088,78 0,00 31/12/2019
174 500600 ANA CRISTINA LATADO SUDARIO ANALISTA DO MP ATIVO UBERLÂNDIA - COMARCA; UBERLANDIA-PJ-09PJ 9.337,87 933,79 0,00 2.361,32 0,00 0,00 12.632,98 1.129,88 1.644,63 0,00 2.774,51 9.858,47 1.550,00 0,00 31/12/2019
175 331400 ANA CRISTINA RIBEIRO ALVES OFICIAL DO MP ATIVO BAMBUÍ - COMARCA; BAMBUI-PJ-UNPJ 8.214,70 1.642,94 0,00 2.508,74 0,00 0,00 12.366,38 1.118,53 1.491,16 0,00 2.609,69 9.756,69 1.550,00 587,51 31/12/2019
176 249300 ANA ELOINA MARTINS OFICIAL DO MP ATIVO BETIM - COMARCA; BETIM-PJ-02PJ 10.279,98 4.111,99 0,00 5.077,89 0,00 0,00 19.469,86 1.633,03 2.653,07 0,00 4.286,10 15.183,76 1.550,00 857,51 31/12/2019
177 257400 ANA FLAVIA CAMBRAIA ANALISTA DO MP ATIVO BELO HORIZONTE - COMARCA; BH-19PJ SAUDE-SECRETARIA 150PJ 16.148,50 4.844,55 0,00 4.370,44 0,00 0,00 25.363,49 2.397,18 4.216,55 0,00 6.613,73 18.749,76 1.550,00 1.510,88 31/12/2019
178 248201 ANA FLAVIA DE MORAIS SOUZA ANALISTA DO MP ATIVO DIVINÓPOLIS - COMARCA; DIVINOPOLIS-PJ-01PJ 9.337,87 2.801,36 0,00 2.736,85 0,00 0,00 14.876,08 1.335,32 1.997,44 0,00 3.332,76 11.543,32 3.088,78 0,00 31/12/2019
179 621100 ANA FLAVIA DINIZ TEODORO OFICIAL DO MP ATIVO SANTA LUZIA - COMARCA; SANTA LUZIA-PJ-06PJ 4.838,22 483,82 0,00 4.303,41 0,00 0,00 9.625,45 628,65 433,21 0,00 1.061,86 8.563,59 1.550,00 742,71 31/12/2019
180 238600 ANA FLAVIA FRANCO OFICIAL DO MP ATIVO BELO HORIZONTE - COMARCA; DIRETORIA DE PESSOAL ADMINISTRATIVO - DPAD 11.317,16 3.395,15 0,00 5.181,24 0,00 0,00 19.893,55 1.766,67 2.731,48 0,00 4.498,15 15.395,40 1.550,00 2.548,34 31/12/2019
181 402900 ANA FLAVIA PORTES DE CARVALHO ANALISTA DO MP ATIVO BELO HORIZONTE - COMARCA; DIRET DE PLANOS PROJETOS E PROGRAMAS INST 11.685,57 2.337,11 0,00 2.958,29 0,00 0,00 16.980,97 1.591,12 2.510,56 0,00 4.101,68 12.879,29 1.550,00 835,55 31/12/2019
182 382700 ANA KARENINA SALDANHA GONTIJO ANALISTA DO MP ATIVO BELO HORIZONTE - COMARCA; ASSESS TECNICO-JUR JUNTO AS PROC. DE JUST 11.317,16 2.263,43 0,00 2.841,94 0,00 0,00 16.422,53 1.540,97 2.454,49 0,00 3.995,46 12.427,07 2.319,39 809,45 31/12/2019
183 620500 ANA KARINE DE ANDRADE OLIVEIRA ANALISTA DO MP ATIVO RIBEIRÃO DAS NEVES - COMARCA; SEC PJ EXECUCAO PENAL RIBEIRAO NEVES 6.882,47 688,25 0,00 2.440,95 0,00 0,00 10.011,67 906,32 983,57 0,00 1.889,89 8.121,78 1.550,00 1.263,60 31/12/2019
184 462200 ANA LUCIA ANDRADE TOMICH OTTONI ANALISTA DO MP ATIVO TEÓFILO OTONI - COMARCA; TEOFILO OTONI-PJ-06PJ 9.337,87 933,79 0,00 2.413,46 0,00 0,00 12.685,12 1.129,88 1.592,49 0,00 2.722,37 9.962,75 1.550,00 0,00 31/12/2019
185 504100 ANA LUCIA CATAO DE CARVALHO OFICIAL DO MP ATIVO BELO HORIZONTE - COMARCA; BH-09PJ AUDITORIA MILITAR-SECRETARIA 6.251,74 625,17 0,00 1.920,36 0,00 0,00 8.797,27 780,31 761,63 0,00 1.541,94 7.255,33 2.319,39 409,75 31/12/2019
186 274700 ANA LUCIA DE ALENCAR BRAGATO OFICIAL DO MP ATIVO UBERABA - COMARCA; UBERABA-PJ-07PJ 9.337,87 2.801,36 0,00 4.474,57 0,00 0,00 16.613,80 1.377,42 2.101,72 0,00 3.479,14 13.134,66 1.550,00 723,36 31/12/2019
187 220000 ANA LUCIA DE AMORIM OFICIAL DO MP ATIVO MARTINHO CAMPOS - COMARCA; MARTINHO CAMPOS-PJ-SECRETARIA 11.317,16 7.922,01 0,00 4.545,44 0,00 0,00 23.784,61 2.310,26 3.839,43 0,00 6.149,69 17.634,92 1.550,00 3.920,21 31/12/2019
188 509400 ANA LUCIA DORNELAS MALLOSTO ANALISTA DO MP ATIVO JUIZ DE FORA - COMARCA; JUIZ DE FORA-PJ-18PJ 8.758,36 875,84 0,00 2.472,75 0,00 0,00 12.106,95 1.093,17 1.436,47 0,00 2.529,64 9.577,31 1.550,00 574,09 31/12/2019
189 302600 ANA LUCIA LOPES SANTOS OFICIAL DO MP ATIVO BELO HORIZONTE - COMARCA; DIVISÃO DE FISCALIZAÇÃO DAS RELAÇÕES DE CONSU 9.337,87 2.801,36 0,00 3.542,44 0,00 0,00 15.681,67 1.448,27 2.418,15 0,00 3.866,42 11.815,25 1.673,21 3.280,86 31/12/2019
190 493400 ANA LUISA NOGUEIRA MOREIRA ANALISTA DO MP ATIVO BELO HORIZONTE - COMARCA; BH-19PJ SAUDE 9.337,87 933,79 0,00 2.361,32 0,00 0,00 12.632,98 1.129,88 1.644,63 0,00 2.774,51 9.858,47 1.550,00 0,00 31/12/2019
191 389300 ANA LUISA REUTER LIMA ANALISTA DO MP ATIVO BELO HORIZONTE - COMARCA; DIRETORIA DE SISTEMAS DE INFORMACAO 9.641,94 1.928,39 0,00 2.549,94 0,00 0,00 14.120,27 1.312,88 1.962,48 0,00 3.275,36 10.844,91 1.550,00 689,62 31/12/2019
192 480600 ANA LUIZA FERNANDES FRAGA E GRECO OFICIAL DO MP ATIVO BELO HORIZONTE - COMARCA; BH-23PJ CIVEL-SEC EXP CIVEIS 6.054,65 605,47 0,00 1.836,74 0,00 0,00 8.496,86 755,71 760,71 0,00 1.516,42 6.980,44 1.550,00 396,96 31/12/2019
193 517800 ANA LUIZA MAGALHAES CIRINO PIOTO DE MELO OFICIAL DO MP ATIVO BELO HORIZONTE - COMARCA; DIVISAO DE MANUTENCAO PREDIAL 4.467,49 446,75 0,00 4.025,72 0,00 0,00 8.939,96 540,57 347,95 0,00 888,52 8.051,44 2.319,39 0,00 31/12/2019
194 481400 ANA MARCIA CANDIDA FERREIRA OFICIAL DO MP ATIVO BRUMADINHO - COMARCA; BRUMADINHO-PJ-02PJ 5.158,42 515,84 0,00 1.693,55 0,00 0,00 7.367,81 643,86 519,41 0,00 1.163,27 6.204,54 1.550,00 338,25 31/12/2019
195 643100 ANA MARIA LOPES MIRANDA ANALISTA DO MP ATIVO BELO HORIZONTE - COMARCA; CAO-FUNDACOES 6.665,41 399,92 0,00 2.317,06 0,00 0,00 9.382,39 642,34 896,96 0,00 1.539,30 7.843,09 1.550,00 1.221,52 31/12/2019
196 556400 ANA MARIA OLIVEIRA SOUZA OFICIAL DO MP ATIVO ITAPECERICA - COMARCA; ITAPECERICA-PJ-UNPJ 4.995,72 499,57 0,00 1.754,18 0,00 0,00 7.249,47 623,54 475,61 0,00 1.099,15 6.150,32 1.550,00 327,44 31/12/2019
197 409600 ANA OLIVIA FARIA ROSENBURG ANALISTA DO MP ATIVO BELO HORIZONTE - COMARCA; DIRETORIA DO COLEGIO E DA CAMARA DE PJ 11.685,57 3.505,67 0,00 3.315,34 0,00 0,00 18.506,58 1.723,72 2.848,70 0,00 4.572,42 13.934,16 1.550,00 1.064,82 31/12/2019
198 461500 ANA PAULA ALVES CARVALHO ANALISTA DO MP ATIVO UBERLÂNDIA - COMARCA; UBERLANDIA-PJ-25PJ 9.337,87 933,79 0,00 2.361,32 0,00 0,00 12.632,98 1.129,88 1.644,63 0,00 2.774,51 9.858,47 2.319,39 0,00 31/12/2019
199 523200 ANA PAULA ALVES DA SILVA OFICIAL DO MP ATIVO GOVERNADOR VALADARES - COMARCA; GOVERNADOR VALADARES-PJ-10PJ 6.054,65 605,47 0,00 1.941,02 0,00 0,00 8.601,14 755,71 656,43 0,00 1.412,14 7.189,00 3.088,78 396,96 31/12/2019
200 381200 ANA PAULA BARROS PEREIRA RIGHI ANALISTA DO MP ATIVO BELO HORIZONTE - COMARCA; PROC JUST RECURSOS ESP E EXTRAORD CRIMINAIS 11.685,57 2.337,11 0,00 2.958,29 0,00 0,00 16.980,97 1.591,12 2.510,56 0,00 4.101,68 12.879,29 2.319,39 835,55 31/12/2019
201 227200 ANA PAULA DA SILVA CAMPOLINA ANALISTA DO MP ATIVO BELO HORIZONTE - COMARCA; DIRETORIA DE ORCAMENTO-DIOR/SPC 17.452,52 8.726,26 0,00 5.544,44 0,00 0,00 31.723,22 2.879,67 5.537,90 0,00 8.417,57 23.305,65 1.550,00 0,00 31/12/2019
202 84200 ANA PAULA DE SOUZA ROCHA OFICIAL DO MP ATIVO BELO HORIZONTE - COMARCA; DIRETORIA DE CONTABILIDADE 26.225,59 18.357,92 0,00 6.020,25 0,00 0,00 50.603,76 3.900,84 7.810,02 9.121,29 20.832,15 29.771,61 1.550,00 0,00 31/12/2019
203 278500 ANA PAULA DIAS CAPANEMA OFICIAL DO MP ATIVO BELO HORIZONTE - COMARCA; DIRETORIA DE SEGURANCA 9.337,87 2.801,36 0,00 2.781,84 0,00 0,00 14.921,07 1.377,42 2.090,14 0,00 3.467,56 11.453,51 1.550,00 0,00 31/12/2019
204 327300 ANA PAULA GARCIA MAXIMO OFICIAL DO MP ATIVO UNAÍ - COMARCA; UNAI-PJ-01PJ 9.641,94 3.856,78 0,00 2.986,46 0,00 0,00 16.485,18 1.663,46 2.278,04 0,00 3.941,50 12.543,68 1.550,00 3.068,62 31/12/2019
205 270000 ANA PAULA GOULART CRUZ DE MAGALHAES ANALISTA DO MP ATIVO BELO HORIZONTE - COMARCA; PROC JUST ESP ACOES COMP ORIG CRIMINAL-ASSESS 12.065,98 3.619,79 0,00 3.147,72 0,00 0,00 18.833,49 1.883,55 2.969,73 0,00 4.853,28 13.980,21 1.550,00 2.716,76 31/12/2019
206 262100 ANA PAULA KOMATSUZAKI ABIJAUDI ANALISTA DO MP ATIVO BELO HORIZONTE - COMARCA; BH-17PJ PATRIMONIO PUBLICO-SECRETARIA 16.148,50 6.459,40 0,00 4.687,88 0,00 0,00 27.295,78 2.581,57 4.559,65 0,00 7.141,22 20.154,56 1.550,00 1.627,10 31/12/2019
207 278900 ANA PAULA MOREIRA GURGEL ANALISTA DO MP ATIVO BELO HORIZONTE - COMARCA; DIRETORIA-GERAL 15.533,57 6.213,43 0,00 4.442,25 0,00 0,00 26.189,25 2.483,28 4.453,22 0,00 6.936,50 19.252,75 1.550,00 1.565,45 31/12/2019
208 425701 ANA PAULA ROCHA ANALISTA DO MP ATIVO BELO HORIZONTE - COMARCA; ASSESSORIA DE COMUNICACAO INTEGRADA 7.576,76 454,61 0,00 6.051,60 0,00 0,00 14.082,97 911,31 1.096,32 0,00 2.007,63 12.075,34 2.319,39 478,62 31/12/2019
209 395601 ANA PAULA SALGE OLIVEIRA ANALISTA DO MP ATIVO UBERABA - COMARCA; COORD REG PP TRIANGULO MINEIRO UBERABA 9.337,87 2.801,36 0,00 2.632,57 0,00 0,00 14.771,80 1.457,68 2.101,72 0,00 3.559,40 11.212,40 1.550,00 2.102,34 31/12/2019
210 473200 ANA PAULA SCOTTON BRASIL ANALISTA DO MP ATIVO JUIZ DE FORA - COMARCA; JUIZ DE FORA-PJ-03PJ 9.337,87 933,79 0,00 2.361,32 0,00 0,00 12.632,98 1.129,88 1.644,63 0,00 2.774,51 9.858,47 2.319,39 0,00 31/12/2019
211 633600 ANA PAULA SILVA FERNANDES OFICIAL DO MP ATIVO CATAGUASES - COMARCA; CATAGUASES-PJ-04PJ 4.467,49 268,05 0,00 1.819,50 0,00 0,00 6.555,04 583,57 312,16 0,00 895,73 5.659,31 1.550,00 1.076,58 31/12/2019
212 470900 ANA PAULA VALADARES ANALISTA DO MP ATIVO PITANGUI - COMARCA; PITANGUI-PJ-01PJ 9.337,87 933,79 0,00 3.800,71 0,00 0,00 14.072,37 1.129,88 1.540,36 0,00 2.670,24 11.402,13 1.550,00 0,00 31/12/2019
213 447000 ANA PAULA VALENTIM DE ARAUJO ANALISTA DO MP ATIVO BELO HORIZONTE - COMARCA; PROC JUST ESP ACOES COMP ORIG CRIMINAL-ASSESS 9.337,87 1.867,57 0,00 2.361,32 0,00 0,00 13.566,76 1.335,32 1.873,17 0,00 3.208,49 10.358,27 1.550,00 1.764,86 31/12/2019
214 604200 ANA PAULA VIANA E SILVA OFICIAL DO MP ATIVO BELO HORIZONTE - COMARCA; BH-17PJ PATRIMONIO PUBLICO-SECRETARIA 4.838,22 483,82 0,00 2.151,71 0,00 0,00 7.473,75 630,28 433,21 0,00 1.063,49 6.410,26 2.319,39 770,74 31/12/2019
215 505400 ANA PAULA VIEIRA SOUTO OFICIAL DO MP ATIVO ALMENARA - COMARCA; COORD. PAT. PUBLICO-MUCURI/JEQUIT - ALMENARA 5.158,42 1.547,53 0,00 5.248,51 0,00 0,00 11.954,46 760,92 719,79 0,00 1.480,71 10.473,75 1.550,00 399,75 31/12/2019
216 280200 ANA RACHEL BRANDAO LADEIRA ROLAND DIRETOR/ANALISTA ATIVO BELO HORIZONTE - COMARCA; SUPRIN DE FORMACAO E APERFEICOAMENTO-SFA/CEAF 15.533,57 7.889,77 0,00 5.420,55 0,00 0,00 28.843,89 2.417,40 4.961,20 0,00 7.378,60 21.465,29 1.550,00 3.369,44 31/12/2019
217 601200 ANA REGINA RIBEIRO COORDENADOR/ANALISTA ATIVO BELO HORIZONTE - COMARCA; DIV FISCAL ADM CONT TERCEIRIZACAO 0,00 1.096,03 10.960,26 2.781,85 0,00 0,00 14.838,14 1.058,44 2.155,05 0,00 3.213,49 11.624,65 1.550,00 0,00 31/12/2019
218 384700 ANA RODRIGUES PEREIRA MARRA ANALISTA DO MP ATIVO COROMANDEL - COMARCA; COROMANDEL-PJ-01PJ 9.337,87 1.867,57 0,00 2.777,86 0,00 0,00 13.983,30 1.271,46 1.768,90 0,00 3.040,36 10.942,94 2.319,39 667,72 31/12/2019
219 232700 ANA SILVIA SEMBLANO NAKAMURA ASSESSOR/OFICIAL ATIVO BELO HORIZONTE - COMARCA; CENT DE APOIO TEC-SETOR DEF,IDOSO E INFANC 0,00 2.892,58 9.641,94 2.721,52 0,00 0,00 15.256,04 1.335,32 2.210,42 0,00 3.545,74 11.710,30 1.550,00 0,00 31/12/2019
220 602100 ANACLETO FRANCISCO MARCIER PIMENTA OFICIAL DO MP ATIVO SÃO JOÃO DEL REI - COMARCA; SAO JOAO DEL REI-PJ-03PJ 4.612,94 461,29 0,00 4.306,71 0,00 0,00 9.380,94 575,77 209,35 0,00 785,12 8.595,82 3.088,78 355,73 31/12/2019
221 310400 ANADEJE DO CARMO DINIZ ARAUJO OFICIAL DO MP ATIVO BELO HORIZONTE - COMARCA; DIRETORIA DE PESSOAL ADMINISTRATIVO - DPAD 8.482,22 2.544,67 0,00 2.644,90 0,00 0,00 13.671,79 1.248,27 1.829,47 0,00 3.077,74 10.594,05 1.550,00 606,73 31/12/2019
222 337000 ANAILDES MARIA MENDES OFICIAL DO MP ATIVO JANAÚBA - COMARCA; JANAUBA-PJ-02PJ 8.482,22 1.696,44 0,00 2.508,32 0,00 0,00 12.686,98 1.154,96 1.621,87 0,00 2.776,83 9.910,15 2.319,39 606,73 31/12/2019
223 192900 ANATALIA CERQUEIRA LIMA PERES OFICIAL DO MP ATIVO UBERABA - COMARCA; COORD REG SAUDE MACROR SANIT TRIANGULO SUL 9.955,90 3.982,36 0,00 2.953,36 0,00 0,00 16.891,62 1.687,62 2.542,03 0,00 4.229,65 12.661,97 1.550,00 2.984,93 31/12/2019
224 377400 ANDEIRSON DA MATTA BARBOSA ANALISTA DO MP ATIVO POUSO ALEGRE - COMARCA; POUSO ALEGRE-PJ-01PJ 9.337,87 1.867,57 0,00 2.496,95 0,00 0,00 13.702,39 1.232,60 1.873,17 0,00 3.105,77 10.596,62 1.550,00 0,00 31/12/2019
225 317400 ANDERSON DA SILVA BICALHO OFICIAL DO MP ATIVO CONTAGEM - COMARCA; COORD REG DEF ORDEM ECON TRIB CONTAGEM 7.823,48 1.564,70 0,00 3.637,26 0,00 0,00 13.025,44 1.065,27 1.271,99 0,00 2.337,26 10.688,18 1.550,00 658,24 31/12/2019
226 506900 ANDERSON DE SOUZA DAMIANI ANALISTA DO MP ATIVO BELO HORIZONTE - COMARCA; DIRETORIA DE PAGAMENTO DE PESSOAL-DPAG 9.337,87 2.801,36 0,00 2.736,85 0,00 0,00 14.876,08 1.335,32 1.997,44 0,00 3.332,76 11.543,32 2.319,39 0,00 31/12/2019
227 410000 ANDERSON DE SOUZA NETO ASSESSOR ATIVO BELO HORIZONTE - COMARCA; DIRETORIA DE ADMINISTRACAO FINANCEIRA 0,00 0,00 4.763,08 2.063,86 0,00 0,00 6.826,94 1.166,28 566,34 0,00 1.732,62 5.094,32 1.550,00 0,00 31/12/2019
228 181900 ANDERSON FLAVIO DE OLIVEIRA OFICIAL DO MP ATIVO ITAGUARA - COMARCA; ITAGUARA-PJ-SECRETARIA 11.685,57 4.674,23 0,00 3.315,34 0,00 0,00 19.675,14 1.980,80 3.134,70 0,00 5.115,50 14.559,64 1.550,00 3.113,76 31/12/2019
229 333200 ANDERSON JOSE DE FREITAS OFICIAL DO MP ATIVO IPATINGA - COMARCA; IPATINGA-PJ-07PJ 8.482,22 1.696,44 0,00 2.966,29 0,00 0,00 13.144,95 1.154,96 1.834,02 0,00 2.988,98 10.155,97 2.319,39 1.946,98 31/12/2019
230 462100 ANDERSON LUIZ GUIMARAES CARDOSO ANALISTA DO MP ATIVO BARBACENA - COMARCA; BARBACENA-PJ-02PJ 9.337,87 933,79 0,00 3.748,58 0,00 0,00 14.020,24 1.129,88 1.644,63 0,00 2.774,51 11.245,73 1.550,00 0,00 31/12/2019
231 429700 ANDERSON MELO DE SOUZA ASSESSOR/OFICIAL ATIVO BELO HORIZONTE - COMARCA; DIRET DE ESTAGIOS E CONVENIOS ACADEMICOS 0,00 1.928,39 9.641,94 2.929,22 0,00 0,00 14.499,55 749,60 2.106,34 0,00 2.855,94 11.643,61 1.550,00 0,00 31/12/2019
232 545600 ANDERSON MENDES PROCOPIO FERREIRA ANALISTA DO MP ATIVO BELO HORIZONTE - COMARCA; BH-12PJ JUIZO CRIMINAL-GAB 089PJ 7.823,48 782,35 0,00 2.255,05 2.868,61 0,00 13.729,49 976,49 2.025,79 0,00 3.002,28 10.727,21 1.550,00 512,93 31/12/2019
233 519900 ANDERSON MOREIRA DOEHLER ANALISTA DO MP ATIVO TEÓFILO OTONI - COMARCA; TEOFILO OTONI-PJ-07PJ 8.482,22 2.544,67 0,00 2.471,01 0,00 0,00 13.497,90 1.307,16 1.829,47 0,00 3.136,63 10.361,27 1.550,00 1.618,52 31/12/2019
234 103000 ANDERSON TADEU DE DEUS ASSESSOR ATIVO BELO HORIZONTE - COMARCA; BH-26 CRIME CONT CRIAN ADOL-SECRETARIA 0,00 3.334,16 4.763,08 2.867,88 0,00 0,00 10.965,12 1.284,68 1.483,24 0,00 2.767,92 8.197,20 1.550,00 0,00 31/12/2019
235 309200 ANDITYAS SOARES DE MOURA COSTA MATOS ANALISTA DO MP ATIVO BELO HORIZONTE - COMARCA; GABINETE DE PROCURADOR DE JUSTIÇA - SALA 304 12.065,98 3.619,79 0,00 3.147,72 0,00 0,00 18.833,49 1.779,83 2.969,73 0,00 4.749,56 14.083,93 1.550,00 934,66 31/12/2019
236 519200 ANDRE BORJA LANA COORDENADOR/ANALISTA ATIVO BELO HORIZONTE - COMARCA; DIR CONTEUDO JORNALISTICO 0,00 1.245,88 12.458,83 3.030,22 0,00 0,00 16.734,93 1.233,41 2.560,25 0,00 3.793,66 12.941,27 1.550,00 0,00 31/12/2019
237 637200 ANDRE FERNANDES DA CUNHA OFICIAL DO MP ATIVO MORADA NOVA DE MINAS - COMARCA; MORADA NOVA DE MINAS-PJ-UNPJ 4.467,49 268,05 0,00 1.750,50 0,00 0,00 6.486,04 553,77 312,16 0,00 865,93 5.620,11 1.550,00 550,92 31/12/2019
238 651500 ANDRE GONCALVES MARANHAO OFICIAL DO MP ATIVO JACINTO - COMARCA; JACINTO-PJ-SECRETARIA 3.569,91 0,00 0,00 3.055,44 0,00 0,00 6.625,35 405,07 121,78 0,00 526,85 6.098,50 1.550,00 212,70 31/12/2019
239 521900 ANDRE LUIS GOMES SILVA ANALISTA DO MP ATIVO FORMIGA - COMARCA; FORMIGA-PJ-02PJ 9.337,87 933,79 0,00 2.884,07 0,00 0,00 13.155,73 1.233,41 1.131,21 0,00 2.364,62 10.791,11 2.319,39 1.778,91 31/12/2019
240 304300 ANDRE LUIZ AVELAR ANALISTA DO MP ATIVO BELO HORIZONTE - COMARCA; DIRETORIA DE REDES E BANCOS DE DADOS 7.823,48 2.347,04 0,00 3.715,95 0,00 0,00 13.886,47 1.118,76 1.619,87 0,00 2.738,63 11.147,84 1.550,00 0,00 31/12/2019
241 397400 ANDRE PATARO MYRRHA DE PAULA E SILVA ANALISTA DO MP ATIVO BELO HORIZONTE - COMARCA; ASSESSORIA JURIDICO-ADMINISTRATIVA 11.685,57 2.337,11 0,00 2.906,16 0,00 0,00 16.928,84 1.591,12 2.562,69 0,00 4.153,81 12.775,03 2.319,39 835,55 31/12/2019
242 650100 ANDRE THOME VARGAS OFICIAL DO MP ATIVO LEOPOLDINA - COMARCA; LEOPOLDINA-PJ-04PJ 3.930,12 235,81 0,00 1.541,27 0,00 0,00 5.707,20 485,51 201,35 0,00 686,86 5.020,34 1.550,00 247,90 31/12/2019
243 548500 ANDRE VINICIUS CARVALHO MEIRA ANALISTA DO MP ATIVO JUIZ DE FORA - COMARCA; JUIZ DE FORA-PJ-25PJ 7.823,48 782,35 0,00 2.255,05 0,00 0,00 10.860,88 976,49 1.236,92 0,00 2.213,41 8.647,47 1.550,00 512,93 31/12/2019
244 297200 ANDRE WILLE ROSARIO ANALISTA DO MP ATIVO BELO HORIZONTE - COMARCA; ASSESSORIA ESPECIAL DO PGJ 15.533,57 4.660,07 0,00 4.798,14 0,00 0,00 24.991,78 2.402,32 3.968,76 0,00 6.371,08 18.620,70 1.550,00 4.109,86 31/12/2019
245 423600 ANDREA COSTA GUALBERTO ALVES ANALISTA DO MP ATIVO GOVERNADOR VALADARES - COMARCA; COORD REG PJ DEF EDU DIR CRIANCA ADOL RIODOCE 11.317,16 7.922,01 0,00 13.335,57 0,00 0,00 32.574,74 2.310,26 3.787,29 0,00 6.097,55 26.477,19 1.550,00 3.332,47 31/12/2019
246 198600 ANDREA CRISTINA ANDRADE COSTA E SOUZA OFICIAL DO MP ATIVO MONTES CLAROS - COMARCA; MONTES CLAROS-PJ-15PJ 13.283,29 5.313,32 0,00 3.622,65 0,00 0,00 22.219,26 2.219,71 3.630,02 0,00 5.849,73 16.369,53 1.550,00 2.990,92 31/12/2019
247 467300 ANDREA DE CASSIA PENNA ALVERNAZ ANALISTA DO MP ATIVO PONTE NOVA - COMARCA; PONTE NOVA-PJ-01PJ 9.337,87 933,79 0,00 2.413,46 0,00 0,00 12.685,12 1.129,88 1.592,49 0,00 2.722,37 9.962,75 1.550,00 0,00 31/12/2019
248 308000 ANDREA DE CASSIA SANTOS OLIVEIRA ANALISTA DO MP ATIVO BELO HORIZONTE - COMARCA; ASSESS TECNICO-JUR JUNTO AS PROC. DE JUST 14.162,21 4.248,66 0,00 3.885,82 0,00 0,00 22.296,69 2.084,12 3.584,56 0,00 5.668,68 16.628,01 2.319,39 1.012,40 31/12/2019
249 349500 ANDREA DE OLIVEIRA LOIOLA REGIS OFICIAL DO MP ATIVO IGUATAMA - COMARCA; IGUATAMA-PJ-UNPJ 7.955,66 1.591,13 0,00 2.308,16 0,00 0,00 11.854,95 1.067,60 1.415,08 0,00 2.482,68 9.372,27 1.550,00 299,79 31/12/2019
250 254700 ANDREA EMISE REIS DE AZEVEDO OFICIAL DO MP ATIVO BELO HORIZONTE - COMARCA; SUPERINTENDENCIA GESTÃO DE PESSOAS 9.955,90 2.986,77 0,00 2.953,36 0,00 0,00 15.896,03 1.468,59 2.298,36 0,00 3.766,95 12.129,08 1.550,00 771,40 31/12/2019
251 287900 ANDREA FERNANDES PENA MARTINS OFICIAL DO MP ATIVO MONTES CLAROS - COMARCA; MONTES CLAROS-PJ-09PJ 9.337,87 2.801,36 0,00 2.736,85 0,00 0,00 14.876,08 1.335,32 1.997,44 0,00 3.332,76 11.543,32 1.550,00 0,00 31/12/2019
252 300800 ANDREA FERREIRA ANALISTA DO MP ATIVO LAVRAS - COMARCA; LAVRAS-PJ-04PJ 13.715,83 4.114,75 0,00 12.374,54 0,00 0,00 30.205,12 2.018,46 3.494,68 0,00 5.513,14 24.691,98 1.550,00 981,00 31/12/2019
253 316700 ANDREA FRANCISCA DIAS DE SOUZA ASSESSOR ATIVO BELO HORIZONTE - COMARCA; ASSESSORIA JURIDICA DO PROCON-MG 0,00 0,00 2.852,73 1.528,79 0,00 0,00 4.381,52 691,55 172,89 0,00 864,44 3.517,08 2.319,39 0,00 31/12/2019
254 395100 ANDREA LANNA MENDES NOVAIS ANALISTA DO MP ATIVO BELO HORIZONTE - COMARCA; PROMOT ESTADUAL DE DEF PATRI CULT E TUR DE MG 12.065,98 2.413,20 0,00 10.264,19 0,00 0,00 24.743,37 1.642,92 2.622,28 0,00 4.265,20 20.478,17 1.550,00 862,77 31/12/2019
255 67300 ANDREA LEAO MAGALHAES ROQUE ASSESSOR ATIVO BELO HORIZONTE - COMARCA; PROCURADOR-GERAL ADJ INSTITUCIONAL- GABINETE 0,00 6.749,36 9.641,94 4.786,18 0,00 0,00 21.177,48 1.284,68 3.711,97 0,00 4.996,65 16.180,83 1.550,00 0,00 31/12/2019
256 335700 ANDREA LOPES PEREIRA ANALISTA DO MP ATIVO GOVERNADOR VALADARES - COMARCA; COORD REG DO MA DA BACIA DO RIO DOCE 13.715,83 2.743,17 0,00 3.260,03 0,00 0,00 19.719,03 1.867,59 3.158,98 0,00 5.026,57 14.692,46 1.550,00 981,00 31/12/2019
257 389200 ANDREA TUPINI DOS SANTOS TRISTAO DA ROCHA COORDENADOR/OFICIAL ATIVO BELO HORIZONTE - COMARCA; BH-13ª PJ JUÍZO DE TÓXICOS-SECRETARIA 0,00 2.192,05 10.960,26 2.788,67 0,00 0,00 15.940,98 1.489,95 2.285,65 0,00 3.775,60 12.165,38 1.550,00 0,00 31/12/2019
258 419000 ANDREIA BARBOSA DE ALMEIDA ANALISTA DO MP ATIVO BELO HORIZONTE - COMARCA; GABINETE DE PROCURADOR DE JUSTIÇA - SALA 705 11.317,16 2.263,43 0,00 3.464,25 0,00 0,00 17.044,84 1.630,77 2.454,49 0,00 4.085,26 12.959,58 1.550,00 2.444,64 31/12/2019
259 281501 ANDREIA CARLA COSTA FILGUEIRAS ANALISTA DO MP ATIVO VISCONDE DO RIO BRANCO - COMARCA; VISCONDE DO RIO BRANCO-PJ-02PJ 11.685,57 2.337,11 0,00 3.127,20 0,00 0,00 17.149,88 1.591,12 2.562,69 0,00 4.153,81 12.996,07 1.550,00 835,55 31/12/2019
260 643600 ANDREIA CRISTINA SILVA OFICIAL DO MP ATIVO PARACATU - COMARCA; PARACATU-PJ-01PJ 4.326,60 259,60 0,00 1.907,41 0,00 0,00 6.493,61 670,94 282,26 0,00 953,20 5.540,41 1.550,00 1.513,38 31/12/2019
261 477100 ANDREIA DE ALMEIDA RIBEIRO MELO OFICIAL DO MP ATIVO CONTAGEM - COMARCA; CONTAGEM-PJ-07PJ 6.251,74 1.250,35 0,00 1.959,03 0,00 0,00 9.461,12 851,25 966,78 0,00 1.818,03 7.643,09 1.550,00 447,00 31/12/2019
262 619000 ANDREIA FERREIRA NORONHA COORDENADOR/OFICIAL ATIVO BELO HORIZONTE - COMARCA; DIRETORIA DE SERVICO CRIMINAL 0,00 1.245,88 12.458,83 3.734,44 0,00 0,00 17.439,15 628,65 2.726,56 0,00 3.355,21 14.083,94 1.550,00 0,00 31/12/2019
263 424000 ANDREIA LUCIA COUTO ANALISTA DO MP ATIVO BELO HORIZONTE - COMARCA; BH-18PJ DIREITOS HUMANOS 11.685,57 2.337,11 0,00 3.127,20 0,00 0,00 17.149,88 1.591,12 2.562,69 0,00 4.153,81 12.996,07 1.550,00 1.481,73 31/12/2019
264 370100 ANDREIA MARIA SILVA PINTO OFICIAL DO MP ATIVO CORONEL FABRICIANO - COMARCA; CORONEL FABRICIANO-PJ-01PJ 7.955,66 1.591,13 0,00 2.256,02 0,00 0,00 11.802,81 1.131,70 1.467,22 0,00 2.598,92 9.203,89 2.319,39 1.401,19 31/12/2019
265 382100 ANDREIA NATALI PEREIRA DE OLIVEIRA OFICIAL DO MP ATIVO PRADOS - COMARCA; PRADOS-PJ-UNPJ 7.955,66 1.591,13 0,00 2.626,71 0,00 0,00 12.173,50 1.131,70 1.467,22 0,00 2.598,92 9.574,58 1.550,00 1.401,19 31/12/2019
266 275200 ANDREIA RIBEIRO FREITAS OFICIAL DO MP ATIVO VIÇOSA - COMARCA; VICOSA-PJ-03PJ 9.337,87 2.801,36 0,00 2.876,08 0,00 0,00 15.015,31 1.377,42 2.049,58 0,00 3.427,00 11.588,31 1.550,00 723,36 31/12/2019
267 352200 ANDREIA XAVIER PEREIRA OFICIAL DO MP ATIVO CLÁUDIO - COMARCA; CLAUDIO-PJ-UNPJ 7.955,66 1.591,13 0,00 2.256,02 0,00 0,00 11.802,81 1.067,60 1.467,22 0,00 2.534,82 9.267,99 1.550,00 352,66 31/12/2019
268 638500 ANDRESA ALVES FEITOSA CASAGRANDE ANALISTA DO MP ATIVO PERDÕES - COMARCA; PERDOES-PJ-UNPJ 6.882,47 412,95 0,00 2.160,17 0,00 0,00 9.455,59 642,34 960,24 0,00 1.602,58 7.853,01 2.319,39 460,16 31/12/2019
269 383700 ANDRESSA EDUARDO SOUZA ANALISTA DO MP ATIVO OURO BRANCO - COMARCA; OURO BRANCO-PJ-SECRETARIA 11.685,57 2.337,11 0,00 4.958,76 0,00 0,00 18.981,44 1.591,12 2.562,69 0,00 4.153,81 14.827,63 3.088,78 835,55 31/12/2019
270 426200 ANDRESSA MENDES CASAL OFICIAL DO MP ATIVO BELO HORIZONTE - COMARCA; DIR ESTRUTURA E PROCESSOS ORGANIZACIONAIS 6.251,74 1.250,35 0,00 2.077,29 0,00 0,00 9.579,38 849,08 966,78 0,00 1.815,86 7.763,52 1.550,00 409,75 31/12/2019
271 390100 ANDRESSA RIBEIRO PUCCI OFICIAL DO MP ATIVO UBERABA - COMARCA; UBERABA-PJ-14PJ 6.054,65 605,47 0,00 2.651,17 0,00 0,00 9.311,29 755,71 760,71 0,00 1.516,42 7.794,87 1.550,00 396,96 31/12/2019
272 462500 ANDREZA APARECIDA COSTA E SILVA ANALISTA DO MP ATIVO CONSELHEIRO LAFAIETE - COMARCA; CONSELHEIRO LAFAIETE-PJ-02PJ 9.337,87 933,79 0,00 2.361,32 0,00 0,00 12.632,98 1.129,88 1.644,63 0,00 2.774,51 9.858,47 1.550,00 0,00 31/12/2019
273 537800 ANDREZZA LUZIA DE OLIVEIRA ALVES ANALISTA DO MP ATIVO PATOS DE MINAS - COMARCA; COORD REG PJ DEF EDU DIR CRI ADO AL PAR NOROE 7.823,48 782,35 0,00 2.359,33 0,00 0,00 10.965,16 976,49 1.132,64 0,00 2.109,13 8.856,03 1.550,00 512,93 31/12/2019
274 491600 ANE PATRICIA RIBEIRO ANALISTA DO MP ATIVO SETE LAGOAS - COMARCA; SETE LAGOAS-PJ-11PJ 9.337,87 933,79 0,00 3.774,65 0,00 0,00 14.046,31 1.129,88 1.592,49 0,00 2.722,37 11.323,94 1.550,00 0,00 31/12/2019
275 465800 ANELISE GAMA ASSESSOR ATIVO BELO HORIZONTE - COMARCA; BH-18PJ VIOLENCIA DOMESTICA-SECRETARIA 0,00 0,00 7.576,76 3.590,75 0,00 0,00 11.167,51 1.284,68 1.340,11 0,00 2.624,79 8.542,72 1.550,00 0,00 31/12/2019
276 535200 ANELIZE FERNANDA ALVES VILARINHO OFICIAL DO MP ATIVO CAPINÓPOLIS - COMARCA; CAPINOPOLIS-PJ-UNPJ 4.612,94 461,29 0,00 1.678,96 0,00 0,00 6.753,19 575,77 379,98 0,00 955,75 5.797,44 2.319,39 302,40 31/12/2019
277 197200 ANGELA COELHO SALDANHA OFICIAL DO MP ATIVO PARÁ DE MINAS - COMARCA; PARA DE MINAS-PJ-03PJ 13.715,83 5.486,33 0,00 3.961,24 0,00 0,00 23.163,40 2.178,85 3.830,37 0,00 6.009,22 17.154,18 1.550,00 1.346,36 31/12/2019
278 307400 ANGELA CRISTINA GONCALVES MUNIZ ANALISTA DO MP ATIVO UBERLÂNDIA - COMARCA; UBERLANDIA-PJ-SEC FAMILIA 15.533,57 4.660,07 0,00 4.746,00 0,00 0,00 24.939,64 2.417,40 4.020,90 0,00 6.438,30 18.501,34 2.319,39 3.963,70 31/12/2019
279 191800 ANGELA MARIA DE OLIVEIRA OFICIAL DO MP ATIVO GUARANÉSIA - COMARCA; GUARANESIA-PJ-SECRETARIA 13.715,83 9.601,08 0,00 6.004,26 0,00 0,00 29.321,17 2.636,23 4.785,32 0,00 7.421,55 21.899,62 1.550,00 1.226,25 31/12/2019
280 69900 ANGELA MARIA DE PAULA CUNHA OFICIAL DO MP ATIVO JUIZ DE FORA - COMARCA; JUIZ DE FORA-PJ-03PJ 14.162,21 11.329,77 0,00 7.692,59 0,00 2.804,12 35.988,69 2.887,59 6.140,93 0,00 9.028,52 26.960,17 1.550,00 1.601,17 31/12/2019
281 497400 ANGELA MARIA HENRIQUES ANALISTA DO MP ATIVO BELO HORIZONTE - COMARCA; COORD REG BACIAS RIO VELHAS E PARAOPEBA 9.337,87 933,79 0,00 2.361,32 0,00 0,00 12.632,98 1.129,88 1.644,63 0,00 2.774,51 9.858,47 1.550,00 0,00 31/12/2019
282 260700 ANGELICA CRISTINA AZEVEDO MOREIRA MOUCO OFICIAL DO MP ATIVO UBÁ - COMARCA; UBA-PJ-05PJ 10.279,98 3.083,99 0,00 2.810,47 0,00 0,00 16.174,44 1.516,38 2.401,47 0,00 3.917,85 12.256,59 1.550,00 796,26 31/12/2019
283 334600 ANGELICA PANISSA DE FREITAS GALLATI OFICIAL DO MP ATIVO GUAXUPÉ - COMARCA; GUAXUPE-PJ-02PJ 8.482,22 2.544,67 0,00 2.471,01 0,00 0,00 13.497,90 1.251,22 1.829,47 0,00 3.080,69 10.417,21 2.319,39 657,30 31/12/2019
284 521100 ANGELICA SALES MOREIRA OFICIAL DO MP ATIVO BELO HORIZONTE - COMARCA; BH-02PJ FAMILIA-SECRETARIA 6.054,65 605,47 0,00 1.836,74 0,00 0,00 8.496,86 755,71 760,71 0,00 1.516,42 6.980,44 1.550,00 396,96 31/12/2019
285 466500 ANGELLO MARQUES AGRELLI ANALISTA DO MP ATIVO MAR DE ESPANHA - COMARCA; MAR DE ESPANHA-PJ-UNPJ 9.337,87 933,79 0,00 2.361,32 0,00 0,00 12.632,98 1.129,88 1.644,63 0,00 2.774,51 9.858,47 1.550,00 0,00 31/12/2019
286 363300 ANGELO VERDOLIN HENRIQUES ANALISTA DO MP ATIVO SETE LAGOAS - COMARCA; SETE LAGOAS-PJ-04PJ 13.283,29 5.313,32 0,00 6.434,41 0,00 0,00 25.031,02 2.219,71 3.682,16 0,00 5.901,87 19.129,15 2.319,39 2.990,92 31/12/2019
287 250900 ANISIO APARECIDO SANTOS OFICIAL DO MP ATIVO MARIANA - COMARCA; MARIANA-PJ-02PJ 5.678,79 1.703,64 0,00 2.509,51 0,00 0,00 9.891,94 812,07 369,63 0,00 1.181,70 8.710,24 1.550,00 0,00 31/12/2019
288 651200 ANITA MARIA SANT ANA DE MATTOS FONTES OFICIAL DO MP ATIVO ERVÁLIA - COMARCA; ERVALIA-PJ-UNPJ 3.930,12 2.751,08 0,00 5.232,54 0,00 0,00 11.913,74 758,11 713,73 0,00 1.471,84 10.441,90 1.550,00 398,26 31/12/2019
289 253400 ANNA FLAVIA LEHMAN BATTAGLIA ANALISTA DO MP ATIVO BELO HORIZONTE - COMARCA; CAO-PATRIMONIO PUBLICO 16.148,50 4.844,55 0,00 4.474,71 0,00 0,00 25.467,76 2.397,18 4.112,28 0,00 6.509,46 18.958,30 1.550,00 1.510,88 31/12/2019
290 447600 ANNGELUCE ALCANTARA DE CAMPOS OFICIAL DO MP ATIVO DIVINÓPOLIS - COMARCA; DIVINOPOLIS-PJ-SECRETARIA 5.863,71 1.172,74 0,00 1.891,40 0,00 0,00 8.927,85 798,42 852,81 0,00 1.651,23 7.276,62 1.550,00 419,39 31/12/2019
291 119600 ANSELMO BORGES PARREIRAS OFICIAL DO MP ATIVO BONFIM - COMARCA; BONFIM-PJ-UNPJ 7.106,49 5.685,20 0,00 4.385,78 0,00 1.407,09 18.584,56 1.536,04 2.596,22 0,00 4.132,26 14.452,30 1.550,00 2.864,32 31/12/2019
292 630300 ANTONIA GOMES RAMALHO OFICIAL DO MP ATIVO NOVO CRUZEIRO - COMARCA; NOVO CRUZEIRO-PJ-UNPJ 4.467,49 446,75 0,00 1.657,95 0,00 0,00 6.572,19 557,00 347,95 0,00 904,95 5.667,24 1.550,00 282,25 31/12/2019
293 332400 ANTONIA MARIA MAMEDE OFICIAL DO MP ATIVO UBERLÂNDIA - COMARCA; COORD REG PP TRIANGULO MINEIRO UBERLANDIA 8.758,36 1.751,67 0,00 4.593,74 0,00 1.156,10 16.259,87 1.262,06 2.020,90 0,00 3.282,96 12.976,91 1.550,00 2.032,44 31/12/2019
294 401600 ANTONIO CARLOS GUEDES AROUCA ANALISTA DO MP ATIVO BELO HORIZONTE - COMARCA; EXTINTA-COORD EST DEF DIR FAM PES DEFIC IDOSO 10.614,65 2.122,93 0,00 3.434,30 0,00 0,00 16.171,88 1.441,63 2.248,16 0,00 3.689,79 12.482,09 1.550,00 695,78 31/12/2019
295 333900 ANTONIO GONCALVES DE SOUZA FILHO OFICIAL DO MP ATIVO BELO HORIZONTE - COMARCA; DIRETORIA DE CONTABILIDADE 7.955,66 1.591,13 0,00 2.256,02 0,00 0,00 11.802,81 1.067,60 1.467,22 0,00 2.534,82 9.267,99 1.550,00 299,79 31/12/2019
296 176100 ANTONIO MARCELO CAMPOS CAMPANELLA OFICIAL DO MP ATIVO BELO HORIZONTE - COMARCA; COORD DE GABINETE DO PGJ 13.715,83 5.486,33 0,00 3.961,24 6.400,72 0,00 29.564,12 2.178,85 5.590,57 0,00 7.769,42 21.794,70 1.550,00 1.144,51 31/12/2019
297 321001 ANTONIO OLINTO VIEIRA MACHADO ANALISTA DO MP ATIVO BELO HORIZONTE - COMARCA; CENTRAL DE APOIO TECN-SETOR DE MEIO AMBIENTE 12.065,98 2.413,20 0,00 3.304,99 0,00 0,00 17.784,17 1.642,92 2.570,14 0,00 4.213,06 13.571,11 1.550,00 862,77 31/12/2019
298 356200 ANTONIO PAULA DA SILVA OFICIAL DO MP ATIVO JUIZ DE FORA - COMARCA; JUIZ DE FORA-PJ-20PJ 7.823,48 2.347,04 0,00 2.506,99 3.390,17 0,00 16.067,68 1.154,04 2.552,17 0,00 3.706,21 12.361,47 1.550,00 606,20 31/12/2019
299 119900 ANTONIO RODRIGUES DE PINHO OFICIAL DO MP ATIVO GUANHÃES - COMARCA; GUANHAES-PJ-01PJ 13.283,29 9.298,31 0,00 15.544,41 0,00 0,00 38.126,01 2.711,62 4.553,21 0,00 7.264,83 30.861,18 2.319,39 3.911,20 31/12/2019
300 373300 ANTONIO SERGIO ANANIAS OFICIAL DO MP ATIVO AIURUOCA - COMARCA; AIURUOCA-PJ-UNPJ 7.106,49 1.421,30 0,00 2.212,29 0,00 0,00 10.740,08 967,63 1.113,54 0,00 2.081,17 8.658,91 1.550,00 508,07 31/12/2019
301 608100 ANTONIO SIDINEY VIEIRA LEMOS ANALISTA DO MP ATIVO PIRAPORA - COMARCA; PIRAPORA-PJ-01PJ 7.576,76 3.030,70 0,00 2.896,09 3.535,82 0,00 17.039,37 1.273,74 2.699,17 0,00 3.972,91 13.066,46 1.550,00 1.837,10 31/12/2019
302 374700 ANTONIO SILVA NETO OFICIAL DO MP ATIVO BELO HORIZONTE - COMARCA; GAECO - SECRETARIA 7.337,85 1.467,57 0,00 2.148,34 0,00 0,00 10.953,76 999,14 1.285,77 0,00 2.284,91 8.668,85 1.550,00 524,72 31/12/2019
303 636700 ANTONIUS VITORIANO FERNANDES OFICIAL DO MP ATIVO BELO HORIZONTE - COMARCA; ASSESSORIA JURIDICA DO PROCON-MG 4.058,04 243,48 0,00 3.603,10 0,00 0,00 7.904,62 503,00 225,25 0,00 728,25 7.176,37 1.550,00 271,20 31/12/2019
304 413200 ANY PEREIRA SILVA ANALISTA DO MP ATIVO TRÊS PONTAS - COMARCA; TRES PONTAS-PJ-01PJ 10.279,98 2.056,00 0,00 2.713,30 0,00 0,00 15.049,28 1.399,74 2.097,73 0,00 3.497,47 11.551,81 1.550,00 735,02 31/12/2019
305 151401 APARECIDA DE FATIMA MENDES DE ALMEIDA ASSESSOR ATIVO JUIZ DE FORA - COMARCA; JUIZ DE FORA-PJ-SECRETARIA 0,00 0,00 4.763,08 2.063,86 0,00 0,00 6.826,94 1.166,28 566,34 0,00 1.732,62 5.094,32 1.550,00 0,00 31/12/2019
306 329300 APARECIDA MARIA MELO DE ASSIS OFICIAL DO MP ATIVO BELO HORIZONTE - COMARCA; BH-18PJ DIREITOS HUMANOS-SECRETARIA 9.337,87 1.867,57 0,00 3.010,34 0,00 0,00 14.215,78 1.345,55 1.873,17 0,00 3.218,72 10.997,06 1.550,00 1.940,61 31/12/2019
307 475300 APARECIDA MARLENE FREIRE ROSA ANALISTA DO MP ATIVO BELO HORIZONTE - COMARCA; BH-02PJ FAMILIA 10.279,98 9.251,98 0,00 5.571,92 0,00 2.148,52 27.252,40 2.216,25 4.501,93 0,00 6.718,18 20.534,22 1.550,00 1.299,23 31/12/2019
308 240300 APARECIDA PEREIRA DO NASCIMENTO OFICIAL DO MP ATIVO ITURAMA - COMARCA; ITURAMA-PJ-01PJ 11.317,16 7.922,01 0,00 5.198,17 0,00 2.116,31 26.553,65 2.310,26 4.421,41 0,00 6.731,67 19.821,98 1.593,47 4.308,11 31/12/2019
309 653000 APARECIDA ROSA DE LIMA ASSESSOR ATIVO BELO HORIZONTE - COMARCA; SECRETARIA PROCESSOS DISCIPES ADMINISTRATIVOS 0,00 0,00 7.576,76 2.750,77 0,00 0,00 10.327,53 1.284,68 1.340,11 0,00 2.624,79 7.702,74 1.550,00 0,00 31/12/2019
310 354500 APARECIDA VIEIRA DE CARVALHO OFICIAL DO MP ATIVO BELO HORIZONTE - COMARCA; DIVISÃO DE EDUCAÇÃO PARA O CONSUMO 6.882,47 1.376,49 0,00 2.447,40 0,00 0,00 10.706,36 991,75 1.152,02 0,00 2.143,77 8.562,59 1.550,00 1.430,50 31/12/2019
311 551000 ARACELES BICALHO FELIX ANALISTA DO MP ATIVO MANHUAÇU - COMARCA; MANHUACU-PJ-02PJ 7.823,48 782,35 0,00 2.255,05 0,00 0,00 10.860,88 976,49 1.236,92 0,00 2.213,41 8.647,47 2.319,39 512,93 31/12/2019
312 286200 ARACELI MEDRADO DOS SANTOS LIMA OFICIAL DO MP ATIVO PARACATU - COMARCA; PARACATU-PJ-03PJ 5.678,79 1.703,64 0,00 1.941,65 0,00 0,00 9.324,08 812,07 937,49 0,00 1.749,56 7.574,52 1.550,00 0,00 31/12/2019
313 189000 ARAHY MARQUES SILVA OFICIAL DO MP ATIVO BELO HORIZONTE - COMARCA; BH-13ª PJ JUÍZO DE TÓXICOS-SECRETARIA 5.678,79 2.271,52 0,00 1.941,65 0,00 0,00 9.891,96 937,00 1.076,48 0,00 2.013,48 7.878,48 1.550,00 1.073,29 31/12/2019
314 112200 ARAQUEM AUGUSTO DE MATOS AGENTE DO MP ATIVO BELO HORIZONTE - COMARCA; BH-23PJ CIVEL-SEC EXP CIVEIS 6.054,65 4.843,73 0,00 3.477,91 0,00 1.198,82 15.575,11 1.236,63 1.971,28 0,00 3.207,91 12.367,20 1.550,00 725,19 31/12/2019
315 280600 ARDUINO FRATTEZI ANALISTA DO MP ATIVO BELO HORIZONTE - COMARCA; CENTRAL DE APOIO TECNICO-SETOR CONTABIL 15.533,57 4.660,07 0,00 4.693,87 0,00 0,00 24.887,51 2.417,40 4.073,03 0,00 6.490,43 18.397,08 1.550,00 3.369,44 31/12/2019
316 520201 ARIANE DE FATIMA CARVALHO ALMEIDA RODRIGUES ANALISTA DO MP ATIVO VESPASIANO - COMARCA; VESPASIANO-PJ-04PJ 7.576,76 757,68 0,00 3.484,86 0,00 0,00 11.819,30 997,74 1.118,36 0,00 2.116,10 9.703,20 2.319,39 1.390,95 31/12/2019
317 537600 ARIELA FREIRE MONTIJO ANALISTA DO MP ATIVO ARCOS - COMARCA; ARCOS-PJ-01PJ 7.823,48 782,35 0,00 2.359,33 0,00 0,00 10.965,16 976,49 1.132,64 0,00 2.109,13 8.856,03 2.319,39 603,39 31/12/2019
318 182000 ARILSON ALEXANDRE MARTINS MAGALHAES OFICIAL DO MP ATIVO JOÃO MONLEVADE - COMARCA; JOAO MONLEVADE-PJ-01PJ 12.065,98 4.826,39 0,00 3.531,52 0,00 0,00 20.423,89 1.916,74 3.056,50 0,00 4.973,24 15.450,65 4.611,13 1.006,56 31/12/2019
319 511000 ARISLANE CAROLINA DA SILVA ANALISTA DO MP ATIVO CAMPINA VERDE - COMARCA; CAMPINA VERDE-PJ-UNPJ 9.337,87 933,79 0,00 2.361,32 0,00 0,00 12.632,98 1.233,41 1.644,63 0,00 2.878,04 9.754,94 3.088,78 2.092,65 31/12/2019
320 170000 ARLEY BRITES DA SILVA ASSESSOR ATIVO BELO HORIZONTE - COMARCA; BH-14PJ DEFESA CONSUMIDOR-SECRETARIA 0,00 1.905,23 4.763,08 2.702,78 0,00 0,00 9.371,09 1.284,68 488,82 0,00 1.773,50 7.597,59 4.217,32 244,50 31/12/2019
321 120400 ARLINDO CASSIO DA CRUZ OFICIAL DO MP ATIVO SÃO GONÇALO DO SAPUCAÍ - COMARCA; SAO GONCALO DO SAPUCAI-PJ-01PJ 17.452,52 13.962,02 0,00 5.536,60 0,00 0,00 36.951,14 3.455,60 6.715,07 0,00 10.170,67 26.780,47 1.550,00 0,00 31/12/2019
322 243700 ARLINDO MARCIO LACERDA OFICIAL DO MP ATIVO CONTAGEM - COMARCA; CONTAGEM-PJ-03PJ 11.317,16 4.526,86 0,00 4.198,29 0,00 0,00 20.042,31 1.902,57 3.377,03 0,00 5.279,60 14.762,71 1.550,00 4.084,62 31/12/2019
323 392100 ARNALDO DE ANDRADE OFICIAL DO MP ATIVO DIVINÓPOLIS - COMARCA; DIVINOPOLIS-PJ-02PJ 7.955,66 1.591,13 0,00 2.980,40 0,00 0,00 12.527,19 1.131,70 1.783,65 0,00 2.915,35 9.611,84 2.319,39 2.988,56 31/12/2019
324 642400 ARTANE INARDE DE SIQUEIRA DAMASCENO ANALISTA DO MP ATIVO BELO HORIZONTE - COMARCA; PROC JUST RECURSOS ESP E EXTRAORD CRIMINAIS 6.882,47 412,95 0,00 2.160,17 0,00 0,00 9.455,59 642,34 960,24 0,00 1.602,58 7.853,01 2.319,39 460,16 31/12/2019
325 302100 AUGUSTO ROUSSEAU DE CASTRO ANALISTA DO MP ATIVO CATAGUASES - COMARCA; CATAGUASES-PJ-02PJ 15.533,57 4.660,07 0,00 4.187,05 0,00 0,00 24.380,69 2.299,40 4.073,03 0,00 6.372,43 18.008,26 1.550,00 1.341,82 31/12/2019
326 540200 AUREA AVELAR BITTENCOURT OFICIAL DO MP ATIVO BELO HORIZONTE - COMARCA; GRUPO ESP PROM JUST DEF PROB ADM PAT PUB 4.612,94 461,29 0,00 1.764,27 0,00 0,00 6.838,50 575,77 294,67 0,00 870,44 5.968,06 1.550,00 302,40 31/12/2019
327 183200 AURELIANO MAGELA DE REZENDE COORDENADOR/OFICIAL ATIVO BELO HORIZONTE - COMARCA; COORD DE GABINETE DO PGJ 12.864,49 7.637,57 0,00 3.859,14 6.834,02 0,00 31.195,22 2.180,65 6.103,25 0,00 8.283,90 22.911,32 1.550,00 3.428,10 31/12/2019
328 629400 AYESKA DA COSTA VAL MOURA DABIEN OFICIAL DO MP ATIVO BELO HORIZONTE - COMARCA; BH-18PJ VIOLENCIA DOMESTICA-SECRETARIA 4.467,49 446,75 0,00 1.657,95 0,00 0,00 6.572,19 557,00 347,95 0,00 904,95 5.667,24 1.550,00 282,25 31/12/2019
329 652800 BARBARA JULIANNE MOREIRA CASTRO ASSESSOR ATIVO BELO HORIZONTE - COMARCA; ASSESS TECNICO-JUR JUNTO AS PROC. DE JUST 0,00 0,00 7.576,76 2.750,77 0,00 0,00 10.327,53 1.284,68 1.340,11 0,00 2.624,79 7.702,74 1.550,00 0,00 31/12/2019
330 663600 BARBARA REGINA PEREIRA DE PINHO MAGALHAES ASSESSOR ATIVO BELO HORIZONTE - COMARCA; CAO-DH CONT EXT ATIV POLIC E AP COMUNIT-REC 0,00 0,00 7.576,76 2.750,77 0,00 0,00 10.327,53 1.284,68 1.340,11 0,00 2.624,79 7.702,74 1.550,00 0,00 31/12/2019
331 546500 BARBARA ZACARONI GOULART OFICIAL DO MP ATIVO BETIM - COMARCA; BETIM-PJ-08PJ 4.612,94 461,29 0,00 2.123,23 0,00 0,00 7.197,46 575,77 379,98 0,00 955,75 6.241,71 1.550,00 302,40 31/12/2019
332 316500 BEATRIZ ABILVIA DA SILVA ANALISTA DO MP ATIVO GOVERNADOR VALADARES - COMARCA; GOVERNADOR VALADARES-PJ-07PJ 14.162,21 4.248,66 0,00 4.519,47 0,00 0,00 22.930,34 2.084,12 3.636,70 0,00 5.720,82 17.209,52 1.550,00 1.012,40 31/12/2019
333 311800 BEATRIZ APARECIDA SOARES GANEM OFICIAL DO MP ATIVO ITAMBACURI - COMARCA; ITAMBACURI-PJ-02PJ 9.043,46 2.713,04 0,00 2.733,40 0,00 0,00 14.489,90 1.333,99 1.851,63 0,00 3.185,62 11.304,28 1.550,00 700,49 31/12/2019
334 266800 BEATRIZ AUGUSTA VILACA GOMES DE HUBER OFICIAL DO MP ATIVO BELO HORIZONTE - COMARCA; BH-05PJ-JUÍZO SUCESSÕES-SEC 7.955,66 2.386,70 0,00 7.542,77 0,00 0,00 17.885,13 1.226,01 1.661,93 0,00 2.887,94 14.997,19 1.550,00 1.517,95 31/12/2019
335 235200 BEATRIZ BOTELHO BATISTA OFICIAL DO MP ATIVO BELO HORIZONTE - COMARCA; BH-21PJ TUTELA FUNDACOES-SECRETARIA 9.337,87 2.801,36 0,00 2.632,57 0,00 0,00 14.771,80 1.335,32 2.101,72 0,00 3.437,04 11.334,76 1.550,00 0,00 31/12/2019
336 182300 BEATRIZ PAULA SOUSA RAMOS OFICIAL DO MP ATIVO MARIANA - COMARCA; MARIANA-PJ-01PJ 12.065,98 4.826,39 0,00 11.821,30 0,00 0,00 28.713,67 1.916,74 3.212,91 0,00 5.129,65 23.584,02 1.550,00 1.006,56 31/12/2019
337 507000 BELCHIOR FRANKLIN AMARAL LEITE ANALISTA DO MP ATIVO BELO HORIZONTE - COMARCA; CENTRAL DE APOIO TECNICO 9.337,87 933,79 0,00 3.826,78 0,00 0,00 14.098,44 1.129,88 1.488,22 0,00 2.618,10 11.480,34 2.319,39 0,00 31/12/2019
338 345100 BENITO ELIAS RODRIGUES ANALISTA DO MP ATIVO BARBACENA - COMARCA; BARBACENA - SECRETARIA DAS PJS CRIMINAIS 13.715,83 2.743,17 0,00 3.519,55 0,00 0,00 19.978,55 1.867,59 3.158,98 0,00 5.026,57 14.951,98 1.550,00 981,00 31/12/2019
339 207300 BENITO VIEIRA DOS SANTOS ANALISTA DO MP ATIVO BELO HORIZONTE - COMARCA; PROC JUST ESP ACOES COMP ORIG CRIMINAL-ASSESS 17.452,52 6.981,01 0,00 8.012,93 0,00 2.687,69 35.134,15 2.687,69 4.203,83 0,00 6.891,52 28.242,63 1.550,00 0,00 31/12/2019
340 480200 BERNADETE NUNES DOS SANTOS ANALISTA DO MP ATIVO GUANHÃES - COMARCA; GUANHAES-PJ-02PJ 9.337,87 2.801,36 0,00 4.351,09 0,00 0,00 16.490,32 1.335,32 2.101,72 0,00 3.437,04 13.053,28 1.550,00 0,00 31/12/2019
341 378400 BETANIA FARNESI DE SOUZA E SILVA OFICIAL DO MP ATIVO SETE LAGOAS - COMARCA; SETE LAGOAS-PJ-SEC CRIMINAIS 7.337,85 2.935,14 0,00 2.413,64 0,00 0,00 12.686,63 1.163,11 1.592,82 0,00 2.755,93 9.930,70 1.682,34 568,46 31/12/2019
342 387400 BETANIA MENDONCA DE ASSIS CARVALHO ANALISTA DO MP ATIVO BELO HORIZONTE - COMARCA; BH-08PJ JUIZADO ESPECIAL-SECRETARIA 11.685,57 2.337,11 0,00 2.958,29 0,00 0,00 16.980,97 1.591,12 2.510,56 0,00 4.101,68 12.879,29 2.319,39 855,79 31/12/2019
343 450300 BIANCA OLIVEIRA DE ALBUQUERQUE ANALISTA DO MP ATIVO BELO HORIZONTE - COMARCA; BH-10PJ EXECUÇÃO PENAL 9.337,87 933,79 0,00 2.361,32 0,00 0,00 12.632,98 1.129,88 1.644,63 0,00 2.774,51 9.858,47 2.319,39 0,00 31/12/2019
344 535400 BIANCA SALOTO ROSSI ANALISTA DO MP ATIVO SANTOS DUMONT - COMARCA; SANTOS DUMONT-PJ-01PJ 7.823,48 782,35 0,00 2.255,05 0,00 0,00 10.860,88 976,49 1.236,92 0,00 2.213,41 8.647,47 1.550,00 512,93 31/12/2019
345 120800 BRAS MARQUES DE SOUZA ANALISTA DO MP ATIVO BELO HORIZONTE - COMARCA; SUPERINTENDENCIA DE GESTAO ADMINISTRATIVA 22.030,87 17.624,70 0,00 8.952,63 0,00 3.900,84 52.509,04 3.900,84 8.778,48 4.193,35 16.872,67 35.636,37 1.550,00 0,00 31/12/2019
346 460900 BRENO CRISTIANO DE SOUZA REZENDE ANALISTA DO MP ATIVO ITAÚNA - COMARCA; ITAUNA-PJ-02PJ 7.955,66 795,57 0,00 2.140,47 0,00 0,00 10.891,70 978,63 1.272,50 0,00 2.251,13 8.640,57 1.550,00 274,81 31/12/2019
347 239000 BRENO VENANCIO ROMANINI OFICIAL DO MP ATIVO BELO HORIZONTE - COMARCA; BH-20PJ ORD ECON TRIBUTARIA-SECRETARIA 9.337,87 2.801,36 0,00 8.702,19 0,00 0,00 20.841,42 1.377,42 2.101,72 0,00 3.479,14 17.362,28 1.550,00 723,36 31/12/2019
348 202201 BRIGITTE AMARALINA DE CALDAS LIMA OFICIAL DO MP ATIVO NANUQUE - COMARCA; NANUQUE-PJ-03PJ 9.337,87 3.735,15 0,00 3.028,90 0,00 0,00 16.101,92 1.438,03 2.069,58 0,00 3.507,61 12.594,31 1.550,00 0,00 31/12/2019
349 642300 BRUNA IZABELITA DE FATIMA OLIVEIRA COSTA OFICIAL DO MP ATIVO BELO HORIZONTE - COMARCA; BH-02PJ FAMILIA-SECRETARIA 4.467,49 268,05 0,00 3.902,47 0,00 0,00 8.638,01 537,34 312,16 0,00 849,50 7.788,51 1.550,00 332,03 31/12/2019
350 513600 BRUNA KARLA MARTINS CARVALHO ANALISTA DO MP ATIVO GOVERNADOR VALADARES - COMARCA; GOVERNADOR VALADARES-PJ-01PJ 9.337,87 933,79 0,00 2.361,32 0,00 0,00 12.632,98 1.233,41 1.644,63 0,00 2.878,04 9.754,94 1.550,00 1.778,91 31/12/2019
351 415100 BRUNA MARIA SOARES OLIVEIRA COSTA RAMOS ANALISTA DO MP ATIVO UBÁ - COMARCA; COORD REG BACIA DO RIO PARAIBA DO SUL 11.685,57 2.337,11 0,00 5.101,38 0,00 0,00 19.124,06 1.591,12 2.562,69 0,00 4.153,81 14.970,25 4.354,54 1.125,42 31/12/2019
352 470000 BRUNA MORAES ANALISTA DO MP ATIVO TOMBOS - COMARCA; TOMBOS-PJ-UNPJ 10.279,98 1.028,00 0,00 2.846,49 0,00 0,00 14.154,47 1.283,09 1.741,86 0,00 3.024,95 11.129,52 2.319,39 673,77 31/12/2019
353 614700 BRUNA NATTANY DE LIMA OFICIAL DO MP ATIVO MANTENA - COMARCA; MANTENA-PJ-01PJ 4.838,22 483,82 0,00 1.846,29 0,00 0,00 7.168,33 628,65 433,21 0,00 1.061,86 6.106,47 1.550,00 742,71 31/12/2019
354 631800 BRUNA RAPOSO JORGE OFICIAL DO MP ATIVO JUIZ DE FORA - COMARCA; JUIZ DE FORA-PJ-06PJ 4.467,49 268,05 0,00 1.534,70 0,00 0,00 6.270,24 537,34 312,16 0,00 849,50 5.420,74 1.550,00 282,25 31/12/2019
355 463800 BRUNO ALVES TEIXEIRA ANALISTA DO MP ATIVO UBERLÂNDIA - COMARCA; UBERLANDIA-PJ-04PJ 9.337,87 933,79 0,00 2.361,32 0,00 0,00 12.632,98 1.129,88 1.644,63 0,00 2.774,51 9.858,47 1.550,00 0,00 31/12/2019
356 538500 BRUNO AUGUSTO DA SILVA OFICIAL DO MP ATIVO SANTA LUZIA - COMARCA; SANTA LUZIA-PJ-03PJ 4.995,72 499,57 0,00 4.415,20 0,00 0,00 9.910,49 623,54 475,61 0,00 1.099,15 8.811,34 2.319,39 385,19 31/12/2019
357 318200 BRUNO BARROS DE SOUZA OFICIAL DO MP ATIVO UBÁ - COMARCA; UBA-PJ-04PJ 9.337,87 2.801,36 0,00 4.080,41 0,00 0,00 16.219,64 1.448,27 1.696,28 0,00 3.144,55 13.075,09 1.550,00 1.940,61 31/12/2019
358 459600 BRUNO CASTELAR LUGAO MENDES OFICIAL DO MP ATIVO GOVERNADOR VALADARES - COMARCA; GOVERNADOR VALADARES-PJ-05PJ 6.882,47 688,25 0,00 5.754,37 0,00 0,00 13.325,09 909,10 983,57 0,00 1.892,67 11.432,42 1.550,00 1.311,28 31/12/2019
359 427400 BRUNO CESAR RIBEIRO DE PAIVA ANALISTA DO MP ATIVO BELO HORIZONTE - COMARCA; ASSESS JUR DO CONS SUPERIOR DO MINISTERIO PUB 11.685,57 2.337,11 0,00 3.127,20 0,00 0,00 17.149,88 1.587,07 2.562,69 0,00 4.149,76 13.000,12 1.550,00 765,92 31/12/2019
360 380900 BRUNO CIRILO ANTUNES OFICIAL DO MP ATIVO VARGINHA - COMARCA; VARGINHA-PJ-05PJ 7.576,76 1.515,35 0,00 2.189,99 0,00 0,00 11.282,10 1.091,78 1.355,93 0,00 2.447,71 8.834,39 1.550,00 1.574,65 31/12/2019
361 329000 BRUNO DE MELO REIS ANALISTA DO MP ATIVO PATROCÍNIO - COMARCA; PATROCINIO-PJ-02PJ 13.715,83 4.114,75 0,00 3.563,53 0,00 0,00 21.394,11 2.023,21 3.390,40 0,00 5.413,61 15.980,50 2.319,39 1.062,75 31/12/2019
362 601700 BRUNO DIAS JUNQUEIRA PEREIRA ANALISTA DO MP ATIVO BELO HORIZONTE - COMARCA; ASSESS TECNICO-JUR JUNTO AS PROC. DE JUST 7.823,48 782,35 0,00 2.255,05 0,00 0,00 10.860,88 976,49 1.236,92 0,00 2.213,41 8.647,47 1.550,00 512,93 31/12/2019
363 378300 BRUNO HERDY LOPES DE OLIVEIRA ANALISTA DO MP ATIVO MANTENA - COMARCA; MANTENA-PJ-02PJ 11.685,57 2.337,11 0,00 2.906,16 0,00 0,00 16.928,84 1.591,12 2.562,69 0,00 4.153,81 12.775,03 1.550,00 835,55 31/12/2019
364 529700 BRUNO JOSE BUENO DIAS OFICIAL DO MP ATIVO SÃO SEBASTIÃO DO PARAÍSO - COMARCA; SAO SEBASTIAO DO PARAISO-PJ-02PJ 4.995,72 499,57 0,00 1.806,31 0,00 0,00 7.301,60 623,54 423,48 0,00 1.047,02 6.254,58 1.550,00 327,44 31/12/2019
365 350100 BRUNO LAUD SERRANO DOS REIS OFICIAL DO MP ATIVO UBÁ - COMARCA; UBA-PJ-02PJ 7.955,66 2.386,70 0,00 2.509,64 0,00 0,00 12.852,00 1.259,09 1.609,80 0,00 2.868,89 9.983,11 1.550,00 2.086,41 31/12/2019
366 373800 BRUNO MARTINO DE ALBUQUERQUE ANALISTA DO MP ATIVO PONTE NOVA - COMARCA; PONTE NOVA-PJ-03PJ 11.685,57 2.337,11 0,00 3.010,43 0,00 0,00 17.033,11 1.591,12 2.458,42 0,00 4.049,54 12.983,57 1.550,00 835,55 31/12/2019
367 470400 BRUNO NOVAIS CABRAL ANALISTA DO MP ATIVO MUTUM - COMARCA; MUTUM-PJ-UNPJ 9.337,87 933,79 0,00 2.361,32 0,00 0,00 12.632,98 1.129,88 1.644,63 0,00 2.774,51 9.858,47 1.550,00 0,00 31/12/2019
368 648600 BRUNO RIBEIRO E MELO ASSESSOR ATIVO BELO HORIZONTE - COMARCA; DIR RELACOES INSTITUCIONAIS 0,00 0,00 7.576,76 6.539,15 0,00 0,00 14.115,91 1.284,68 1.340,11 0,00 2.624,79 11.491,12 1.550,00 0,00 31/12/2019
369 369200 BRUNO ROBERTO DIAS DE OLIVEIRA OFICIAL DO MP ATIVO BELO HORIZONTE - COMARCA; BH-22PJ PES COM DEF E IDOSOS 8.214,70 1.642,94 0,00 2.456,60 0,00 0,00 12.314,24 1.118,53 1.543,30 0,00 2.661,83 9.652,41 1.550,00 587,51 31/12/2019
370 547700 BRUNO ROBERTO SOUZA GONCALVES ANALISTA DO MP ATIVO PARACATU - COMARCA; PARACATU-PJ-03PJ 7.823,48 782,35 0,00 2.255,05 0,00 0,00 10.860,88 976,49 1.236,92 0,00 2.213,41 8.647,47 3.088,78 512,93 31/12/2019
371 546100 BRUNO SA VIEIRA ANALISTA DO MP ATIVO ERVÁLIA - COMARCA; ERVALIA-PJ-UNPJ 7.823,48 782,35 0,00 2.307,19 0,00 0,00 10.913,02 976,49 1.184,78 0,00 2.161,27 8.751,75 1.550,00 512,93 31/12/2019
372 438200 BRUNO SALES PEREIRA ANALISTA DO MP ATIVO BELO HORIZONTE - COMARCA; CENTRAL DE APOIO TECNICO-SETOR CONTABIL 9.955,90 1.991,18 0,00 3.154,60 0,00 0,00 15.101,68 1.352,17 2.002,55 0,00 3.354,72 11.746,96 3.088,78 767,85 31/12/2019
373 537400 BRUNO SANT'ANA CESAR ANALISTA DO MP ATIVO CONTAGEM - COMARCA; CONTAGEM-PJ-19PJ 7.823,48 782,35 0,00 2.255,05 0,00 0,00 10.860,88 976,49 1.236,92 0,00 2.213,41 8.647,47 1.550,00 512,93 31/12/2019
374 405800 CAIO FERNANDO RODRIGUES DE OLIVEIRA ANALISTA DO MP ATIVO BELO HORIZONTE - COMARCA; ASSESS TECNICO-JUR JUNTO AS PROC. DE JUST 11.685,57 2.337,11 0,00 3.127,20 0,00 0,00 17.149,88 1.591,12 2.562,69 0,00 4.153,81 12.996,07 1.550,00 835,55 31/12/2019
375 530000 CAIO GUEDES DE OLIVEIRA ANALISTA DO MP ATIVO DIAMANTINA - COMARCA; DIAMANTINA-PJ-02PJ 7.823,48 782,35 0,00 3.324,77 0,00 0,00 11.930,60 976,49 1.184,78 0,00 2.161,27 9.769,33 2.319,39 512,93 31/12/2019
376 491400 CAIO MIRANDA JUNQUEIRA ANALISTA DO MP ATIVO BUENO BRANDAO - COMARCA; BUENO BRANDAO-PJ-UNPJ 8.758,36 875,84 0,00 2.524,88 0,00 0,00 12.159,08 1.093,17 1.384,34 0,00 2.477,51 9.681,57 2.319,39 574,09 31/12/2019
377 415800 CAMILA ALVES DA SILVA ANALISTA DO MP ATIVO CAETÉ - COMARCA; CAETE-PJ-01PJ 11.317,16 2.263,43 0,00 2.841,94 0,00 0,00 16.422,53 1.630,77 2.454,49 0,00 4.085,26 12.337,27 1.550,00 2.352,33 31/12/2019
378 555800 CAMILA CAROLINE ROCHA CHAVES OFICIAL DO MP ATIVO SALINAS - COMARCA; SALINAS-PJ-01PJ 4.995,72 499,57 0,00 2.263,50 0,00 0,00 7.758,79 623,54 475,61 0,00 1.099,15 6.659,64 1.550,00 327,44 31/12/2019
379 445200 CAMILA CONDE ROCHA ANALISTA DO MP ATIVO CONTAGEM - COMARCA; CONTAGEM-PJ-08PJ 9.337,87 1.867,57 0,00 2.963,84 0,00 0,00 14.169,28 1.232,60 1.873,17 0,00 3.105,77 11.063,51 2.319,39 0,00 31/12/2019
380 419900 CAMILA CUNNINGHAM PIMENTA DE PADUA ANALISTA DO MP ATIVO BELO HORIZONTE - COMARCA; ASSESSORIA PSICOSSOCIAL 11.685,57 2.337,11 0,00 3.127,20 0,00 0,00 17.149,88 1.591,12 2.562,69 0,00 4.153,81 12.996,07 1.550,00 868,34 31/12/2019
381 507700 CAMILA ELIZABETH RODRIGUES ANALISTA DO MP ATIVO BELO HORIZONTE - COMARCA; BH-02PJ FAMILIA 9.337,87 933,79 0,00 2.361,32 0,00 0,00 12.632,98 1.129,88 1.644,63 0,00 2.774,51 9.858,47 1.550,00 940,38 31/12/2019
382 372700 CAMILA FONSECA LIMONGE ANALISTA DO MP ATIVO BETIM - COMARCA; BETIM-PJ-01PJ 11.685,57 2.337,11 0,00 2.906,16 0,00 0,00 16.928,84 1.591,12 2.562,69 0,00 4.153,81 12.775,03 2.319,39 835,55 31/12/2019
383 621300 CAMILA GOLFETO DE SOUSA VALENTE OFICIAL DO MP ATIVO ESPERA FELIZ - COMARCA; ESPERA FELIZ-PJ-UNPJ 4.838,22 483,82 0,00 2.067,21 0,00 0,00 7.389,25 628,65 301,64 0,00 930,29 6.458,96 2.462,15 873,70 31/12/2019
384 409800 CAMILA GONCALVES COSTA RIBEIRO ANALISTA DO MP ATIVO INHAPIM - COMARCA; INHAPIM-PJ-02PJ 9.337,87 1.867,57 0,00 2.549,09 0,00 0,00 13.754,53 1.232,60 1.821,03 0,00 3.053,63 10.700,90 2.319,39 0,00 31/12/2019
385 335000 CAMILA GONTIJO DE PAIVA ANALISTA DO MP ATIVO BELO HORIZONTE - COMARCA; COORD DE CONTROLE CONSTITUCIONALIDADE 13.283,29 2.656,66 0,00 11.206,75 0,00 0,00 27.146,70 1.808,67 2.979,81 0,00 4.788,48 22.358,22 2.319,39 949,84 31/12/2019
386 547800 CAMILA MATTARELLI DE ABREU E SILVA ANALISTA DO MP ATIVO BELO HORIZONTE - COMARCA; CAO-VIOLENCIA DOMESTICA E FAMILIAR 7.823,48 782,35 0,00 2.255,05 2.868,61 0,00 13.729,49 976,49 2.025,79 0,00 3.002,28 10.727,21 1.550,00 512,93 31/12/2019
387 430000 CANDIDA MARINA COSTA ANALISTA DO MP ATIVO BELO HORIZONTE - COMARCA; DIVISAO DE DOCUMENTACAO JURIDICA 11.317,16 2.263,43 0,00 2.841,94 0,00 0,00 16.422,53 1.619,36 2.454,49 0,00 4.073,85 12.348,68 1.550,00 2.156,30 31/12/2019
388 614300 CARINA CORTIELHA OFICIAL DO MP ATIVO BELO HORIZONTE - COMARCA; BH-23PJ CIVEL-SEC EXP CIVEIS 4.467,49 446,75 0,00 2.168,19 0,00 0,00 7.082,43 588,31 347,95 0,00 936,26 6.146,17 1.550,00 820,30 31/12/2019
389 380400 CARINA DIAS FACANHA DE SOUZA ANALISTA DO MP ATIVO SANTA RITA DO SAPUCAÍ - COMARCA; SANTA RITA DO SAPUCAI-PJ-SECRETARIA 11.685,57 2.337,11 0,00 9.917,50 0,00 0,00 23.940,18 1.591,12 2.562,69 0,00 4.153,81 19.786,37 1.550,00 835,55 31/12/2019
390 255000 CARLA ADRIANA DE MENEZES OFICIAL DO MP ATIVO BELO HORIZONTE - COMARCA; CENT DE APOIO TEC-SETOR DEF,IDOSO E INFANC 9.337,87 2.801,36 0,00 2.823,94 0,00 0,00 14.963,17 1.377,42 2.101,72 0,00 3.479,14 11.484,03 1.550,00 723,36 31/12/2019
391 425100 CARLA ADRIANA DINIZ AMARAL OFICIAL DO MP ATIVO CONTAGEM - COMARCA; CONTAGEM-PJ-08PJ 7.337,85 1.467,57 0,00 2.287,15 0,00 0,00 11.092,57 996,60 1.285,77 0,00 2.282,37 8.810,20 1.550,00 481,00 31/12/2019
392 508100 CARLA ALESSANDRA FONSECA ANALISTA DO MP ATIVO BELO HORIZONTE - COMARCA; CAO-ORDEM ECONOMICA E TRIBUTARIA-SECRETARIA 9.337,87 933,79 0,00 7.497,15 3.423,89 0,00 21.192,70 1.129,88 2.586,20 0,00 3.716,08 17.476,62 1.550,00 0,00 31/12/2019
393 607100 CARLA ANGELICA DIAS MIRANDA OFICIAL DO MP ATIVO JABOTICATUBAS - COMARCA; JABOTICATUBAS-PJ-UNPJ 4.838,22 483,82 0,00 2.217,49 0,00 0,00 7.539,53 628,65 301,64 0,00 930,29 6.609,24 1.550,00 742,71 31/12/2019
394 351500 CARLA APARECIDA MENDES RAMIRIO OFICIAL DO MP ATIVO PASSOS - COMARCA; PASSOS-PJ-01PJ 7.955,66 1.591,13 0,00 2.308,16 0,00 0,00 11.854,95 1.131,70 1.415,08 0,00 2.546,78 9.308,17 1.550,00 1.401,19 31/12/2019
395 442800 CARLA GONCALVES COSTA SOALHEIRO ANALISTA DO MP ATIVO GOVERNADOR VALADARES - COMARCA; GOVERNADOR VALADARES-PJ-11PJ 9.090,64 1.867,57 0,00 3.015,98 0,00 0,00 13.974,19 1.232,60 1.753,05 0,00 2.985,65 10.988,54 2.319,39 0,00 31/12/2019
396 321500 CARLA GONCALVES MASSOTE OFICIAL DO MP ATIVO CAMPO BELO - COMARCA; CAMPO BELO-PJ-01PJ 9.337,87 1.867,57 0,00 3.010,34 0,00 0,00 14.215,78 1.345,55 1.873,17 0,00 3.218,72 10.997,06 1.550,00 1.940,61 31/12/2019
397 429200 CARLA HAUTEQUESTT BECHARA COORDENADOR/ANALISTA ATIVO BELO HORIZONTE - COMARCA; DIRET DE INFORMACAO E CONHECIMENTO-DINC/CEAF 11.317,16 4.755,20 0,00 3.402,59 0,00 0,00 19.474,95 1.619,36 3.139,73 0,00 4.759,09 14.715,86 1.550,00 2.156,30 31/12/2019
398 247500 CARLA MATILDE GUIMARAES DE OLIVEIRA OFICIAL DO MP ATIVO ITAJUBA - COMARCA; ITAJUBA-PJ-SECRETARIA 9.337,87 3.735,15 0,00 3.287,24 0,00 0,00 16.360,26 1.438,03 2.278,13 0,00 3.716,16 12.644,10 1.550,00 0,00 31/12/2019
399 226100 CARLA MERLI DA CONCEICAO ANALISTA DO MP ATIVO BELO HORIZONTE - COMARCA; CENTRAL DE APOIO TECNICO-SETOR CONTABIL 17.452,52 5.235,76 0,00 4.216,97 0,00 0,00 26.905,25 2.495,71 4.631,46 0,00 7.127,17 19.778,08 1.550,00 0,00 31/12/2019
400 181401 CARLO MICHEL GAUDENSI COELHO ANALISTA DO MP ATIVO BELO HORIZONTE - COMARCA; BH-08PJ JUIZADO ESPECIAL-SECRETARIA 11.317,16 4.526,86 0,00 3.680,49 0,00 0,00 19.524,51 2.015,65 3.008,46 0,00 5.024,11 14.500,40 1.550,00 4.687,27 31/12/2019
401 634000 CARLOS ALBERTO AMORMINO TRIGUEIRO ANALISTA DO MP ATIVO BELO HORIZONTE - COMARCA; DIRET DE APOIO AS PROCURADORIAS DE JUSTICA 6.882,47 412,95 0,00 2.096,19 0,00 0,00 9.391,61 827,81 864,06 0,00 1.691,87 7.699,74 2.319,39 434,85 31/12/2019
402 637900 CARLOS ALBERTO DE MOURA OFICIAL DO MP ATIVO SETE LAGOAS - COMARCA; SETE LAGOAS-PJ-07PJ 4.467,49 268,05 0,00 3.945,13 0,00 0,00 8.680,67 553,77 269,50 0,00 823,27 7.857,40 2.319,39 298,68 31/12/2019
403 638700 CARLOS ALBERTO FERREIRA BRAGA ANALISTA DO MP ATIVO RIBEIRÃO DAS NEVES - COMARCA; SEC PJ EXECUCAO PENAL RIBEIRAO NEVES 6.251,74 375,10 0,00 2.103,43 0,00 0,00 8.730,27 642,34 672,10 0,00 1.314,44 7.415,83 2.319,39 417,84 31/12/2019
404 375801 CARLOS ALBERTO ROCHA ANALISTA DO MP ATIVO ELOI MENDES - COMARCA; ELOI MENDES-PJ-SECRETARIA 8.482,22 848,22 0,00 6.889,83 0,00 0,00 16.220,27 1.058,72 1.414,26 0,00 2.472,98 13.747,29 1.550,00 556,17 31/12/2019
405 462800 CARLOS ANDREI SOARES FAGUNDES ANALISTA DO MP ATIVO MONTES CLAROS - COMARCA; MONTES CLAROS-PJ-09PJ 9.337,87 933,79 0,00 7.549,29 0,00 0,00 17.820,95 1.129,88 1.592,49 0,00 2.722,37 15.098,58 2.319,39 0,00 31/12/2019
406 370300 CARLOS AUGUSTO BUENO DIAS ASSESSOR ATIVO BELO HORIZONTE - COMARCA; SUPERINTENDÊNCIA DE ENGENHARIA E ARQUITETURA 0,00 0,00 9.641,94 3.825,45 0,00 0,00 13.467,39 1.284,68 1.298,02 0,00 2.582,70 10.884,69 1.550,00 0,00 31/12/2019
407 505100 CARLOS CEZAR CARVALHO ANALISTA DO MP ATIVO RIBEIRÃO DAS NEVES - COMARCA; RIBEIRAO DAS NEVES-PJ-04PJ 8.758,36 3.503,34 0,00 2.947,93 0,00 0,00 15.209,63 1.391,32 2.027,42 0,00 3.418,74 11.790,89 1.550,00 730,67 31/12/2019
408 195900 CARLOS DE SOUZA FERREIRA OFICIAL DO MP ATIVO COROMANDEL - COMARCA; COROMANDEL-PJ-01PJ 9.337,87 7.470,30 0,00 11.714,83 0,00 0,00 28.523,00 1.848,90 3.244,44 0,00 5.093,34 23.429,66 1.550,00 0,00 31/12/2019
409 196800 CARLOS EDUARDO DE OLIVEIRA MARINHO OFICIAL DO MP ATIVO ALPINÓPOLIS - COMARCA; ALPINOPOLIS-PJ-UNPJ 13.283,29 6.641,65 0,00 3.815,60 0,00 0,00 23.740,54 2.392,60 3.955,13 0,00 6.347,73 17.392,81 1.550,00 4.059,71 31/12/2019
410 650800 CARLOS EDUARDO NIZA DA SILVA OFICIAL DO MP ATIVO IGARAPÉ - COMARCA; IGARAPE-PJ-01PJ 3.569,91 214,19 0,00 1.298,92 0,00 0,00 5.083,02 488,13 121,94 0,00 610,07 4.472,95 1.550,00 653,46 31/12/2019
411 491800 CARLOS EDUARDO ROMAN OFICIAL DO MP ATIVO BARBACENA - COMARCA; BARBACENA-PJ-09PJ 6.251,74 1.250,35 0,00 1.959,03 0,00 0,00 9.461,12 851,25 966,78 0,00 1.818,03 7.643,09 1.550,00 447,00 31/12/2019
412 299300 CARLOS HENRIQUE BICALHO ANALISTA DO MP ATIVO BELO HORIZONTE - COMARCA; BH-17PJ PATRIMONIO PUBLICO-SECRETARIA 15.533,57 6.213,43 0,00 4.988,06 0,00 0,00 26.735,06 2.603,36 4.453,22 0,00 7.056,58 19.678,48 3.189,27 3.708,35 31/12/2019
413 205100 CARLOS HENRIQUE ESTEVES OFICIAL DO MP ATIVO ITAMBACURI - COMARCA; ITAMBACURI-PJ-01PJ 13.715,83 5.486,33 0,00 4.013,38 0,00 0,00 23.215,54 2.174,09 3.778,23 0,00 5.952,32 17.263,22 1.550,00 1.250,18 31/12/2019
414 351600 CARLOS HENRIQUE FELICIO DA FONSECA OFICIAL DO MP ATIVO JUIZ DE FORA - COMARCA; JUIZ DE FORA-PJ-21PJ 7.955,66 2.386,70 0,00 2.423,72 0,00 0,00 12.766,08 1.156,56 1.609,80 0,00 2.766,36 9.999,72 1.550,00 324,76 31/12/2019
415 85400 CARLOS JOSE VIEIRA OFICIAL DO MP ATIVO BELO HORIZONTE - COMARCA; DIRETORIA DO COLEGIO E DA CAMARA DE PJ 22.030,87 17.624,70 0,00 6.020,25 0,00 0,00 45.675,82 3.900,84 7.810,02 4.193,35 15.904,21 29.771,61 1.550,00 0,00 31/12/2019
416 229100 CARLOS MERCES DE OLIVEIRA ANALISTA DO MP ATIVO BELO HORIZONTE - COMARCA; CENTRAL DE APOIO TECN-SETOR DE MEIO AMBIENTE 16.787,84 5.036,35 0,00 5.042,56 0,00 0,00 26.866,75 2.492,09 3.369,60 0,00 5.861,69 21.005,06 1.749,47 1.570,85 31/12/2019
417 538300 CARLOS RANGEL SILVA DE MELO ANALISTA DO MP ATIVO BELO HORIZONTE - COMARCA; DIVISAO DE CONTROLE IMOBILIARIO 7.823,48 2.347,04 0,00 3.819,42 0,00 0,00 13.989,94 1.253,32 1.619,87 0,00 2.873,19 11.116,75 2.319,39 2.312,08 31/12/2019
418 265100 CARLOS REIFF MIRANDA ANALISTA DO MP ATIVO BELO HORIZONTE - COMARCA; BH-19PJ SAUDE-SECRETARIA 150PJ 14.162,21 4.248,66 0,00 3.833,68 0,00 0,00 22.244,55 2.089,03 3.636,70 0,00 5.725,73 16.518,82 1.550,00 1.096,75 31/12/2019
419 305400 CARLOS ROCHA DE SOUZA OFICIAL DO MP ATIVO MONTALVÂNIA - COMARCA; MONTALVANIA-PJ-SECRETARIA 5.678,79 1.703,64 0,00 2.150,20 0,00 0,00 9.532,63 812,07 728,94 0,00 1.541,01 7.991,62 1.550,00 0,00 31/12/2019
420 365100 CARLOS WAGNER SANDER MORAIS COORDENADOR/OFICIAL ATIVO BELO HORIZONTE - COMARCA; DIRETORIA DE ADMINISTRACAO FINANCEIRA 0,00 2.491,77 12.458,83 3.454,44 0,00 0,00 18.405,04 1.067,60 2.948,47 0,00 4.016,07 14.388,97 1.550,00 0,00 31/12/2019
421 399900 CARMELITA EVANGELISTA DE SOUZA OFICIAL DO MP ATIVO JOÃO PINHEIRO - COMARCA; JOAO PINHEIRO-PJ-01PJ 6.882,47 1.376,49 0,00 6.198,45 0,00 0,00 14.457,41 934,75 1.152,02 0,00 2.086,77 12.370,64 1.550,00 451,28 31/12/2019
422 202000 CARMEN LUCIA MARIZ DE MACEDO OFICIAL DO MP ATIVO BELO HORIZONTE - COMARCA; DIRETORIA GESTAO COMPRAS LICITACOES 13.283,29 9.298,31 0,00 5.288,32 0,00 0,00 27.869,92 2.711,62 4.553,21 0,00 7.264,83 20.605,09 7.466,24 4.613,10 31/12/2019
423 228500 CAROLINA CHIARELLA DOS SANTOS RIBEIRO OFICIAL DO MP ATIVO BELO HORIZONTE - COMARCA; GAECO - SECRETARIA 7.823,48 2.347,04 0,00 2.916,94 0,00 0,00 13.087,46 1.221,29 1.515,60 0,00 2.736,89 10.350,57 1.550,00 1.761,65 31/12/2019
424 446500 CAROLINA COSTA VAL RODRIGUES ANALISTA DO MP ATIVO CONTAGEM - COMARCA; CONTAGEM-PJ-05PJ 11.317,16 2.263,43 0,00 3.464,25 0,00 0,00 17.044,84 1.630,77 2.454,49 0,00 4.085,26 12.959,58 1.550,00 2.352,33 31/12/2019
425 603501 CAROLINA DOMINGOS BRANDAO RABELLO ANALISTA DO MP ATIVO CARATINGA - COMARCA; CARATINGA-PJ-01PJ 7.576,76 757,68 0,00 3.123,59 0,00 0,00 11.458,03 1.000,80 1.170,49 0,00 2.171,29 9.286,74 1.550,00 1.443,43 31/12/2019
426 404300 CAROLINA DOS SANTOS VIEIRA ANALISTA DO MP ATIVO BELO HORIZONTE - COMARCA; BH-08PJ JUIZADO ESPECIAL-SECRETARIA 11.685,57 2.337,11 0,00 3.010,43 0,00 0,00 17.033,11 1.591,12 2.458,42 0,00 4.049,54 12.983,57 1.550,00 835,55 31/12/2019
427 551200 CAROLINA LOPES ARANTES MASCARENHAS ANALISTA DO MP ATIVO BELO HORIZONTE - COMARCA; EXTINTA-COORD EST DEF DIR FAM PES DEFIC IDOSO 7.823,48 782,35 0,00 6.526,55 0,00 0,00 15.132,38 976,49 1.132,64 0,00 2.109,13 13.023,25 3.088,78 512,93 31/12/2019
428 622600 CAROLINA LOREDO LOPES CATIZANI OFICIAL DO MP ATIVO RIBEIRÃO DAS NEVES - COMARCA; RIBEIRAO DAS NEVES-PJ-12PJ 4.467,49 446,75 0,00 1.874,96 0,00 0,00 6.789,20 588,31 347,95 0,00 936,26 5.852,94 1.550,00 820,30 31/12/2019
429 382200 CAROLINA MENDES CHAVES LIN ANALISTA DO MP ATIVO BELO HORIZONTE - COMARCA; BH-12PJ JUIZO CRIMINAL-GAB 088PJ 9.337,87 1.867,57 0,00 2.725,73 0,00 0,00 13.931,17 1.271,46 1.821,03 0,00 3.092,49 10.838,68 2.319,39 667,72 31/12/2019
430 461900 CAROLINA MURTA TEIXEIRA DIAS ASSESSOR/ANALISTA ATIVO BELO HORIZONTE - COMARCA; PROCURADOR-GERAL DE JUSTIÇA 0,00 1.168,56 11.685,57 4.684,72 0,00 0,00 17.538,85 1.129,88 2.354,81 0,00 3.484,69 14.054,16 1.550,00 0,00 31/12/2019
431 509600 CAROLINA PINTO DE OLIVEIRA SOUZA ANALISTA DO MP ATIVO MURIAÉ - COMARCA; MURIAE-PJ-01PJ 9.337,87 933,79 0,00 3.826,78 3.423,89 0,00 17.522,33 1.129,88 2.429,79 0,00 3.559,67 13.962,66 3.472,93 0,00 31/12/2019
432 629100 CAROLINA RODRIGUES AMARAL ANALISTA DO MP ATIVO BELO HORIZONTE - COMARCA; PROC. JUSTICA DIR. DIFUSOS E COLETIVOS-SEC 7.576,76 757,68 0,00 2.599,45 0,00 0,00 10.933,89 997,74 1.170,49 0,00 2.168,23 8.765,66 1.550,00 1.390,95 31/12/2019
433 502600 CAROLINA RODRIGUES RUBEN ANALISTA DO MP ATIVO BELO HORIZONTE - COMARCA; EXTINTA-DEF DIREIT HUM-COMB A VIOL DOMEST-18 9.337,87 933,79 0,00 2.413,46 0,00 0,00 12.685,12 1.129,88 1.592,49 0,00 2.722,37 9.962,75 2.319,39 0,00 31/12/2019
434 529600 CAROLINA VAZ DE MELO MAMBRINI ANALISTA DO MP ATIVO MINAS NOVAS - COMARCA; MINAS NOVAS-PJ-UNPJ 7.823,48 782,35 0,00 2.255,05 0,00 0,00 10.860,88 976,49 1.236,92 0,00 2.213,41 8.647,47 1.550,00 512,93 31/12/2019
435 619100 CAROLINA ZAKHIA NARDELLI RODRIGUES ANALISTA DO MP ATIVO NEPOMUCENO - COMARCA; NEPOMUCENO-PJ-UNPJ 7.576,76 757,68 0,00 3.458,80 0,00 0,00 11.793,24 997,74 1.170,49 0,00 2.168,23 9.625,01 2.319,39 1.390,95 31/12/2019
436 517600 CAROLINE ALVES DE OLIVEIRA MULLER ANALISTA DO MP ATIVO VISCONDE DO RIO BRANCO - COMARCA; VISCONDE DO RIO BRANCO-PJ-01PJ 9.337,87 933,79 0,00 2.413,46 0,00 0,00 12.685,12 1.233,41 1.592,49 0,00 2.825,90 9.859,22 2.319,39 1.778,91 31/12/2019
437 373200 CAROLINE ANTUNES RIBEIRO OFICIAL DO MP ATIVO JACUI - COMARCA; JACUI-PJ-UNPJ 7.955,66 1.591,13 0,00 2.783,13 0,00 0,00 12.329,92 1.131,70 1.310,80 0,00 2.442,50 9.887,42 1.550,00 1.401,19 31/12/2019
438 556800 CAROLINE DE SOUZA CARDOSO DOMINGUES OFICIAL DO MP ATIVO BRASÍLIA DE MINAS - COMARCA; BRASILIA DE MINAS-PJ-02PJ 4.995,72 499,57 0,00 1.958,08 0,00 0,00 7.453,37 668,40 475,61 0,00 1.144,01 6.309,36 1.550,00 1.098,18 31/12/2019
439 499400 CAROLINE MARQUES DE LOURDES MARZULLO OFICIAL DO MP ATIVO JUIZ DE FORA - COMARCA; JUIZ DE FORA-PJ-08PJ 6.251,74 625,17 0,00 1.868,23 0,00 0,00 8.745,14 780,31 813,76 0,00 1.594,07 7.151,07 2.703,54 482,02 31/12/2019
440 616800 CAROLINE MONTEIRO DE BARROS ANALISTA DO MP ATIVO CONTAGEM - COMARCA; CONTAGEM-PJ-11PJ 7.576,76 757,68 0,00 2.461,80 0,00 0,00 10.796,24 997,74 1.170,49 0,00 2.168,23 8.628,01 1.550,00 1.390,95 31/12/2019
441 618100 CAROLINE VASCONCELOS COSTA LANZA ANALISTA DO MP ATIVO PARAOPEBA - COMARCA; PARAOPEBA-PJ-UNPJ 7.576,76 757,68 0,00 3.369,98 0,00 0,00 11.704,42 997,74 1.170,49 0,00 2.168,23 9.536,19 4.627,56 1.390,95 31/12/2019
442 604000 CASSIA APARECIDA DA SILVA OFICIAL DO MP ATIVO PARACATU - COMARCA; PARACATU-PJ-01PJ 4.838,22 483,82 0,00 1.846,29 0,00 0,00 7.168,33 679,82 433,21 0,00 1.113,03 6.055,30 1.550,00 1.622,00 31/12/2019
443 268800 CASSIA BEATRIZ TEIXEIRA OFICIAL DO MP ATIVO BELO HORIZONTE - COMARCA; PROC JUST ESP ACOES COMP ORIG CRIMINAL-SEC 10.279,98 3.083,99 0,00 2.810,47 0,00 0,00 16.174,44 1.516,38 2.401,47 0,00 3.917,85 12.256,59 1.550,00 796,26 31/12/2019
444 500000 CASSIA DE OLIVEIRA COSTA VIANA ANALISTA DO MP ATIVO SETE LAGOAS - COMARCA; SETE LAGOAS-PJ-09PJ 9.337,87 4.668,94 0,00 9.907,25 0,00 0,00 23.914,06 1.540,75 2.558,81 0,00 4.099,56 19.814,50 1.550,00 0,00 31/12/2019
445 368800 CASSIA LUISA BATISTA MENDONCA WEBER OFICIAL DO MP ATIVO BELO HORIZONTE - COMARCA; DIVISÃO DE EDUCAÇÃO PARA O CONSUMO 6.882,47 1.376,49 0,00 2.199,20 0,00 0,00 10.458,16 937,14 1.152,02 0,00 2.089,16 8.369,00 1.550,00 492,29 31/12/2019
446 622200 CASSIA VAZ DE AZEVEDO LISBOA MARZANO ASSESSOR ATIVO BELO HORIZONTE - COMARCA; CGMP-SECRETARIA DA CORREGEDORIA-GERAL DO MP 0,00 0,00 2.852,73 1.417,12 0,00 0,00 4.269,85 691,55 87,57 0,00 779,12 3.490,73 2.319,39 0,00 31/12/2019
447 121000 CASSIO HENRIQUE AFONSO DA SILVA OFICIAL DO MP ATIVO BELO HORIZONTE - COMARCA; CGMP-ASSESSORIA JURIDICA 15.533,57 10.873,50 0,00 5.312,14 0,00 0,00 31.719,21 3.015,41 5.489,50 0,00 8.504,91 23.214,30 1.550,00 1.900,91 31/12/2019
448 121100 CASSIO MOREIRA DE MIRANDA AGENTE DO MP ATIVO BELO HORIZONTE - COMARCA; DIVISÃO DE FISCALIZAÇÃO DAS RELAÇÕES DE CONSU 4.058,04 3.246,43 0,00 3.209,61 0,00 803,49 11.317,57 803,49 701,07 0,00 1.504,56 9.813,01 1.550,00 1.340,25 31/12/2019
449 512001 CATARINA NATALINO CALIXTO COORDENADOR/ANALISTA ATIVO BELO HORIZONTE - COMARCA; DIRETORIA GESTAO TRANSPORTES 0,00 1.245,88 12.458,83 9.836,85 0,00 0,00 23.541,56 912,91 2.663,46 0,00 3.576,37 19.965,19 1.550,00 941,88 31/12/2019
450 606200 CATARINE DE SIQUEIRA DE QUADROS ANALISTA DO MP ATIVO RIBEIRÃO DAS NEVES - COMARCA; RIBEIRAO DAS NEVES-PJ-09PJ 6.882,47 688,25 0,00 2.903,25 0,00 0,00 10.473,97 909,10 931,44 0,00 1.840,54 8.633,43 2.319,39 1.311,28 31/12/2019
451 622300 CECILIA APARECIDA PEREIRA ASSUNCAO OFICIAL DO MP ATIVO TRÊS PONTAS - COMARCA; TRES PONTAS-PJ-SECRETARIA 4.838,22 483,82 0,00 1.981,90 0,00 0,00 7.303,94 628,65 386,95 0,00 1.015,60 6.288,34 2.319,39 742,71 31/12/2019
452 538000 CECILIA FONTES DE MATOS PIMENTEL ANALISTA DO MP ATIVO PALMA - COMARCA; PALMA-PJ-UNPJ 7.823,48 782,35 0,00 2.255,05 0,00 0,00 10.860,88 976,49 1.236,92 0,00 2.213,41 8.647,47 2.319,39 512,93 31/12/2019
453 261300 CECILIO ANTONIO CAMPOS DOS REIS ANALISTA DO MP ATIVO BELO HORIZONTE - COMARCA; AUDITORIA INTERNA 16.148,50 4.844,55 0,00 4.318,30 0,00 0,00 25.311,35 2.397,18 4.268,69 0,00 6.665,87 18.645,48 1.550,00 1.510,88 31/12/2019
454 386400 CEFAS AMORELI DE FIGUEIREDO OFICIAL DO MP ATIVO CABO VERDE - COMARCA; CABO VERDE-PJ-SECRETARIA 5.678,79 1.135,76 0,00 1.859,17 0,00 0,00 8.673,72 749,60 798,50 0,00 1.548,10 7.125,62 1.550,00 0,00 31/12/2019
455 149000 CELIA MAGALHAES CLAROS SOSSI OFICIAL DO MP ATIVO GOVERNADOR VALADARES - COMARCA; GAECO REGIONAL DE GOVERNADOR VALADARES 14.162,21 7.081,10 0,00 4.289,74 0,00 0,00 25.533,05 2.410,41 4.329,94 0,00 6.740,35 18.792,70 1.550,00 1.265,49 31/12/2019
456 421000 CELINA BENEDITA DE SOUZA ALMEIDA OFICIAL DO MP ATIVO CAMBUÍ - COMARCA; CAMBUI-PJ-01PJ 7.337,85 3.668,93 0,00 2.693,75 0,00 0,00 13.700,53 1.248,92 1.772,41 0,00 3.021,33 10.679,20 1.550,00 655,91 31/12/2019
457 252900 CELIO DE MELO CASTOR ANALISTA DO MP ATIVO BELO HORIZONTE - COMARCA; BH-20PJ ORD ECON TRIBUTARIA-SECRETARIA 16.148,50 4.844,55 0,00 4.318,30 0,00 0,00 25.311,35 2.397,18 4.268,69 0,00 6.665,87 18.645,48 1.550,00 1.510,88 31/12/2019
458 395700 CELIO FERREIRA LIMA OFICIAL DO MP ATIVO CONTAGEM - COMARCA; CONTAGEM-PJ-07PJ 7.576,76 1.515,35 0,00 2.242,12 0,00 0,00 11.334,23 1.091,78 1.303,80 0,00 2.395,58 8.938,65 2.319,39 1.574,65 31/12/2019
459 281300 CELMA REGINA PEREIRA SANTOS ANALISTA DO MP ATIVO BELO HORIZONTE - COMARCA; DIVISAO DE DOCUMENTACAO JURIDICA 15.533,57 4.660,07 0,00 4.187,05 0,00 0,00 24.380,69 2.305,90 4.073,03 0,00 6.378,93 18.001,76 1.550,00 1.453,64 31/12/2019
460 535600 CELSO MEDEIROS DE PAIVA OFICIAL DO MP ATIVO RIO PRETO - COMARCA; RIO PRETO-PJ-SECRETARIA 4.612,94 461,29 0,00 1.721,61 0,00 0,00 6.795,84 575,77 337,33 0,00 913,10 5.882,74 1.550,00 302,40 31/12/2019
461 367000 CESAR NARVAES DE AVELAR COORDENADOR/OFICIAL ATIVO BELO HORIZONTE - COMARCA; DIVISAO DE MEMORIA INSTITUCIONAL 0,00 2.192,05 10.960,26 4.762,74 0,00 0,00 17.915,05 1.118,53 2.439,93 0,00 3.558,46 14.356,59 1.550,00 0,00 31/12/2019
462 226500 CESAR SILVEIRA BARROUIN OFICIAL DO MP ATIVO BELO HORIZONTE - COMARCA; DIRETORIA DE ADMINISTRACAO FINANCEIRA 11.317,16 4.526,86 0,00 3.896,73 0,00 0,00 19.740,75 1.902,57 3.008,46 0,00 4.911,03 14.829,72 1.550,00 2.744,37 31/12/2019
463 121400 CEZAR MORENO CONCEICAO TAVARES OFICIAL DO MP ATIVO BELO HORIZONTE - COMARCA; EXTINTA-COORD EST DEF DIR FAM PES DEFIC IDOSO 13.715,83 9.601,08 0,00 4.256,14 0,00 0,00 27.573,05 2.645,75 4.837,45 0,00 7.483,20 20.089,85 1.550,00 1.389,75 31/12/2019
464 243800 CHARLES MARTINS MUNIZ OFICIAL DO MP ATIVO BELO HORIZONTE - COMARCA; LAB TECNOLOGIA CONTRA LAVAGEM DINHEIRO 11.317,16 4.526,86 0,00 4.410,73 0,00 0,00 20.254,75 1.891,16 3.008,46 0,00 4.899,62 15.355,13 1.100,00 2.548,34 31/12/2019
465 193500 CHARLIN CESAR KOURLY OFICIAL DO MP ATIVO ARAGUARI - COMARCA; ARAGUARI-PJ-07PJ 13.283,29 3.984,99 0,00 3.377,58 0,00 0,00 20.645,86 2.073,59 3.357,05 0,00 5.430,64 15.215,22 1.550,00 3.518,42 31/12/2019
466 385500 CHILLEN PEIXOTO DE MOURA OFICIAL DO MP ATIVO BELO HORIZONTE - COMARCA; DIVISÃO DE FISCALIZAÇÃO DAS RELAÇÕES DE CONSU 7.576,76 1.515,35 0,00 3.853,87 0,00 0,00 12.945,98 1.091,78 1.724,50 0,00 2.816,28 10.129,70 1.550,00 2.914,90 31/12/2019
467 534500 CHRISTIAN DOUGLAS BRITO RUAS OFICIAL DO MP ATIVO SÃO JOÃO DA PONTE - COMARCA; SAO JOAO DA PONTE-PJ-SECRETARIA 4.995,72 499,57 0,00 2.263,50 0,00 0,00 7.758,79 623,54 475,61 0,00 1.099,15 6.659,64 1.719,32 327,44 31/12/2019
468 370600 CHRISTIAN KARINE FELIX PRATES ASSESSOR ATIVO BELO HORIZONTE - COMARCA; SUPRIN DE PLANEJAMENTO E COORDENACAO 0,00 0,00 9.641,94 3.215,44 0,00 0,00 12.857,38 1.284,68 1.908,03 0,00 3.192,71 9.664,67 1.550,00 0,00 31/12/2019
469 435800 CHRISTIANA BAHIA ANDRADE PINA ANALISTA DO MP ATIVO BELO HORIZONTE - COMARCA; LABORATORIO TECNOLOGIA INTELIGENCIA 11.317,16 2.263,43 0,00 3.407,80 0,00 0,00 16.988,39 1.619,36 2.454,49 0,00 4.073,85 12.914,54 2.319,39 2.156,30 31/12/2019
470 516800 CHRISTIANE FERREIRA DO NASCIMENTO ANALISTA DO MP ATIVO ESTRELA DO SUL - COMARCA; ESTRELA DO SUL-PJ-UNPJ 9.337,87 933,79 0,00 3.748,58 0,00 0,00 14.020,24 1.233,41 1.644,63 0,00 2.878,04 11.142,20 1.550,00 1.778,91 31/12/2019
471 176000 CHRISTIANE JUNQUEIRA PULITI ANDRADE DE BARROS ASSESSOR ATIVO BELO HORIZONTE - COMARCA; CAO-VIOLENCIA DOMESTICA E FAMILIAR 0,00 8.491,73 10.614,65 5.168,30 0,00 2.101,70 26.376,38 2.101,70 4.384,89 0,00 6.486,59 19.889,79 1.550,00 0,00 31/12/2019
472 319200 CHRISTIANE MARIA DE ASSIS RUSSO OFICIAL DO MP ATIVO BELO HORIZONTE - COMARCA; CAO-ORDEM ECONOMICA E TRIBUTARIA-SECRETARIA 9.641,94 2.892,58 0,00 8.387,25 0,00 0,00 20.921,77 1.637,94 2.146,33 0,00 3.784,27 17.137,50 2.319,39 4.773,96 31/12/2019
473 510300 CHRISTIANE MARY DE CARVALHO FERREIRA ANALISTA DO MP ATIVO BELO HORIZONTE - COMARCA; DIRETORIA DE SISTEMAS DE INFORMACAO 9.337,87 933,79 0,00 2.413,46 0,00 0,00 12.685,12 1.129,88 1.592,49 0,00 2.722,37 9.962,75 1.550,00 0,00 31/12/2019
474 424900 CHRISTIANE PEREIRA TURNER DE ARAUJO OFICIAL DO MP ATIVO BELO HORIZONTE - COMARCA; CAO-PATRIMONIO PUBLICO 7.106,49 1.421,30 0,00 2.212,29 2.842,60 0,00 13.582,68 965,17 1.895,26 0,00 2.860,43 10.722,25 3.088,78 547,87 31/12/2019
475 513700 CHRISTIANE VIEIRA SOARES PEDERSOLI ASSESSOR/ANALISTA ATIVO BELO HORIZONTE - COMARCA; ASSESSORIA JURIDICA DO PROCON-MG 0,00 1.061,47 10.614,65 2.677,32 0,00 0,00 14.353,44 1.233,41 2.030,86 0,00 3.264,27 11.089,17 2.319,39 1.778,91 31/12/2019
476 412300 CHRYSTIAN MACHADO RIBEIRO ANALISTA DO MP ATIVO VARGINHA - COMARCA; VARGINHA-PJ-04PJ 11.685,57 2.337,11 0,00 5.101,38 0,00 0,00 19.124,06 1.591,12 2.562,69 0,00 4.153,81 14.970,25 1.550,00 835,55 31/12/2019
477 513800 CHRYSTIANE DO NASCIMENTO DE MAGALHAES OFICIAL DO MP ATIVO UBERLÂNDIA - COMARCA; UBERLANDIA-PJ-10PJ 6.251,74 625,17 0,00 2.080,90 0,00 0,00 8.957,81 780,31 709,49 0,00 1.489,80 7.468,01 2.319,39 409,75 31/12/2019
478 497900 CIBELE DE FREITAS SANCHES DIAS ANALISTA DO MP ATIVO SABARÁ - COMARCA; SABARA-PJ-03PJ 8.758,36 875,84 0,00 3.640,92 0,00 0,00 13.275,12 1.093,17 1.488,61 0,00 2.581,78 10.693,34 1.550,00 574,09 31/12/2019
479 500900 CIBELLE SILVA PRADO ALVARENGA ANALISTA DO MP ATIVO ITANHANDU - COMARCA; ITANHANDU-PJ-UNPJ 9.337,87 933,79 0,00 7.497,15 0,00 0,00 17.768,81 1.129,88 1.644,63 0,00 2.774,51 14.994,30 3.088,78 0,00 31/12/2019
480 296400 CINTIA APARECIDA MOREIRA NAVES E RODRIGUES ANALISTA DO MP ATIVO CAMPO BELO - COMARCA; CAMPO BELO-PJ-02PJ 15.533,57 4.660,07 0,00 4.693,87 0,00 0,00 24.887,51 2.402,32 4.073,03 0,00 6.475,35 18.412,16 1.575,65 3.110,24 31/12/2019
481 407900 CINTIA NETO COMELLI ANALISTA DO MP ATIVO BELO HORIZONTE - COMARCA; CENTRAL DE APOIO TECNICO-SETOR CONTABIL 11.685,57 2.337,11 0,00 3.179,33 0,00 0,00 17.202,01 1.591,12 2.510,56 0,00 4.101,68 13.100,33 2.319,39 835,55 31/12/2019
482 304700 CINTIA QUEIROZ OFICIAL DO MP ATIVO BELO HORIZONTE - COMARCA; OUVIDORIA DO MPMG 9.043,46 2.713,04 0,00 2.576,99 0,00 0,00 14.333,49 1.330,85 2.008,04 0,00 3.338,89 10.994,60 1.550,00 646,61 31/12/2019
483 286100 CIRO CANGUSSU CORDEIRO OFICIAL DO MP ATIVO IPATINGA - COMARCA; IPATINGA-PJ-09PJ 6.251,74 1.875,52 0,00 2.101,98 0,00 0,00 10.229,24 922,18 1.067,65 0,00 1.989,83 8.239,41 1.550,00 484,26 31/12/2019
484 412500 CLARICE GOMES MAROTTA ANALISTA DO MP ATIVO BELO HORIZONTE - COMARCA; PROMOT ESTADUAL DE DEF PATRI CULT E TUR DE MG 11.317,16 3.395,15 0,00 3.006,32 0,00 0,00 17.718,63 1.766,67 2.731,48 0,00 4.498,15 13.220,48 1.550,00 2.548,34 31/12/2019
485 605300 CLARISSA AZEVEDO ROCHA OFICIAL DO MP ATIVO BELO HORIZONTE - COMARCA; ASSESSORIA PSICOSSOCIAL 4.838,22 483,82 0,00 1.642,39 0,00 0,00 6.964,43 630,28 433,21 0,00 1.063,49 5.900,94 1.550,00 906,67 31/12/2019
486 308100 CLARISSA DUARTE BELLONI DIRETOR/ANALISTA ATIVO BELO HORIZONTE - COMARCA; DIRETORIA-GERAL 0,00 6.870,93 22.903,10 5.843,59 0,00 0,00 35.617,62 2.323,43 6.627,42 0,00 8.950,85 26.666,77 3.857,08 0,00 31/12/2019
487 497100 CLARISSA ROCHA GUIDI ANALISTA DO MP ATIVO BELO HORIZONTE - COMARCA; BH-02PJ FAMILIA 9.337,87 933,79 0,00 2.413,46 0,00 0,00 12.685,12 1.129,88 1.592,49 0,00 2.722,37 9.962,75 2.319,39 0,00 31/12/2019
488 641800 CLARISSE TAVARES GONCALVES OFICIAL DO MP ATIVO BELO HORIZONTE - COMARCA; BH-07PJ 01 TRIBUNAL DO JURI 4.467,49 268,05 0,00 1.819,50 0,00 0,00 6.555,04 646,23 312,16 0,00 958,39 5.596,65 1.550,00 1.139,22 31/12/2019
489 463700 CLAUDIA ADRIANA FERRAO DIAS ANALISTA DO MP ATIVO SETE LAGOAS - COMARCA; SETE LAGOAS-PJ-06PJ 9.337,87 933,79 0,00 7.497,15 0,00 0,00 17.768,81 1.129,88 1.644,63 0,00 2.774,51 14.994,30 1.550,00 0,00 31/12/2019
490 415400 CLAUDIA ALMEIDA DE VASCONCELLOS BARROS ASSESSOR/OFICIAL ATIVO BELO HORIZONTE - COMARCA; DIVISAO DE SERVICOS 0,00 1.928,39 9.641,94 2.515,75 0,00 0,00 14.086,08 1.306,93 1.953,08 0,00 3.260,01 10.826,07 1.550,00 0,00 31/12/2019
491 207000 CLAUDIA APARECIDA VILELA MACHADO ANALISTA DO MP ATIVO BELO HORIZONTE - COMARCA; CENTRAL DE APOIO TECNICO-SETOR CONTABIL 17.452,52 6.981,01 0,00 4.574,74 0,00 0,00 29.008,27 2.687,69 4.954,33 0,00 7.642,02 21.366,25 1.550,00 0,00 31/12/2019
492 365700 CLAUDIA BREGUEZ CUNHA ANALISTA DO MP ATIVO VARGINHA - COMARCA; VARGINHA-PJ-07PJ 13.283,29 2.656,66 0,00 3.915,03 0,00 0,00 19.854,98 1.914,07 3.031,94 0,00 4.946,01 14.908,97 1.550,00 3.247,78 31/12/2019
493 430500 CLAUDIA CECILIA SANTANA VENCESLAU OFICIAL DO MP ATIVO BELO HORIZONTE - COMARCA; DIR ANALISES TECNOLOGIA INTELIGENCIA 7.106,49 1.421,30 0,00 2.160,15 0,00 0,00 10.687,94 940,32 1.165,68 0,00 2.106,00 8.581,94 2.319,39 239,89 31/12/2019
494 112400 CLAUDIA CRISTINA FIUZA DE AVELAR AGENTE DO MP ATIVO BELO HORIZONTE - COMARCA; SERVICO MEDICO-DEPTO PERIC MEDICA SAUDE OCUP 9.043,46 6.330,42 0,00 3.344,74 0,00 0,00 18.718,62 1.744,44 2.893,40 0,00 4.637,84 14.080,78 1.550,00 916,03 31/12/2019
495 480400 CLAUDIA GOULART DE SOUZA OFICIAL DO MP ATIVO PASSOS - COMARCA; PASSOS-PJ-06PJ 6.882,47 1.376,49 0,00 2.447,40 0,00 0,00 10.706,36 991,75 1.152,02 0,00 2.143,77 8.562,59 1.550,00 1.430,50 31/12/2019
496 519800 CLAUDIA HELENA CORREA DE ALMEIDA ANALISTA DO MP ATIVO BELO HORIZONTE - COMARCA; BH-12PJ JUIZO CRIMINAL-GAB 102PJ 9.337,87 933,79 0,00 4.052,24 0,00 0,00 14.323,90 1.233,41 1.644,63 0,00 2.878,04 11.445,86 1.550,00 1.778,91 31/12/2019
497 422100 CLAUDIA IACOMINI CABRAL ANALISTA DO MP ATIVO BELO HORIZONTE - COMARCA; CENT DE APOIO TEC-SETOR DEF,IDOSO E INFANC 11.317,16 7.922,02 0,00 4.795,57 0,00 0,00 24.034,75 2.287,44 3.839,43 0,00 6.126,87 17.907,88 1.550,00 2.940,41 31/12/2019
498 258200 CLAUDIA LAGE MICHALAROS ANALISTA DO MP ATIVO BELO HORIZONTE - COMARCA; CENTRAL DE APOIO TECN-SETOR DE MEIO AMBIENTE 16.148,50 11.303,95 0,00 10.791,21 0,00 3.019,77 41.263,43 3.134,76 6.627,93 0,00 9.762,69 31.500,74 1.550,00 2.205,75 31/12/2019
499 284600 CLAUDIA LENI DE FREITAS OFICIAL DO MP ATIVO CONTAGEM - COMARCA; CONTAGEM-PJ-22PJ 5.678,79 2.271,52 0,00 2.024,14 2.650,10 0,00 12.624,55 874,53 1.805,26 0,00 2.679,79 9.944,76 1.550,00 0,00 31/12/2019
500 433600 CLAUDIA LUIZA SANTIAGO FELICIO ANALISTA DO MP ATIVO BELO HORIZONTE - COMARCA; CENT DE APOIO TEC-SETOR DEF,IDOSO E INFANC 11.317,16 2.263,43 0,00 5.233,38 0,00 0,00 18.813,97 1.619,36 2.350,22 0,00 3.969,58 14.844,39 1.550,00 2.156,30 31/12/2019
501 317000 CLAUDIA MACHADO ALVES ASSESSOR/OFICIAL ATIVO BELO HORIZONTE - COMARCA; DIRETORIA DE SISTEMAS DE INFORMACAO 0,00 2.892,58 9.641,94 3.405,38 0,00 0,00 15.939,90 1.045,80 2.290,04 0,00 3.335,84 12.604,06 1.550,00 0,00 31/12/2019
502 155300 CLAUDIA MACIEL MIRANDA E BELO OFICIAL DO MP ATIVO CONGONHAS - COMARCA; CONGONHAS-PJ-02PJ 13.715,83 6.857,92 0,00 7.124,43 0,00 0,00 27.698,18 2.334,48 4.061,79 0,00 6.396,27 21.301,91 1.550,00 1.226,25 31/12/2019
503 242200 CLAUDIA MICHELLE DIAS MUNIZ BALEEIRO OFICIAL DO MP ATIVO MONTE AZUL - COMARCA; MONTE AZUL-PJ-SECRETARIA 10.279,98 4.111,99 0,00 3.011,92 0,00 0,00 17.403,89 1.633,03 2.600,94 0,00 4.233,97 13.169,92 1.550,00 857,51 31/12/2019
504 623000 CLAUDIA PATRICIA SILVA RODRIGUES RAPOSEIRAS OFICIAL DO MP ATIVO PARÁ DE MINAS - COMARCA; PARA DE MINAS-PJ-02PJ 4.467,49 446,75 0,00 1.917,62 0,00 0,00 6.831,86 588,31 305,29 0,00 893,60 5.938,26 2.319,39 820,30 31/12/2019
505 418400 CLAUDIA REGINA MARTINS BONIFACIO OFICIAL DO MP ATIVO ITUIUTABA - COMARCA; ITUIUTABA-PJ-06PJ 7.337,85 1.467,57 0,00 2.391,43 0,00 0,00 11.196,85 999,14 1.181,49 0,00 2.180,63 9.016,22 1.550,00 545,32 31/12/2019
506 498300 CLAUDIA SOUTO FARIAS BRAUN OFICIAL DO MP ATIVO TEÓFILO OTONI - COMARCA; TEOFILO OTONI-PJ-SECRETARIA 5.678,79 567,88 0,00 2.565,69 0,00 0,00 8.812,36 708,79 555,24 0,00 1.264,03 7.548,33 1.550,00 372,16 31/12/2019
507 206500 CLAUDIA VALERIA FONSECA ANDRADE ANALISTA DO MP ATIVO BELO HORIZONTE - COMARCA; BH-23PJ INF-FISC MED SOC FEC 17.452,52 8.726,26 0,00 4.671,82 0,00 0,00 30.850,60 2.879,67 5.537,90 0,00 8.417,57 22.433,03 1.550,00 0,00 31/12/2019
508 277500 CLAUDIO ANTONIO BORGES BRUNSWICK ALVARES OFICIAL DO MP ATIVO BELO HORIZONTE - COMARCA; SUPERINTENDENCIA GESTÃO DE PESSOAS 9.337,87 2.801,36 0,00 2.632,57 0,00 0,00 14.771,80 1.335,32 2.101,72 0,00 3.437,04 11.334,76 1.550,00 0,00 31/12/2019
509 444800 CLAUDIO ARESIO DO CARMO ANALISTA DO MP ATIVO SETE LAGOAS - COMARCA; SETE LAGOAS-PJ-01PJ 9.337,87 3.735,15 0,00 2.820,35 0,00 0,00 15.893,37 1.438,03 2.278,13 0,00 3.716,16 12.177,21 1.550,00 0,00 31/12/2019
510 541600 CLAUDIO DE OLIVEIRA MELO OFICIAL DO MP ATIVO CANÁPOLIS - COMARCA; CANAPOLIS-PJ-UNPJ 4.058,04 243,48 0,00 3.665,77 0,00 0,00 7.967,29 473,17 162,58 0,00 635,75 7.331,54 2.319,39 0,00 31/12/2019
511 545100 CLAUDIO HENRIQUE MACEDO DE SOUZA FRANSOZO ANALISTA DO MP ATIVO OURO PRETO - COMARCA; OURO PRETO-PJ-01PJ 7.823,48 782,35 0,00 6.422,27 0,00 0,00 15.028,10 976,49 1.236,92 0,00 2.213,41 12.814,69 1.550,00 512,93 31/12/2019
512 353500 CLAUDIO HENRIQUE PEDRO DA ROCHA OFICIAL DO MP ATIVO BELO HORIZONTE - COMARCA; DIVISAO TRANSPORTES 7.955,66 1.591,13 0,00 2.360,30 0,00 0,00 11.907,09 1.067,60 1.362,94 0,00 2.430,54 9.476,55 1.550,00 352,66 31/12/2019
513 265800 CLAUDIO KUPIDLOWSKY FERNANDES OFICIAL DO MP ATIVO BELO HORIZONTE - COMARCA; SECRETARIA DO PROCON-MG 9.337,87 2.801,36 0,00 3.406,94 0,00 0,00 15.546,17 1.335,32 1.327,35 0,00 2.662,67 12.883,50 1.550,00 0,00 31/12/2019
514 193600 CLAUDIO LEITE FONTES OFICIAL DO MP ATIVO ITUIUTABA - COMARCA; ITUIUTABA-PJ-02PJ 7.955,66 3.182,26 0,00 2.487,14 0,00 0,00 13.625,06 1.320,31 1.582,20 0,00 2.902,51 10.722,55 1.550,00 1.634,72 31/12/2019
515 329400 CLAUDIO MARCIO BERNARDES OFICIAL DO MP ATIVO ITAÚNA - COMARCA; ITAUNA-PJ-03PJ 9.337,87 6.536,52 0,00 6.051,52 0,00 0,00 21.925,91 1.906,19 2.963,76 0,00 4.869,95 17.055,96 2.319,39 2.749,23 31/12/2019
516 270200 CLAUDIO RABELO ALVES OFICIAL DO MP ATIVO FORMIGA - COMARCA; FORMIGA-PJ-03PJ 9.337,87 2.801,36 0,00 2.841,12 0,00 0,00 14.980,35 1.335,32 1.893,17 0,00 3.228,49 11.751,86 1.550,00 0,00 31/12/2019
517 264700 CLAUDIO ROBERTO KFURI DE ARAUJO ANALISTA DO MP ATIVO BELO HORIZONTE - COMARCA; CENTRAL DE APOIO TECNICO-SETOR DE INFORMATICA 16.148,50 4.844,55 0,00 4.422,58 0,00 0,00 25.415,63 2.397,18 4.164,41 0,00 6.561,59 18.854,04 1.550,00 1.510,88 31/12/2019
518 188600 CLAUDIO SALES OFICIAL DO MP ATIVO NEPOMUCENO - COMARCA; NEPOMUCENO-PJ-SECRETARIA 12.065,98 9.652,78 0,00 3.848,75 0,00 0,00 25.567,51 2.592,93 4.446,31 0,00 7.039,24 18.528,27 1.550,00 3.904,91 31/12/2019
519 543300 CLAUDIO SILVA DE CARVALHO ANALISTA DO MP ATIVO CAMPO BELO - COMARCA; CAMPO BELO-PJ-04PJ 7.106,49 710,65 0,00 2.180,14 0,00 0,00 9.997,28 886,01 991,75 0,00 1.877,76 8.119,52 1.550,00 448,80 31/12/2019
520 160700 CLAUDIO VICENTE HESS ASSESSOR ATIVO BELO HORIZONTE - COMARCA; CENTRAL DE APOIO TECNICO-SETOR DE INFORMATICA 0,00 4.983,53 12.458,83 5.074,81 0,00 0,00 22.517,17 1.284,68 3.948,87 0,00 5.233,55 17.283,62 1.550,00 0,00 31/12/2019
521 312900 CLAUDIO VIEIRA FIRPE OFICIAL DO MP ATIVO BELO HORIZONTE - COMARCA; DIR RELACOES INSTITUCIONAIS 9.043,46 2.713,04 0,00 3.200,22 0,00 0,00 14.956,72 1.330,85 2.008,04 0,00 3.338,89 11.617,83 2.319,39 646,61 31/12/2019
522 634100 CLEA CRISTINA GUERRA DE FREITAS COSTA OFICIAL DO MP ATIVO BELO HORIZONTE - COMARCA; BH-18PJ VIOLENCIA DOMESTICA-SECRETARIA 4.467,49 268,05 0,00 3.945,13 0,00 0,00 8.680,67 583,57 269,50 0,00 853,07 7.827,60 2.319,39 1.076,56 31/12/2019
523 653100 CLEBER SOUZA SCALIONI ASSESSOR ATIVO BELO HORIZONTE - COMARCA; CENTRAL DE APOIO TECNICO-SETOR CONTABIL 0,00 0,00 7.576,76 2.750,77 0,00 0,00 10.327,53 1.284,68 1.340,11 0,00 2.624,79 7.702,74 1.550,00 0,00 31/12/2019
524 459200 CLEIA ZILLE PEREIRA ANALISTA DO MP ATIVO BELO HORIZONTE - COMARCA; ASSESS TECNICO-JUR JUNTO AS PROC. DE JUST 9.337,87 933,79 0,00 2.361,32 0,00 0,00 12.632,98 1.129,88 1.644,63 0,00 2.774,51 9.858,47 1.550,00 0,00 31/12/2019
525 481800 CLEIDE CARDOSO DA SILVA ANALISTA DO MP ATIVO MANHUAÇU - COMARCA; MANHUACU-PJ-04PJ 9.337,87 933,79 0,00 2.465,59 0,00 0,00 12.737,25 1.129,88 1.540,36 0,00 2.670,24 10.067,01 1.550,00 0,00 31/12/2019
526 347600 CLEIDIMAR DE OLIVEIRA SILVA OFICIAL DO MP ATIVO PATOS DE MINAS - COMARCA; PATOS DE MINAS-PJ-07PJ 7.823,48 2.347,04 0,00 2.555,17 0,00 0,00 12.725,69 1.154,04 1.411,33 0,00 2.565,37 10.160,32 1.550,00 713,11 31/12/2019
527 396500 CLEIDISON BATISTA DE ANDRADE OFICIAL DO MP ATIVO RESPLENDOR - COMARCA; RESPLENDOR-PJ-UNPJ 5.863,71 1.172,74 0,00 1.995,67 0,00 0,00 9.032,12 798,42 748,54 0,00 1.546,96 7.485,16 2.319,39 419,39 31/12/2019
528 535100 CLEISON ALVES DA SILVA ANALISTA DO MP ATIVO BOA ESPERANÇA - COMARCA; BOA ESPERANCA-PJ-01PJ 7.823,48 782,35 0,00 2.359,33 0,00 0,00 10.965,16 976,49 1.132,64 0,00 2.109,13 8.856,03 2.319,39 512,93 31/12/2019
529 298100 CLEONICE AUGUSTA BARROS DE OLIVEIRA ANALISTA DO MP ATIVO JUIZ DE FORA - COMARCA; JUIZ DE FORA-PJ-08PJ 14.941,94 4.482,58 0,00 3.690,77 0,00 0,00 23.115,29 2.211,81 3.884,79 0,00 6.096,60 17.018,69 1.550,00 1.290,57 31/12/2019
530 114300 CLERES PEREIRA DA SILVA JUNIOR ASSESSOR ATIVO BELO HORIZONTE - COMARCA; GAECO - SECRETARIA 0,00 2.381,54 4.763,08 2.809,95 0,00 0,00 9.954,57 1.284,68 1.064,86 0,00 2.349,54 7.605,03 1.550,00 0,00 31/12/2019
531 264100 CLETO HENRIQUE ANDRADE SILVA ANALISTA DO MP ATIVO BELO HORIZONTE - COMARCA; DIRETORIA DE SISTEMAS DE INFORMACAO 16.148,50 4.844,55 0,00 4.422,58 0,00 0,00 25.415,63 2.397,18 4.164,41 0,00 6.561,59 18.854,04 1.741,86 1.510,88 31/12/2019
532 334400 CLEUBA DE OLIVEIRA BARCELOS GONCALVES OFICIAL DO MP ATIVO DIVINÓPOLIS - COMARCA; COORD REG SAUDE MACRORREGIAO SANITARIA OESTE 9.337,87 1.867,57 0,00 3.114,61 0,00 0,00 14.320,05 1.345,55 1.768,90 0,00 3.114,45 11.205,60 1.550,00 1.940,61 31/12/2019
533 347500 CLEUSA CORDEIRO DA MATA PIMENTA OFICIAL DO MP ATIVO CAMPO BELO - COMARCA; CAMPO BELO-PJ-02PJ 8.214,70 6.571,76 0,00 4.300,59 0,00 1.626,51 20.713,56 1.677,80 3.092,64 0,00 4.770,44 15.943,12 1.550,00 983,83 31/12/2019
534 510200 CLEZIO SALES SILVA OFICIAL DO MP ATIVO BRASÓPOLIS - COMARCA; BRASOPOLIS-PJ-UNPJ 5.158,42 515,84 0,00 2.323,08 0,00 0,00 7.997,34 643,86 519,41 0,00 1.163,27 6.834,07 2.319,39 338,25 31/12/2019
535 323000 CLOTILDE DE PADUA VIEIRA OFICIAL DO MP ATIVO BELO HORIZONTE - COMARCA; EXTINTA-CGMP-DIV APOIO ADMINISTRATIVO 6.054,65 1.210,93 0,00 1.924,69 0,00 0,00 9.190,27 824,41 908,89 0,00 1.733,30 7.456,97 1.550,00 433,06 31/12/2019
536 285200 CLOVIS ANDRE LUDTKE OFICIAL DO MP ATIVO BELO HORIZONTE - COMARCA; DIVISAO DE MANUTENCAO PREDIAL 9.337,87 2.801,36 0,00 2.823,94 0,00 0,00 14.963,17 1.377,42 2.101,72 0,00 3.479,14 11.484,03 1.550,00 723,36 31/12/2019
537 381100 CONCEICAO APARECIDA TEIXEIRA ARANTES ANALISTA DO MP ATIVO BELO HORIZONTE - COMARCA; BH-23PJ INFRACIONAL-ASS JURIDICA 12.458,83 2.491,77 0,00 3.778,07 0,00 0,00 18.728,67 1.795,27 2.737,66 0,00 4.532,93 14.195,74 2.319,39 3.399,03 31/12/2019
538 249900 CONSTANTINO CEZAR GOMES MOTA OFICIAL DO MP ATIVO MONTES CLAROS - COMARCA; COORD REG BACIA RIOS VERDE GRANDE E PARDO 8.214,70 2.464,41 0,00 2.524,77 0,00 0,00 13.203,88 1.265,93 1.640,08 0,00 2.906,01 10.297,87 2.319,39 1.567,41 31/12/2019
539 481000 CRISHMA ANALIA LOMBELLO ANALISTA DO MP ATIVO JUIZ DE FORA - COMARCA; JUIZ DE FORA-PJ-13PJ 9.337,87 933,79 0,00 2.413,46 0,00 0,00 12.685,12 1.129,88 1.592,49 0,00 2.722,37 9.962,75 1.550,00 0,00 31/12/2019
540 523900 CRISTHYANE BAZOLI COSTA GUEDES COUTO OFICIAL DO MP ATIVO BELO HORIZONTE - COMARCA; EXTINTA-04ª PJ JUÍZO REG PÚBLICOS-SECRETARIA 6.054,65 605,47 0,00 1.836,74 0,00 0,00 8.496,86 755,71 760,71 0,00 1.516,42 6.980,44 1.550,00 396,96 31/12/2019
541 187000 CRISTIAN DAYVSON EVANGELISTA OFICIAL DO MP ATIVO JUIZ DE FORA - COMARCA; JUIZ DE FORA-PJ-13PJ 12.065,98 4.826,39 0,00 5.521,37 0,00 0,00 22.413,74 2.045,29 3.212,91 0,00 5.258,20 17.155,54 1.550,00 3.617,33 31/12/2019
542 319800 CRISTIANA GONCALVES DOS SANTOS GUSMAO OFICIAL DO MP ATIVO SETE LAGOAS - COMARCA; SETE LAGOAS-PJ-10PJ 8.214,70 1.642,94 0,00 2.301,18 0,00 0,00 12.158,82 1.118,53 1.543,30 0,00 2.661,83 9.496,99 1.550,00 587,51 31/12/2019
543 520600 CRISTIANA JANAINA BARBOZA JUVENCIO DOS SANTOS ANALISTA DO MP ATIVO BELO HORIZONTE - COMARCA; BH-02PJ FAMILIA 9.337,87 933,79 0,00 2.831,93 0,00 0,00 13.103,59 1.233,41 1.644,63 0,00 2.878,04 10.225,55 1.550,00 1.778,91 31/12/2019
544 195600 CRISTIANA SOARES HALABI OFICIAL DO MP ATIVO UBERABA - COMARCA; UBERABA-PJ-01PJ 12.864,49 5.145,80 0,00 3.298,50 0,00 0,00 21.308,79 2.180,65 3.538,66 0,00 5.719,31 15.589,48 1.550,00 3.428,10 31/12/2019
545 218900 CRISTIANE ALVES BELLES OFICIAL DO MP ATIVO JUIZ DE FORA - COMARCA; JUIZ DE FORA-PJ-10PJ 5.678,79 1.703,64 0,00 2.045,93 0,00 0,00 9.428,36 812,07 833,21 0,00 1.645,28 7.783,08 2.703,54 0,00 31/12/2019
546 263600 CRISTIANE CARVALHO COUTINHO OFICIAL DO MP ATIVO BELO HORIZONTE - COMARCA; BH-23PJ INFRACIONAL-SEC EXP 9.337,87 2.801,36 0,00 2.876,08 0,00 0,00 15.015,31 1.377,42 2.049,58 0,00 3.427,00 11.588,31 1.550,00 723,36 31/12/2019
547 541000 CRISTIANE COELHO ALVES OFICIAL DO MP ATIVO ITABIRA - COMARCA; ITABIRA-PJ-03PJ 4.612,94 461,29 0,00 1.721,61 0,00 0,00 6.795,84 575,77 337,33 0,00 913,10 5.882,74 1.550,00 302,40 31/12/2019
548 441700 CRISTIANE CORRADO DE ANDRADE ANALISTA DO MP ATIVO BELO HORIZONTE - COMARCA; DIRETORIA DE SISTEMAS DE INFORMACAO 11.317,16 2.263,43 0,00 3.407,80 0,00 0,00 16.988,39 1.619,36 2.454,49 0,00 4.073,85 12.914,54 1.550,00 2.156,30 31/12/2019
549 375100 CRISTIANE DAS DORES ERCIO DE LIMA OFICIAL DO MP ATIVO GOVERNADOR VALADARES - COMARCA; COOR REG APOIO COM INC MOB VALE DO RIO DOCE 7.576,76 1.515,35 0,00 2.606,57 0,00 0,00 11.698,68 1.091,78 1.355,93 0,00 2.447,71 9.250,97 1.550,00 1.574,65 31/12/2019
550 178800 CRISTIANE DE LIMA HOSKEN OFICIAL DO MP ATIVO BELO HORIZONTE - COMARCA; BH-14PJ DEFESA CONSUMIDOR-GAB 110PJ 13.283,29 5.313,32 0,00 4.391,09 0,00 0,00 22.987,70 2.219,71 3.525,75 0,00 5.745,46 17.242,24 1.550,00 2.990,92 31/12/2019
551 494000 CRISTIANE DE MELO MARQUEZ OLIVEIRA ANALISTA DO MP ATIVO UBERLÂNDIA - COMARCA; UBERLANDIA-PJ-06PJ 9.641,94 964,19 0,00 2.409,90 3.535,38 0,00 16.551,41 1.203,46 2.698,72 0,00 3.902,18 12.649,23 3.088,78 632,17 31/12/2019
552 266100 CRISTIANE DE OLIVEIRA CASTRO OFICIAL DO MP ATIVO BELO HORIZONTE - COMARCA; BH-14PJ DEFESA CONSUMIDOR-SECRETARIA 10.279,98 3.083,99 0,00 3.216,30 0,00 0,00 16.580,27 1.516,38 2.665,77 0,00 4.182,15 12.398,12 1.550,00 2.136,51 31/12/2019
553 329500 CRISTIANE DOS REIS SILVA OFICIAL DO MP ATIVO ARAXÁ - COMARCA; ARAXA-PJ-04PJ 8.214,70 1.642,94 0,00 2.405,46 0,00 0,00 12.263,10 1.168,55 1.439,02 0,00 2.607,57 9.655,53 1.550,00 1.446,85 31/12/2019
554 301600 CRISTIANE GODINHO PIRES ANALISTA DO MP ATIVO BETIM - COMARCA; BETIM-PJ-07PJ 14.372,91 4.311,87 0,00 3.583,32 0,00 0,00 22.268,10 2.199,16 3.703,74 0,00 5.902,90 16.365,20 1.550,00 2.471,25 31/12/2019
555 406100 CRISTIANE GONCALVES CHAVES ANALISTA DO MP ATIVO BELO HORIZONTE - COMARCA; BH-14PJ DEFESA CONSUMIDOR-GAB 112PJ 11.685,57 3.505,67 0,00 3.075,88 0,00 0,00 18.267,12 1.723,72 2.848,70 0,00 4.572,42 13.694,70 1.550,00 905,18 31/12/2019
556 487600 CRISTIANE LOPES DE OLIVEIRA OFICIAL DO MP ATIVO DIVINÓPOLIS - COMARCA; DIVINOPOLIS-PJ-03PJ 5.678,79 567,88 0,00 4.900,03 0,00 0,00 11.146,70 708,79 659,51 0,00 1.368,30 9.778,40 1.550,00 372,16 31/12/2019
557 502500 CRISTIANE MACIEL DE OLIVEIRA GOMES ANALISTA DO MP ATIVO JUIZ DE FORA - COMARCA; JUIZ DE FORA-PJ-05PJ 9.337,87 933,79 0,00 2.361,32 0,00 0,00 12.632,98 1.129,88 1.644,63 0,00 2.774,51 9.858,47 2.319,39 0,00 31/12/2019
558 285500 CRISTIANE MAGALHAES LOURENCO ANALISTA DO MP ATIVO BELO HORIZONTE - COMARCA; CENTRAL DE APOIO TECNICO-SETOR CONTABIL 15.533,57 4.660,07 0,00 4.798,14 0,00 0,00 24.991,78 2.417,40 3.968,76 0,00 6.386,16 18.605,62 1.550,00 3.369,44 31/12/2019
559 536500 CRISTIANE MICHELE DE SOUZA ANALISTA DO MP ATIVO BARÃO DE COCAIS - COMARCA; BARAO DE COCAIS-PJ-UNPJ 7.823,48 782,35 0,00 2.359,33 0,00 0,00 10.965,16 976,49 1.132,64 0,00 2.109,13 8.856,03 2.319,39 512,93 31/12/2019
560 346600 CRISTIANE NOGUEIRA ANDRADE ANALISTA DO MP ATIVO BELO HORIZONTE - COMARCA; CENTRAL DE APOIO TECNICO-SETOR CONTABIL 13.715,83 2.743,17 0,00 3.519,55 0,00 0,00 19.978,55 1.867,59 3.158,98 0,00 5.026,57 14.951,98 1.550,00 981,00 31/12/2019
561 234000 CRISTIANE OLIVEIRA TOSTES OFICIAL DO MP ATIVO JUIZ DE FORA - COMARCA; JUIZ DE FORA-PJ-08PJ 11.685,57 3.505,67 0,00 3.075,88 0,00 0,00 18.267,12 1.723,72 2.848,70 0,00 4.572,42 13.694,70 2.319,39 905,18 31/12/2019
562 445800 CRISTIANE ORZIL COSTA OFICIAL DO MP ATIVO SANTA LUZIA - COMARCA; SANTA LUZIA-PJ-05PJ 5.678,79 1.135,76 0,00 4.900,03 0,00 0,00 11.714,58 812,07 798,50 0,00 1.610,57 10.104,01 2.319,39 1.073,29 31/12/2019
563 616100 CRISTIANE PAES RODRIGUES MARCICANO ANALISTA DO MP ATIVO CATAGUASES - COMARCA; CATAGUASES-PJ-05PJ 6.882,47 412,95 0,00 2.263,31 0,00 0,00 9.558,73 942,85 916,19 0,00 1.859,04 7.699,69 3.088,78 2.411,45 31/12/2019
564 612300 CRISTIANE RIBEIRO DOS REIS ARCANJO OFICIAL DO MP ATIVO BELO HORIZONTE - COMARCA; DIRETORIA DE PAGAMENTO DE PESSOAL-DPAG 4.838,22 483,82 0,00 1.169,10 0,00 0,00 6.491,14 628,65 334,57 0,00 963,22 5.527,92 0,00 0,00 31/12/2019
565 257700 CRISTIANE RODRIGUES PAES NUNES ANALISTA DO MP ATIVO BELO HORIZONTE - COMARCA; BH-22PJ PES COM DEF E IDOSOS-ORIENTACAO PSIC 15.533,57 4.660,07 0,00 4.239,18 0,00 0,00 24.432,82 2.305,90 4.020,90 0,00 6.326,80 18.106,02 7.973,61 1.971,94 31/12/2019
566 510800 CRISTIANE SANTOS FERNANDES ORNELES ANALISTA DO MP ATIVO BELO HORIZONTE - COMARCA; COORD ESTADUAL DAS PJS DE HAB. E URBANISMO 9.337,87 933,79 0,00 2.361,32 0,00 0,00 12.632,98 1.233,41 1.644,63 0,00 2.878,04 9.754,94 1.550,00 1.778,91 31/12/2019
567 535701 CRISTIANE SANTOS MIRANDA ANALISTA DO MP ATIVO BETIM - COMARCA; BETIM-PJ-12PJ 6.054,65 363,28 0,00 1.800,93 0,00 0,00 8.218,86 766,93 649,29 0,00 1.416,22 6.802,64 1.550,00 1.047,48 31/12/2019
568 536200 CRISTIANO DE OLIVEIRA ANALISTA DO MP ATIVO CONCEIÇÃO DO MATO DENTRO - COMARCA; CONCEICAO DO MATO DENTRO-PJ-UNPJ 8.482,22 848,22 0,00 2.423,87 0,00 0,00 11.754,31 1.058,72 1.362,13 0,00 2.420,85 9.333,46 1.550,00 556,17 31/12/2019
569 477400 CRISTIANO SOARES ELEUTERIO ANALISTA DO MP ATIVO BELO HORIZONTE - COMARCA; BH-17PJ PATRIMONIO PUBLICO 9.955,90 995,59 0,00 2.632,74 0,00 0,00 13.584,23 1.242,65 1.811,02 0,00 3.053,67 10.530,56 1.550,00 652,73 31/12/2019
570 449400 CRISTIANO TEIXEIRA RODRIGUES LANA ANALISTA DO MP ATIVO BELO HORIZONTE - COMARCA; ASSESS TECNICO-JUR JUNTO AS PROC. DE JUST 9.337,87 933,79 0,00 2.361,32 0,00 0,00 12.632,98 1.129,88 1.644,63 0,00 2.774,51 9.858,47 1.550,00 0,00 31/12/2019
571 239400 CRISTINA DE FATIMA CRUZ E SILVA OFICIAL DO MP ATIVO MONTE SANTO DE MINAS - COMARCA; MONTE SANTO DE MINAS-PJ-SECRETARIA 10.279,98 3.083,99 0,00 2.810,47 0,00 0,00 16.174,44 1.516,38 2.401,47 0,00 3.917,85 12.256,59 1.550,00 796,26 31/12/2019
572 544000 CRISTINA DE OLIVEIRA TERRA ANALISTA DO MP ATIVO MATOZINHOS - COMARCA; MATOZINHOS-PJ-01PJ 7.823,48 782,35 0,00 6.422,27 0,00 0,00 15.028,10 976,49 1.236,92 0,00 2.213,41 12.814,69 1.550,00 512,93 31/12/2019
573 356800 CRISTINA DE PINHO BARROSO OFICIAL DO MP ATIVO SABINÓPOLIS - COMARCA; SABINOPOLIS-PJ-UNPJ 6.665,41 1.999,62 0,00 2.232,23 0,00 0,00 10.897,26 983,21 1.147,13 0,00 2.130,34 8.766,92 2.319,39 516,46 31/12/2019
574 649500 CRISTINA DO DIVINO ESPIRITO SANTOS OFICIAL DO MP ATIVO DIVINÓPOLIS - COMARCA; DIVINOPOLIS-PJ-12PJ 4.326,60 259,60 0,00 2.163,94 0,00 0,00 6.750,14 548,09 239,60 0,00 787,69 5.962,45 1.550,00 749,35 31/12/2019
575 348201 CRISTINA MARIA DA SILVA ANALISTA DO MP ATIVO PATOS DE MINAS - COMARCA; PATOS DE MINAS-PJ-07PJ 9.337,87 933,79 0,00 2.361,32 0,00 0,00 12.632,98 1.129,88 1.644,63 0,00 2.774,51 9.858,47 1.550,00 0,00 31/12/2019
576 434900 CRISTINA MELO DE MADUREIRA ANALISTA DO MP ATIVO BELO HORIZONTE - COMARCA; BH-07PJ 01 TRIBUNAL DO JURI 11.317,16 2.263,43 0,00 3.407,80 0,00 0,00 16.988,39 1.619,36 2.454,49 0,00 4.073,85 12.914,54 1.550,00 2.156,30 31/12/2019
577 307700 CRISTINA TEIXEIRA MARQUES OFICIAL DO MP ATIVO BELO HORIZONTE - COMARCA; CENTRAL DE APOIO TECNICO-SETOR CONTABIL 7.955,66 2.386,70 0,00 2.773,16 0,00 0,00 13.115,52 1.219,21 1.661,93 0,00 2.881,14 10.234,38 1.550,00 1.648,31 31/12/2019
578 265300 CRISTOVAO SANCHES DE MEDEIROS ANALISTA DO MP ATIVO BELO HORIZONTE - COMARCA; DIRETORIA DE CONTABILIDADE 14.162,21 4.248,66 0,00 3.833,68 0,00 0,00 22.244,55 2.089,03 3.636,70 0,00 5.725,73 16.518,82 1.550,00 1.096,75 31/12/2019
579 349800 CROZEIR LUIZ DA SILVA OFICIAL DO MP ATIVO UNAÍ - COMARCA; UNAI-PJ-SECRETARIA 7.823,48 1.564,70 0,00 2.285,13 0,00 0,00 11.673,31 1.065,27 1.376,26 0,00 2.441,53 9.231,78 3.244,86 658,24 31/12/2019
580 490500 CYNTHIA CRISTINA DE SOUZA OLIVEIRA VALENTE ANALISTA DO MP ATIVO BELO HORIZONTE - COMARCA; BH-09PJ AUDITORIA MILITAR 9.337,87 933,79 0,00 3.748,58 0,00 0,00 14.020,24 1.129,88 1.644,63 0,00 2.774,51 11.245,73 1.550,00 0,00 31/12/2019
581 389800 CYNTHIA GARIGLIO DOS SANTOS OFICIAL DO MP ATIVO PERDIZES - COMARCA; PERDIZES-PJ-SECRETARIA 5.678,79 1.135,76 0,00 2.015,58 0,00 0,00 8.830,13 749,60 642,09 0,00 1.391,69 7.438,44 2.319,39 0,00 31/12/2019
582 335101 CYNTHIA GONTIJO D ASSUNCAO ANALISTA DO MP ATIVO BELO HORIZONTE - COMARCA; PROC. JUSTICA DIR. DIFUSOS E COLETIVOS-SEC 9.337,87 933,79 0,00 2.361,32 0,00 0,00 12.632,98 1.129,88 1.644,63 0,00 2.774,51 9.858,47 2.319,39 0,00 31/12/2019
583 154000 CYNTHIA LOPES DOS SANTOS LAGES ASSESSOR ATIVO BELO HORIZONTE - COMARCA; PROCURADOR-GERAL DE JUSTICA- GABINETE 0,00 8.721,18 12.458,83 5.634,86 0,00 2.329,80 29.144,67 2.329,80 4.955,14 0,00 7.284,94 21.859,73 1.550,00 0,00 31/12/2019
584 269700 CYNTIA ROCHA CAVALCANTI OFICIAL DO MP ATIVO UBERLÂNDIA - COMARCA; UBERLANDIA-PJ-06PJ 10.279,98 3.083,99 0,00 2.810,47 0,00 0,00 16.174,44 1.516,38 2.401,47 0,00 3.917,85 12.256,59 2.319,39 796,26 31/12/2019
585 278000 DAIRTON LOPES MARTINS FILHO COORDENADOR/ANALISTA ATIVO BELO HORIZONTE - COMARCA; DIRETORIA DE SISTEMAS DE INFORMACAO 0,00 3.737,65 12.458,83 3.545,46 0,00 0,00 19.741,94 1.335,32 3.217,46 0,00 4.552,78 15.189,16 1.550,00 0,00 31/12/2019
586 392700 DALIANA CHAVES IBRAIM MARINHO OFICIAL DO MP ATIVO ITAÚNA - COMARCA; ITAUNA-PJ-04PJ 6.251,74 625,17 0,00 1.868,23 0,00 0,00 8.745,14 756,46 813,76 0,00 1.570,22 7.174,92 1.550,00 0,00 31/12/2019
587 558101 DALLEY TASSIA SILVA ANALISTA DO MP ATIVO MORADA NOVA DE MINAS - COMARCA; MORADA NOVA DE MINAS-PJ-UNPJ 7.576,76 757,68 0,00 6.351,43 0,00 0,00 14.685,87 997,74 1.066,22 0,00 2.063,96 12.621,91 2.319,39 1.390,95 31/12/2019
588 476700 DALTON DAUD ANALISTA DO MP ATIVO ARAGUARI - COMARCA; ARAGUARI-PJ-05PJ 9.337,87 933,79 0,00 2.465,59 0,00 0,00 12.737,25 1.129,88 1.540,36 0,00 2.670,24 10.067,01 1.550,00 0,00 31/12/2019
589 426900 DANIEL ALVES DA SILVA OFICIAL DO MP ATIVO BELO HORIZONTE - COMARCA; DIVISAO TRANSPORTES 5.678,79 1.135,76 0,00 5.370,72 0,00 0,00 12.185,27 749,60 694,23 0,00 1.443,83 10.741,44 1.550,00 0,00 31/12/2019
590 122000 DANIEL ANTONIO VIEIRA OFICIAL DO MP ATIVO ENTRE-RIOS DE MINAS - COMARCA; ENTRE RIOS DE MINAS-PJ-SECRETARIA 9.337,87 6.536,51 0,00 11.320,85 0,00 0,00 27.195,23 1.746,18 2.807,35 0,00 4.553,53 22.641,70 1.550,00 0,00 31/12/2019
591 411000 DANIEL FERREIRA DA SILVA ANALISTA DO MP ATIVO GOVERNADOR VALADARES - COMARCA; GOVERNADOR VALADARES-PJ-15PJ 11.317,16 3.395,15 0,00 3.836,90 0,00 0,00 18.549,21 1.766,67 2.575,07 0,00 4.341,74 14.207,47 2.319,39 2.548,34 31/12/2019
592 309000 DANIEL GOMES DOS SANTOS ANALISTA DO MP ATIVO POÇOS DE CALDAS - COMARCA; POCOS DE CALDAS-PJ-03PJ 14.162,21 4.248,66 0,00 3.543,53 0,00 0,00 21.954,40 2.084,12 3.636,70 0,00 5.720,82 16.233,58 1.550,00 1.012,40 31/12/2019
593 554500 DANIEL GOMES PEREIRA OFICIAL DO MP ATIVO NANUQUE - COMARCA; NANUQUE-PJ-02PJ 4.995,72 499,57 0,00 1.754,18 0,00 0,00 7.249,47 623,54 475,61 0,00 1.099,15 6.150,32 1.550,00 327,44 31/12/2019
594 453000 DANIEL GONCALVES PEREIRA ANALISTA DO MP ATIVO UNAÍ - COMARCA; UNAI-PJ-02PJ 9.337,87 933,79 0,00 2.361,32 0,00 0,00 12.632,98 1.129,88 1.644,63 0,00 2.774,51 9.858,47 2.703,54 0,00 31/12/2019
595 495500 DANIEL GUIMARAES CABRAL OFICIAL DO MP ATIVO BELO HORIZONTE - COMARCA; BH-17PJ PATRIMONIO PUBLICO-SECRETARIA 5.678,79 567,88 0,00 1.875,15 0,00 0,00 8.121,82 708,79 659,51 0,00 1.368,30 6.753,52 1.550,00 372,16 31/12/2019
596 442900 DANIEL GUIMARAES GONCALVES ANALISTA DO MP ATIVO UBERLÂNDIA - COMARCA; UBERLANDIA-PJ-03PJ 11.317,16 2.263,43 0,00 3.978,25 0,00 0,00 17.558,84 1.619,36 2.454,49 0,00 4.073,85 13.484,99 1.550,00 2.156,30 31/12/2019
597 655900 DANIEL LUIZ DA SILVA ASSESSOR ATIVO BELO HORIZONTE - COMARCA; DIV FISCAL ADM CONT TERCEIRIZACAO 0,00 0,00 2.852,73 1.374,46 0,00 0,00 4.227,19 691,55 172,89 0,00 864,44 3.362,75 1.550,00 0,00 31/12/2019
598 464600 DANIEL PIACENTINI STIVANIN ANALISTA DO MP ATIVO ANDRADAS - COMARCA; ANDRADAS-PJ-02PJ 9.337,87 933,79 0,00 2.361,32 0,00 0,00 12.632,98 1.129,88 1.644,63 0,00 2.774,51 9.858,47 1.550,00 0,00 31/12/2019
599 417000 DANIEL QUEIROZ FERREIRA ANALISTA DO MP ATIVO SÃO SEBASTIÃO DO PARAÍSO - COMARCA; SAO SEBASTIAO DO PARAISO-PJ-05PJ 10.279,98 2.056,00 0,00 2.661,16 0,00 0,00 14.997,14 1.399,74 2.149,87 0,00 3.549,61 11.447,53 1.550,00 735,02 31/12/2019
600 396700 DANIEL SILVA CARNEVALLI DIRETOR/ANALISTA ATIVO BELO HORIZONTE - COMARCA; SUPERINTENDENCIA DE TECNOLOGIA DA INFORMACAO 0,00 3.229,70 16.148,50 5.620,35 0,00 0,00 24.998,55 1.591,12 4.035,46 0,00 5.626,58 19.371,97 2.319,39 835,55 31/12/2019
601 489300 DANIEL TABOZA ROCHA ANALISTA DO MP ATIVO IPATINGA - COMARCA; IPATINGA-PJ-08PJ 9.337,87 933,79 0,00 2.361,32 0,00 0,00 12.632,98 1.129,88 1.644,63 0,00 2.774,51 9.858,47 2.319,39 0,00 31/12/2019
602 414100 DANIEL TARDELI VALADAO ANALISTA DO MP ATIVO TRÊS CORACOES - COMARCA; TRES CORACOES-PJ-02PJ 11.317,16 2.263,43 0,00 3.672,80 0,00 0,00 17.253,39 1.630,77 2.245,94 0,00 3.876,71 13.376,68 3.858,17 2.352,33 31/12/2019
603 446601 DANIEL VIEIRA BUENO ANALISTA DO MP ATIVO SÃO DOMINGOS DO PRATA - COMARCA; SAO DOMINGOS DO PRATA-PJ-UNPJ 7.576,76 454,61 0,00 2.162,54 0,00 0,00 10.193,91 911,31 1.096,32 0,00 2.007,63 8.186,28 1.550,00 478,62 31/12/2019
604 253200 DANIELA BATISTA LIMA BARBOSA ASSESSOR ATIVO BELO HORIZONTE - COMARCA; CENTRAL DE APOIO TECN-SETOR DE MEIO AMBIENTE 0,00 1.428,92 4.763,08 2.439,20 0,00 0,00 8.631,20 1.284,68 959,30 0,00 2.243,98 6.387,22 1.550,00 0,00 31/12/2019
605 505800 DANIELA BORGES DE MATTOS RESENDE ANALISTA DO MP ATIVO JUIZ DE FORA - COMARCA; JUIZ DE FORA-PJ-20PJ 9.337,87 933,79 0,00 3.748,58 0,00 0,00 14.020,24 1.129,88 1.644,63 0,00 2.774,51 11.245,73 2.319,39 0,00 31/12/2019
606 478000 DANIELA CARVALHO SOARES ANALISTA DO MP ATIVO SÃO JOÃO DEL REI - COMARCA; SAO JOAO DEL REI-PJ-01PJ 9.321,57 933,79 0,00 3.748,58 0,00 0,00 14.003,94 1.129,88 1.640,15 0,00 2.770,03 11.233,91 1.550,00 0,00 31/12/2019
607 275900 DANIELA CHAGAS SODRE ANALISTA DO MP ATIVO BELO HORIZONTE - COMARCA; CENTRAL DE APOIO TECNICO-SETOR CONTABIL 15.533,57 4.660,07 0,00 4.746,00 0,00 0,00 24.939,64 2.417,40 4.020,90 0,00 6.438,30 18.501,34 1.550,00 3.369,44 31/12/2019
608 234301 DANIELA CRUZ SOARES ANALISTA DO MP ATIVO BELO HORIZONTE - COMARCA; LABORATORIO TECNOLOGIA INTELIGENCIA 16.148,50 4.844,55 0,00 4.318,30 0,00 0,00 25.311,35 2.397,18 4.268,69 0,00 6.665,87 18.645,48 1.550,00 1.510,88 31/12/2019
609 638000 DANIELA DE ALMEIDA BATISTA ANALISTA DO MP ATIVO ANDRELÂNDIA - COMARCA; ANDRELANDIA-PJ-UNPJ 6.882,47 412,95 0,00 2.160,17 0,00 0,00 9.455,59 642,34 960,24 0,00 1.602,58 7.853,01 2.319,39 460,16 31/12/2019
610 301000 DANIELA DE ALMEIDA E OLIVEIRA ANALISTA DO MP ATIVO BELO HORIZONTE - COMARCA; DIRETORIA DE SISTEMAS DE INFORMACAO 15.533,57 4.660,07 0,00 4.693,87 0,00 0,00 24.887,51 2.402,32 4.073,03 0,00 6.475,35 18.412,16 1.550,00 3.110,24 31/12/2019
611 296000 DANIELA DE AZEVEDO SILVA ANALISTA DO MP ATIVO ITAJUBA - COMARCA; ITAJUBA-PJ-05PJ 14.372,91 4.311,87 0,00 3.583,32 0,00 0,00 22.268,10 2.211,15 3.703,74 0,00 5.914,89 16.353,21 1.550,00 2.677,20 31/12/2019
612 453500 DANIELA DE CASTRO SOUSA BARBOSA ANALISTA DO MP ATIVO BELO HORIZONTE - COMARCA; BH-08PJ JUIZADO ESPECIAL-SECRETARIA 9.337,87 933,79 0,00 2.361,32 0,00 0,00 12.632,98 1.129,88 1.644,63 0,00 2.774,51 9.858,47 1.550,00 470,19 31/12/2019
613 506000 DANIELA DE OLIVEIRA CAVALIERI ANALISTA DO MP ATIVO BELO HORIZONTE - COMARCA; BH-14PJ DEFESA CONSUMIDOR-GAB 005PJ 8.758,36 875,84 0,00 2.782,91 3.211,40 0,00 15.628,51 1.172,88 2.371,75 0,00 3.544,63 12.083,88 1.550,00 1.943,62 31/12/2019
614 546200 DANIELA DE VILHENA LEMES GONCALVES OFICIAL DO MP ATIVO TRÊS CORACOES - COMARCA; TRES CORACOES-PJ-05PJ 4.838,22 483,82 0,00 2.196,17 0,00 0,00 7.518,21 585,42 344,29 0,00 929,71 6.588,50 1.550,00 0,00 31/12/2019
615 356400 DANIELA LEAL FERRAZ ANALISTA DO MP ATIVO MONTES CLAROS - COMARCA; COORD REG PJ DEF EDUC DIR CRIANCA ADOL NORTE 12.065,98 2.413,20 0,00 2.972,46 0,00 0,00 17.451,64 1.642,92 2.674,42 0,00 4.317,34 13.134,30 1.550,00 862,77 31/12/2019
616 501000 DANIELA LOURENCO SANTOS DA SILVA GUIMARAES ANALISTA DO MP ATIVO BELO HORIZONTE - COMARCA; BH-12PJ JUIZO CRIMINAL-GAB 095PJ 9.337,87 933,79 0,00 2.413,46 0,00 0,00 12.685,12 1.129,88 1.592,49 0,00 2.722,37 9.962,75 2.319,39 0,00 31/12/2019
617 195801 DANIELA MARIA DE OLIVEIRA QUEIROZ ANALISTA DO MP ATIVO ARAGUARI - COMARCA; ARAGUARI-PJ-06PJ 11.317,16 4.526,86 0,00 3.006,32 0,00 0,00 18.850,34 2.015,65 3.008,46 0,00 5.024,11 13.826,23 1.550,00 5.064,50 31/12/2019
618 511400 DANIELA MARIA LARA DE OLIVEIRA ANALISTA DO MP ATIVO BOA ESPERANÇA - COMARCA; BOA ESPERANCA-PJ-02PJ 9.337,87 933,79 0,00 3.774,65 0,00 0,00 14.046,31 1.233,41 1.592,49 0,00 2.825,90 11.220,41 2.319,39 2.092,65 31/12/2019
619 252101 DANIELA PAULA ALVES PENA ANALISTA DO MP ATIVO CONTAGEM - COMARCA; CONTAGEM-PJ-APO TECNICO 12.065,98 4.826,39 0,00 3.589,26 0,00 0,00 20.481,63 1.912,56 3.265,05 0,00 5.177,61 15.304,02 1.550,00 934,66 31/12/2019
620 604700 DANIELA PEIXOTO NOGUEIRA COORDENADOR/OFICIAL ATIVO BELO HORIZONTE - COMARCA; DIRET DE FORMACAO, APERFEIC. E POS-GRADUACAO 0,00 1.096,03 10.960,26 4.548,01 0,00 0,00 16.604,30 630,28 2.272,79 0,00 2.903,07 13.701,23 1.550,00 0,00 31/12/2019
621 429600 DANIELA PIMENTA NUNES MACHADO ANALISTA DO MP ATIVO BELO HORIZONTE - COMARCA; BH-05PJ JUÍZO DE SUCESSÕES 11.317,16 2.263,43 0,00 9.684,38 0,00 0,00 23.264,97 1.619,36 2.402,35 0,00 4.021,71 19.243,26 2.319,39 2.156,30 31/12/2019
622 662000 DANIELA RIBAS DE AVILA ASSESSOR I ATIVO BELO HORIZONTE - COMARCA; DIRETORIA DE SEGURANCA 0,00 0,00 7.576,76 2.750,77 0,00 0,00 10.327,53 1.284,68 1.340,11 0,00 2.624,79 7.702,74 1.550,00 0,00 31/12/2019
623 462000 DANIELA SOUSA GOMES DO AMARAL ANALISTA DO MP ATIVO BETIM - COMARCA; BETIM-PJ-04PJ 9.337,87 933,79 0,00 3.748,58 0,00 0,00 14.020,24 1.129,88 1.644,63 0,00 2.774,51 11.245,73 1.550,00 0,00 31/12/2019
624 427000 DANIELA TEIXEIRA DINIZ ANDRADE ANALISTA DO MP ATIVO BELO HORIZONTE - COMARCA; DIRETORIA DE PROJETOS DE EDIFICACOES 9.337,87 1.867,57 0,00 8.151,81 0,00 0,00 19.357,25 1.232,60 1.821,03 0,00 3.053,63 16.303,62 1.550,00 0,00 31/12/2019
625 337200 DANIELA TOLEDO SENIUK ANALISTA DO MP ATIVO BELO HORIZONTE - COMARCA; GABINETE DE PROCURADOR DE JUSTIÇA - SALA 412 12.065,98 2.413,20 0,00 5.534,11 0,00 0,00 20.013,29 1.738,66 2.674,42 0,00 4.413,08 15.600,21 1.550,00 2.507,77 31/12/2019
626 605600 DANIELE ALZIRA SILVA CABRAL MOREIRA OFICIAL DO MP ATIVO BELO HORIZONTE - COMARCA; BH-10PJ EXECUÇÃO PENAL 4.838,22 483,82 0,00 1.642,39 0,00 0,00 6.964,43 630,28 433,21 0,00 1.063,49 5.900,94 2.319,39 770,74 31/12/2019
627 195500 DANIELE CHAVES FONSECA OFICIAL DO MP ATIVO BELO HORIZONTE - COMARCA; ASSESSORIA ESPECIAL DO PGJ 13.283,29 5.313,32 0,00 3.649,80 0,00 0,00 22.246,41 2.251,64 3.682,16 0,00 5.933,80 16.312,61 1.550,00 3.982,30 31/12/2019
628 323400 DANIELE MEGALE SANTINI OFICIAL DO MP ATIVO BELO HORIZONTE - COMARCA; ASSESS TECNICO-JUR JUNTO AS PROC. DE JUST 8.758,36 1.751,67 0,00 2.448,08 0,00 0,00 12.958,11 1.262,06 1.650,83 0,00 2.912,89 10.045,22 1.550,00 1.820,52 31/12/2019
629 357900 DANIELE REJANE PINTO VERSIEUX OFICIAL DO MP ATIVO PEDRO LEOPOLDO - COMARCA; PEDRO LEOPOLDO-PJ-03PJ 7.955,66 1.591,13 0,00 2.256,02 0,00 0,00 11.802,81 1.131,70 1.467,22 0,00 2.598,92 9.203,89 1.550,00 1.401,19 31/12/2019
630 389500 DANIELE VASCONCELOS AMORIM PRADO OFICIAL DO MP ATIVO SÃO SEBASTIÃO DO PARAÍSO - COMARCA; SAO SEBASTIAO DO PARAISO-PJ-04PJ 7.337,85 1.467,57 0,00 2.148,34 0,00 0,00 10.953,76 999,14 1.285,77 0,00 2.284,91 8.668,85 1.550,00 524,72 31/12/2019
631 629700 DANIELLA BASTOS MARTINS BICALHO OFICIAL DO MP ATIVO GOVERNADOR VALADARES - COMARCA; GOVERNADOR VALADARES-PJ-16PJ 4.467,49 446,75 0,00 1.657,95 0,00 0,00 6.572,19 603,23 347,95 0,00 951,18 5.621,01 1.550,00 1.076,56 31/12/2019
632 265000 DANIELLE CASTANHEIRA SCALABRINI OFICIAL DO MP ATIVO BELO HORIZONTE - COMARCA; JUNTA RECURSAL DO PROCON ESTADUAL 9.337,87 2.801,36 0,00 2.928,22 0,00 0,00 15.067,45 1.377,42 1.997,44 0,00 3.374,86 11.692,59 1.550,00 723,36 31/12/2019
633 490100 DANIELLE DE AVILA SILVA LOPES ANALISTA DO MP ATIVO BELO HORIZONTE - COMARCA; PROC. JUSTICA DIR. DIFUSOS E COLETIVOS-SEC 9.337,87 2.801,36 0,00 2.632,57 0,00 0,00 14.771,80 1.335,32 2.101,72 0,00 3.437,04 11.334,76 3.088,78 0,00 31/12/2019
634 549600 DANIELLE GOMES LOPES RODRIGUES OFICIAL DO MP ATIVO VESPASIANO - COMARCA; VESPASIANO-PJ-02PJ 4.995,72 499,57 0,00 4.415,20 0,00 0,00 9.910,49 623,54 475,61 0,00 1.099,15 8.811,34 1.550,00 327,44 31/12/2019
635 613000 DANIELLE SILVA OLIVEIRA FRANKLIN ASSESSOR/OFICIAL ATIVO BELO HORIZONTE - COMARCA; DIRETORIA DE ORCAMENTO-DIOR/SPC 0,00 757,68 7.576,76 6.444,17 0,00 0,00 14.778,61 628,65 1.249,73 0,00 1.878,38 12.900,23 3.088,78 0,00 31/12/2019
636 380800 DANILLO RIBEIRO ANTUNES ANALISTA DO MP ATIVO MONTES CLAROS - COMARCA; MONTES CLAROS-PJ-SECRETARIA 11.685,57 2.337,11 0,00 2.958,29 0,00 0,00 16.980,97 1.591,12 2.510,56 0,00 4.101,68 12.879,29 1.550,00 835,55 31/12/2019
637 453700 DANILO BOTELHO DE CARVALHO ASSESSOR/ANALISTA ATIVO BELO HORIZONTE - COMARCA; SUPERINTENDENCIA DE FINANCAS 0,00 2.290,31 22.903,10 5.596,85 0,00 0,00 30.790,26 1.283,09 5.705,98 0,00 6.989,07 23.801,19 3.088,78 0,00 31/12/2019
638 391200 DANILO D'AVILA MENDES ANALISTA DO MP ATIVO SÃO ROMÃO - COMARCA; SAO ROMAO-PJ-UNPJ 11.685,57 2.337,11 0,00 2.906,16 0,00 0,00 16.928,84 1.591,12 2.562,69 0,00 4.153,81 12.775,03 2.319,39 835,55 31/12/2019
639 494900 DANILO GAVIAO AVELINO DE MELLO ANALISTA DO MP ATIVO POUSO ALEGRE - COMARCA; GAECO REGIONAL DE POUSO ALEGRE 9.337,87 933,79 0,00 3.748,58 0,00 0,00 14.020,24 1.129,88 1.644,63 0,00 2.774,51 11.245,73 2.319,39 0,00 31/12/2019
640 604300 DANILO NASCIMENTO SALGADO ANALISTA DO MP ATIVO JANAÚBA - COMARCA; JANAUBA-PJ-01PJ 7.576,76 757,68 0,00 2.079,94 0,00 0,00 10.414,38 1.000,80 1.170,49 0,00 2.171,29 8.243,09 1.550,00 1.698,00 31/12/2019
641 550800 DANTE MENDES BIANCHETTI FILHO ANALISTA DO MP ATIVO BARBACENA - COMARCA; BARBACENA-PJ-SECRETARIA 7.823,48 782,35 0,00 6.422,27 0,00 0,00 15.028,10 976,49 1.236,92 0,00 2.213,41 12.814,69 1.550,00 512,93 31/12/2019
642 298300 DANUZA MONICA DE SOUZA DINIZ ANALISTA DO MP ATIVO BELO HORIZONTE - COMARCA; ASSESSORIA ESPECIAL DO PGJ 11.685,57 3.505,67 0,00 3.367,48 0,00 0,00 18.558,72 1.719,67 2.796,56 0,00 4.516,23 14.042,49 1.550,00 835,55 31/12/2019
643 398700 DARCY LUIZ MILEO GREGATTI OFICIAL DO MP ATIVO LAMBARI - COMARCA; LAMBARI-PJ-SECRETARIA 7.576,76 1.515,35 0,00 3.368,03 0,00 0,00 12.460,14 1.091,78 1.355,93 0,00 2.447,71 10.012,43 1.550,00 1.574,65 31/12/2019
644 406200 DARIANA AUGUSTA DE TOLEDO PATROCINIO RUIZ COORDENADOR/OFICIAL ATIVO BELO HORIZONTE - COMARCA; DIRETORIA GESTAO COMPRAS LICITACOES 0,00 2.491,77 12.458,83 3.500,47 0,00 0,00 18.451,07 999,14 2.967,29 0,00 3.966,43 14.484,64 1.550,00 0,00 31/12/2019
645 586901 DARIO VITORINO DE CARVALHO SILVA ASSESSOR ATIVO BELO HORIZONTE - COMARCA; DIRETORIA DE SEGURANCA 0,00 0,00 16.148,50 9.878,89 0,00 0,00 26.027,39 1.284,68 3.645,20 0,00 4.929,88 21.097,51 1.550,00 0,00 31/12/2019
646 305000 DARLI LEITE DE OLIVEIRA OFICIAL DO MP ATIVO ARAÇUAÍ - COMARCA; ARACUAI-PJ-01PJ 5.678,79 1.135,76 0,00 2.015,58 0,00 0,00 8.830,13 749,60 642,09 0,00 1.391,69 7.438,44 1.550,00 0,00 31/12/2019
647 122200 DAVID RIBEIRO DOS SANTOS ANALISTA DO MP ATIVO BORDA DA MATA - COMARCA; BORDA DA MATA-PJ-UNPJ 17.452,52 13.962,02 0,00 7.937,63 0,00 3.455,60 42.807,77 3.455,60 7.769,64 0,00 11.225,24 31.582,53 1.550,00 0,00 31/12/2019
648 389400 DAWSON CANEDO MARQUES OFICIAL DO MP ATIVO TRÊS CORACOES - COMARCA; TRES CORACOES-PJ-02PJ 7.955,66 1.591,13 0,00 2.626,71 0,00 0,00 12.173,50 1.131,70 808,54 0,00 1.940,24 10.233,26 1.550,00 1.401,19 31/12/2019
649 537200 DAYANE TEIXEIRA DE OLIVEIRA CASELLI ANALISTA DO MP ATIVO BELO HORIZONTE - COMARCA; ASSESS TECNICO-JUR JUNTO AS PROC. DE JUST 6.882,47 412,95 0,00 2.645,28 0,00 0,00 9.940,70 802,50 916,19 0,00 1.718,69 8.222,01 1.550,00 0,00 31/12/2019
650 256100 DAYSE ROSALY PEREIRA BATISTA OFICIAL DO MP ATIVO BELO HORIZONTE - COMARCA; BH-08PJ JUIZADO ESPECIAL-SECRETARIA 8.758,36 2.627,51 0,00 2.523,15 0,00 0,00 13.909,02 1.291,94 1.917,33 0,00 3.209,27 10.699,75 1.550,00 678,47 31/12/2019
651 311901 DEBORA APARECIDA DA SILVA ASSESSOR ATIVO BELO HORIZONTE - COMARCA; BH-23PJ CIVEL-SETOR ATEND PUB 0,00 0,00 2.852,73 1.374,46 0,00 0,00 4.227,19 691,55 172,89 0,00 864,44 3.362,75 1.550,00 0,00 31/12/2019
652 194301 DEBORA APARECIDA DOS SANTOS ANALISTA DO MP ATIVO UBERLÂNDIA - COMARCA; UBERLANDIA-PJ-SEC FAMILIA 14.941,94 4.482,58 0,00 3.742,91 0,00 0,00 23.167,43 2.218,07 3.832,65 0,00 6.050,72 17.116,71 1.550,00 1.398,11 31/12/2019
653 518800 DEBORA CARVALHO FIORATTO COORDENADOR/OFICIAL ATIVO BELO HORIZONTE - COMARCA; DIRETORIA MATERIAIS E SERVICOS 0,00 1.245,88 12.458,83 3.380,63 0,00 0,00 17.085,34 780,31 2.684,85 0,00 3.465,16 13.620,18 2.319,39 0,00 31/12/2019
654 444900 DEBORA CLAUDIA PEREIRA ALVES ANALISTA DO MP ATIVO BELO HORIZONTE - COMARCA; BH-08PJ JUIZADO ESPECIAL-SECRETARIA 9.337,87 1.867,57 0,00 4.351,10 0,00 0,00 15.556,54 1.232,60 1.873,17 0,00 3.105,77 12.450,77 1.550,00 512,91 31/12/2019
655 617700 DEBORA COMANDUCI SCHREIDER ANALISTA DO MP ATIVO BICAS - COMARCA; BICAS-PJ-UNPJ 7.576,76 757,68 0,00 2.651,58 0,00 0,00 10.986,02 997,74 1.118,36 0,00 2.116,10 8.869,92 1.550,00 1.636,27 31/12/2019
656 555700 DEBORA CRISTINA BUITRAGO PEREIRA ANALISTA DO MP ATIVO BELO HORIZONTE - COMARCA; DIRETORIA GESTAO CONTRATOS CONVENIOS 7.823,48 782,35 0,00 2.255,05 0,00 0,00 10.860,88 976,49 1.236,92 0,00 2.213,41 8.647,47 3.088,78 512,93 31/12/2019
657 513100 DEBORA CRISTINA PEREIRA DE OLIVEIRA ANALISTA DO MP ATIVO BELO HORIZONTE - COMARCA; BH-23PJ CIVEL-SETOR JURIDICO 9.337,87 933,79 0,00 2.361,32 0,00 0,00 12.632,98 1.233,41 1.644,63 0,00 2.878,04 9.754,94 2.319,39 1.778,91 31/12/2019
658 612100 DEBORA DUARTE SILVA DE SOUZA OFICIAL DO MP ATIVO RIBEIRÃO DAS NEVES - COMARCA; RIBEIRAO DAS NEVES-PJ-06PJ 4.838,22 1.451,47 0,00 2.128,18 0,00 0,00 8.417,87 744,88 565,77 0,00 1.310,65 7.107,22 1.550,00 910,89 31/12/2019
659 539700 DEBORA SALES CARVALHO ANALISTA DO MP ATIVO PATOS DE MINAS - COMARCA; COORD REG PJ DEF EDU DIR CRI ADO AL PAR NOROE 7.823,48 782,35 0,00 2.255,05 0,00 0,00 10.860,88 976,49 1.236,92 0,00 2.213,41 8.647,47 1.550,00 512,93 31/12/2019
660 424100 DEBORA SANTOS E ALVES ANALISTA DO MP ATIVO JANUÁRIA - COMARCA; JANUARIA-PJ-01PJ 11.685,57 2.337,11 0,00 3.127,20 0,00 0,00 17.149,88 1.591,12 2.562,69 0,00 4.153,81 12.996,07 2.319,39 868,34 31/12/2019
661 426301 DEBORA SCUCATO MACHADO SOARES OFICIAL DO MP ATIVO ITABIRITO - COMARCA; ITABIRITO-PJ-01PJ 4.995,72 999,14 0,00 4.737,55 0,00 0,00 10.732,41 678,49 597,88 0,00 1.276,37 9.456,04 2.319,39 327,44 31/12/2019
662 550200 DEBORA TRINDADE LEITE ANALISTA DO MP ATIVO MANHUAÇU - COMARCA; MANHUACU-PJ-05PJ 7.823,48 782,35 0,00 2.359,33 0,00 0,00 10.965,16 976,49 1.132,64 0,00 2.109,13 8.856,03 1.550,00 512,93 31/12/2019
663 438000 DEBORAH COSTA LAGE ANALISTA DO MP ATIVO BELO HORIZONTE - COMARCA; ASSESS TECNICO-JUR JUNTO AS PROC. DE JUST 11.317,16 2.263,43 0,00 3.407,80 0,00 0,00 16.988,39 1.619,36 2.454,49 0,00 4.073,85 12.914,54 1.550,00 2.156,30 31/12/2019
664 475700 DEBORAH LOBAO LACERDA ASSESSOR/OFICIAL ATIVO BELO HORIZONTE - COMARCA; BH-17PJ PATRIMONIO PUBLICO-SECRETARIA 0,00 757,68 7.576,76 2.224,78 0,00 0,00 10.559,22 708,79 1.227,69 0,00 1.936,48 8.622,74 4.883,78 305,60 31/12/2019
665 613700 DEISER MARIA FERREIRA ROSCOE OFICIAL DO MP ATIVO BELO HORIZONTE - COMARCA; DIVISAO FROTA 4.838,22 483,82 0,00 1.846,29 1.774,01 0,00 8.942,34 628,65 921,06 0,00 1.549,71 7.392,63 1.550,00 742,71 31/12/2019
666 551900 DEISY ROCHA DA SILVA ANALISTA DO MP ATIVO JOÃO PINHEIRO - COMARCA; JOAO PINHEIRO-PJ-01PJ 7.823,48 782,35 0,00 6.422,27 0,00 0,00 15.028,10 976,49 1.236,92 0,00 2.213,41 12.814,69 1.550,00 512,93 31/12/2019
667 501900 DELI RAQUEL RODRIGUES ANALISTA DO MP ATIVO ITUIUTABA - COMARCA; ITUIUTABA-PJ-04PJ 9.337,87 933,79 0,00 7.497,15 0,00 0,00 17.768,81 1.129,88 1.644,63 0,00 2.774,51 14.994,30 1.550,00 0,00 31/12/2019
668 378600 DELIANE LOPES VIEIRA BREIJAO ANALISTA DO MP ATIVO JUIZ DE FORA - COMARCA; JUIZ DE FORA-PJ-12PJ 11.685,57 2.337,11 0,00 2.958,29 0,00 0,00 16.980,97 1.591,12 2.510,56 0,00 4.101,68 12.879,29 2.319,39 982,91 31/12/2019
669 487700 DENIA FERREIRA MAIA SILVA OFICIAL DO MP ATIVO TRÊS CORACOES - COMARCA; TRES CORACOES-PJ-01PJ 5.678,79 567,88 0,00 2.565,69 0,00 0,00 8.812,36 708,79 555,24 0,00 1.264,03 7.548,33 2.319,39 372,16 31/12/2019
670 424800 DENIS APARECIDO CAMPOS DELFINO ANALISTA DO MP ATIVO LUZ - COMARCA; LUZ-PJ-UNPJ 10.279,98 2.056,00 0,00 2.869,71 0,00 0,00 15.205,69 1.396,17 1.941,32 0,00 3.337,49 11.868,20 2.319,39 673,77 31/12/2019
671 381400 DENISE ANGELICA MELLO DE PAULA OFICIAL DO MP ATIVO BELO HORIZONTE - COMARCA; BH-18PJ DIREITOS HUMANOS-SECRETARIA 7.955,66 1.591,13 0,00 2.626,71 0,00 0,00 12.173,50 1.131,70 1.467,22 0,00 2.598,92 9.574,58 2.319,39 1.401,19 31/12/2019
672 196300 DENISE DE ALMEIDA VILELA FURTADO OFICIAL DO MP ATIVO BELO HORIZONTE - COMARCA; CENTRAL DE APOIO TECNICO-SECRETARIA 9.955,90 3.982,36 0,00 2.749,28 0,00 0,00 16.687,54 1.687,62 2.542,03 0,00 4.229,65 12.457,89 2.703,54 2.984,93 31/12/2019
673 336900 DENISE DE SOUSA MORAES SILVA OFICIAL DO MP ATIVO MATEUS LEME - COMARCA; MATEUS LEME-PJ-02PJ 5.678,79 1.135,76 0,00 1.859,17 0,00 0,00 8.673,72 749,60 798,50 0,00 1.548,10 7.125,62 1.550,00 0,00 31/12/2019
674 271100 DENISE ELOY PEIXOTO OFICIAL DO MP ATIVO BELO HORIZONTE - COMARCA; DIRETORIA DE INTELIGENCIA 10.279,98 3.083,99 0,00 2.810,47 0,00 0,00 16.174,44 1.516,38 2.401,47 0,00 3.917,85 12.256,59 1.550,00 796,26 31/12/2019
675 385400 DENISE FREITAS DE ASSIS OFICIAL DO MP ATIVO CARATINGA - COMARCA; CARATINGA-PJ-SECRETARIA 7.106,49 1.421,30 0,00 2.108,01 0,00 0,00 10.635,80 967,63 1.217,82 0,00 2.185,45 8.450,35 1.550,00 508,07 31/12/2019
676 437100 DENISE NOGUEIRA MAGRI MENDES ANALISTA DO MP ATIVO BELO HORIZONTE - COMARCA; LAB TECNOLOGIA CONTRA LAVAGEM DINHEIRO 11.317,16 3.395,15 0,00 10.518,89 0,00 0,00 25.231,20 1.766,67 2.575,07 0,00 4.341,74 20.889,46 1.550,00 2.548,34 31/12/2019
677 524700 DENISE RAMOS GUIMARAES OFICIAL DO MP ATIVO BELO HORIZONTE - COMARCA; BH-07PJ 01 TRIBUNAL JURI-SECRETARIA 5.499,78 549,98 0,00 2.025,32 0,00 0,00 8.075,08 726,46 611,32 0,00 1.337,78 6.737,30 1.550,00 1.047,95 31/12/2019
678 239100 DENISE RIBEIRO DOS SANTOS CAETANO OFICIAL DO MP ATIVO ITANHANDU - COMARCA; ITANHANDU-PJ-SECRETARIA 10.279,98 3.083,99 0,00 2.862,61 0,00 0,00 16.226,58 1.516,38 2.349,33 0,00 3.865,71 12.360,87 1.550,00 796,26 31/12/2019
679 325500 DENISE ROSA TORRES ASSESSOR/OFICIAL ATIVO BELO HORIZONTE - COMARCA; DIRETORIA DE PESSOAL ADMINISTRATIVO - DPAD 0,00 2.122,93 10.614,65 2.728,74 0,00 0,00 15.466,32 1.345,54 2.263,45 0,00 3.608,99 11.857,33 1.550,00 0,00 31/12/2019
680 437200 DENISE VIVIANE DOS SANTOS ANALISTA DO MP ATIVO BELO HORIZONTE - COMARCA; CGMP-ASSESSORIA JURIDICA 9.641,94 1.928,39 0,00 3.136,32 0,00 0,00 14.706,65 1.309,53 1.858,20 0,00 3.167,73 11.538,92 2.703,54 632,17 31/12/2019
681 267900 DENISIA DE ALMEIDA SALES OFICIAL DO MP ATIVO BELO HORIZONTE - COMARCA; BH-18PJ DIREITOS HUMANOS-SECRETARIA 8.214,70 2.464,41 0,00 2.472,63 0,00 0,00 13.151,74 1.265,93 1.692,22 0,00 2.958,15 10.193,59 1.550,00 1.567,41 31/12/2019
682 480300 DESIREE ARANTES FERREIRA GOUVEA OFICIAL DO MP ATIVO PRATÁPOLIS - COMARCA; PRATAPOLIS-PJ-UNPJ 5.158,42 515,84 0,00 2.265,35 0,00 0,00 7.939,61 643,86 519,41 0,00 1.163,27 6.776,34 1.550,00 338,25 31/12/2019
683 355300 DEYSE CRISTINA MORAIS OFICIAL DO MP ATIVO PASSOS - COMARCA; PASSOS-PJ-02PJ 7.955,66 1.591,13 0,00 2.335,33 0,00 0,00 11.882,12 1.067,60 1.467,22 0,00 2.534,82 9.347,30 1.550,00 299,79 31/12/2019
684 523700 DIANA CAMPOS RESENDE OFICIAL DO MP ATIVO SÃO JOÃO DEL REI - COMARCA; SAO JOAO DEL REI-PJ-04PJ 6.054,65 3.027,33 0,00 2.240,65 3.027,33 0,00 14.349,96 1.030,53 2.133,83 0,00 3.164,36 11.185,60 1.550,00 636,78 31/12/2019
685 241900 DIANA CARDOSO MARTINS OFICIAL DO MP ATIVO BELO HORIZONTE - COMARCA; CAO-CRIMINAL 8.214,70 2.464,41 0,00 2.588,88 0,00 0,00 13.267,99 1.211,74 1.744,35 0,00 2.956,09 10.311,90 1.550,00 636,46 31/12/2019
686 410100 DIANA GORDILHO SILVEIRA SENA ANALISTA DO MP ATIVO BELO HORIZONTE - COMARCA; ASSESS TECNICO-JUR JUNTO AS PROC. DE JUST 11.685,57 2.337,11 0,00 3.127,20 0,00 0,00 17.149,88 1.591,12 2.562,69 0,00 4.153,81 12.996,07 1.550,00 855,79 31/12/2019
687 553000 DIANA MARIA MARQUES ANALISTA DO MP ATIVO BETIM - COMARCA; BETIM-PJ-13PJ 7.106,49 710,65 0,00 2.180,14 0,00 0,00 9.997,28 887,00 991,75 0,00 1.878,75 8.118,53 1.550,00 465,73 31/12/2019
688 520000 DIARLE TOSTE DOS SANTOS ANALISTA DO MP ATIVO RIO POMBA - COMARCA; RIO POMBA-PJ-UNPJ 9.337,87 933,79 0,00 2.413,46 0,00 0,00 12.685,12 1.233,41 1.043,59 0,00 2.277,00 10.408,12 1.550,00 1.778,91 31/12/2019
689 539800 DIEGO CAMARGOS RODRIGUES OFICIAL DO MP ATIVO CONTAGEM - COMARCA; CONTAGEM-PJ-19PJ 4.995,72 499,57 0,00 1.754,18 0,00 0,00 7.249,47 668,40 475,61 0,00 1.144,01 6.105,46 1.550,00 1.098,18 31/12/2019
690 607300 DIEGO CERVEIRA DE SOUZA ANALISTA DO MP ATIVO PATOS DE MINAS - COMARCA; COORD REG BACIAS PARACATU,URUCUIA E ABAETE 7.576,76 757,68 0,00 2.079,94 0,00 0,00 10.414,38 997,74 1.170,49 0,00 2.168,23 8.246,15 1.550,00 1.390,95 31/12/2019
691 669300 DIEGO DA CUNHA SOARES ASSESSOR ADMINISTRATIVO I ATIVO BELO HORIZONTE - COMARCA; DIRET DE INFORMACAO E EXPEDICAO DE PROCESSOS 0,00 0,00 2.852,73 1.188,64 0,00 0,00 4.041,37 529,89 172,89 0,00 702,78 3.338,59 1.550,00 0,00 31/12/2019
692 446900 DIEGO DE FREITAS OFICIAL DO MP ATIVO UBERABA - COMARCA; UBERABA-PJ-06PJ 6.665,41 1.333,08 0,00 1.934,32 0,00 0,00 9.932,81 978,58 1.088,27 0,00 2.066,85 7.865,96 1.550,00 1.696,77 31/12/2019
693 288800 DILENE NEPOMUCENO ALVES OFICIAL DO MP ATIVO BELO HORIZONTE - COMARCA; DIRETORIA DE PESSOAL ADMINISTRATIVO - DPAD 9.337,87 2.801,36 0,00 4.351,09 0,00 0,00 16.490,32 1.335,32 2.101,72 0,00 3.437,04 13.053,28 1.550,00 0,00 31/12/2019
694 270101 DILSON DO AMARAL ANALISTA DO MP ATIVO RIO CASCA - COMARCA; RIO CASCA-PJ-UNPJ 7.823,48 782,35 0,00 2.255,05 0,00 0,00 10.860,88 976,49 1.236,92 0,00 2.213,41 8.647,47 1.550,00 512,93 31/12/2019
695 466000 DIMITRI GUDE MARCIAL ANALISTA DO MP ATIVO NANUQUE - COMARCA; NANUQUE-PJ-02PJ 8.758,36 875,84 0,00 2.373,00 0,00 0,00 12.007,20 1.093,17 1.384,34 0,00 2.477,51 9.529,69 2.319,39 574,09 31/12/2019
696 516300 DINORA APARECIDA MACEDO BRANDAO ANALISTA DO MP ATIVO BELO HORIZONTE - COMARCA; SUPERINTENDENCIA GESTÃO DE PESSOAS 7.823,48 782,35 0,00 2.119,35 0,00 0,00 10.725,18 1.033,40 1.236,92 0,00 2.270,32 8.454,86 1.550,00 1.490,62 31/12/2019
697 511700 DIOGENES HENRIQUES PEREIRA LOURENCO ANALISTA DO MP ATIVO CONTAGEM - COMARCA; CONTAGEM-PJ-13PJ 9.337,87 933,79 0,00 2.361,32 0,00 0,00 12.632,98 1.233,41 1.644,63 0,00 2.878,04 9.754,94 1.550,00 1.778,91 31/12/2019
698 604100 DIOGO CESAR DE OLIVEIRA HONORIO ASSESSOR ATIVO PIUMHI - COMARCA; PIUMHI-PJ-02PJ 0,00 0,00 4.763,08 4.445,40 0,00 0,00 9.208,48 1.166,28 566,34 0,00 1.732,62 7.475,86 1.550,00 0,00 31/12/2019
699 387800 DIOGO FELIX DA SILVA OFICIAL DO MP ATIVO CONSELHEIRO PENA - COMARCA; CONSELHEIRO PENA-PJ-01PJ 6.665,41 1.333,08 0,00 3.015,20 0,00 0,00 11.013,69 907,58 1.088,27 0,00 1.995,85 9.017,84 1.550,00 476,73 31/12/2019
700 259600 DIOGO MESQUITA MAIA ANALISTA DO MP ATIVO BELO HORIZONTE - COMARCA; DIRET DE APOIO AS PROCURADORIAS DE JUSTICA 14.162,21 11.329,76 0,00 5.025,94 0,00 2.804,12 33.322,03 2.892,50 6.088,79 0,00 8.981,29 24.340,74 1.550,00 1.695,34 31/12/2019
701 386700 DIRCIMAR FERNANDES CARNEIRO OFICIAL DO MP ATIVO VISCONDE DO RIO BRANCO - COMARCA; VISCONDE DO RIO BRANCO-PJ-03PJ 7.337,85 5.136,51 0,00 2.681,26 0,00 0,00 15.155,62 1.415,45 2.183,74 0,00 3.599,19 11.556,43 1.550,00 743,37 31/12/2019
702 113800 DIRSON APARECIDO GUIMARAES ASSESSOR ATIVO BELO HORIZONTE - COMARCA; DIVISAO DE MANUTENCAO PREDIAL 0,00 4.286,77 4.763,08 3.082,21 0,00 0,00 12.132,06 1.284,68 1.745,21 0,00 3.029,89 9.102,17 1.550,00 0,00 31/12/2019
703 216700 DOMICIO VALDETE PEREIRA OFICIAL DO MP ATIVO TEÓFILO OTONI - COMARCA; COORD REG PJ DEF EDU DIR CRIAN ADOL JEQUI MUC 12.065,98 3.619,79 0,00 3.251,99 0,00 0,00 18.937,76 1.779,83 2.865,46 0,00 4.645,29 14.292,47 1.550,00 934,66 31/12/2019
704 192701 DONIZETTI APARECIDO AMORIM ANALISTA DO MP ATIVO PRATÁPOLIS - COMARCA; PRATAPOLIS-PJ-UNPJ 7.955,66 2.386,70 0,00 2.423,72 0,00 0,00 12.766,08 1.156,56 1.609,80 0,00 2.766,36 9.999,72 1.550,00 324,76 31/12/2019
705 558700 DORCILIA FATIMA DE OLIVEIRA OFICIAL DO MP ATIVO DIVINÓPOLIS - COMARCA; DIVINOPOLIS-PJ-02PJ 4.995,72 499,57 0,00 1.806,31 0,00 0,00 7.301,60 623,54 423,48 0,00 1.047,02 6.254,58 1.550,00 327,44 31/12/2019
706 555300 DOUGLAS CUNHA DE SOUZA ANALISTA DO MP ATIVO VARZEA DA PALMA - COMARCA; VARZEA DA PALMA-PJ-01PJ 7.823,48 782,35 0,00 6.422,27 0,00 0,00 15.028,10 976,49 1.236,92 0,00 2.213,41 12.814,69 4.303,87 765,37 31/12/2019
707 265900 DOUGLAS GOMES MOREIRA ANALISTA DO MP ATIVO BELO HORIZONTE - COMARCA; CENTRAL DE APOIO TECNICO-SETOR DE ENGENHARIA 15.533,57 4.660,07 0,00 4.187,05 0,00 0,00 24.380,69 2.305,90 4.073,03 0,00 6.378,93 18.001,76 1.550,00 1.453,64 31/12/2019
708 241000 DOUGLAS MEIRELLES DE CASTRO OFICIAL DO MP ATIVO CONCEIÇÃO DO RIO VERDE - COMARCA; CONCEICAO DO RIO VERDE-PJ-UNPJ 11.317,16 4.526,86 0,00 4.001,00 0,00 0,00 19.845,02 1.902,57 2.904,19 0,00 4.806,76 15.038,26 1.550,00 2.744,37 31/12/2019
709 534900 DOUGLAS SILVA E SOUZA ANALISTA DO MP ATIVO CAMPOS GERAIS - COMARCA; CAMPOS GERAIS-PJ-01PJ 7.823,48 782,35 0,00 2.307,19 0,00 0,00 10.913,02 976,49 1.184,78 0,00 2.161,27 8.751,75 1.550,00 512,93 31/12/2019
710 638900 DOUGLAS WALLAS CONCEICAO NEVES OFICIAL DO MP ATIVO RIBEIRÃO DAS NEVES - COMARCA; RIBEIRAO DAS NEVES-PJ-SEC CIVEL 4.058,04 243,48 0,00 1.520,13 1.433,84 0,00 7.255,49 503,00 577,74 0,00 1.080,74 6.174,75 1.550,00 271,20 31/12/2019
711 146800 DUCINALVA AMARAL LOPES REIS OFICIAL DO MP ATIVO PARAISÓPOLIS - COMARCA; PARAISOPOLIS-PJ-UNPJ 14.941,94 10.459,36 0,00 4.663,18 0,00 0,00 30.064,48 2.900,55 5.243,33 0,00 8.143,88 21.920,60 1.550,00 1.828,29 31/12/2019
712 122500 DUILIO CARLOS FERREIRA UTSCH OFICIAL DO MP ATIVO CONCEIÇÃO DO MATO DENTRO - COMARCA; CONCEICAO DO MATO DENTRO-PJ-UNPJ 12.065,98 9.652,78 0,00 9.173,77 0,00 2.389,06 33.281,59 2.464,38 5.103,30 0,00 7.567,68 25.713,91 1.550,00 1.444,78 31/12/2019
713 201800 DULCINEIA ANDRE DE SOUZA OFICIAL DO MP ATIVO JEQUITINHONHA - COMARCA; JEQUITINHONHA-PJ-SECRETARIA 12.065,98 3.619,79 0,00 3.356,27 0,00 0,00 19.042,04 1.779,83 2.761,18 0,00 4.541,01 14.501,03 1.550,00 934,66 31/12/2019
714 395800 DUVIDIER MEDIRCIO JUNIOR ANALISTA DO MP ATIVO BELO HORIZONTE - COMARCA; CENTRAL DE APOIO TECNICO-SETOR DE ENGENHARIA 12.864,49 2.572,90 0,00 3.355,04 0,00 0,00 18.792,43 1.751,66 2.908,94 0,00 4.660,60 14.131,83 1.550,00 920,03 31/12/2019
715 604800 ECIA RAMILIS ISSA DE ABREU ANALISTA DO MP ATIVO MONTALVÂNIA - COMARCA; MONTALVANIA-PJ-UNPJ 7.576,76 757,68 0,00 3.123,59 0,00 0,00 11.458,03 1.000,80 1.170,49 0,00 2.171,29 9.286,74 1.550,00 1.443,43 31/12/2019
716 273000 EDELFINA APARECIDA GUIMARAES OFICIAL DO MP ATIVO CACHOEIRA DE MINAS - COMARCA; CACHOEIRA DE MINAS-PJ-UNPJ 9.337,87 6.536,52 0,00 3.477,50 0,00 0,00 19.351,89 1.801,24 2.963,76 0,00 4.765,00 14.586,89 1.550,00 945,94 31/12/2019
717 523300 EDER DOS SANTOS PATRICIO ANALISTA DO MP ATIVO NOVA SERRANA - COMARCA; NOVA SERRANA-PJ-03PJ 9.337,87 933,79 0,00 2.831,93 0,00 0,00 13.103,59 1.233,41 1.644,63 0,00 2.878,04 10.225,55 1.550,00 1.778,91 31/12/2019
718 356700 EDER JOSE PACHECO OFICIAL DO MP ATIVO CAMPO BELO - COMARCA; CAMPO BELO-PJ-SECRETARIA 8.214,70 1.642,94 0,00 3.767,43 0,00 0,00 13.625,07 1.118,53 1.439,02 0,00 2.557,55 11.067,52 2.450,20 587,51 31/12/2019
719 507900 EDERSON SILVA LOPES OFICIAL DO MP ATIVO BELO HORIZONTE - COMARCA; LABORATORIO TECNOLOGIA INTELIGENCIA 5.678,79 567,88 0,00 2.565,69 0,00 0,00 8.812,36 708,79 555,24 0,00 1.264,03 7.548,33 1.550,00 372,16 31/12/2019
720 296200 EDGARD GOULART MATOSINHO DE LAET JR ANALISTA DO MP ATIVO GOVERNADOR VALADARES - COMARCA; GAECO REGIONAL DE GOVERNADOR VALADARES 14.162,21 4.248,66 0,00 3.990,09 0,00 0,00 22.400,96 2.084,12 3.480,29 0,00 5.564,41 16.836,55 1.550,00 1.012,40 31/12/2019
721 295000 EDILA MARIA DA SILVEIRA OFICIAL DO MP ATIVO FORMIGA - COMARCA; FORMIGA-PJ-01PJ 7.337,85 2.201,36 0,00 3.512,27 0,00 0,00 13.051,48 1.079,85 1.465,36 0,00 2.545,21 10.506,27 1.550,00 524,72 31/12/2019
722 332300 EDILA MARILAC MIRANDA PRADO OFICIAL DO MP ATIVO DIAMANTINA - COMARCA; COORD REG BACIAS RIOS JEQUITINHONHA E MUCURI 8.758,36 4.379,18 0,00 2.881,86 0,00 0,00 16.019,40 1.577,58 2.241,78 0,00 3.819,36 12.200,04 3.088,78 2.275,65 31/12/2019
723 376600 EDILANE CONSOLACAO ROSA NAZARETH ANALISTA DO MP ATIVO BETIM - COMARCA; BETIM-PJ-10PJ 11.685,57 2.337,11 0,00 4.958,76 0,00 0,00 18.981,44 1.591,12 2.562,69 0,00 4.153,81 14.827,63 1.550,00 835,55 31/12/2019
724 301500 EDILENE APARECIDA DE CARVALHO ANALISTA DO MP ATIVO BELO HORIZONTE - COMARCA; BH-02PJ FAMILIA-SECRETARIA 14.162,21 4.248,66 0,00 3.885,82 0,00 0,00 22.296,69 2.084,12 3.584,56 0,00 5.668,68 16.628,01 1.550,00 1.012,40 31/12/2019
725 309800 EDILZA DOS REIS OFICIAL DO MP ATIVO UBERLÂNDIA - COMARCA; UBERLANDIA-PJ-03PJ 9.043,46 2.713,04 0,00 2.576,99 0,00 0,00 14.333,49 1.330,85 2.008,04 0,00 3.338,89 10.994,60 1.550,00 646,61 31/12/2019
726 200500 EDINEIA MARIA DE OLIVEIRA ANTUNES OFICIAL DO MP ATIVO MONTES CLAROS - COMARCA; MONTES CLAROS-PJ-10PJ 13.283,29 5.313,32 0,00 4.422,63 0,00 0,00 23.019,24 2.233,10 3.682,16 0,00 5.915,26 17.103,98 1.550,00 3.789,07 31/12/2019
727 427700 EDISANGELA SOARES LOPES OFICIAL DO MP ATIVO PIRAPORA - COMARCA; PIRAPORA-PJ-02PJ 5.678,79 1.135,76 0,00 2.633,22 0,00 0,00 9.447,77 749,60 798,50 0,00 1.548,10 7.899,67 1.550,00 0,00 31/12/2019
728 555400 EDISON MONTEIRO SAMPAIO NETO ANALISTA DO MP ATIVO BELO HORIZONTE - COMARCA; BH-12PJ JUIZO CRIMINAL-GAB 094PJ 7.823,48 782,35 0,00 2.255,05 0,00 0,00 10.860,88 976,49 1.236,92 0,00 2.213,41 8.647,47 1.550,00 512,93 31/12/2019
729 517700 EDMILSON TADEU FERNANDES OFICIAL DO MP ATIVO POUSO ALEGRE - COMARCA; GAECO REGIONAL DE POUSO ALEGRE 6.054,65 605,47 0,00 1.941,76 0,00 0,00 8.601,88 755,71 760,71 0,00 1.516,42 7.085,46 1.550,00 396,96 31/12/2019
730 358400 EDNA APARECIDA SILVA FERREIRA OFICIAL DO MP ATIVO CORONEL FABRICIANO - COMARCA; CORONEL FABRICIANO-PJ-02PJ 7.955,66 1.591,13 0,00 2.360,30 0,00 0,00 11.907,09 1.131,70 1.362,94 0,00 2.494,64 9.412,45 1.550,00 1.401,19 31/12/2019
731 331800 EDNA MARCIA CAMILO DA SILVA OFICIAL DO MP ATIVO SETE LAGOAS - COMARCA; SETE LAGOAS-PJ-SEC CRIMINAIS 9.337,87 1.867,57 0,00 3.062,48 0,00 0,00 14.267,92 1.345,55 1.821,03 0,00 3.166,58 11.101,34 1.550,00 1.940,61 31/12/2019
732 327900 EDRIEL SANTANA PEREIRA OFICIAL DO MP ATIVO TUPACIGUARA - COMARCA; TUPACIGUARA-PJ-01PJ 9.337,87 1.867,57 0,00 3.010,34 0,00 0,00 14.215,78 1.345,55 1.873,17 0,00 3.218,72 10.997,06 3.172,78 1.940,61 31/12/2019
733 482400 EDSON GARCIA OFICIAL DO MP ATIVO MACHADO - COMARCA; MACHADO-PJ-02PJ 5.158,42 515,84 0,00 1.887,30 0,00 0,00 7.561,56 643,86 415,14 0,00 1.059,00 6.502,56 2.319,39 338,25 31/12/2019
734 225601 EDSON LABRE FILHO ANALISTA DO MP ATIVO VARGINHA - COMARCA; VARGINHA-PJ-01PJ 14.162,21 4.248,66 0,00 3.885,82 0,00 0,00 22.296,69 2.089,03 3.584,56 0,00 5.673,59 16.623,10 1.550,00 1.096,75 31/12/2019
735 602700 EDSON NOGUEIRA BUENO OFICIAL DO MP ATIVO PITANGUI - COMARCA; PITANGUI-PJ-01PJ 4.467,49 446,75 0,00 1.568,60 0,00 0,00 6.482,84 590,11 347,95 0,00 938,06 5.544,78 1.550,00 851,26 31/12/2019
736 414400 EDUARDO ABRANTES CAMPOS ANALISTA DO MP ATIVO SÃO JOÃO DEL REI - COMARCA; SAO JOAO DEL REI-PJ-02PJ 11.685,57 2.337,11 0,00 3.127,20 0,00 0,00 17.149,88 1.591,12 2.562,69 0,00 4.153,81 12.996,07 1.550,00 868,34 31/12/2019
737 476800 EDUARDO ALVES DE MOURA ANALISTA DO MP ATIVO UBERLÂNDIA - COMARCA; UBERLANDIA-PJ-05PJ 9.337,87 933,79 0,00 2.517,73 0,00 0,00 12.789,39 1.129,88 1.488,22 0,00 2.618,10 10.171,29 2.319,39 0,00 31/12/2019
738 390800 EDUARDO AMORIM PETTERSEN OFICIAL DO MP ATIVO CARANGOLA - COMARCA; CARANGOLA-PJ-03PJ 7.106,49 1.421,30 0,00 2.108,01 0,00 0,00 10.635,80 967,63 1.217,82 0,00 2.185,45 8.450,35 2.792,49 508,07 31/12/2019
739 461600 EDUARDO ANTONIO DE ASSIS FARIA ASSESSOR ATIVO BELO HORIZONTE - COMARCA; ASSESS EXECUTIVA DO CONSELHO SUPERIOR DO MP 0,00 0,00 7.576,76 2.855,05 0,00 0,00 10.431,81 1.284,68 1.235,83 0,00 2.520,51 7.911,30 2.319,39 0,00 31/12/2019
740 248800 EDUARDO DE CASTRO AMORIM ANALISTA DO MP ATIVO BELO HORIZONTE - COMARCA; SUPERINTENDENCIA GESTÃO DE PESSOAS 16.787,84 5.036,35 0,00 4.454,89 0,00 0,00 26.279,08 2.492,09 4.472,11 0,00 6.964,20 19.314,88 1.550,00 1.570,85 31/12/2019
741 209100 EDUARDO DE SOUZA MAIA ANALISTA DO MP ATIVO BELO HORIZONTE - COMARCA; ASSESS TECNICO-JUR JUNTO AS PROC. DE JUST 17.452,52 5.235,76 0,00 4.321,24 0,00 0,00 27.009,52 2.495,71 4.527,19 0,00 7.022,90 19.986,62 1.550,00 0,00 31/12/2019
742 633900 EDUARDO GONCALVES PIRES OFICIAL DO MP ATIVO BELO HORIZONTE - COMARCA; BH-19PJ SAUDE-SECRETARIA 150PJ 4.838,22 1.451,47 0,00 1.831,78 0,00 0,00 8.121,47 702,61 670,04 0,00 1.372,65 6.748,82 1.550,00 184,62 31/12/2019
743 350500 EDUARDO GONCALVES RIBEIRO OFICIAL DO MP ATIVO VESPASIANO - COMARCA; VESPASIANO-PJ-04PJ 7.576,76 1.515,35 0,00 6.736,05 0,00 0,00 15.828,16 1.031,67 1.355,93 0,00 2.387,60 13.440,56 1.550,00 541,84 31/12/2019
744 115800 EDUARDO HENRIQUE DE CAMPOS MAIA OFICIAL DO MP ATIVO BELO HORIZONTE - COMARCA; DIV FISCAL ADM CONT TERCEIRIZACAO 13.715,83 6.857,91 0,00 4.014,11 0,00 0,00 24.587,85 2.334,48 4.009,65 0,00 6.344,13 18.243,72 1.550,00 1.226,25 31/12/2019
745 392600 EDUARDO HENRIQUE DOS SANTOS COSTA ELIAZAR OFICIAL DO MP ATIVO MATOZINHOS - COMARCA; MATOZINHOS-PJ-01PJ 7.106,49 1.421,30 0,00 6.528,33 0,00 0,00 15.056,12 967,63 1.061,40 0,00 2.029,03 13.027,09 2.319,39 508,07 31/12/2019
746 122900 EDUARDO JOSE COSTA SILVA OFICIAL DO MP ATIVO SETE LAGOAS - COMARCA; SETE LAGOAS-PJ-04PJ 17.452,52 13.962,02 0,00 7.937,63 0,00 3.455,60 42.807,77 3.455,60 7.769,64 0,00 11.225,24 31.582,53 1.550,00 0,00 31/12/2019
747 407500 EDUARDO MASCARENHAS CURI AZEVEDO ANALISTA DO MP ATIVO BELO HORIZONTE - COMARCA; DIR CONTEUDO JORNALISTICO 9.337,87 1.867,57 0,00 2.496,95 0,00 0,00 13.702,39 1.232,60 1.873,17 0,00 3.105,77 10.596,62 2.319,39 0,00 31/12/2019
748 601300 EDUARDO TRAD VIEIRA OFICIAL DO MP ATIVO IBIRITÉ - COMARCA; IBIRITE-PJ-03PJ 4.612,94 461,29 0,00 4.136,08 0,00 0,00 9.210,31 575,13 379,98 0,00 955,11 8.255,20 1.550,00 291,40 31/12/2019
749 257600 EDUARDO VALADARES CABRAL ANALISTA DO MP ATIVO BELO HORIZONTE - COMARCA; COORD DE INCLUSAO E MOBILIZACAO SOCIAIS 13.283,29 3.984,99 0,00 12.011,72 0,00 0,00 29.280,00 1.959,40 3.357,05 0,00 5.316,45 23.963,55 1.550,00 1.028,99 31/12/2019
750 545700 EDVAIR FERREIRA DE CARVALHO OFICIAL DO MP ATIVO ARAGUARI - COMARCA; ARAGUARI-PJ-06PJ 4.612,94 461,29 0,00 1.764,27 0,00 0,00 6.838,50 575,77 294,67 0,00 870,44 5.968,06 1.550,00 302,40 31/12/2019
751 401700 EDWANIA AMORIM DO CARMO OFICIAL DO MP ATIVO RIBEIRÃO DAS NEVES - COMARCA; RIBEIRAO DAS NEVES-PJ-03PJ 7.337,85 1.467,57 0,00 3.275,53 0,00 0,00 12.080,95 999,14 1.285,77 0,00 2.284,91 9.796,04 1.550,00 524,72 31/12/2019
752 303600 EFIGENIO SARAIVA LOPES ANALISTA DO MP ATIVO BELO HORIZONTE - COMARCA; DIRETORIA DE PAGAMENTO DE PESSOAL-DPAG 15.533,57 4.660,07 0,00 4.291,32 0,00 0,00 24.484,96 2.299,40 3.968,76 0,00 6.268,16 18.216,80 1.550,00 1.341,82 31/12/2019
753 286000 ELAINE APARECIDA SILVA BERZOINI OFICIAL DO MP ATIVO JUIZ DE FORA - COMARCA; JUIZ DE FORA-PJ-07PJ 9.337,87 2.801,36 0,00 2.632,57 0,00 0,00 14.771,80 1.335,32 2.101,72 0,00 3.437,04 11.334,76 1.550,00 0,00 31/12/2019
754 509000 ELAINE CANDIDA PONTES OFICIAL DO MP ATIVO BELO HORIZONTE - COMARCA; BH-02PJ FAMILIA-SECRETARIA 5.863,71 586,37 0,00 5.031,27 0,00 0,00 11.481,35 753,55 709,30 0,00 1.462,85 10.018,50 1.550,00 756,60 31/12/2019
755 283601 ELAINE CRISTINA MEQUELINO DUARTE ANALISTA DO MP ATIVO ALFENAS - COMARCA; ALFENAS-PJ-04PJ 11.685,57 2.337,11 0,00 3.010,43 0,00 0,00 17.033,11 1.591,12 2.458,42 0,00 4.049,54 12.983,57 1.550,00 835,55 31/12/2019
756 535500 ELAINE DE OLIVEIRA CAMPOS REIS OFICIAL DO MP ATIVO RIBEIRÃO DAS NEVES - COMARCA; SEC PJ EXECUCAO PENAL RIBEIRAO NEVES 4.995,72 499,57 0,00 1.754,18 0,00 0,00 7.249,47 623,54 475,61 0,00 1.099,15 6.150,32 1.550,00 327,44 31/12/2019
757 455700 ELAINE DE OLIVEIRA CASTRO ANALISTA DO MP ATIVO POMPÉU - COMARCA; POMPEU-PJ-UNPJ 9.337,87 933,79 0,00 2.732,19 0,00 0,00 13.003,85 1.200,00 1.592,49 0,00 2.792,49 10.211,36 2.319,39 1.204,80 31/12/2019
758 367200 ELAINE MUNIZ BARBOSA ANALISTA DO MP ATIVO BELO HORIZONTE - COMARCA; DIRETORIA DE SISTEMAS DE INFORMACAO 13.283,29 2.656,66 0,00 3.915,03 0,00 0,00 19.854,98 1.914,07 3.031,94 0,00 4.946,01 14.908,97 2.319,39 2.760,86 31/12/2019
759 176900 ELAINE RIBEIRO TAVEIRA OFICIAL DO MP ATIVO BELO HORIZONTE - COMARCA; DIRETORIA DE PESSOAL ADMINISTRATIVO - DPAD 10.960,26 4.384,10 0,00 3.340,05 0,00 0,00 18.684,41 1.737,30 2.886,17 0,00 4.623,47 14.060,94 1.550,00 849,16 31/12/2019
760 496200 ELAINE SABRINA MOREIRA SCHUWARTEN ANALISTA DO MP ATIVO CORONEL FABRICIANO - COMARCA; CORONEL FABRICIANO-PJ-03PJ 9.337,87 933,79 0,00 2.361,32 0,00 0,00 12.632,98 1.129,88 1.644,63 0,00 2.774,51 9.858,47 1.550,00 0,00 31/12/2019
761 489200 ELAINE VICENTINO GARCIA ANALISTA DO MP ATIVO BELO HORIZONTE - COMARCA; CENTRAL DE APOIO TECNICO-SETOR CONTABIL 9.337,87 2.801,36 0,00 2.736,85 0,00 0,00 14.876,08 1.335,32 1.997,44 0,00 3.332,76 11.543,32 1.550,00 0,00 31/12/2019
762 244500 ELCI ALVES DE SOUZA ASSESSOR ATIVO BELO HORIZONTE - COMARCA; CAO-CONFLITOS AGRARIOS-SECRETARIA 0,00 1.428,92 4.763,08 3.114,84 0,00 0,00 9.306,84 1.284,68 907,16 0,00 2.191,84 7.115,00 1.550,00 0,00 31/12/2019
763 472500 ELCI VAZ DE OLIVEIRA FILHO ANALISTA DO MP ATIVO PIUMHI - COMARCA; PIUMHI-PJ-02PJ 9.337,87 4.668,94 0,00 2.903,84 0,00 0,00 16.910,65 1.540,75 2.558,81 0,00 4.099,56 12.811,09 1.550,00 0,00 31/12/2019
764 385200 ELCI VIANA REIS OFICIAL DO MP ATIVO RIO PARDO DE MINAS - COMARCA; RIO PARDO DE MINAS-PJ-SECRETARIA 7.955,66 3.182,26 0,00 2.919,60 0,00 0,00 14.057,52 1.320,31 1.856,65 0,00 3.176,96 10.880,56 1.801,32 1.634,72 31/12/2019
765 289801 ELCIO JOSE DOS SANTOS ASSESSOR/ANALISTA ATIVO BELO HORIZONTE - COMARCA; DIVISAO DE SERVICOS 0,00 1.168,56 11.685,57 4.684,72 0,00 0,00 17.538,85 1.129,88 2.354,81 0,00 3.484,69 14.054,16 1.550,00 0,00 31/12/2019
766 319600 ELEN TULER DE ALBERGARIA ANALISTA DO MP ATIVO BELO HORIZONTE - COMARCA; BH-19PJ SAUDE 12.065,98 4.826,39 0,00 3.322,97 0,00 0,00 20.215,34 2.016,28 3.265,05 0,00 5.281,33 14.934,01 1.550,00 2.716,76 31/12/2019
767 151000 ELI LOURENCO RIBEIRO AGENTE DO MP ATIVO BELO HORIZONTE - COMARCA; BH-19PJ SAUDE 9.641,94 4.820,97 0,00 3.531,18 4.820,97 0,00 22.815,06 1.639,42 3.198,97 0,00 4.838,39 17.976,67 1.550,00 846,85 31/12/2019
768 205500 ELIANA ALVES DE SOUSA OFICIAL DO MP ATIVO GOVERNADOR VALADARES - COMARCA; GOVERNADOR VALADARES-PJ-07PJ 8.482,22 3.392,89 0,00 2.644,90 0,00 0,00 14.520,01 1.437,82 2.037,07 0,00 3.474,89 11.045,12 1.550,00 2.260,44 31/12/2019
769 628800 ELIANA APARECIDA PEREIRA ANALISTA DO MP ATIVO CAMBUÍ - COMARCA; CAMBUI-PJ-02PJ 6.251,74 625,17 0,00 2.760,09 0,00 0,00 9.637,00 779,44 761,63 0,00 1.541,07 8.095,93 1.550,00 394,86 31/12/2019
770 301700 ELIANA DA SILVEIRA ANALISTA DO MP ATIVO BELO HORIZONTE - COMARCA; ASSESS TECNICO-JUR JUNTO AS PROC. DE JUST 13.283,29 3.984,99 0,00 3.377,58 0,00 0,00 20.645,86 2.060,19 3.357,05 0,00 5.417,24 15.228,62 1.550,00 2.760,86 31/12/2019
771 103400 ELIANA DE FARIA MORAIS JOTTA OFICIAL DO MP ATIVO BELO HORIZONTE - COMARCA; DIRET DE PESSOAL DO MINISTERIO PUBLICO - DPMP 22.903,10 11.451,55 0,00 5.911,51 0,00 3.779,01 44.045,17 3.779,01 8.526,03 0,00 12.305,04 31.740,13 1.550,00 5.542,55 31/12/2019
772 251500 ELIANA DE LIMA MILAGRES FONSECA ANALISTA DO MP ATIVO CONTAGEM - COMARCA; CONTAGEM-PJ-21PJ 13.715,83 4.114,75 0,00 3.844,68 0,00 0,00 21.675,26 2.023,21 3.390,40 0,00 5.413,61 16.261,65 1.550,00 1.062,75 31/12/2019
773 503900 ELIANA DIAS DUTRA FERREIRA OFICIAL DO MP ATIVO GOVERNADOR VALADARES - COMARCA; GOVERNADOR VALADARES-PJ-10PJ 6.251,74 625,17 0,00 1.972,50 0,00 0,00 8.849,41 780,31 709,49 0,00 1.489,80 7.359,61 0,00 409,75 31/12/2019
774 413900 ELIANA PINTO DE OLIVEIRA NEVES ANALISTA DO MP ATIVO CAMPO BELO - COMARCA; CAMPO BELO-PJ-03PJ 10.279,98 2.056,00 0,00 2.661,16 0,00 0,00 14.997,14 1.399,74 2.149,87 0,00 3.549,61 11.447,53 2.319,39 735,02 31/12/2019
775 228200 ELIANA RODRIGUES DA CUNHA PINHEIRO OFICIAL DO MP ATIVO BELO HORIZONTE - COMARCA; DIRETORIA DE PROJETOS DE EDIFICACOES 10.279,98 3.083,99 0,00 10.558,24 0,00 1.470,04 25.392,25 1.516,38 2.805,73 0,00 4.322,11 21.070,14 1.550,00 888,94 31/12/2019
776 386600 ELIANA SABINO CHAVES PESSOA ANALISTA DO MP ATIVO CARATINGA - COMARCA; CARATINGA-PJ-06PJ 11.685,57 8.179,91 0,00 4.120,11 0,00 0,00 23.985,59 2.245,99 3.940,58 0,00 6.186,57 17.799,02 1.550,00 1.044,43 31/12/2019
777 297400 ELIANE AUGUSTA RIBEIRO COSTA ANALISTA DO MP ATIVO CONSELHEIRO LAFAIETE - COMARCA; CONSELHEIRO LAFAIETE-PJ-05PJ 15.533,57 4.660,07 0,00 4.850,28 0,00 0,00 25.043,92 2.402,32 3.916,62 0,00 6.318,94 18.724,98 1.550,00 3.110,24 31/12/2019
778 510600 ELIANE CAROLINA MAIA ANALISTA DO MP ATIVO IGARAPÉ - COMARCA; IGARAPE-PJ-01PJ 9.337,87 933,79 0,00 2.517,73 3.423,89 0,00 16.213,28 1.233,41 2.429,79 0,00 3.663,20 12.550,08 1.550,00 2.092,65 31/12/2019
779 269300 ELIANE EDLAMAR ROCHA OFICIAL DO MP ATIVO PEDRO LEOPOLDO - COMARCA; PEDRO LEOPOLDO-PJ-02PJ 8.758,36 2.627,51 0,00 3.178,90 0,00 0,00 14.564,77 1.288,90 1.865,19 0,00 3.154,09 11.410,68 1.550,00 626,29 31/12/2019
780 262600 ELIANE FERREIRA SOARES ASSESSOR ATIVO BELO HORIZONTE - COMARCA; BH-18PJ DIREITOS HUMANOS-SECRETARIA 0,00 1.905,23 4.763,08 3.287,50 0,00 0,00 9.955,81 1.284,68 1.038,14 0,00 2.322,82 7.632,99 1.550,00 0,00 31/12/2019
781 204400 ELIANE GLAUCE DE QUEIROS MAIA OFICIAL DO MP ATIVO GUANHÃES - COMARCA; GUANHAES-PJ-02PJ 12.065,98 4.826,39 0,00 10.990,61 0,00 0,00 27.882,98 2.045,29 3.265,05 0,00 5.310,34 22.572,64 2.319,39 3.215,13 31/12/2019
782 91800 ELIANE KAPLER ALVES OFICIAL DO MP ATIVO BELO HORIZONTE - COMARCA; DIVISAO DE CONTROLE IMOBILIARIO 17.452,52 8.726,26 0,00 9.254,41 0,00 0,00 35.433,19 2.989,34 5.433,62 0,00 8.422,96 27.010,23 1.550,00 1.884,37 31/12/2019
783 334200 ELIANE MARCIA DE OLIVEIRA BRITO OFICIAL DO MP ATIVO BELO HORIZONTE - COMARCA; BH-08PJ JUIZADO ESPECIAL-SECRETARIA 5.678,79 1.135,76 0,00 2.633,22 0,00 0,00 9.447,77 749,60 798,50 0,00 1.548,10 7.899,67 1.550,00 0,00 31/12/2019
784 365900 ELIANE MARIA DE OLIVEIRA FERREIRA OFICIAL DO MP ATIVO SETE LAGOAS - COMARCA; SETE LAGOAS-PJ-SEC CRIMINAIS 8.214,70 4.107,35 0,00 2.659,13 0,00 0,00 14.981,18 1.398,17 2.146,46 0,00 3.544,63 11.436,55 1.550,00 734,38 31/12/2019
785 320600 ELIANE STADLER DE SOUZA OFICIAL DO MP ATIVO FRANCISCO SÁ - COMARCA; FRANCISCO SA-PJ-SECRETARIA 8.214,70 1.642,94 0,00 2.508,74 0,00 0,00 12.366,38 1.118,53 1.491,16 0,00 2.609,69 9.756,69 1.550,00 587,51 31/12/2019
786 448900 ELIAS PEREIRA OTONI ASSESSOR ATIVO BELO HORIZONTE - COMARCA; BH-18PJ DIREITOS HUMANOS 0,00 0,00 4.763,08 4.530,72 0,00 0,00 9.293,80 1.166,28 462,07 0,00 1.628,35 7.665,45 1.550,00 0,00 31/12/2019
787 495400 ELICA SOUZA GASPARONI MATTOS OFICIAL DO MP ATIVO UBÁ - COMARCA; UBA-PJ-06PJ 6.251,74 625,17 0,00 2.653,34 0,00 0,00 9.530,25 780,31 813,76 0,00 1.594,07 7.936,18 1.550,00 409,75 31/12/2019
788 86600 ELIENE FERREIRA DA SILVA OFICIAL DO MP ATIVO BELO HORIZONTE - COMARCA; BH-22PJ PES COM DEF E IDOSOS 19.608,56 13.725,99 0,00 5.867,61 0,00 0,00 39.202,16 3.666,80 7.132,86 0,00 10.799,66 28.402,50 1.550,00 0,00 31/12/2019
789 183800 ELIENE MARIA CUNHA OFICIAL DO MP ATIVO BELO HORIZONTE - COMARCA; DIRETORIA DE PESSOAL ADMINISTRATIVO - DPAD 13.283,29 5.313,32 0,00 12.063,86 0,00 0,00 30.660,47 2.365,83 3.630,02 0,00 5.995,85 24.664,62 1.550,00 5.944,23 31/12/2019
790 172300 ELINA APARECIDA SILVA ASSESSOR ATIVO BELO HORIZONTE - COMARCA; BH-19PJ SAUDE-SECRETARIA 130PJ 0,00 1.141,09 2.852,73 1.875,41 0,00 0,00 5.869,23 999,64 298,59 0,00 1.298,23 4.571,00 1.550,00 0,00 31/12/2019
791 492501 ELINE CAMPOS DA FONSECA CUNHA ANALISTA DO MP ATIVO PONTE NOVA - COMARCA; PONTE NOVA-PJ-02PJ 8.214,70 821,47 0,00 3.576,38 0,00 0,00 12.612,55 1.071,17 1.342,24 0,00 2.413,41 10.199,14 1.550,00 1.326,27 31/12/2019
792 618900 ELISA MOURA VIEIRA MARCATTI OFICIAL DO MP ATIVO BELO HORIZONTE - COMARCA; BH-23PJ CIVEL-SEC EXP CIVEIS 4.838,22 483,82 0,00 1.935,64 0,00 0,00 7.257,68 628,65 433,21 0,00 1.061,86 6.195,82 1.550,00 742,71 31/12/2019
793 256500 ELISABETE NOGUEIRA ANALISTA DO MP ATIVO RIBEIRÃO DAS NEVES - COMARCA; SEC PJ EXECUCAO PENAL RIBEIRAO NEVES 13.283,29 6.641,65 0,00 7.143,85 0,00 0,00 27.068,79 2.256,24 3.850,86 0,00 6.107,10 20.961,69 1.550,00 1.108,14 31/12/2019
794 355000 ELISANGELA DARLANTONI RIBEIRO OFICIAL DO MP ATIVO ARAXÁ - COMARCA; ARAXA-PJ-05PJ 7.576,76 1.515,35 0,00 2.242,12 3.030,70 0,00 14.364,93 1.091,78 2.137,24 0,00 3.229,02 11.135,91 2.319,39 1.574,65 31/12/2019
795 604400 ELISANGELA DEMASI FERREIRA MOREIRA ANALISTA DO MP ATIVO POÇOS DE CALDAS - COMARCA; POCOS DE CALDAS-PJ-06PJ 7.576,76 757,68 0,00 2.079,94 0,00 0,00 10.414,38 997,74 1.170,49 0,00 2.168,23 8.246,15 2.319,39 1.390,95 31/12/2019
796 323800 ELISANGELA GONCALVES DE JESUS OFICIAL DO MP ATIVO BELO HORIZONTE - COMARCA; BH-09PJ AUDITORIA MILITAR-SECRETARIA 8.214,70 1.642,94 0,00 2.353,32 0,00 0,00 12.210,96 1.168,55 1.491,16 0,00 2.659,71 9.551,25 2.319,39 1.446,85 31/12/2019
797 507400 ELISANGELA MIGUEL DA ROCHA SILVA ASSESSOR ATIVO BELO HORIZONTE - COMARCA; EXTINTA-CGMP-DIV APOIO FISC ORIENT FUNCIONAL 0,00 0,00 2.852,73 1.388,68 0,00 0,00 4.241,41 691,55 144,45 0,00 836,00 3.405,41 2.319,39 0,00 31/12/2019
798 261400 ELISANGELA REZENDE MENDES OFICIAL DO MP ATIVO POUSO ALEGRE - COMARCA; POUSO ALEGRE-PJ-05PJ 8.758,36 2.627,51 0,00 2.523,15 0,00 0,00 13.909,02 1.367,24 1.917,33 0,00 3.284,57 10.624,45 1.550,00 1.972,23 31/12/2019
799 534100 ELISANGELA ROSINE SILVA OFICIAL DO MP ATIVO UBERABA - COMARCA; UBERABA-PJ-06PJ 4.612,94 461,29 0,00 1.678,96 0,00 0,00 6.753,19 575,77 379,98 0,00 955,75 5.797,44 1.550,00 302,40 31/12/2019
800 634300 ELIUDE GRACA DAMASIO ROSARIO FRANCELINO OFICIAL DO MP ATIVO BELO HORIZONTE - COMARCA; EXTINTA-DEF DIREIT HUM-COMB A VIOL DOMEST-18 3.914,66 243,48 0,00 1.849,94 0,00 0,00 6.008,08 488,09 197,95 0,00 686,04 5.322,04 2.319,39 256,28 31/12/2019
801 461700 ELIZABETH ALEIXO DA PAZ ANALISTA DO MP ATIVO JUIZ DE FORA - COMARCA; JUIZ DE FORA-PJ-24PJ 9.337,87 933,79 0,00 2.361,32 0,00 0,00 12.632,98 1.129,88 1.644,63 0,00 2.774,51 9.858,47 1.550,00 0,00 31/12/2019
802 227300 ELIZABETH COIMBRA FELIX ASSESSOR/OFICIAL ATIVO BELO HORIZONTE - COMARCA; DIRETORIA DE PAGAMENTO DE PESSOAL-DPAG 11.685,57 7.011,34 0,00 4.133,63 0,00 0,00 22.830,54 1.856,31 3.673,13 0,00 5.529,44 17.301,10 1.550,00 974,81 31/12/2019
803 354800 ELIZABETH DOS REIS OFICIAL DO MP ATIVO BELO HORIZONTE - COMARCA; DIVISAO DE MATERIAIS 8.214,70 1.642,94 0,00 2.353,32 0,00 0,00 12.210,96 1.118,53 1.491,16 0,00 2.609,69 9.601,27 1.550,00 587,51 31/12/2019
804 612000 ELIZABETH MARIA DE QUEIROZ TANIGUCHI OFICIAL DO MP ATIVO BELO HORIZONTE - COMARCA; SUPERINTENDENCIA GESTÃO DE PESSOAS 4.467,49 446,75 0,00 2.168,19 0,00 0,00 7.082,43 588,31 347,95 0,00 936,26 6.146,17 1.550,00 820,30 31/12/2019
805 452800 ELIZANGELA MARIA DAVI OFICIAL DO MP ATIVO ARCOS - COMARCA; ARCOS-PJ-01PJ 5.678,79 567,88 0,00 2.660,76 0,00 0,00 8.907,43 750,10 607,38 0,00 1.357,48 7.549,95 1.550,00 1.081,85 31/12/2019
806 496300 ELIZANGELA MARQUES PINTO COELHO OFICIAL DO MP ATIVO BELO HORIZONTE - COMARCA; DIRETORIA DE PESSOAL ADMINISTRATIVO - DPAD 6.251,74 625,17 0,00 1.868,23 0,00 0,00 8.745,14 780,31 813,76 0,00 1.594,07 7.151,07 1.550,00 409,75 31/12/2019
807 422500 ELIZETE FORTES DA CUNHA ANALISTA DO MP ATIVO RIBEIRÃO DAS NEVES - COMARCA; RIBEIRAO DAS NEVES-PJ-07PJ 11.317,16 2.263,43 0,00 2.894,08 0,00 0,00 16.474,67 1.630,77 2.402,35 0,00 4.033,12 12.441,55 1.550,00 2.352,33 31/12/2019
808 506100 ELLEM CRISTINA ROCHA FONSECA BOWEN ANALISTA DO MP ATIVO GOVERNADOR VALADARES - COMARCA; COORD REG PJ DEF EDU DIR CRIANCA ADOL RIODOCE 9.337,87 933,79 0,00 7.497,15 0,00 0,00 17.768,81 1.129,88 1.644,63 0,00 2.774,51 14.994,30 2.319,39 0,00 31/12/2019
809 468200 ELLEN CRISTINA BERNARDES DARE ANALISTA DO MP ATIVO TRÊS PONTAS - COMARCA; TRES PONTAS-PJ-02PJ 9.337,87 933,79 0,00 2.413,46 0,00 0,00 12.685,12 1.129,88 1.592,49 0,00 2.722,37 9.962,75 2.319,39 0,00 31/12/2019
810 418800 ELLEN CRISTINA DE QUEIROZ FERREIRA ANALISTA DO MP ATIVO BELO HORIZONTE - COMARCA; CENTRAL DE APOIO TECNICO-SETOR CONTABIL 11.317,16 2.263,43 0,00 5.217,67 0,00 0,00 18.798,26 1.630,77 2.454,49 0,00 4.085,26 14.713,00 2.319,39 2.444,64 31/12/2019
811 328401 ELLEN CRISTINA FERREIRA MORAIS MONTEIRO ANALISTA DO MP ATIVO CAMANDUCAIA - COMARCA; CAMANDUCAIA-PJ-UNPJ 11.317,16 2.263,43 0,00 5.269,80 0,00 0,00 18.850,39 1.630,77 2.350,22 0,00 3.980,99 14.869,40 1.550,00 2.352,33 31/12/2019
812 556100 ELLEN CRISTINE BIANCHIN DA SILVA OFICIAL DO MP ATIVO SÃO GONÇALO DO SAPUCAÍ - COMARCA; SAO GONCALO DO SAPUCAI-PJ-02PJ 4.612,94 461,29 0,00 4.178,73 0,00 0,00 9.252,96 575,77 337,33 0,00 913,10 8.339,86 1.550,00 302,40 31/12/2019
813 447100 ELLEN ROSANA DE MACEDO BORGES OFICIAL DO MP ATIVO UBERLÂNDIA - COMARCA; UBERLANDIA-PJ-17PJ 7.106,49 1.421,30 0,00 2.128,01 0,00 0,00 10.655,80 1.043,34 1.217,82 0,00 2.261,16 8.394,64 1.550,00 2.045,74 31/12/2019
814 477700 ELMA JACOB OFICIAL DO MP ATIVO BELO HORIZONTE - COMARCA; COORD DE GABINETE DO PGJ 6.882,47 4.817,73 0,00 4.038,02 0,00 1.287,02 17.025,24 1.404,97 2.348,20 0,00 3.753,17 13.272,07 1.550,00 2.262,43 31/12/2019
815 123300 ELMA PAULA DOS SANTOS COELHO OFICIAL DO MP ATIVO BELO HORIZONTE - COMARCA; BH-19PJ SAUDE-SECRETARIA 130PJ 15.533,57 13.980,22 0,00 8.072,01 0,00 3.246,52 40.832,32 3.370,17 7.246,93 0,00 10.617,10 30.215,22 1.550,00 2.371,83 31/12/2019
816 356500 ELOISA CARDOSO SILVA FRANCA OFICIAL DO MP ATIVO PEÇANHA - COMARCA; PECANHA-PJ-SECRETARIA 5.678,79 1.135,76 0,00 5.422,86 0,00 0,00 12.237,41 749,60 642,09 0,00 1.391,69 10.845,72 1.550,00 0,00 31/12/2019
817 251901 ELOISA COSTA E SILVA ANALISTA DO MP ATIVO SANTOS DUMONT - COMARCA; SANTOS DUMONT-PJ-02PJ 9.337,87 2.801,36 0,00 2.684,71 0,00 0,00 14.823,94 1.335,32 2.049,58 0,00 3.384,90 11.439,04 2.319,39 0,00 31/12/2019
818 400400 ELOIZA MARIA FERRI PIRES DA SILVA OFICIAL DO MP ATIVO BELO HORIZONTE - COMARCA; ASSESSORIA TECNICA DO PROCON-MG 6.882,47 1.376,49 0,00 2.121,11 0,00 0,00 10.380,07 991,75 1.099,88 0,00 2.091,63 8.288,44 1.550,00 1.430,50 31/12/2019
819 258000 ELSO CECIANO PALMEIRA COORDENADOR/OFICIAL ATIVO BELO HORIZONTE - COMARCA; DIRET DE PESSOAL DO MINISTERIO PUBLICO - DPMP 10.279,98 9.826,45 0,00 4.275,06 0,00 0,00 24.381,49 1.982,96 4.131,26 0,00 6.114,22 18.267,27 1.550,00 1.041,28 31/12/2019
820 206900 ELVIRA RITA DOS SANTOS ANALISTA DO MP ATIVO BELO HORIZONTE - COMARCA; CENTRAL DE APOIO TECNICO-SETOR CONTABIL 17.452,52 6.981,01 0,00 5.974,22 0,00 2.687,69 33.095,44 2.879,67 5.849,86 0,00 8.729,53 24.365,91 1.550,00 3.682,48 31/12/2019
821 506800 ELVIS FERREIRA DA SILVA ANALISTA DO MP ATIVO BELO HORIZONTE - COMARCA; DIRETORIA DE SISTEMAS DE INFORMACAO 9.337,87 933,79 0,00 2.465,59 0,00 0,00 12.737,25 1.129,88 1.540,36 0,00 2.670,24 10.067,01 2.319,39 0,00 31/12/2019
822 602400 ELZA MARIA MOREIRA MUNIZ ANALISTA DO MP ATIVO CARMO DO PARANAÍBA - COMARCA; CARMO DO PARANAIBA-PJ-02PJ 7.823,48 782,35 0,00 2.359,33 0,00 0,00 10.965,16 976,49 1.132,64 0,00 2.109,13 8.856,03 1.550,00 512,93 31/12/2019
823 368401 ELZIRA SIMOES DOS SANTOS ASSESSOR ATIVO BELO HORIZONTE - COMARCA; ASSESSORIA DE COMUNICACAO INTEGRADA 0,00 3.184,40 10.614,65 4.150,78 0,00 0,00 17.949,83 1.284,68 3.051,24 0,00 4.335,92 13.613,91 1.550,00 0,00 31/12/2019
824 437400 EMANOELLE DA SILVA RODRIGUES OFICIAL DO MP ATIVO UNAÍ - COMARCA; UNAI-PJ-03PJ 6.455,21 645,52 0,00 2.064,78 0,00 0,00 9.165,51 805,70 816,41 0,00 1.622,11 7.543,40 3.088,78 423,02 31/12/2019
825 458900 EMANUELLE CONRAD SILVA FREDERICO NAVES ANALISTA DO MP ATIVO ALFENAS - COMARCA; ALFENAS-PJ-05PJ 10.279,98 1.028,00 0,00 2.563,98 0,00 0,00 13.871,96 1.283,09 1.846,13 0,00 3.129,22 10.742,74 2.319,39 673,77 31/12/2019
826 284100 EMERSON MAGNO ALMEIDA PEDROSA DA FONSECA ANALISTA DO MP ATIVO BELO HORIZONTE - COMARCA; CENTRAL DE APOIO TECNICO-SETOR CONTABIL 15.533,57 4.660,07 0,00 15.046,00 0,00 0,00 35.239,64 2.417,40 2.664,54 0,00 5.081,94 30.157,70 1.550,00 3.369,44 31/12/2019
827 179900 EMERSON MORAIS DIAS OFICIAL DO MP ATIVO BELO HORIZONTE - COMARCA; SUPERINTENDÊNCIA DE ENGENHARIA E ARQUITETURA 13.715,83 5.486,33 0,00 3.961,24 0,00 0,00 23.163,40 2.178,85 3.830,37 0,00 6.009,22 17.154,18 1.550,00 1.144,51 31/12/2019
828 488700 EMERSON SIQUEIRA DE SOUSA TEIXEIRA ANALISTA DO MP ATIVO TARUMIRIM - COMARCA; TARUMIRIM-PJ-UNPJ 9.337,87 933,79 0,00 2.517,73 0,00 0,00 12.789,39 1.129,88 1.488,22 0,00 2.618,10 10.171,29 1.550,00 0,00 31/12/2019
829 194200 EMILIA ALVES FERREIRA RAMOS OFICIAL DO MP ATIVO UBERLÂNDIA - COMARCA; UBERLANDIA-PJ-SEC FAMILIA 8.214,70 3.285,88 0,00 2.524,77 3.833,53 0,00 17.858,88 1.446,65 2.999,63 0,00 4.446,28 13.412,60 1.550,00 3.119,99 31/12/2019
830 123400 EMILIO CARLOS MARTINS OFICIAL DO MP ATIVO AREADO - COMARCA; AREADO-PJ-UNPJ 16.148,50 12.918,80 0,00 8.015,07 0,00 3.197,40 40.279,77 3.319,16 7.072,01 0,00 10.391,17 29.888,60 1.550,00 2.335,50 31/12/2019
831 620700 EMILY FONTANA DE SIQUEIRA ANALISTA DO MP ATIVO BELO HORIZONTE - COMARCA; BH-18PJ VIOLENCIA DOMESTICA 7.576,76 757,68 0,00 3.484,86 0,00 0,00 11.819,30 997,74 1.118,36 0,00 2.116,10 9.703,20 2.319,39 1.390,95 31/12/2019
832 297000 ENEIDA SOARES COSTA MELO ANALISTA DO MP ATIVO PIUMHI - COMARCA; PIUMHI-PJ-01PJ 15.533,57 4.660,07 0,00 4.693,87 0,00 0,00 24.887,51 2.402,32 4.073,03 0,00 6.475,35 18.412,16 1.550,00 3.110,24 31/12/2019
833 276000 ENEZIO RODRIGUES DE SOUZA FILHO OFICIAL DO MP ATIVO UBERLÂNDIA - COMARCA; UBERLANDIA-PJ-01PJ 9.337,87 2.801,36 0,00 3.188,74 0,00 0,00 15.327,97 1.457,68 2.101,72 0,00 3.559,40 11.768,57 1.550,00 2.102,34 31/12/2019
834 387700 ENI MARIA DOS REIS OFICIAL DO MP ATIVO POUSO ALEGRE - COMARCA; POUSO ALEGRE-PJ-02PJ 7.337,85 1.467,57 0,00 3.275,53 0,00 0,00 12.080,95 999,14 1.285,77 0,00 2.284,91 9.796,04 1.550,00 524,72 31/12/2019
835 605100 ENIA MAIA ASSESSOR/OFICIAL ATIVO BELO HORIZONTE - COMARCA; DIRETORIA DE ORCAMENTO-DIOR/SPC 0,00 964,19 9.641,94 2.786,44 0,00 0,00 13.392,57 630,28 1.874,00 0,00 2.504,28 10.888,29 1.550,00 0,00 31/12/2019
836 612200 ENILDO GOMES MEIRA FILHO ANALISTA DO MP ATIVO BUENÓPOLIS - COMARCA; BUENOPOLIS-PJ-UNPJ 7.576,76 757,68 0,00 2.618,21 0,00 0,00 10.952,65 997,74 1.014,08 0,00 2.011,82 8.940,83 2.319,39 1.390,95 31/12/2019
837 553700 ENIVALDO NOVATO PUBLIO ANALISTA DO MP ATIVO DIVINÓPOLIS - COMARCA; DIVINOPOLIS-PJ-09PJ 7.823,48 782,35 0,00 2.307,19 0,00 0,00 10.913,02 976,49 1.184,78 0,00 2.161,27 8.751,75 1.550,00 512,93 31/12/2019
838 417300 ERIC BARATTI DA SILVA ANALISTA DO MP ATIVO PRATA - COMARCA; PRATA-PJ-UNPJ 9.337,87 1.867,57 0,00 7.497,15 0,00 0,00 18.702,59 1.335,32 1.873,17 0,00 3.208,49 15.494,10 1.550,00 2.076,12 31/12/2019
839 637600 ERIC DA ROCHA CHEHUEN ANALISTA DO MP ATIVO LIMA DUARTE - COMARCA; LIMA DUARTE-PJ-UNPJ 6.882,47 412,95 0,00 5.692,84 0,00 0,00 12.988,26 642,34 960,24 0,00 1.602,58 11.385,68 1.550,00 460,16 31/12/2019
840 398900 ERIC TEIXEIRA SILVA OFICIAL DO MP ATIVO UBERLÂNDIA - COMARCA; UBERLANDIA-PJ-SEC CIVEIS CRIMINAIS 7.576,76 1.515,35 0,00 2.189,99 0,00 0,00 11.282,10 1.091,78 1.355,93 0,00 2.447,71 8.834,39 1.550,00 1.574,65 31/12/2019
841 274200 ERICA DE SOUZA ANDRADE OFICIAL DO MP ATIVO CURVELO - COMARCA; CURVELO-PJ-03PJ 9.337,87 2.801,36 0,00 2.876,08 0,00 0,00 15.015,31 1.377,42 2.049,58 0,00 3.427,00 11.588,31 1.550,00 723,36 31/12/2019
842 225700 ERICA GOMES DO COUTO OFICIAL DO MP ATIVO BELO HORIZONTE - COMARCA; BH-21PJ TUTELA DAS FUNDACOES 11.685,57 3.505,67 0,00 3.075,88 0,00 0,00 18.267,12 1.723,72 2.848,70 0,00 4.572,42 13.694,70 2.319,39 905,18 31/12/2019
843 632600 ERICA LEONOR MARTINS OFICIAL DO MP ATIVO RESENDE COSTA - COMARCA; RESENDE COSTA-PJ-UNPJ 4.467,49 268,05 0,00 1.609,37 0,00 0,00 6.344,91 537,34 312,16 0,00 849,50 5.495,41 1.550,00 282,25 31/12/2019
844 524800 ERICA MACHADO DA COSTA E SOUZA ANALISTA DO MP ATIVO BELO HORIZONTE - COMARCA; PROC JUST RECURSOS ESP E EXTRAORD CRIMINAIS 9.337,87 933,79 0,00 2.831,93 0,00 0,00 13.103,59 1.233,41 1.644,63 0,00 2.878,04 10.225,55 1.550,00 2.292,18 31/12/2019
845 249500 ERICA RODRIGUES ANDRADE OFICIAL DO MP ATIVO SÃO FRANCISCO - COMARCA; SAO FRANCISCO-PJ-02PJ 8.214,70 2.464,41 0,00 2.887,29 0,00 0,00 13.566,40 1.265,93 1.692,22 0,00 2.958,15 10.608,25 1.550,00 1.567,41 31/12/2019
846 260800 ERICA VIANA GIARDINI DE OLIVEIRA OFICIAL DO MP ATIVO BELO HORIZONTE - COMARCA; DIRETORIA GESTAO COMPRAS LICITACOES 9.337,87 2.801,36 0,00 2.632,57 0,00 0,00 14.771,80 1.335,32 2.101,72 0,00 3.437,04 11.334,76 1.550,00 0,00 31/12/2019
847 299800 ERICH DOUGLAS RIBEIRO GARCIA ANALISTA DO MP ATIVO BELO HORIZONTE - COMARCA; CENTRAL DE APOIO TECNICO-SETOR CONTABIL 14.162,21 4.248,66 0,00 3.833,68 0,00 0,00 22.244,55 2.084,12 3.636,70 0,00 5.720,82 16.523,73 1.550,00 1.012,40 31/12/2019
848 365000 ERICK EDUARDO JOSE DA SILVA OFICIAL DO MP ATIVO SANTOS DUMONT - COMARCA; SANTOS DUMONT-PJ-02PJ 5.678,79 1.135,76 0,00 1.859,17 0,00 0,00 8.673,72 749,60 798,50 0,00 1.548,10 7.125,62 1.550,00 0,00 31/12/2019
849 227400 ERIKA DE LAET GOULART BOECHAT ASSESSOR/OFICIAL ATIVO BELO HORIZONTE - COMARCA; ASSESSORIA ESPECIAL DO PGJ 11.685,57 5.842,78 0,00 3.653,87 0,00 0,00 21.182,22 1.723,72 3.439,26 0,00 5.162,98 16.019,24 2.319,39 905,18 31/12/2019
850 285100 ERIKA FERREIRA DA SILVA OFICIAL DO MP ATIVO JUIZ DE FORA - COMARCA; JUIZ DE FORA-PJ-11PJ 9.337,87 2.801,36 0,00 2.823,94 0,00 0,00 14.963,17 1.377,42 2.101,72 0,00 3.479,14 11.484,03 1.550,00 723,36 31/12/2019
851 420100 ERIKA JEANINE VERSIANI DE CASTRO ANALISTA DO MP ATIVO BELO HORIZONTE - COMARCA; COORD ESTADUAL DE DEFESA DA EDUCACAO 11.685,57 2.337,11 0,00 3.127,20 0,00 0,00 17.149,88 1.591,12 2.562,69 0,00 4.153,81 12.996,07 1.550,00 868,34 31/12/2019
852 606900 ERIKA MARIA BARBOSA ANALISTA DO MP ATIVO BELO HORIZONTE - COMARCA; CAO-SAUDE 6.882,47 688,25 0,00 2.021,14 0,00 0,00 9.591,86 906,32 931,44 0,00 1.837,76 7.754,10 1.550,00 1.263,60 31/12/2019
853 491000 ERIKA ROCHA PEREIRA E SILVA COORDENADOR/ANALISTA ATIVO BELO HORIZONTE - COMARCA; DIR GOVERNANCA TECNOLOGIA INFORMACAO 0,00 1.245,88 12.458,83 3.133,75 0,00 0,00 16.838,46 1.129,88 2.588,72 0,00 3.718,60 13.119,86 1.550,00 0,00 31/12/2019
854 283201 ERIKA STEHLING COORDENADOR/ANALISTA ATIVO BELO HORIZONTE - COMARCA; CENTRAL DE APOIO TECNICO-SETOR DE ENGENHARIA 9.337,87 3.125,84 0,00 4.543,19 0,00 0,00 17.006,90 1.129,88 2.247,44 0,00 3.377,32 13.629,58 1.550,00 0,00 31/12/2019
855 254000 ERLANDIA DA SILVA MENDES OFICIAL DO MP ATIVO IPATINGA - COMARCA; IPATINGA-PJ-03PJ 10.279,98 4.111,99 0,00 3.116,20 0,00 0,00 17.508,17 1.633,03 2.496,66 0,00 4.129,69 13.378,48 1.550,00 857,51 31/12/2019
856 208600 ERNANE JOSE DA COSTA ANALISTA DO MP ATIVO BELO HORIZONTE - COMARCA; CENTRAL DE APOIO TECNICO-SETOR MEDICO 17.452,52 12.216,76 0,00 5.178,82 0,00 0,00 34.848,10 3.263,62 6.392,20 0,00 9.655,82 25.192,28 1.550,00 0,00 31/12/2019
857 260600 ERNANI CALDEIRA DE ANDRADE ANALISTA DO MP ATIVO BELO HORIZONTE - COMARCA; CENTRAL DE APOIO TECNICO-SETOR CONTABIL 17.452,52 5.235,76 0,00 5.412,15 0,00 0,00 28.100,43 2.770,12 4.858,61 0,00 7.628,73 20.471,70 1.550,00 5.303,83 31/12/2019
858 348500 ERNILANDIA DE OLIVEIRA DIAS OFICIAL DO MP ATIVO MONTES CLAROS - COMARCA; MONTES CLAROS-PJ-16PJ 7.337,85 1.467,57 0,00 2.148,34 0,00 0,00 10.953,76 999,14 1.285,77 0,00 2.284,91 8.668,85 1.550,00 524,72 31/12/2019
859 199300 ERTON PORTINARI DE ANDRADE OFICIAL DO MP ATIVO SETE LAGOAS - COMARCA; SETE LAGOAS-PJ-05PJ 12.065,98 4.826,39 0,00 3.427,25 0,00 0,00 20.319,62 1.916,74 3.160,77 0,00 5.077,51 15.242,11 1.550,00 1.006,56 31/12/2019
860 618800 ESLY DE CARLA AYALLA BARBOSA MENDES OFICIAL DO MP ATIVO NOVA LIMA - COMARCA; NOVA LIMA-PJ-SECRETARIA 4.467,49 446,75 0,00 1.874,96 0,00 0,00 6.789,20 588,31 347,95 0,00 936,26 5.852,94 1.550,00 820,30 31/12/2019
861 537000 ESTANISLAU CORREIA ALMEIDA JUNIOR OFICIAL DO MP ATIVO UBERLÂNDIA - COMARCA; UBERLANDIA-PJ-25PJ 4.995,72 499,57 0,00 1.754,18 0,00 0,00 7.249,47 623,54 475,61 0,00 1.099,15 6.150,32 1.550,00 327,44 31/12/2019
862 326900 ESTER ALICE PIMENTA OFICIAL DO MP ATIVO BELO HORIZONTE - COMARCA; COORD DE INCLUSAO E MOBILIZACAO SOCIAIS 8.482,22 1.696,44 0,00 2.399,95 0,00 0,00 12.578,61 1.154,96 1.569,73 0,00 2.724,69 9.853,92 1.550,00 606,73 31/12/2019
863 503700 ESTHER GONCALVES FONSECA ANALISTA DO MP ATIVO BELO HORIZONTE - COMARCA; DIR CRIACAO E MIDIAS 7.955,66 795,57 0,00 2.213,17 0,00 0,00 10.964,40 978,63 1.272,50 0,00 2.251,13 8.713,27 1.550,00 274,81 31/12/2019
864 475600 ETIENE DE FATIMA OLIVEIRA PEREIRA ANALISTA DO MP ATIVO PATROCÍNIO - COMARCA; PATROCINIO-PJ-04PJ 9.337,87 933,79 0,00 2.465,59 0,00 0,00 12.737,25 1.129,88 1.540,36 0,00 2.670,24 10.067,01 2.319,39 0,00 31/12/2019
865 428800 EUGENIA RODRIGUES TRAJANO BORGES ANALISTA DO MP ATIVO UBERABA - COMARCA; UBERABA-PJ-08PJ 11.317,16 2.263,43 0,00 3.464,25 0,00 0,00 17.044,84 1.619,36 2.454,49 0,00 4.073,85 12.970,99 1.550,00 2.156,30 31/12/2019
866 272700 EUGENIO DE BARCELOS FILHO OFICIAL DO MP ATIVO FRUTAL - COMARCA; FRUTAL-PJ-03PJ 7.337,85 2.201,36 0,00 3.538,34 0,00 0,00 13.077,55 1.082,39 1.413,23 0,00 2.495,62 10.581,93 1.550,00 568,46 31/12/2019
867 254100 EULALIA ALVES MIRANDA LUCAS OFICIAL DO MP ATIVO ALMENARA - COMARCA; ALMENARA-PJ-02PJ 10.279,98 3.083,99 0,00 3.125,39 0,00 0,00 16.489,36 1.516,38 2.297,20 0,00 3.813,58 12.675,78 2.020,78 796,26 31/12/2019
868 615500 EUNICE BARBOSA PINTO OFICIAL DO MP ATIVO OURO PRETO - COMARCA; OURO PRETO-PJ-04PJ 4.838,22 967,64 0,00 1.935,09 0,00 0,00 7.740,95 687,58 551,63 0,00 1.239,21 6.501,74 1.550,00 840,82 31/12/2019
869 641200 EUNICE ELVIRA DA SILVA MATOS OFICIAL DO MP ATIVO BELO HORIZONTE - COMARCA; BH-14PJ DEFESA CONSUMIDOR-SECRETARIA 4.058,04 243,48 0,00 1.520,13 0,00 0,00 5.821,65 488,09 225,25 0,00 713,34 5.108,31 1.550,00 256,28 31/12/2019
870 557900 EURIPEDES JOSUE PERES OFICIAL DO MP ATIVO IBIÁ - COMARCA; IBIA-PJ-UNPJ 4.612,94 461,29 0,00 4.136,08 0,00 0,00 9.210,31 575,77 379,98 0,00 955,75 8.254,56 1.550,00 302,40 31/12/2019
871 225800 EURO CESAR VIEIRA BARBOSA ANALISTA DO MP ATIVO BELO HORIZONTE - COMARCA; BH-17PJ PATRIMONIO PUBLICO 17.452,52 6.981,01 0,00 5.395,23 0,00 0,00 29.828,76 2.687,69 5.006,47 0,00 7.694,16 22.134,60 1.550,00 0,00 31/12/2019
872 199400 EUSTAQUIO ADAILTON LIMA E SILVA OFICIAL DO MP ATIVO MANGA - COMARCA; MANGA-PJ-01PJ 13.283,29 9.298,31 0,00 7.556,35 0,00 0,00 30.137,95 2.977,07 4.448,94 0,00 7.426,01 22.711,94 1.550,00 8.437,61 31/12/2019
873 548000 EVA VILMA LEAO REIS JULIO OFICIAL DO MP ATIVO BELO HORIZONTE - COMARCA; BH-07PJ 01 TRIBUNAL JURI-SECRETARIA 4.995,72 1.498,72 0,00 1.915,05 0,00 0,00 8.409,49 736,91 720,15 0,00 1.457,06 6.952,43 1.550,00 386,98 31/12/2019
874 517000 EVALDO SENA COSTA FILHO ANALISTA DO MP ATIVO CONTAGEM - COMARCA; CONTAGEM-PJ-15PJ 9.337,87 2.801,36 0,00 2.788,99 4.046,41 0,00 18.974,63 1.457,68 3.058,07 0,00 4.515,75 14.458,88 1.550,00 2.473,12 31/12/2019
875 217500 EVELANGE LEAO RABELO ASSESSOR ATIVO BELO HORIZONTE - COMARCA; EXTINTA-COORD EST DEF DIR FAM PES DEFIC IDOSO 0,00 855,82 2.852,73 1.713,98 0,00 0,00 5.422,53 936,88 326,78 0,00 1.263,66 4.158,87 1.550,00 0,00 31/12/2019
876 540400 EVIE SARAMELLA DE RESENDE OFICIAL DO MP ATIVO BARBACENA - COMARCA; BARBACENA-PJ-05PJ 4.995,72 499,57 0,00 4.415,20 0,00 0,00 9.910,49 623,54 475,61 0,00 1.099,15 8.811,34 1.550,00 327,44 31/12/2019
877 469000 EWERTON CARDOSO DE SA RODRIGUES ANALISTA DO MP ATIVO CAMPO BELO - COMARCA; CAMPO BELO-PJ-01PJ 9.337,87 933,79 0,00 2.465,59 0,00 0,00 12.737,25 1.129,88 1.540,36 0,00 2.670,24 10.067,01 2.319,39 0,00 31/12/2019
878 368900 FABIANA BARBOSA SIQUEIRA OFICIAL DO MP ATIVO BELO HORIZONTE - COMARCA; CAO-ORDEM ECONOMICA E TRIBUTARIA-SECRETARIA 8.214,70 1.642,94 0,00 7.282,14 0,00 0,00 17.139,78 1.118,53 1.491,16 0,00 2.609,69 14.530,09 1.550,00 587,51 31/12/2019
879 273800 FABIANA CARNEIRO AMORIM COORDENADOR/OFICIAL ATIVO BELO HORIZONTE - COMARCA; BH-23PJ CIVEL-COORD ADM CIVEL 9.641,94 5.084,63 0,00 3.204,61 0,00 0,00 17.931,18 1.505,15 2.674,21 0,00 4.179,36 13.751,82 1.550,00 747,10 31/12/2019
880 519300 FABIANA DE OLIVEIRA LOUREIRO ANALISTA DO MP ATIVO BELO HORIZONTE - COMARCA; BH-09PJ AUDITORIA MILITAR 9.337,87 933,79 0,00 2.361,32 0,00 0,00 12.632,98 1.233,41 1.644,63 0,00 2.878,04 9.754,94 1.550,00 1.778,91 31/12/2019
881 363400 FABIANA DOURADO DUPIN VIEGAS ANALISTA DO MP ATIVO BELO HORIZONTE - COMARCA; GABINETE DE PROCURADOR DE JUSTIÇA - SALA 705 13.283,29 2.656,66 0,00 3.236,77 0,00 0,00 19.176,72 1.914,07 2.979,81 0,00 4.893,88 14.282,84 2.319,39 2.760,86 31/12/2019
882 410800 FABIANA DUARTE QUITITE ANALISTA DO MP ATIVO BELO HORIZONTE - COMARCA; EXTINTA-MEIO AMB PATRIM HIST CULTURAL-15PJGAB 11.685,57 2.337,11 0,00 3.127,20 0,00 0,00 17.149,88 1.591,12 2.562,69 0,00 4.153,81 12.996,07 1.550,00 1.497,66 31/12/2019
883 419500 FABIANA EULALIA DOS SANTOS ANALISTA DO MP ATIVO SÃO JOÃO DEL REI - COMARCA; SAO JOAO DEL REI-PJ-01PJ 11.317,16 2.263,43 0,00 4.816,12 0,00 0,00 18.396,71 1.630,77 2.454,49 0,00 4.085,26 14.311,45 1.550,00 2.352,33 31/12/2019
884 376300 FABIANA MATTOSO LEMOS ANALISTA DO MP ATIVO BELO HORIZONTE - COMARCA; BH-21PJ TUTELA FUNDACOES-SECRETARIA 12.065,98 2.413,20 0,00 3.200,71 0,00 0,00 17.679,89 1.642,92 2.674,42 0,00 4.317,34 13.362,55 1.550,00 862,77 31/12/2019
885 331500 FABIANA PACHECO OFICIAL DO MP ATIVO GUAXUPÉ - COMARCA; GUAXUPE-PJ-01PJ 8.214,70 1.642,94 0,00 2.405,46 0,00 0,00 12.263,10 1.118,53 1.439,02 0,00 2.557,55 9.705,55 2.319,39 587,51 31/12/2019
886 510700 FABIANA PEREIRA SANTOS BORGES ANALISTA DO MP ATIVO BELO HORIZONTE - COMARCA; DIRETORIA DE SISTEMAS DE INFORMACAO 9.337,87 933,79 0,00 2.413,46 3.423,89 0,00 16.109,01 1.233,41 2.534,06 0,00 3.767,47 12.341,54 3.106,75 1.816,57 31/12/2019
887 181700 FABIANA SOUZA FERREIRA OFICIAL DO MP ATIVO BELO HORIZONTE - COMARCA; BH-19PJ SAUDE-SECRETARIA 150PJ 5.678,79 1.703,64 0,00 2.045,93 2.460,81 0,00 11.889,17 812,07 1.509,94 0,00 2.322,01 9.567,16 1.550,00 0,00 31/12/2019
888 272900 FABIANA STOCKLER LEITE OFICIAL DO MP ATIVO LAJINHA - COMARCA; LAJINHA-PJ-SECRETARIA 9.043,46 4.521,73 0,00 3.396,15 0,00 0,00 16.961,34 1.536,08 2.346,45 0,00 3.882,53 13.078,81 2.661,35 754,37 31/12/2019
889 225500 FABIANE DE FATIMA PORTELLA ANALISTA DO MP ATIVO BELO HORIZONTE - COMARCA; BH-18PJ DIREITOS HUMANOS 17.452,52 5.235,76 0,00 4.164,83 0,00 0,00 26.853,11 2.495,71 4.683,60 0,00 7.179,31 19.673,80 1.550,00 0,00 31/12/2019
890 433800 FABIANE DINIZ MATTOS ANALISTA DO MP ATIVO BELO HORIZONTE - COMARCA; BH-23PJ INFRACIONAL-ASS JURIDICA 11.317,16 2.263,43 0,00 3.407,80 0,00 0,00 16.988,39 1.619,36 2.454,49 0,00 4.073,85 12.914,54 3.088,78 2.777,88 31/12/2019
891 455000 FABIANO CARVALHO DA SILVA ANALISTA DO MP ATIVO LAVRAS - COMARCA; COORD REG DO MA DA BACIA DO RIO GRANDE 9.337,87 933,79 0,00 2.361,32 0,00 0,00 12.632,98 1.129,88 1.644,63 0,00 2.774,51 9.858,47 1.550,00 0,00 31/12/2019
892 498800 FABIANO FURTADO PESSOA COELHO ANALISTA DO MP ATIVO BELO HORIZONTE - COMARCA; DIRETORIA DE REDES E BANCOS DE DADOS 9.337,87 933,79 0,00 2.413,46 0,00 0,00 12.685,12 1.129,88 1.592,49 0,00 2.722,37 9.962,75 1.550,00 0,00 31/12/2019
893 663000 FABIANO MARQUES CORREA ASSESSOR ATIVO BELO HORIZONTE - COMARCA; DIRETORIA DE SUPORTE E MANUTENCAO 0,00 0,00 4.763,08 2.063,86 0,00 0,00 6.826,94 1.166,28 566,34 0,00 1.732,62 5.094,32 1.550,00 0,00 31/12/2019
894 394600 FABIANO PALHARES SILVA ANALISTA DO MP ATIVO BELO HORIZONTE - COMARCA; CENTRAL DE APOIO TECN-SETOR DE MEIO AMBIENTE 11.685,57 2.337,11 0,00 2.958,29 0,00 0,00 16.980,97 1.591,12 2.510,56 0,00 4.101,68 12.879,29 1.550,00 835,55 31/12/2019
895 444400 FABIANO SARAIVA MEDEIROS ANALISTA DO MP ATIVO BETIM - COMARCA; BETIM-PJ-11PJ 10.279,98 2.056,00 0,00 2.616,12 0,00 0,00 14.952,10 1.509,25 2.045,60 0,00 3.554,85 11.397,25 2.319,39 2.616,69 31/12/2019
896 408700 FABIANO SOARES PORTILHO ANALISTA DO MP ATIVO VIÇOSA - COMARCA; VICOSA-PJ-02PJ 11.317,16 2.263,43 0,00 2.841,94 0,00 0,00 16.422,53 1.630,77 2.454,49 0,00 4.085,26 12.337,27 1.550,00 2.352,33 31/12/2019
897 442600 FABIO CARVALHO VIEIRA ANALISTA DO MP ATIVO MONTES CLAROS - COMARCA; MONTES CLAROS-PJ-06PJ 8.758,36 1.751,67 0,00 2.710,21 0,00 0,00 13.220,24 1.349,57 1.702,97 0,00 3.052,54 10.167,70 1.550,00 3.618,47 31/12/2019
898 240101 FABIO JUNQUEIRA DE ASSIS FONSECA OFICIAL DO MP ATIVO BELO HORIZONTE - COMARCA; BH-17PJ PATRIMONIO PUBLICO-SECRETARIA 6.665,41 1.333,08 0,00 2.031,14 0,00 0,00 10.029,63 907,58 1.088,27 0,00 1.995,85 8.033,78 1.550,00 476,73 31/12/2019
899 271500 FABIO LUIZ VIEIRA OFICIAL DO MP ATIVO SANTA VITÓRIA - COMARCA; SANTA VITORIA-PJ-UNPJ 9.337,87 2.801,36 0,00 3.113,53 0,00 0,00 15.252,76 1.418,19 1.997,44 0,00 3.415,63 11.837,13 1.703,34 1.423,85 31/12/2019
900 213100 FABIO PRATES GONCALVES ASSESSOR ATIVO BELO HORIZONTE - COMARCA; DIR RELACOES INSTITUCIONAIS 0,00 3.856,78 9.641,94 4.022,68 0,00 0,00 17.521,40 1.284,68 2.812,23 0,00 4.096,91 13.424,49 2.319,39 1.928,40 31/12/2019
901 436700 FABIO SANTIAGO DE CARVALHO OFICIAL DO MP ATIVO POÇO FUNDO - COMARCA; POCO FUNDO-PJ-UNPJ 7.106,49 1.421,30 0,00 2.463,34 0,00 0,00 10.991,13 965,17 1.217,82 0,00 2.182,99 8.808,14 1.550,00 465,73 31/12/2019
902 208400 FABIOLA DE SOUSA CARDOSO ASSESSOR/ANALISTA ATIVO BELO HORIZONTE - COMARCA; CGMP-ASSESSORIA JURIDICA 17.452,52 9.318,12 0,00 4.690,68 0,00 0,00 31.461,32 2.879,67 5.753,45 0,00 8.633,12 22.828,20 1.550,00 3.880,27 31/12/2019
903 392200 FABIOLA LEROY COSTA ANALISTA DO MP ATIVO ESMERALDAS - COMARCA; ESMERALDAS-PJ-01PJ 9.337,87 1.867,57 0,00 8.099,67 0,00 0,00 19.305,11 1.232,60 1.873,17 0,00 3.105,77 16.199,34 2.319,39 0,00 31/12/2019
904 409000 FABIOLA MONTEIRO DE CARVALHO CASTRO ANALISTA DO MP ATIVO BOM SUCESSO - COMARCA; BOM SUCESSO-PJ-UNPJ 9.955,90 1.991,18 0,00 2.793,04 0,00 0,00 14.740,12 1.355,62 2.054,69 0,00 3.410,31 11.329,81 1.550,00 712,06 31/12/2019
905 227900 FABIOLA PIMENTA DE CARVALHO OFICIAL DO MP ATIVO MONTES CLAROS - COMARCA; COORD REG BACIA RIOS VERDE GRANDE E PARDO 9.043,46 2.713,04 0,00 2.576,99 0,00 0,00 14.333,49 1.333,99 2.008,04 0,00 3.342,03 10.991,46 1.550,00 700,49 31/12/2019
906 525800 FABRICIA ALVES DANTAS OFICIAL DO MP ATIVO MONTES CLAROS - COMARCA; MONTES CLAROS-PJ-01PJ 6.054,65 605,47 0,00 1.941,02 0,00 0,00 8.601,14 755,71 656,43 0,00 1.412,14 7.189,00 1.550,00 396,96 31/12/2019
907 263400 FABRICIA PINTO TEIXEIRA SANTIAGO OFICIAL DO MP ATIVO BELO HORIZONTE - COMARCA; CAO-FUNDACOES-SECRETARIA 10.279,98 3.083,99 0,00 2.914,74 0,00 0,00 16.278,71 1.516,38 2.297,20 0,00 3.813,58 12.465,13 1.550,00 796,26 31/12/2019
908 420800 FABRICIO BERNARDES DE OLIVEIRA OFICIAL DO MP ATIVO ITURAMA - COMARCA; ITURAMA-PJ-02PJ 7.106,49 1.421,30 0,00 2.160,15 0,00 0,00 10.687,94 967,63 1.165,68 0,00 2.133,31 8.554,63 1.608,81 508,07 31/12/2019
909 474000 FABRICIO DE FREITAS SALES ANALISTA DO MP ATIVO MONTES CLAROS - COMARCA; COORD REG PATRI PUB ORD TRIB-NORTE MINAS 9.337,87 933,79 0,00 2.361,32 0,00 0,00 12.632,98 1.129,88 1.644,63 0,00 2.774,51 9.858,47 1.550,00 0,00 31/12/2019
910 510100 FABRICIO FURTADO ASSIS DO CARMO ANALISTA DO MP ATIVO BELO HORIZONTE - COMARCA; SERVICO MEDICO-DEPTO PERIC MEDICA SAUDE OCUP 9.337,87 933,79 0,00 2.562,36 0,00 0,00 12.834,02 1.129,88 1.890,34 0,00 3.020,22 9.813,80 2.319,39 893,50 31/12/2019
911 519600 FABRICIO GONTIJO SALVATI ANALISTA DO MP ATIVO JUIZ DE FORA - COMARCA; JUIZ DE FORA-CAO ESPECIALIZADO-SECRETARIA 9.337,87 933,79 0,00 2.361,32 0,00 0,00 12.632,98 1.233,41 1.644,63 0,00 2.878,04 9.754,94 1.550,00 1.778,91 31/12/2019
912 637400 FABRICIO HENRIQUE DA SILVA PASSOS ASSESSOR/ANALISTA ATIVO BELO HORIZONTE - COMARCA; DIR CRIACAO E MIDIAS 0,00 578,52 9.641,94 3.779,72 0,00 0,00 14.000,18 912,98 1.690,20 0,00 2.603,18 11.397,00 1.550,00 0,00 31/12/2019
913 428200 FABRICIO ORZIL VIANA ANALISTA DO MP ATIVO SANTA LUZIA - COMARCA; SANTA LUZIA-PJ-04PJ 9.337,87 1.867,57 0,00 4.049,84 0,00 0,00 15.255,28 1.232,60 1.873,17 0,00 3.105,77 12.149,51 1.550,00 0,00 31/12/2019
914 455600 FABRICIO PAIVA DA ROCHA ANALISTA DO MP ATIVO SÃO JOÃO DEL REI - COMARCA; SAO JOAO DEL REI-PJ-06PJ 9.337,87 933,79 0,00 2.413,46 0,00 0,00 12.685,12 1.129,88 1.592,49 0,00 2.722,37 9.962,75 2.319,39 0,00 31/12/2019
915 511500 FABRICIO RENE CARDOSO DE PADUA ANALISTA DO MP ATIVO SÃO SEBASTIÃO DO PARAÍSO - COMARCA; SAO SEBASTIAO DO PARAISO-PJ-03PJ 9.337,87 933,79 0,00 2.361,32 0,00 0,00 12.632,98 1.233,41 1.644,63 0,00 2.878,04 9.754,94 1.550,00 1.778,91 31/12/2019
916 496100 FABRICIO RESENDE GONCALVES OFICIAL DO MP ATIVO ENTRE-RIOS DE MINAS - COMARCA; ENTRE RIOS DE MINAS-PJ-UNPJ 6.054,65 605,47 0,00 5.166,80 0,00 0,00 11.826,92 755,71 760,71 0,00 1.516,42 10.310,50 2.319,39 396,96 31/12/2019
917 650300 FABRICIO ROBERTO AZEVEDO OFICIAL DO MP ATIVO NOVA SERRANA - COMARCA; NOVA SERRANA-PJ-04PJ 3.569,91 214,19 0,00 1.432,51 0,00 0,00 5.216,61 428,63 150,38 0,00 579,01 4.637,60 1.550,00 212,70 31/12/2019
918 514900 FADUA MARIA DRUMOND CHEQUER FIGUEIREDO ANALISTA DO MP ATIVO CONTAGEM - COMARCA; CONTAGEM-PJ-01PJ 9.337,87 933,79 0,00 3.800,71 0,00 0,00 14.072,37 1.233,41 1.540,36 0,00 2.773,77 11.298,60 3.088,78 1.778,91 31/12/2019
919 282500 FANNY FERREIRA MELO FAVERO DE FRAVET OFICIAL DO MP ATIVO ARAXÁ - COMARCA; ARAXA-PJ-03PJ 7.823,48 2.347,04 0,00 2.346,63 0,00 0,00 12.517,15 1.118,76 1.619,87 0,00 2.738,63 9.778,52 1.550,00 0,00 31/12/2019
920 540100 FATIMA CRISTINA POVOA DA COSTA ASSESSOR/OFICIAL ATIVO BELO HORIZONTE - COMARCA; BH-18PJ VIOLENCIA DOMESTICA-SECRETARIA 0,00 2.892,58 9.641,94 3.149,17 0,00 736,91 16.420,60 736,91 2.577,63 0,00 3.314,54 13.106,06 1.550,00 1.187,41 31/12/2019
921 382800 FATIMA DE OLIVEIRA COELHO E SILVA OFICIAL DO MP ATIVO BELO HORIZONTE - COMARCA; DIRETORIA DE ADMINISTRACAO FINANCEIRA 6.054,65 1.816,40 0,00 2.188,88 0,00 0,00 10.059,93 893,12 1.004,94 0,00 1.898,06 8.161,87 1.550,00 469,14 31/12/2019
922 398601 FELIPE ANTONIO HORTA DE PAULA ANALISTA DO MP ATIVO BELO HORIZONTE - COMARCA; PROC. JUSTICA DIR. DIFUSOS E COLETIVOS-SEC 7.823,48 782,35 0,00 2.255,05 0,00 0,00 10.860,88 976,49 1.236,92 0,00 2.213,41 8.647,47 1.550,00 603,39 31/12/2019
923 430900 FELIPE BOY VIEIRA ANALISTA DO MP ATIVO BELO HORIZONTE - COMARCA; DIRETORIA DE SEGURANCA 10.279,98 2.056,00 0,00 2.855,61 0,00 0,00 15.191,59 1.396,17 2.149,87 0,00 3.546,04 11.645,55 1.550,00 673,77 31/12/2019
924 631700 FELIPE DE MORAIS SIMOES COELHO ANALISTA DO MP ATIVO BELO HORIZONTE - COMARCA; BH-18PJ VIOLENCIA DOMESTICA 6.251,74 625,17 0,00 1.831,91 0,00 0,00 8.708,82 806,95 813,76 0,00 1.620,71 7.088,11 1.550,00 867,49 31/12/2019
925 549100 FELIPE FERNANDES ALVIM ANALISTA DO MP ATIVO LAJINHA - COMARCA; LAJINHA-PJ-UNPJ 7.823,48 782,35 0,00 2.255,05 0,00 0,00 10.860,88 976,49 1.236,92 0,00 2.213,41 8.647,47 1.550,00 512,93 31/12/2019
926 487300 FELIPE FERNANDES SILVEIRA ASSESSOR ATIVO BELO HORIZONTE - COMARCA; DIVISAO DE MANUTENCAO PREDIAL 0,00 0,00 2.852,73 2.800,83 0,00 0,00 5.653,56 691,55 172,89 0,00 864,44 4.789,12 1.550,00 0,00 31/12/2019
927 620100 FELIPE GOMES DE AZEVEDO ASSESSOR/OFICIAL ATIVO BELO HORIZONTE - COMARCA; DIVISAO DE SERVICOS 0,00 757,68 7.576,76 4.369,16 0,00 0,00 12.703,60 588,31 1.273,95 0,00 1.862,26 10.841,34 1.550,00 820,30 31/12/2019
928 601600 FELIPE RODRIGUES DE SIQUEIRA ANALISTA DO MP ATIVO BELO HORIZONTE - COMARCA; BH-02PJ FAMILIA 7.823,48 782,35 0,00 2.255,05 0,00 0,00 10.860,88 976,49 1.236,92 0,00 2.213,41 8.647,47 1.550,00 906,86 31/12/2019
929 628900 FELIX FERNANDO JUNIO VIEIRA ANALISTA DO MP ATIVO CAETÉ - COMARCA; CAETE-PJ-02PJ 7.576,76 757,68 0,00 3.484,86 0,00 0,00 11.819,30 997,74 1.118,36 0,00 2.116,10 9.703,20 1.550,00 1.390,95 31/12/2019
930 544500 FELLIPE LEMOS MARCONDES BUENO ANALISTA DO MP ATIVO SÃO SEBASTIÃO DO PARAÍSO - COMARCA; SAO SEBASTIAO DO PARAISO-PJ-04PJ 7.823,48 782,35 0,00 2.255,05 0,00 0,00 10.860,88 976,49 1.236,92 0,00 2.213,41 8.647,47 1.550,00 603,39 31/12/2019
931 612600 FERNANDA ADRIANA DE PAULA GUIDO ANALISTA DO MP ATIVO PARACATU - COMARCA; PARACATU-PJ-02PJ 7.576,76 757,68 0,00 6.247,16 0,00 0,00 14.581,60 997,74 1.170,49 0,00 2.168,23 12.413,37 2.319,39 1.390,95 31/12/2019
932 508400 FERNANDA AGANETTI MATTOS DE OLIVEIRA ANALISTA DO MP ATIVO BELO HORIZONTE - COMARCA; BH-07PJ 02 TRIBUNAL DO JURI 9.337,87 933,79 0,00 2.361,32 0,00 0,00 12.632,98 1.233,41 1.644,63 0,00 2.878,04 9.754,94 2.319,39 1.778,91 31/12/2019
933 453600 FERNANDA ALBERNAZ RABELO ANALISTA DO MP ATIVO BELO HORIZONTE - COMARCA; GABINETE DE PROCURADOR DE JUSTIÇA - SALA 616 9.337,87 933,79 0,00 2.361,32 0,00 0,00 12.632,98 1.129,88 1.644,63 0,00 2.774,51 9.858,47 1.550,00 0,00 31/12/2019
934 255600 FERNANDA ALINA DE ALMEIDA ANDRADE OFICIAL DO MP ATIVO BELO HORIZONTE - COMARCA; LABORATORIO TECNOLOGIA INTELIGENCIA 8.482,22 2.544,67 0,00 2.644,90 0,00 0,00 13.671,79 1.251,22 1.829,47 0,00 3.080,69 10.591,10 1.550,00 657,30 31/12/2019
935 443200 FERNANDA ALMEIDA LOPES ANALISTA DO MP ATIVO CONTAGEM - COMARCA; CONTAGEM-PJ-23PJ 11.317,16 2.263,43 0,00 4.082,52 0,00 0,00 17.663,11 1.619,36 2.350,22 0,00 3.969,58 13.693,53 3.088,78 2.156,30 31/12/2019
936 281100 FERNANDA ANANIAS MEIRA ANALISTA DO MP ATIVO BELO HORIZONTE - COMARCA; BH-23PJ INFRACIONAL-ASS JURIDICA 14.162,21 4.248,66 0,00 3.833,68 0,00 0,00 22.244,55 2.089,03 3.636,70 0,00 5.725,73 16.518,82 1.550,00 1.095,30 31/12/2019
937 539000 FERNANDA BARBOSA ALVES ANALISTA DO MP ATIVO UBERABA - COMARCA; UBERABA-PJ-04PJ 7.823,48 782,35 0,00 2.255,05 0,00 0,00 10.860,88 976,49 1.236,92 0,00 2.213,41 8.647,47 2.319,39 512,93 31/12/2019
938 451200 FERNANDA BLOISE PRADO OFICIAL DO MP ATIVO BELO HORIZONTE - COMARCA; DIVISAO DE MATERIAIS 6.665,41 666,54 0,00 1.934,32 0,00 0,00 9.266,27 831,94 925,14 0,00 1.757,08 7.509,19 1.550,00 437,01 31/12/2019
939 427900 FERNANDA BRAGA CARNEIRO BICALHO ANALISTA DO MP ATIVO PEÇANHA - COMARCA; PECANHA-PJ-SECRETARIA 9.337,87 1.867,57 0,00 2.549,09 0,00 0,00 13.754,53 1.232,60 1.821,03 0,00 3.053,63 10.700,90 2.319,39 0,00 31/12/2019
940 507100 FERNANDA CABRINI VAZ MOTA ANALISTA DO MP ATIVO BELO HORIZONTE - COMARCA; BH-14PJ DEFESA CONSUMIDOR-GAB 005PJ 9.337,87 933,79 0,00 2.361,32 0,00 0,00 12.632,98 1.129,88 1.644,63 0,00 2.774,51 9.858,47 2.319,39 0,00 31/12/2019
941 259800 FERNANDA CALZAVARA DE SOUSA COORDENADOR/OFICIAL ATIVO BELO HORIZONTE - COMARCA; DIRET DE FORMACAO, APERFEIC. E POS-GRADUACAO 0,00 3.737,65 12.458,83 3.453,59 0,00 0,00 19.650,07 1.516,38 3.115,53 0,00 4.631,91 15.018,16 2.319,39 0,00 31/12/2019
942 494400 FERNANDA CAMPOS BARATA OFICIAL DO MP ATIVO JUIZ DE FORA - COMARCA; JUIZ DE FORA-PJ-08PJ 5.158,42 515,84 0,00 1.783,03 0,00 0,00 7.457,29 643,86 519,41 0,00 1.163,27 6.294,02 1.550,00 338,25 31/12/2019
943 555600 FERNANDA CAROLINE RIBEIRO ASSESSOR/ANALISTA ATIVO BELO HORIZONTE - COMARCA; DIRETORIA GESTAO CONTRATOS CONVENIOS 0,00 964,19 9.641,94 2.539,57 0,00 0,00 13.145,70 976,49 1.778,79 0,00 2.755,28 10.390,42 1.550,00 0,00 31/12/2019
944 294500 FERNANDA COSTA FLORES OFICIAL DO MP ATIVO PARÁ DE MINAS - COMARCA; PARA DE MINAS-PJ-04PJ 9.337,87 2.801,36 0,00 2.823,94 0,00 0,00 14.963,17 1.374,18 2.101,72 0,00 3.475,90 11.487,27 1.550,00 667,72 31/12/2019
945 344500 FERNANDA CRISTINA DE SOUZA PAZ ASSESSOR ATIVO BELO HORIZONTE - COMARCA; CENTRAL DE APOIO TECN-SETOR DE MEIO AMBIENTE 0,00 0,00 4.763,08 2.149,18 0,00 0,00 6.912,26 1.166,28 462,07 0,00 1.628,35 5.283,91 1.550,00 0,00 31/12/2019
946 538100 FERNANDA CRISTINA DOS SANTOS ROSA MOREIRA OFICIAL DO MP ATIVO RIBEIRÃO DAS NEVES - COMARCA; RIBEIRAO DAS NEVES-PJ-09PJ 4.995,72 1.498,72 0,00 5.059,90 0,00 0,00 11.554,34 736,91 720,15 0,00 1.457,06 10.097,28 1.550,00 384,84 31/12/2019
947 337800 FERNANDA CRISTINA ROLAND CLIMACO MENDES COORDENADOR/OFICIAL ATIVO BELO HORIZONTE - COMARCA; DIRETORIA DE PAGAMENTO DE PESSOAL-DPAG 0,00 2.491,77 12.458,83 3.087,91 0,00 0,00 18.038,51 1.495,34 2.830,84 0,00 4.326,18 13.712,33 1.550,00 0,00 31/12/2019
948 545400 FERNANDA CUNHA GUIMARAES ANALISTA DO MP ATIVO BELO HORIZONTE - COMARCA; EXTINTA-COORD EST DEF DIR FAM PES DEFIC IDOSO 7.823,48 782,35 0,00 2.255,05 0,00 0,00 10.860,88 976,49 1.236,92 0,00 2.213,41 8.647,47 1.550,00 512,93 31/12/2019
949 429801 FERNANDA CUNHA PINHEIRO DA SILVA ANALISTA DO MP ATIVO BELO HORIZONTE - COMARCA; ASSESSORIA DE COMUNICACAO INTEGRADA 9.337,87 933,79 0,00 3.774,65 0,00 0,00 14.046,31 1.233,41 1.592,49 0,00 2.825,90 11.220,41 1.550,00 1.778,91 31/12/2019
950 408000 FERNANDA DAS NEVES RAMOS ANALISTA DO MP ATIVO BELO HORIZONTE - COMARCA; CENTRAL DE APOIO TECNICO-SETOR CONTABIL 11.317,16 2.263,43 0,00 2.841,94 0,00 0,00 16.422,53 1.630,77 2.454,49 0,00 4.085,26 12.337,27 2.319,39 2.352,33 31/12/2019
951 496000 FERNANDA DE ALMEIDA VIANA ANALISTA DO MP ATIVO BELO HORIZONTE - COMARCA; PROC JUST RECURSOS ESP E EXTRAORD CRIMINAIS 9.337,87 933,79 0,00 2.413,46 0,00 0,00 12.685,12 1.129,88 1.592,49 0,00 2.722,37 9.962,75 2.319,39 0,00 31/12/2019
952 266700 FERNANDA DE CASTRO LUCAS COORDENADOR/OFICIAL ATIVO BELO HORIZONTE - COMARCA; DIRET DE DESENV DE RECURSOS HUMANOS-DDRH 0,00 3.737,65 12.458,83 3.410,33 0,00 0,00 19.606,81 1.559,64 3.103,63 0,00 4.663,27 14.943,54 2.319,39 0,00 31/12/2019
953 433200 FERNANDA DE FIGUEIREDO NORTE ANALISTA DO MP ATIVO BELO HORIZONTE - COMARCA; ASSESS JUR DO CONS SUPERIOR DO MINISTERIO PUB 11.317,16 2.263,43 0,00 3.512,07 0,00 0,00 17.092,66 1.619,36 2.350,22 0,00 3.969,58 13.123,08 2.319,39 2.156,30 31/12/2019
954 419200 FERNANDA DE MIRANDA MARTINS SIMOES ANALISTA DO MP ATIVO UBERLÂNDIA - COMARCA; UBERLANDIA-PJ-11PJ 11.685,57 2.337,11 0,00 3.127,20 0,00 0,00 17.149,88 1.591,12 2.562,69 0,00 4.153,81 12.996,07 2.319,39 868,34 31/12/2019
955 441400 FERNANDA DE MORAIS PINTO ANALISTA DO MP ATIVO BELO HORIZONTE - COMARCA; PROC. JUSTICA DIR. DIFUSOS E COLETIVOS-SEC 10.279,98 2.056,00 0,00 3.175,16 0,00 0,00 15.511,14 1.396,17 2.149,87 0,00 3.546,04 11.965,10 1.550,00 673,77 31/12/2019
956 432200 FERNANDA DE MOURA GUIMARAES ANALISTA DO MP ATIVO BELO HORIZONTE - COMARCA; ASSESS TECNICO-JUR JUNTO AS PROC. DE JUST 11.317,16 2.263,43 0,00 3.978,25 0,00 0,00 17.558,84 1.619,36 2.454,49 0,00 4.073,85 13.484,99 2.319,39 2.156,30 31/12/2019
957 461800 FERNANDA DE OLIVEIRA SANTOS ANALISTA DO MP ATIVO JUIZ DE FORA - COMARCA; JUIZ DE FORA-PJ-21PJ 9.337,87 933,79 0,00 2.361,32 0,00 0,00 12.632,98 1.129,88 1.644,63 0,00 2.774,51 9.858,47 3.088,78 0,00 31/12/2019
958 432500 FERNANDA DE PAULA PINTO ANALISTA DO MP ATIVO BELO HORIZONTE - COMARCA; PROC JUST RECURSOS ESP E EXTRAORD CRIMINAIS 10.279,98 2.056,00 0,00 3.175,16 0,00 0,00 15.511,14 1.396,17 2.149,87 0,00 3.546,04 11.965,10 1.550,00 673,77 31/12/2019
959 431600 FERNANDA DIAS BARBOSA PEREIRA ANALISTA DO MP ATIVO OURO BRANCO - COMARCA; OURO BRANCO-PJ-UNPJ 11.317,16 2.263,43 0,00 9.736,51 0,00 0,00 23.317,10 1.619,36 2.350,22 0,00 3.969,58 19.347,52 2.319,39 2.156,30 31/12/2019
960 162200 FERNANDA FERNANDES MONTEIRO ASSESSOR ATIVO BELO HORIZONTE - COMARCA; BH-12PJ JUIZO CRIMINAL-SECRETARIA 0,00 1.905,23 4.763,08 2.598,51 0,00 0,00 9.266,82 1.284,68 1.038,14 0,00 2.322,82 6.944,00 1.550,00 0,00 31/12/2019
961 512800 FERNANDA FERREIRA BARBOSA MOREIRA ANALISTA DO MP ATIVO IPATINGA - COMARCA; IPATINGA-PJ-01PJ 9.337,87 933,79 0,00 2.361,32 0,00 0,00 12.632,98 1.233,41 1.644,63 0,00 2.878,04 9.754,94 2.319,39 1.778,91 31/12/2019
962 329200 FERNANDA GABRIEL GUZELLA OFICIAL DO MP ATIVO BELO HORIZONTE - COMARCA; DIRET DE PLANOS PROJETOS E PROGRAMAS INST 8.758,36 1.751,67 0,00 2.877,56 0,00 0,00 13.387,59 1.262,06 1.702,97 0,00 2.965,03 10.422,56 1.550,00 1.820,52 31/12/2019
963 324200 FERNANDA GEORGIA NEVES ZAHAN OFICIAL DO MP ATIVO IPANEMA - COMARCA; IPANEMA-PJ-SECRETARIA 7.823,48 5.476,44 0,00 3.410,61 0,00 0,00 16.710,53 1.597,07 2.385,80 0,00 3.982,87 12.727,66 1.550,00 2.303,70 31/12/2019
964 548200 FERNANDA GONCALVES DE CARVALHO ZUZA OFICIAL DO MP ATIVO TUPACIGUARA - COMARCA; TUPACIGUARA-PJ-01PJ 4.612,94 461,29 0,00 1.678,96 0,00 0,00 6.753,19 575,77 379,98 0,00 955,75 5.797,44 1.550,00 302,40 31/12/2019
965 355400 FERNANDA HELENA BASQUES OFICIAL DO MP ATIVO SABARÁ - COMARCA; SABARA-PJ-01PJ 8.214,70 1.642,94 0,00 2.456,60 0,00 0,00 12.314,24 1.118,53 1.543,30 0,00 2.661,83 9.652,41 1.550,00 587,51 31/12/2019
966 454800 FERNANDA IATAROLA BARBOSA DIAS ANALISTA DO MP ATIVO BARBACENA - COMARCA; BARBACENA-PJ-05PJ 9.337,87 933,79 0,00 2.413,46 0,00 0,00 12.685,12 1.129,88 1.592,49 0,00 2.722,37 9.962,75 1.550,00 0,00 31/12/2019
967 515500 FERNANDA LILIANE MARUGEIRO ANALISTA DO MP ATIVO BELO HORIZONTE - COMARCA; BH-18PJ VIOLENCIA DOMESTICA-SECRETARIA 9.337,87 933,79 0,00 2.413,46 0,00 0,00 12.685,12 1.233,41 1.592,49 0,00 2.825,90 9.859,22 2.319,39 1.778,91 31/12/2019
968 392900 FERNANDA MAGALHAES SILVA ANALISTA DO MP ATIVO BELO HORIZONTE - COMARCA; DIR CONTEUDO JORNALISTICO 12.065,98 2.413,20 0,00 3.200,71 0,00 0,00 17.679,89 1.642,92 2.674,42 0,00 4.317,34 13.362,55 1.550,00 862,77 31/12/2019
969 409200 FERNANDA MAIA SANTIAGO CARDOSO ANALISTA DO MP ATIVO PIRAPORA - COMARCA; PIRAPORA-PJ-02PJ 9.043,46 1.808,69 0,00 2.445,63 0,00 0,00 13.297,78 1.231,37 1.786,70 0,00 3.018,07 10.279,71 3.088,78 646,61 31/12/2019
970 556500 FERNANDA OTERO COSTA ANALISTA DO MP ATIVO BELO HORIZONTE - COMARCA; ASSESS TECNICO-JUR JUNTO AS PROC. DE JUST 8.482,22 848,22 0,00 2.371,74 3.110,15 0,00 14.812,33 1.058,72 2.269,56 0,00 3.328,28 11.484,05 1.550,00 556,17 31/12/2019
971 615300 FERNANDA PATRICIA RIBEIRO MOTA OFICIAL DO MP ATIVO UBERABA - COMARCA; UBERABA-PJ-05PJ 4.467,49 446,75 0,00 1.793,80 0,00 0,00 6.708,04 588,31 347,95 0,00 936,26 5.771,78 1.550,00 820,30 31/12/2019
972 619800 FERNANDA PINTO PEREIRA ANALISTA DO MP ATIVO UBERLÂNDIA - COMARCA; UBERLANDIA-PJ-20PJ 7.576,76 757,68 0,00 2.651,58 0,00 0,00 10.986,02 997,74 1.118,36 0,00 2.116,10 8.869,92 2.319,39 1.390,95 31/12/2019
973 412900 FERNANDA PORTELA ROSA ANALISTA DO MP ATIVO BELO HORIZONTE - COMARCA; BH-08PJ JUIZADO ESPECIAL-SECRETARIA 11.685,57 2.337,11 0,00 5.101,38 0,00 0,00 19.124,06 1.591,12 2.562,69 0,00 4.153,81 14.970,25 2.319,39 1.477,42 31/12/2019
974 274301 FERNANDA QUEIROZ PARREIRA ANALISTA DO MP ATIVO PATOS DE MINAS - COMARCA; COORD REG PJ DEF EDU DIR CRI ADO AL PAR NOROE 9.244,12 933,79 0,00 2.361,32 0,00 0,00 12.539,23 1.129,88 1.618,85 0,00 2.748,73 9.790,50 1.550,00 0,00 31/12/2019
975 467900 FERNANDA QUEIROZ SIMOES GANNAM ANALISTA DO MP ATIVO SÃO LOURENÇO - COMARCA; SAO LOURENCO-PJ-02PJ 9.337,87 933,79 0,00 2.413,46 0,00 0,00 12.685,12 1.129,88 1.592,49 0,00 2.722,37 9.962,75 2.319,39 0,00 31/12/2019
976 255500 FERNANDA SIMOES LOPES MENDES ANALISTA DO MP ATIVO BELO HORIZONTE - COMARCA; BH-17PJ PATRIMONIO PUBLICO-SECRETARIA 16.148,50 4.844,55 0,00 4.422,58 0,00 0,00 25.415,63 2.397,18 4.164,41 0,00 6.561,59 18.854,04 1.550,00 1.510,88 31/12/2019
977 481700 FERNANDA VIANA FROES DA SILVA OFICIAL DO MP ATIVO GOVERNADOR VALADARES - COMARCA; GOVERNADOR VALADARES-PJ-09PJ 6.882,47 688,25 0,00 2.315,91 0,00 0,00 9.886,63 909,10 983,57 0,00 1.892,67 7.993,96 1.550,00 1.542,55 31/12/2019
978 123900 FERNANDO ANTONIO FARIA DE ABREU DIRETOR/ANALISTA ATIVO BELO HORIZONTE - COMARCA; SUPERINTENDÊNCIA DE ENGENHARIA E ARQUITETURA 24.547,70 26.614,51 0,00 8.848,36 0,00 3.900,84 63.911,41 3.900,84 8.882,75 15.699,99 28.483,58 35.427,83 1.550,00 0,00 31/12/2019
979 416900 FERNANDO APARECIDO DA SILVA ANALISTA DO MP ATIVO BOM DESPACHO - COMARCA; BOM DESPACHO-PJ-02PJ 11.317,16 7.922,02 0,00 5.677,73 0,00 0,00 24.916,91 2.287,44 3.735,15 0,00 6.022,59 18.894,32 1.550,00 2.940,41 31/12/2019
980 380500 FERNANDO BONES COSTA OFICIAL DO MP ATIVO BELO HORIZONTE - COMARCA; DIVISAO DE MATERIAIS 5.678,79 1.135,76 0,00 2.633,22 0,00 0,00 9.447,77 749,60 798,50 0,00 1.548,10 7.899,67 1.550,00 0,00 31/12/2019
981 500100 FERNANDO CEZAR PINTO OFICIAL DO MP ATIVO SANTA LUZIA - COMARCA; SANTA LUZIA-PJ-04PJ 6.251,74 625,17 0,00 821,86 0,00 0,00 7.698,77 780,31 755,07 0,00 1.535,38 6.163,39 1.550,00 0,00 31/12/2019
982 346100 FERNANDO EUSTAQUIO CAMPOS UTSCH MOREIRA ANALISTA DO MP ATIVO BELO HORIZONTE - COMARCA; DIRETORIA DE SISTEMAS DE INFORMACAO 13.715,83 2.743,17 0,00 3.623,82 0,00 0,00 20.082,82 1.867,59 3.054,71 0,00 4.922,30 15.160,52 1.550,00 981,00 31/12/2019
983 103500 FERNANDO LUIZ DA SILVA JUNIOR OFICIAL DO MP ATIVO BELO HORIZONTE - COMARCA; DIVISAO DE ATENDIMENTO E CONSULTA JURIDICA 17.452,52 8.726,26 0,00 4.671,82 0,00 0,00 30.850,60 2.879,67 5.537,90 0,00 8.417,57 22.433,03 1.550,00 0,00 31/12/2019
984 287300 FERNANDO MARCIO ALVES MARTINS OFICIAL DO MP ATIVO LEOPOLDINA - COMARCA; LEOPOLDINA-PJ-01PJ 7.106,49 2.131,95 0,00 2.367,65 0,00 0,00 11.606,09 1.048,27 1.235,34 0,00 2.283,61 9.322,48 1.550,00 550,42 31/12/2019
985 262200 FERNANDO MARCIO RESENDE PEREIRA OFICIAL DO MP ATIVO BELO HORIZONTE - COMARCA; DIR ESTRUTURA E PROCESSOS ORGANIZACIONAIS 9.337,87 2.801,36 0,00 3.009,25 0,00 0,00 15.148,48 1.418,19 2.101,72 0,00 3.519,91 11.628,57 1.550,00 1.423,85 31/12/2019
986 472900 FERNANDO RODRIGUES DE FREITAS ANALISTA DO MP ATIVO BELO HORIZONTE - COMARCA; BH-15PJ M AMB PAT HIST CULT-ASS TECNICA 9.337,87 933,79 0,00 2.361,32 0,00 0,00 12.632,98 1.129,88 1.644,63 0,00 2.774,51 9.858,47 1.550,00 0,00 31/12/2019
987 421400 FERNANDO TEODORO MACIEL ANALISTA DO MP ATIVO SANTA VITÓRIA - COMARCA; SANTA VITORIA-PJ-UNPJ 9.955,90 1.991,18 0,00 2.897,32 0,00 0,00 14.844,40 1.355,62 1.950,41 0,00 3.306,03 11.538,37 2.319,39 740,00 31/12/2019
988 446300 FERNANDO VITOR DE OLIVEIRA ANALISTA DO MP ATIVO MONTES CLAROS - COMARCA; COORD REG BACIA RIOS VERDE GRANDE E PARDO 11.317,16 2.263,43 0,00 3.248,01 0,00 0,00 16.828,60 1.743,85 2.454,49 0,00 4.198,34 12.630,26 2.138,49 4.345,05 31/12/2019
989 639300 FILIPE ALMEIDA RODRIGUES ANALISTA DO MP ATIVO TIMÓTEO - COMARCA; TIMOTEO-PJ-04PJ 6.882,47 412,95 0,00 2.044,06 0,00 0,00 9.339,48 827,81 916,19 0,00 1.744,00 7.595,48 1.550,00 434,85 31/12/2019
990 398400 FLAVIA ALVARES GUIMARAES COORDENADOR/OFICIAL ATIVO BELO HORIZONTE - COMARCA; EXTINTA-CGMP-DIV APOIO FISC ORIENT FUNCIONAL 0,00 2.192,05 10.960,26 3.064,02 0,00 0,00 16.216,33 1.091,78 2.395,15 0,00 3.486,93 12.729,40 1.550,00 0,00 31/12/2019
991 398200 FLAVIA ALVES DE ASSUNCAO RODRIGUES ANALISTA DO MP ATIVO DIVINÓPOLIS - COMARCA; COORD REG DO MA DA BACIA DO ALTO SAO FRANC 11.317,16 2.263,43 0,00 9.684,38 0,00 0,00 23.264,97 1.630,77 2.402,35 0,00 4.033,12 19.231,85 2.319,39 2.352,33 31/12/2019
992 318500 FLAVIA BEATRIZ NUNES CRUZ VIEIRA ANALISTA DO MP ATIVO BARBACENA - COMARCA; BARBACENA-PJ-SECRETARIA 13.715,83 4.114,75 0,00 3.364,30 0,00 0,00 21.194,88 2.169,33 3.390,40 0,00 5.559,73 15.635,15 2.319,39 3.573,29 31/12/2019
993 496500 FLAVIA CARAM BORLIDO ANALISTA DO MP ATIVO BELO HORIZONTE - COMARCA; DIRETORIA GESTAO CONTRATOS CONVENIOS 9.955,90 995,59 0,00 3.967,90 0,00 0,00 14.919,39 1.242,65 1.811,02 0,00 3.053,67 11.865,72 1.550,00 652,73 31/12/2019
994 534800 FLAVIA CONDE SOARES ANALISTA DO MP ATIVO BELO HORIZONTE - COMARCA; BH-13PJ JUÍZO DE TÓXICOS-ASSESSORIA JURIDICA 7.823,48 782,35 0,00 2.255,05 0,00 0,00 10.860,88 976,49 1.236,92 0,00 2.213,41 8.647,47 1.550,00 512,93 31/12/2019
995 219500 FLAVIA CRISTINA ANCELMO OFICIAL DO MP ATIVO BELO HORIZONTE - COMARCA; CAO-DH CONT EXT ATIV POLIC E AP COMUNIT 8.758,36 2.627,51 0,00 2.523,15 0,00 0,00 13.909,02 1.291,94 1.917,33 0,00 3.209,27 10.699,75 1.550,00 678,47 31/12/2019
996 329600 FLAVIA CRISTINA DE MATOS XAVIER ANALISTA DO MP ATIVO UBERABA - COMARCA; UBERABA-PJ-15PJ 13.715,83 4.114,75 0,00 3.563,53 0,00 0,00 21.394,11 2.023,21 3.390,40 0,00 5.413,61 15.980,50 1.550,00 1.062,75 31/12/2019
997 207600 FLAVIA DE ANDRADE MANCINI ANALISTA DO MP ATIVO BELO HORIZONTE - COMARCA; ASSESSORIA JURIDICO-ADMINISTRATIVA 17.452,52 6.981,01 0,00 4.321,24 0,00 0,00 28.754,77 2.879,67 4.954,33 0,00 7.834,00 20.920,77 1.550,00 3.880,27 31/12/2019
998 402801 FLAVIA MARIA DE RESENDE NASCIMENTO ANALISTA DO MP ATIVO SÃO JOÃO DEL REI - COMARCA; SAO JOAO DEL REI-PJ-04PJ 9.337,87 933,79 0,00 2.361,32 0,00 0,00 12.632,98 1.233,41 1.644,63 0,00 2.878,04 9.754,94 2.319,39 1.778,91 31/12/2019
999 437500 FLAVIA MARIA TORRES MARCHETTI ANALISTA DO MP ATIVO BELO HORIZONTE - COMARCA; BH-18PJ VIOLENCIA DOMESTICA 9.641,94 1.928,39 0,00 3.136,32 0,00 0,00 14.706,65 1.309,53 1.858,20 0,00 3.167,73 11.538,92 3.088,78 632,17 31/12/2019
1000 386000 FLAVIA NEVES BRIGIDO ASSESSOR/OFICIAL ATIVO BELO HORIZONTE - COMARCA; PROMOT ESTADUAL DE DEF PATRI CULT E TUR DE MG 0,00 1.928,39 9.641,94 2.655,93 0,00 0,00 14.226,26 1.091,78 2.012,24 0,00 3.104,02 11.122,24 1.550,00 0,00 31/12/2019
1001 488600 FLAVIA PEREIRA COSTA ANALISTA DO MP ATIVO BELO HORIZONTE - COMARCA; CENTRAL DE APOIO TECNICO 9.337,87 933,79 0,00 2.361,32 0,00 0,00 12.632,98 1.129,88 1.644,63 0,00 2.774,51 9.858,47 2.319,39 0,00 31/12/2019
1002 365400 FLAVIA PEREIRA DA SILVA AMARAL OFICIAL DO MP ATIVO BELO HORIZONTE - COMARCA; BH-15PJ M AMB PAT HIST CULT-GAB 115PJ 7.955,66 1.591,13 0,00 2.256,02 0,00 0,00 11.802,81 1.067,60 1.467,22 0,00 2.534,82 9.267,99 1.550,00 299,79 31/12/2019
1003 515400 FLAVIA RODRIGUES DE OLIVEIRA E SILVA PAIVA ANALISTA DO MP ATIVO CARATINGA - COMARCA; CARATINGA-PJ-05PJ 9.337,87 933,79 0,00 3.826,78 0,00 0,00 14.098,44 1.233,41 1.488,22 0,00 2.721,63 11.376,81 1.550,00 1.778,91 31/12/2019
1004 621600 FLAVIA SARMENTO RODRIGUES ANALISTA DO MP ATIVO BELO HORIZONTE - COMARCA; DIV FISCAL ADM CONT TERCEIRIZACAO 7.576,76 757,68 0,00 3.458,80 0,00 0,00 11.793,24 997,74 1.170,49 0,00 2.168,23 9.625,01 1.550,00 1.390,95 31/12/2019
1005 535800 FLAVIA SILVA VALADAO OFICIAL DO MP ATIVO TRÊS CORACOES - COMARCA; TRES CORACOES-PJ-04PJ 4.612,94 461,29 0,00 1.721,61 1.691,41 0,00 8.487,25 575,77 785,56 0,00 1.361,33 7.125,92 1.550,00 302,40 31/12/2019
1006 515300 FLAVIA VIEIRA OLIVEIRA GOMES ANALISTA DO MP ATIVO BELO HORIZONTE - COMARCA; ASSESS TECNICO-JUR JUNTO AS PROC. DE JUST 9.337,87 933,79 0,00 2.361,32 0,00 0,00 12.632,98 1.233,41 1.644,63 0,00 2.878,04 9.754,94 1.926,49 1.778,91 31/12/2019
1007 377500 FLAVIANA GONCALVES DE OLIVEIRA ANALISTA DO MP ATIVO IPATINGA - COMARCA; IPATINGA-PJ-02PJ 11.685,57 2.337,11 0,00 2.906,16 0,00 0,00 16.928,84 1.591,12 2.562,69 0,00 4.153,81 12.775,03 1.550,00 835,55 31/12/2019
1008 273100 FLAVIANE DOS SANTOS CASTRO OFICIAL DO MP ATIVO CAXAMBU - COMARCA; CAXAMBU-PJ-SECRETARIA 9.337,87 2.801,36 0,00 4.646,29 0,00 0,00 16.785,52 1.418,19 1.997,44 0,00 3.415,63 13.369,89 1.550,00 1.423,85 31/12/2019
1009 310600 FLAVIANE NAVES ALCANTARA OFICIAL DO MP ATIVO BELO HORIZONTE - COMARCA; PROC JUST ESP ACOES COMP ORIG CRIMINAL-SEC 9.955,90 2.986,77 0,00 2.953,36 0,00 0,00 15.896,03 1.465,13 2.298,36 0,00 3.763,49 12.132,54 2.319,39 712,06 31/12/2019
1010 378201 FLAVIANE RIBEIRO BORGES FERNANDES OFICIAL DO MP ATIVO SÃO GONÇALO DO SAPUCAÍ - COMARCA; SAO GONCALO DO SAPUCAI-PJ-02PJ 5.158,42 515,84 0,00 4.530,68 0,00 0,00 10.204,94 672,01 519,41 0,00 1.191,42 9.013,52 1.550,00 821,90 31/12/2019
1011 455800 FLAVIO ANTONIO RIBEIRO OFICIAL DO MP ATIVO BELO HORIZONTE - COMARCA; GRUPO ESP PROM JUST DEF PROB ADM PAT PUB 5.678,79 567,88 0,00 4.900,03 0,00 0,00 11.146,70 750,10 659,51 0,00 1.409,61 9.737,09 1.550,00 1.081,85 31/12/2019
1012 458200 FLAVIO AUGUSTO BRAGA SOARES ANALISTA DO MP ATIVO BELO HORIZONTE - COMARCA; DIVISAO DE CONTROLE IMOBILIARIO 10.279,98 1.028,00 0,00 2.511,84 0,00 0,00 13.819,82 1.283,09 1.898,27 0,00 3.181,36 10.638,46 1.550,00 673,77 31/12/2019
1013 516500 FLAVIO AUGUSTO RODRIGUES CORREA ANALISTA DO MP ATIVO BELO HORIZONTE - COMARCA; COORD REG BACIAS RIO VELHAS E PARAOPEBA 9.337,87 933,79 0,00 7.497,15 0,00 0,00 17.768,81 1.233,41 1.644,63 0,00 2.878,04 14.890,77 2.319,39 1.778,91 31/12/2019
1014 84300 FLAVIO DE FARIA BELTRAO OFICIAL DO MP ATIVO BELO HORIZONTE - COMARCA; DIRETORIA DE ADMINISTRACAO FINANCEIRA 22.030,87 17.624,70 0,00 23.751,36 0,00 0,00 63.406,93 3.900,84 7.810,02 4.193,35 15.904,21 47.502,72 1.550,00 0,00 31/12/2019
1015 266600 FLAVIO GUIMARAES LANA ANALISTA DO MP ATIVO BELO HORIZONTE - COMARCA; CENTRAL DE APOIO TECN-SETOR DE MEIO AMBIENTE 11.685,57 3.505,67 0,00 3.075,88 0,00 0,00 18.267,12 1.671,04 2.848,70 0,00 4.519,74 13.747,38 1.550,00 0,00 31/12/2019
1016 552600 FLAVIO HENRIQUE EVARISTO GOMES ASSESSOR/ANALISTA ATIVO BELO HORIZONTE - COMARCA; DIRETORIA DE SUPORTE E MANUTENCAO 0,00 964,19 9.641,94 2.539,57 0,00 0,00 13.145,70 976,49 1.778,79 0,00 2.755,28 10.390,42 2.319,39 0,00 31/12/2019
1017 640000 FLAVIO HENRIQUE PEREIRA VELOSO OFICIAL DO MP ATIVO BELO HORIZONTE - COMARCA; DIVISÃO DE FISCALIZAÇÃO DAS RELAÇÕES DE CONSU 4.058,04 243,48 0,00 1.863,50 0,00 0,00 6.165,02 503,00 552,01 0,00 1.055,01 5.110,01 1.550,00 1.611,45 31/12/2019
1018 241500 FLAVIO HENRIQUE SILVA MARTINS LAGE OFICIAL DO MP ATIVO BELO HORIZONTE - COMARCA; CAO-CRIANCAS E ADOLESCENTES-SECRETARIA 9.337,87 3.735,15 0,00 2.974,31 0,00 0,00 16.047,33 1.483,37 2.330,26 0,00 3.813,63 12.233,70 1.550,00 779,00 31/12/2019
1019 86700 FLAVIO LUCAS TOMAZ AGENTE DO MP ATIVO BELO HORIZONTE - COMARCA; DIVISÃO DE FISCALIZAÇÃO DAS RELAÇÕES DE CONSU 7.576,76 5.303,73 0,00 3.295,67 0,00 0,00 16.176,16 1.546,68 1.618,42 0,00 3.165,10 13.011,06 2.022,12 2.230,77 31/12/2019
1020 407200 FLAVIO LUCIO MONTEIRO PENA ANALISTA DO MP ATIVO BELO HORIZONTE - COMARCA; DIR CONTEUDO JORNALISTICO 9.337,87 1.867,57 0,00 2.496,95 0,00 0,00 13.702,39 1.232,60 1.873,17 0,00 3.105,77 10.596,62 2.319,39 0,00 31/12/2019
1021 451700 FLAVIO MAGALHAES PEREIRA ANALISTA DO MP ATIVO BELO HORIZONTE - COMARCA; BH-12PJ JUIZO CRIMINAL-GAB 098PJ 9.337,87 933,79 0,00 2.361,32 0,00 0,00 12.632,98 1.129,88 1.644,63 0,00 2.774,51 9.858,47 2.319,39 0,00 31/12/2019
1022 481500 FLAVIO NEVES GUELBER DE MACEDO OFICIAL DO MP ATIVO SÃO JOÃO NEPOMUCENO - COMARCA; SAO JOAO NEPOMUCENO-PJ-02PJ 5.678,79 567,88 0,00 1.776,69 0,00 0,00 8.023,36 708,79 659,51 0,00 1.368,30 6.655,06 1.550,00 372,16 31/12/2019
1023 547500 FRANCELINO MOREIRA DA SILVA ANALISTA DO MP ATIVO BELO HORIZONTE - COMARCA; BH-10PJ EXECUÇÃO PENAL 7.823,48 782,35 0,00 2.255,05 0,00 0,00 10.860,88 976,49 1.236,92 0,00 2.213,41 8.647,47 3.472,93 512,93 31/12/2019
1024 278100 FRANCIANE MARY DE SOUZA ANALISTA DO MP ATIVO BELO HORIZONTE - COMARCA; BH-12PJ JUIZO CRIMINAL-GAB 083PJ 14.941,94 4.482,58 0,00 3.690,77 0,00 0,00 23.115,29 2.218,07 3.884,79 0,00 6.102,86 17.012,43 1.550,00 1.398,11 31/12/2019
1025 646500 FRANCIELLE CAROLINE PEREIRA DOS SANTOS ASSESSOR ATIVO BELO HORIZONTE - COMARCA; CENT DE ATENDIMENTO E ORIENTACAO DE PESSOAL 0,00 0,00 2.852,73 1.388,68 0,00 0,00 4.241,41 691,55 144,45 0,00 836,00 3.405,41 1.550,00 0,00 31/12/2019
1026 192501 FRANCIELLE REIS DE OLIVEIRA ANALISTA DO MP ATIVO PASSOS - COMARCA; PASSOS-PJ-04PJ 15.533,57 4.660,07 0,00 4.798,14 0,00 0,00 24.991,78 2.402,32 3.968,76 0,00 6.371,08 18.620,70 1.550,00 3.110,24 31/12/2019
1027 645100 FRANCIELY CRISTINA COSTA TARQUINIO ASSESSOR ATIVO BELO HORIZONTE - COMARCA; CHEFIA DE GABINETE 0,00 0,00 4.763,08 4.445,40 0,00 0,00 9.208,48 1.166,28 566,34 0,00 1.732,62 7.475,86 1.550,00 0,00 31/12/2019
1028 523600 FRANCINE MOURA LIMIRIO OFICIAL DO MP ATIVO UBERABA - COMARCA; UBERABA-PJ-02PJ 6.054,65 605,47 0,00 5.166,80 0,00 0,00 11.826,92 755,71 760,71 0,00 1.516,42 10.310,50 1.550,00 466,97 31/12/2019
1029 467200 FRANCINI RENNO ANALISTA DO MP ATIVO CASSIA - COMARCA; CASSIA-PJ-01PJ 9.337,87 933,79 0,00 2.361,32 0,00 0,00 12.632,98 1.129,88 1.644,63 0,00 2.774,51 9.858,47 1.550,00 0,00 31/12/2019
1030 189300 FRANCIS BERNARDO DO NASCIMENTO OFICIAL DO MP ATIVO VARGINHA - COMARCA; VARGINHA-PJ-05PJ 13.283,29 5.313,32 0,00 3.674,78 0,00 0,00 22.271,39 2.233,10 3.577,89 0,00 5.810,99 16.460,40 2.319,39 3.220,99 31/12/2019
1031 207800 FRANCISCO CAMPOS PIRES DE MORAIS ANALISTA DO MP ATIVO BELO HORIZONTE - COMARCA; CENTRAL DE APOIO TECN-SETOR DE MEIO AMBIENTE 17.452,52 6.981,01 0,00 4.216,97 0,00 0,00 28.650,50 2.879,67 5.058,61 0,00 7.938,28 20.712,22 1.550,00 3.298,52 31/12/2019
1032 204600 FRANCISCO FERREIRA NOVAIS OFICIAL DO MP ATIVO IPATINGA - COMARCA; IPATINGA-PJ-08PJ 10.789,03 4.526,86 0,00 4.001,00 0,00 0,00 19.316,89 1.902,57 2.758,95 0,00 4.661,52 14.655,37 1.550,00 2.744,37 31/12/2019
1033 411600 FRANCISCO PAIVA BRITO ANALISTA DO MP ATIVO BELO HORIZONTE - COMARCA; BH-07PJ 01 TRIBUNAL DO JURI 9.337,87 1.867,57 0,00 2.496,95 0,00 0,00 13.702,39 1.232,60 1.873,17 0,00 3.105,77 10.596,62 1.550,00 0,00 31/12/2019
1034 515800 FRANCISCO RAFAEL DA SILVA NETO ANALISTA DO MP ATIVO SACRAMENTO - COMARCA; SACRAMENTO-PJ-01PJ 7.823,48 782,35 0,00 2.223,63 0,00 0,00 10.829,46 1.033,40 1.132,64 0,00 2.166,04 8.663,42 1.550,00 1.490,62 31/12/2019
1035 515200 FRANCISLEI ELIAS GONCALVES OFICIAL DO MP ATIVO PASSOS - COMARCA; PASSOS-PJ-07PJ 5.499,78 1.649,93 0,00 2.064,26 0,00 0,00 9.213,97 858,55 724,12 0,00 1.582,67 7.631,30 1.550,00 1.238,48 31/12/2019
1036 443600 FRANCISLEI MARTINS DE SOUSA ANALISTA DO MP ATIVO TIMÓTEO - COMARCA; TIMOTEO-PJ-01PJ 9.337,87 1.867,57 0,00 2.963,84 3.735,15 0,00 17.904,43 1.232,60 2.900,34 0,00 4.132,94 13.771,49 3.088,78 0,00 31/12/2019
1037 424500 FREDERICO AUGUSTO COBRA MULLER ANALISTA DO MP ATIVO POUSO ALEGRE - COMARCA; POUSO ALEGRE-PJ-06PJ 9.337,87 1.867,57 0,00 4.049,84 0,00 0,00 15.255,28 1.232,60 1.873,17 0,00 3.105,77 12.149,51 1.550,00 0,00 31/12/2019
1038 473100 FREDERICO AUGUSTO LIMA FELICIO ANALISTA DO MP ATIVO CONCEIÇÃO DO MATO DENTRO - COMARCA; CONCEICAO DO MATO DENTRO-PJ-UNPJ 9.337,87 933,79 0,00 2.361,32 0,00 0,00 12.632,98 1.129,88 1.644,63 0,00 2.774,51 9.858,47 1.550,00 0,00 31/12/2019
1039 124200 FREDERICO DE SOUZA ROCHA OFICIAL DO MP ATIVO ESPINOSA - COMARCA; ESPINOSA-PJ-SECRETARIA 14.372,91 11.498,32 0,00 6.794,66 0,00 2.845,84 35.511,73 3.061,59 6.140,95 0,00 9.202,54 26.309,19 2.045,51 4.129,79 31/12/2019
1040 177100 FREDERICO FERNANDES DE ANDRADE OFICIAL DO MP ATIVO BELO HORIZONTE - COMARCA; SUPERINTENDENCIA DE TECNOLOGIA DA INFORMACAO 11.685,57 4.674,23 0,00 3.315,34 0,00 0,00 19.675,14 1.980,80 3.134,70 0,00 5.115,50 14.559,64 1.550,00 3.503,28 31/12/2019
1041 456200 FREDERICO FERNANDES PASSOS ANALISTA DO MP ATIVO BELO HORIZONTE - COMARCA; DIRETORIA DE REDES E BANCOS DE DADOS 10.279,98 1.028,00 0,00 2.511,84 0,00 0,00 13.819,82 1.283,09 1.898,27 0,00 3.181,36 10.638,46 2.319,39 673,77 31/12/2019
1042 400900 FREDERICO LUCIANO BORGES REIS ANALISTA DO MP ATIVO BELO HORIZONTE - COMARCA; DIRETORIA DE SISTEMAS DE INFORMACAO 11.685,57 2.337,11 0,00 3.231,47 0,00 0,00 17.254,15 1.591,12 2.458,42 0,00 4.049,54 13.204,61 2.319,39 835,55 31/12/2019
1043 466200 FREDERICO LUIS FERNANDES ANALISTA DO MP ATIVO BELO HORIZONTE - COMARCA; BH-12PJ JUIZO CRIMINAL-GAB 097PJ 9.337,87 933,79 0,00 2.413,46 0,00 0,00 12.685,12 1.129,88 1.592,49 0,00 2.722,37 9.962,75 1.550,00 0,00 31/12/2019
1044 419700 FREDERICO MECKLER SANTOS ANALISTA DO MP ATIVO CLÁUDIO - COMARCA; CLAUDIO-PJ-UNPJ 11.317,16 2.263,43 0,00 3.516,39 0,00 0,00 17.096,98 1.630,77 2.402,35 0,00 4.033,12 13.063,86 1.550,00 2.444,64 31/12/2019
1045 621700 GABRIEL ANDRADE SOUZA GROSSI RIBEIRO OFICIAL DO MP ATIVO BETIM - COMARCA; BETIM-PJ-SECRETARIA 4.467,49 446,75 0,00 1.874,96 0,00 0,00 6.789,20 588,31 347,95 0,00 936,26 5.852,94 1.550,00 820,30 31/12/2019
1046 613600 GABRIEL BASTOS MEIRELES ANALISTA DO MP ATIVO BELO HORIZONTE - COMARCA; BH-16PJ HABITACAO E URBANISMO 6.882,47 688,25 0,00 2.315,91 0,00 0,00 9.886,63 906,32 983,57 0,00 1.889,89 7.996,74 1.550,00 1.263,60 31/12/2019
1047 617900 GABRIELA CIRILA ROQUE ANALISTA DO MP ATIVO ITABIRA - COMARCA; ITABIRA-PJ-04PJ 7.576,76 757,68 0,00 2.599,45 0,00 0,00 10.933,89 997,74 1.170,49 0,00 2.168,23 8.765,66 2.319,39 1.636,27 31/12/2019
1048 386800 GABRIELA SIMOES CHAVES ANALISTA DO MP ATIVO BELO HORIZONTE - COMARCA; DIRETORIA GESTAO COMPRAS LICITACOES 11.685,57 2.337,11 0,00 2.906,16 0,00 0,00 16.928,84 1.591,12 2.562,69 0,00 4.153,81 12.775,03 3.088,78 835,55 31/12/2019
1049 248600 GABRIELA TERESA DIAS DE MORAIS ANALISTA DO MP ATIVO BELO HORIZONTE - COMARCA; ASSESS TECNICO-JUR JUNTO AS PROC. DE JUST 17.452,52 5.235,76 0,00 6.969,20 0,00 0,00 29.657,48 2.495,71 4.683,60 0,00 7.179,31 22.478,17 1.550,00 0,00 31/12/2019
1050 449700 GABRIELE COSTA FERREIRA OFICIAL DO MP ATIVO BELO HORIZONTE - COMARCA; DIRETORIA DE ADMINISTRACAO FINANCEIRA 6.054,65 605,47 0,00 1.836,74 0,00 0,00 8.496,86 755,71 760,71 0,00 1.516,42 6.980,44 1.550,00 396,96 31/12/2019
1051 470600 GABRIELLA SPIRANDELLI COIMBRA ANALISTA DO MP ATIVO UBERLÂNDIA - COMARCA; UBERLANDIA-PJ-18PJ 9.337,87 933,79 0,00 2.361,32 0,00 0,00 12.632,98 1.129,88 1.644,63 0,00 2.774,51 9.858,47 1.550,00 0,00 31/12/2019
1052 86000 GASPAR GOMES DE SOUSA AGENTE DO MP ATIVO BELO HORIZONTE - COMARCA; BH-15PJ M AMB PAT HIST CULT-RECEPCAO 22.030,87 19.827,79 0,00 8.848,36 0,00 3.900,84 54.607,86 3.900,84 8.882,75 6.396,44 19.180,03 35.427,83 1.550,00 0,00 31/12/2019
1053 183100 GECIELLE FERNANDA SILVA OFICIAL DO MP ATIVO PITANGUI - COMARCA; PITANGUI-PJ-02PJ 13.283,29 5.313,32 0,00 3.377,58 0,00 0,00 21.974,19 2.365,83 3.682,16 0,00 6.047,99 15.926,20 1.550,00 5.501,46 31/12/2019
1054 387300 GEOFFREY GIULLIANO OLIVEIRA ALMEIDA ANALISTA DO MP ATIVO BOCAIÚVA - COMARCA; BOCAIUVA-PJ-02PJ 9.337,87 1.867,57 0,00 2.496,95 0,00 0,00 13.702,39 1.232,60 1.873,17 0,00 3.105,77 10.596,62 1.550,00 0,00 31/12/2019
1055 277700 GEORGIA CRISTINA BASILIO MEDRADO ANALISTA DO MP ATIVO BELO HORIZONTE - COMARCA; SERVICO MEDICO-DEPTO PERIC MEDICA SAUDE OCUP 15.533,57 4.660,07 0,00 4.947,04 0,00 0,00 25.140,68 2.417,40 4.266,61 0,00 6.684,01 18.456,67 1.550,00 4.262,94 31/12/2019
1056 618000 GEOVANE BUENO GUERRA ANALISTA DO MP ATIVO BELO HORIZONTE - COMARCA; CAO-SAUDE 6.882,47 688,25 0,00 2.315,91 0,00 0,00 9.886,63 906,32 983,57 0,00 1.889,89 7.996,74 1.550,00 1.263,60 31/12/2019
1057 605200 GEOVANI PREZOTI TONUSSI ANALISTA DO MP ATIVO SANTOS DUMONT - COMARCA; SANTOS DUMONT-PJ-03PJ 7.576,76 757,68 0,00 6.247,16 0,00 0,00 14.581,60 1.000,80 1.170,49 0,00 2.171,29 12.410,31 1.550,00 1.443,43 31/12/2019
1058 512100 GEOVANI VICENTIN ANALISTA DO MP ATIVO SANTA RITA DE CALDAS - COMARCA; SANTA RITA DE CALDAS-PJ-UNPJ 9.337,87 933,79 0,00 7.497,15 0,00 0,00 17.768,81 1.233,41 1.644,63 0,00 2.878,04 14.890,77 2.319,39 1.778,91 31/12/2019
1059 116300 GEOVANNA DAS GRACAS ROSA REQUEIJO AGENTE DO MP ATIVO SANTA LUZIA - COMARCA; SANTA LUZIA-PJ-01PJ 17.452,52 8.726,26 0,00 4.776,10 0,00 0,00 30.954,88 2.879,67 5.433,62 0,00 8.313,29 22.641,59 1.550,00 0,00 31/12/2019
1060 274901 GERALDO ANDRE DE OLIVEIRA ANALISTA DO MP ATIVO CONTAGEM - COMARCA; CONTAGEM-PJ-18PJ 8.758,36 2.627,51 0,00 2.702,64 0,00 0,00 14.088,51 1.291,94 1.917,33 0,00 3.209,27 10.879,24 2.319,39 678,47 31/12/2019
1061 270900 GERALDO BATISTA BRITES OFICIAL DO MP ATIVO BOM DESPACHO - COMARCA; BOM DESPACHO-PJ-02PJ 9.337,87 3.735,15 0,00 3.530,75 0,00 0,00 16.603,77 1.480,13 2.225,99 0,00 3.706,12 12.897,65 1.550,00 723,36 31/12/2019
1062 204200 GERALDO CELIO ARAUJO SOARES OFICIAL DO MP ATIVO GOVERNADOR VALADARES - COMARCA; GOVERNADOR VALADARES-PJ-04PJ 13.283,29 5.313,32 0,00 3.622,65 0,00 0,00 22.219,26 2.233,10 3.630,02 0,00 5.863,12 16.356,14 1.550,00 3.220,99 31/12/2019
1063 66900 GERALDO DIAS CYRINO OFICIAL DO MP ATIVO BELO HORIZONTE - COMARCA; DIVISAO DE ATENDIMENTO E CONSULTA JURIDICA 17.452,52 13.962,02 0,00 7.937,63 10.471,51 3.455,60 53.279,28 3.455,60 10.649,30 0,00 14.104,90 39.174,38 1.550,00 0,00 31/12/2019
1064 366500 GERALDO LEVY ROMUALDO DA SILVA OFICIAL DO MP ATIVO RIO POMBA - COMARCA; RIO POMBA-PJ-SECRETARIA 5.678,79 1.135,76 0,00 1.911,31 0,00 0,00 8.725,86 749,60 746,36 0,00 1.495,96 7.229,90 1.550,00 0,00 31/12/2019
1065 124400 GERALDO MAURICIO DE FARIA ROCHA OFICIAL DO MP ATIVO BELO HORIZONTE - COMARCA; BH-13ª PJ JUÍXO DE TÓXICOS 9.337,87 7.470,30 0,00 5.857,41 0,00 0,00 22.665,58 1.848,90 3.522,51 0,00 5.371,41 17.294,17 1.550,00 1.011,17 31/12/2019
1066 472800 GERALDO MONTEIRO CAMARGO JUNIOR ANALISTA DO MP ATIVO ESPINOSA - COMARCA; ESPINOSA-PJ-UNPJ 8.758,36 2.627,51 0,00 2.575,29 0,00 0,00 13.961,16 1.291,94 1.865,19 0,00 3.157,13 10.804,03 1.550,00 678,47 31/12/2019
1067 124500 GERALDO ROGERIO GOMES SILVEIRA ASSESSOR/OFICIAL ATIVO BELO HORIZONTE - COMARCA; SUPERINTENDENCIA GESTÃO DE PESSOAS 14.941,94 17.646,35 0,00 9.460,95 0,00 3.122,86 45.172,10 3.235,53 8.092,42 0,00 11.327,95 33.844,15 1.550,00 1.538,13 31/12/2019
1068 445900 GERALDO TAVARES FERREIRA ANALISTA DO MP ATIVO DIVINÓPOLIS - COMARCA; DIVINOPOLIS-PJ-08PJ 9.337,87 1.867,57 0,00 2.361,32 0,00 0,00 13.566,76 1.335,32 1.873,17 0,00 3.208,49 10.358,27 1.550,00 1.764,86 31/12/2019
1069 521000 GERALDO VINICIUS IRENO ANALISTA DO MP ATIVO CURVELO - COMARCA; CURVELO-PJ-01PJ 9.337,87 933,79 0,00 2.884,07 0,00 0,00 13.155,73 1.233,41 1.592,49 0,00 2.825,90 10.329,83 2.319,39 1.778,91 31/12/2019
1070 325400 GERSONI FERREIRA LUCENA OFICIAL DO MP ATIVO POÇOS DE CALDAS - COMARCA; POCOS DE CALDAS-PJ-01PJ 7.955,66 1.591,13 0,00 2.714,00 0,00 0,00 12.260,79 1.067,60 1.679,37 0,00 2.746,97 9.513,82